<?xml version="1.0" encoding="UTF-8" standalone="no" ?>
<gpx xmlns="http://www.topografix.com/GPX/1/1" xmlns:xsi="http://www.w3.org/2001/XMLSchema-instance" xsi:schemaLocation="http://www.topografix.com/GPX/1/1 http://www.topografix.com/GPX/1/1/gpx.xsd" version="1.1" creator="VisuGPX - https://www.visugpx.com">
  <metadata>
    <name>Boucle vers Civrieux </name>
  </metadata>
  <trk>
    <name><![CDATA[Enregistré le 17 sept. 2022 14:40:56]]></name>
    <trkseg>
      <trkpt lat="45.83339" lon="4.70837">
        <ele>312.82455</ele>
        <time>2022-09-17T12:40:59.000Z</time>
      </trkpt>
      <trkpt lat="45.83339" lon="4.70833">
        <ele>312.97775</ele>
        <time>2022-09-17T12:41:02.000Z</time>
      </trkpt>
      <trkpt lat="45.83338" lon="4.70827">
        <ele>314.15784</ele>
        <time>2022-09-17T12:41:04.000Z</time>
      </trkpt>
      <trkpt lat="45.83338" lon="4.70817">
        <ele>315.17276</ele>
        <time>2022-09-17T12:41:06.000Z</time>
      </trkpt>
      <trkpt lat="45.83338" lon="4.70813">
        <ele>315.18365</ele>
        <time>2022-09-17T12:41:07.000Z</time>
      </trkpt>
      <trkpt lat="45.83338" lon="4.70807">
        <ele>315.03409</ele>
        <time>2022-09-17T12:41:08.000Z</time>
      </trkpt>
      <trkpt lat="45.83339" lon="4.70803">
        <ele>314.94559</ele>
        <time>2022-09-17T12:41:09.000Z</time>
      </trkpt>
      <trkpt lat="45.8334" lon="4.708">
        <ele>314.92691</ele>
        <time>2022-09-17T12:41:10.000Z</time>
      </trkpt>
      <trkpt lat="45.8334" lon="4.70797">
        <ele>314.85461</ele>
        <time>2022-09-17T12:41:11.000Z</time>
      </trkpt>
      <trkpt lat="45.83341" lon="4.70793">
        <ele>314.8811</ele>
        <time>2022-09-17T12:41:12.000Z</time>
      </trkpt>
      <trkpt lat="45.83341" lon="4.7079">
        <ele>314.77371</ele>
        <time>2022-09-17T12:41:13.000Z</time>
      </trkpt>
      <trkpt lat="45.83341" lon="4.70786">
        <ele>314.57559</ele>
        <time>2022-09-17T12:41:14.000Z</time>
      </trkpt>
      <trkpt lat="45.83341" lon="4.70782">
        <ele>314.32703</ele>
        <time>2022-09-17T12:41:15.000Z</time>
      </trkpt>
      <trkpt lat="45.83342" lon="4.70778">
        <ele>314.10806</ele>
        <time>2022-09-17T12:41:16.000Z</time>
      </trkpt>
      <trkpt lat="45.83342" lon="4.70775">
        <ele>313.86945</ele>
        <time>2022-09-17T12:41:17.000Z</time>
      </trkpt>
      <trkpt lat="45.83343" lon="4.70771">
        <ele>313.70496</ele>
        <time>2022-09-17T12:41:18.000Z</time>
      </trkpt>
      <trkpt lat="45.83343" lon="4.70767">
        <ele>313.45947</ele>
        <time>2022-09-17T12:41:19.000Z</time>
      </trkpt>
      <trkpt lat="45.83343" lon="4.70763">
        <ele>313.32361</ele>
        <time>2022-09-17T12:41:20.000Z</time>
      </trkpt>
      <trkpt lat="45.83343" lon="4.70759">
        <ele>313.18851</ele>
        <time>2022-09-17T12:41:21.000Z</time>
      </trkpt>
      <trkpt lat="45.83343" lon="4.70756">
        <ele>313.0517</ele>
        <time>2022-09-17T12:41:22.000Z</time>
      </trkpt>
      <trkpt lat="45.83343" lon="4.70753">
        <ele>312.91144</ele>
        <time>2022-09-17T12:41:23.000Z</time>
      </trkpt>
      <trkpt lat="45.83343" lon="4.70749">
        <ele>312.72308</ele>
        <time>2022-09-17T12:41:24.000Z</time>
      </trkpt>
      <trkpt lat="45.83343" lon="4.70745">
        <ele>312.27853</ele>
        <time>2022-09-17T12:41:25.000Z</time>
      </trkpt>
      <trkpt lat="45.83343" lon="4.7074">
        <ele>311.7518</ele>
        <time>2022-09-17T12:41:26.000Z</time>
      </trkpt>
      <trkpt lat="45.83343" lon="4.70736">
        <ele>311.37885</ele>
        <time>2022-09-17T12:41:27.000Z</time>
      </trkpt>
      <trkpt lat="45.83343" lon="4.7073">
        <ele>311.05182</ele>
        <time>2022-09-17T12:41:28.000Z</time>
      </trkpt>
      <trkpt lat="45.83344" lon="4.70723">
        <ele>310.63632</ele>
        <time>2022-09-17T12:41:29.000Z</time>
      </trkpt>
      <trkpt lat="45.83345" lon="4.70717">
        <ele>310.16708</ele>
        <time>2022-09-17T12:41:30.000Z</time>
      </trkpt>
      <trkpt lat="45.83346" lon="4.70711">
        <ele>309.68683</ele>
        <time>2022-09-17T12:41:31.000Z</time>
      </trkpt>
      <trkpt lat="45.83347" lon="4.70706">
        <ele>309.17084</ele>
        <time>2022-09-17T12:41:32.000Z</time>
      </trkpt>
      <trkpt lat="45.83348" lon="4.70699">
        <ele>308.79291</ele>
        <time>2022-09-17T12:41:33.000Z</time>
      </trkpt>
      <trkpt lat="45.83351" lon="4.7069">
        <ele>308.48911</ele>
        <time>2022-09-17T12:41:34.000Z</time>
      </trkpt>
      <trkpt lat="45.83349" lon="4.70683">
        <ele>308.22827</ele>
        <time>2022-09-17T12:41:35.000Z</time>
      </trkpt>
      <trkpt lat="45.8335" lon="4.70674">
        <ele>308.03241</ele>
        <time>2022-09-17T12:41:36.000Z</time>
      </trkpt>
      <trkpt lat="45.8335" lon="4.70668">
        <ele>307.85071</ele>
        <time>2022-09-17T12:41:37.000Z</time>
      </trkpt>
      <trkpt lat="45.83351" lon="4.70659">
        <ele>307.59106</ele>
        <time>2022-09-17T12:41:38.000Z</time>
      </trkpt>
      <trkpt lat="45.83351" lon="4.70649">
        <ele>307.43695</ele>
        <time>2022-09-17T12:41:39.000Z</time>
      </trkpt>
      <trkpt lat="45.83352" lon="4.70639">
        <ele>307.21561</ele>
        <time>2022-09-17T12:41:40.000Z</time>
      </trkpt>
      <trkpt lat="45.83352" lon="4.7063">
        <ele>307.03326</ele>
        <time>2022-09-17T12:41:41.000Z</time>
      </trkpt>
      <trkpt lat="45.83353" lon="4.7062">
        <ele>306.83456</ele>
        <time>2022-09-17T12:41:42.000Z</time>
      </trkpt>
      <trkpt lat="45.83354" lon="4.70611">
        <ele>306.71146</ele>
        <time>2022-09-17T12:41:43.000Z</time>
      </trkpt>
      <trkpt lat="45.83354" lon="4.70602">
        <ele>306.63345</ele>
        <time>2022-09-17T12:41:44.000Z</time>
      </trkpt>
      <trkpt lat="45.83353" lon="4.70593">
        <ele>306.6395</ele>
        <time>2022-09-17T12:41:45.000Z</time>
      </trkpt>
      <trkpt lat="45.83353" lon="4.70585">
        <ele>306.61957</ele>
        <time>2022-09-17T12:41:46.000Z</time>
      </trkpt>
      <trkpt lat="45.83352" lon="4.70574">
        <ele>306.569</ele>
        <time>2022-09-17T12:41:47.000Z</time>
      </trkpt>
      <trkpt lat="45.83351" lon="4.70566">
        <ele>306.53299</ele>
        <time>2022-09-17T12:41:48.000Z</time>
      </trkpt>
      <trkpt lat="45.8335" lon="4.70558">
        <ele>306.57376</ele>
        <time>2022-09-17T12:41:49.000Z</time>
      </trkpt>
      <trkpt lat="45.83349" lon="4.7055">
        <ele>306.60858</ele>
        <time>2022-09-17T12:41:50.000Z</time>
      </trkpt>
      <trkpt lat="45.83349" lon="4.70542">
        <ele>306.65677</ele>
        <time>2022-09-17T12:41:51.000Z</time>
      </trkpt>
      <trkpt lat="45.83349" lon="4.70533">
        <ele>306.62631</ele>
        <time>2022-09-17T12:41:52.000Z</time>
      </trkpt>
      <trkpt lat="45.83349" lon="4.70524">
        <ele>306.48651</ele>
        <time>2022-09-17T12:41:53.000Z</time>
      </trkpt>
      <trkpt lat="45.83348" lon="4.70515">
        <ele>306.30295</ele>
        <time>2022-09-17T12:41:54.000Z</time>
      </trkpt>
      <trkpt lat="45.83347" lon="4.70504">
        <ele>306.13373</ele>
        <time>2022-09-17T12:41:55.000Z</time>
      </trkpt>
      <trkpt lat="45.83347" lon="4.70499">
        <ele>305.87479</ele>
        <time>2022-09-17T12:41:56.000Z</time>
      </trkpt>
      <trkpt lat="45.83345" lon="4.70489">
        <ele>305.68542</ele>
        <time>2022-09-17T12:41:57.000Z</time>
      </trkpt>
      <trkpt lat="45.83345" lon="4.7048">
        <ele>305.54431</ele>
        <time>2022-09-17T12:41:58.000Z</time>
      </trkpt>
      <trkpt lat="45.83345" lon="4.70473">
        <ele>305.42395</ele>
        <time>2022-09-17T12:41:59.000Z</time>
      </trkpt>
      <trkpt lat="45.83343" lon="4.70462">
        <ele>305.22128</ele>
        <time>2022-09-17T12:42:00.000Z</time>
      </trkpt>
      <trkpt lat="45.83341" lon="4.70455">
        <ele>305.06543</ele>
        <time>2022-09-17T12:42:01.000Z</time>
      </trkpt>
      <trkpt lat="45.83339" lon="4.70445">
        <ele>304.991</ele>
        <time>2022-09-17T12:42:02.000Z</time>
      </trkpt>
      <trkpt lat="45.83338" lon="4.70436">
        <ele>304.82855</ele>
        <time>2022-09-17T12:42:03.000Z</time>
      </trkpt>
      <trkpt lat="45.83337" lon="4.70425">
        <ele>304.6554</ele>
        <time>2022-09-17T12:42:04.000Z</time>
      </trkpt>
      <trkpt lat="45.83336" lon="4.70414">
        <ele>304.46042</ele>
        <time>2022-09-17T12:42:05.000Z</time>
      </trkpt>
      <trkpt lat="45.83335" lon="4.70405">
        <ele>304.25226</ele>
        <time>2022-09-17T12:42:06.000Z</time>
      </trkpt>
      <trkpt lat="45.83334" lon="4.70396">
        <ele>304.07574</ele>
        <time>2022-09-17T12:42:07.000Z</time>
      </trkpt>
      <trkpt lat="45.83333" lon="4.70385">
        <ele>303.90225</ele>
        <time>2022-09-17T12:42:08.000Z</time>
      </trkpt>
      <trkpt lat="45.83331" lon="4.70376">
        <ele>303.80365</ele>
        <time>2022-09-17T12:42:09.000Z</time>
      </trkpt>
      <trkpt lat="45.83331" lon="4.70367">
        <ele>303.77542</ele>
        <time>2022-09-17T12:42:10.000Z</time>
      </trkpt>
      <trkpt lat="45.83332" lon="4.70358">
        <ele>303.67914</ele>
        <time>2022-09-17T12:42:11.000Z</time>
      </trkpt>
      <trkpt lat="45.83331" lon="4.70348">
        <ele>303.65436</ele>
        <time>2022-09-17T12:42:12.000Z</time>
      </trkpt>
      <trkpt lat="45.83331" lon="4.70338">
        <ele>303.72772</ele>
        <time>2022-09-17T12:42:13.000Z</time>
      </trkpt>
      <trkpt lat="45.83329" lon="4.70328">
        <ele>303.8443</ele>
        <time>2022-09-17T12:42:14.000Z</time>
      </trkpt>
      <trkpt lat="45.83328" lon="4.70319">
        <ele>303.94067</ele>
        <time>2022-09-17T12:42:15.000Z</time>
      </trkpt>
      <trkpt lat="45.8333" lon="4.7031">
        <ele>304.07001</ele>
        <time>2022-09-17T12:42:16.000Z</time>
      </trkpt>
      <trkpt lat="45.83331" lon="4.703">
        <ele>304.15942</ele>
        <time>2022-09-17T12:42:17.000Z</time>
      </trkpt>
      <trkpt lat="45.83334" lon="4.70291">
        <ele>304.26175</ele>
        <time>2022-09-17T12:42:18.000Z</time>
      </trkpt>
      <trkpt lat="45.83337" lon="4.70284">
        <ele>304.31186</ele>
        <time>2022-09-17T12:42:19.000Z</time>
      </trkpt>
      <trkpt lat="45.83341" lon="4.70275">
        <ele>304.40274</ele>
        <time>2022-09-17T12:42:20.000Z</time>
      </trkpt>
      <trkpt lat="45.83344" lon="4.70266">
        <ele>304.45096</ele>
        <time>2022-09-17T12:42:21.000Z</time>
      </trkpt>
      <trkpt lat="45.83347" lon="4.70256">
        <ele>304.48196</ele>
        <time>2022-09-17T12:42:22.000Z</time>
      </trkpt>
      <trkpt lat="45.8335" lon="4.70248">
        <ele>304.54974</ele>
        <time>2022-09-17T12:42:23.000Z</time>
      </trkpt>
      <trkpt lat="45.83353" lon="4.7024">
        <ele>304.65085</ele>
        <time>2022-09-17T12:42:24.000Z</time>
      </trkpt>
      <trkpt lat="45.83356" lon="4.70232">
        <ele>304.73141</ele>
        <time>2022-09-17T12:42:25.000Z</time>
      </trkpt>
      <trkpt lat="45.8336" lon="4.70225">
        <ele>304.80713</ele>
        <time>2022-09-17T12:42:26.000Z</time>
      </trkpt>
      <trkpt lat="45.83363" lon="4.70216">
        <ele>304.84784</ele>
        <time>2022-09-17T12:42:27.000Z</time>
      </trkpt>
      <trkpt lat="45.83366" lon="4.70207">
        <ele>304.82144</ele>
        <time>2022-09-17T12:42:28.000Z</time>
      </trkpt>
      <trkpt lat="45.83369" lon="4.70198">
        <ele>304.71741</ele>
        <time>2022-09-17T12:42:29.000Z</time>
      </trkpt>
      <trkpt lat="45.83372" lon="4.70189">
        <ele>304.56113</ele>
        <time>2022-09-17T12:42:30.000Z</time>
      </trkpt>
      <trkpt lat="45.83374" lon="4.70181">
        <ele>304.49796</ele>
        <time>2022-09-17T12:42:31.000Z</time>
      </trkpt>
      <trkpt lat="45.83377" lon="4.70173">
        <ele>304.44617</ele>
        <time>2022-09-17T12:42:32.000Z</time>
      </trkpt>
      <trkpt lat="45.83379" lon="4.70165">
        <ele>304.35635</ele>
        <time>2022-09-17T12:42:33.000Z</time>
      </trkpt>
      <trkpt lat="45.83381" lon="4.70156">
        <ele>304.25479</ele>
        <time>2022-09-17T12:42:34.000Z</time>
      </trkpt>
      <trkpt lat="45.83382" lon="4.70147">
        <ele>304.23798</ele>
        <time>2022-09-17T12:42:35.000Z</time>
      </trkpt>
      <trkpt lat="45.83384" lon="4.70138">
        <ele>304.24094</ele>
        <time>2022-09-17T12:42:36.000Z</time>
      </trkpt>
      <trkpt lat="45.83386" lon="4.70128">
        <ele>304.26495</ele>
        <time>2022-09-17T12:42:37.000Z</time>
      </trkpt>
      <trkpt lat="45.83388" lon="4.70118">
        <ele>304.32657</ele>
        <time>2022-09-17T12:42:38.000Z</time>
      </trkpt>
      <trkpt lat="45.8339" lon="4.70109">
        <ele>304.4007</ele>
        <time>2022-09-17T12:42:39.000Z</time>
      </trkpt>
      <trkpt lat="45.83392" lon="4.701">
        <ele>304.51422</ele>
        <time>2022-09-17T12:42:40.000Z</time>
      </trkpt>
      <trkpt lat="45.83393" lon="4.70087">
        <ele>304.59781</ele>
        <time>2022-09-17T12:42:41.000Z</time>
      </trkpt>
      <trkpt lat="45.83393" lon="4.70077">
        <ele>304.61273</ele>
        <time>2022-09-17T12:42:42.000Z</time>
      </trkpt>
      <trkpt lat="45.83394" lon="4.70066">
        <ele>304.50201</ele>
        <time>2022-09-17T12:42:43.000Z</time>
      </trkpt>
      <trkpt lat="45.83395" lon="4.70055">
        <ele>304.31464</ele>
        <time>2022-09-17T12:42:44.000Z</time>
      </trkpt>
      <trkpt lat="45.83396" lon="4.70042">
        <ele>304.1398</ele>
        <time>2022-09-17T12:42:45.000Z</time>
      </trkpt>
      <trkpt lat="45.83397" lon="4.7003">
        <ele>303.97076</ele>
        <time>2022-09-17T12:42:46.000Z</time>
      </trkpt>
      <trkpt lat="45.83397" lon="4.70019">
        <ele>303.8302</ele>
        <time>2022-09-17T12:42:47.000Z</time>
      </trkpt>
      <trkpt lat="45.83398" lon="4.70007">
        <ele>303.67645</ele>
        <time>2022-09-17T12:42:48.000Z</time>
      </trkpt>
      <trkpt lat="45.834" lon="4.69994">
        <ele>303.46014</ele>
        <time>2022-09-17T12:42:49.000Z</time>
      </trkpt>
      <trkpt lat="45.83401" lon="4.69982">
        <ele>303.24927</ele>
        <time>2022-09-17T12:42:50.000Z</time>
      </trkpt>
      <trkpt lat="45.83401" lon="4.69972">
        <ele>302.96899</ele>
        <time>2022-09-17T12:42:51.000Z</time>
      </trkpt>
      <trkpt lat="45.83402" lon="4.69961">
        <ele>302.64749</ele>
        <time>2022-09-17T12:42:52.000Z</time>
      </trkpt>
      <trkpt lat="45.83404" lon="4.69951">
        <ele>302.29919</ele>
        <time>2022-09-17T12:42:53.000Z</time>
      </trkpt>
      <trkpt lat="45.83405" lon="4.6994">
        <ele>302.01898</ele>
        <time>2022-09-17T12:42:54.000Z</time>
      </trkpt>
      <trkpt lat="45.83404" lon="4.69928">
        <ele>301.65604</ele>
        <time>2022-09-17T12:42:55.000Z</time>
      </trkpt>
      <trkpt lat="45.83401" lon="4.69919">
        <ele>301.27716</ele>
        <time>2022-09-17T12:42:56.000Z</time>
      </trkpt>
      <trkpt lat="45.83397" lon="4.69911">
        <ele>300.85748</ele>
        <time>2022-09-17T12:42:57.000Z</time>
      </trkpt>
      <trkpt lat="45.83393" lon="4.69905">
        <ele>300.32416</ele>
        <time>2022-09-17T12:42:58.000Z</time>
      </trkpt>
      <trkpt lat="45.8339" lon="4.69899">
        <ele>299.83463</ele>
        <time>2022-09-17T12:42:59.000Z</time>
      </trkpt>
      <trkpt lat="45.83387" lon="4.69891">
        <ele>299.37933</ele>
        <time>2022-09-17T12:43:00.000Z</time>
      </trkpt>
      <trkpt lat="45.83388" lon="4.69884">
        <ele>298.95648</ele>
        <time>2022-09-17T12:43:01.000Z</time>
      </trkpt>
      <trkpt lat="45.8339" lon="4.69879">
        <ele>298.56934</ele>
        <time>2022-09-17T12:43:02.000Z</time>
      </trkpt>
      <trkpt lat="45.83391" lon="4.69876">
        <ele>298.29059</ele>
        <time>2022-09-17T12:43:03.000Z</time>
      </trkpt>
      <trkpt lat="45.83393" lon="4.69873">
        <ele>297.99765</ele>
        <time>2022-09-17T12:43:04.000Z</time>
      </trkpt>
      <trkpt lat="45.83395" lon="4.69871">
        <ele>297.77277</ele>
        <time>2022-09-17T12:43:06.000Z</time>
      </trkpt>
      <trkpt lat="45.83398" lon="4.69869">
        <ele>297.59494</ele>
        <time>2022-09-17T12:43:08.000Z</time>
      </trkpt>
      <trkpt lat="45.83399" lon="4.69868">
        <ele>297.38156</ele>
        <time>2022-09-17T12:43:09.000Z</time>
      </trkpt>
      <trkpt lat="45.83402" lon="4.69865">
        <ele>297.28796</ele>
        <time>2022-09-17T12:43:10.000Z</time>
      </trkpt>
      <trkpt lat="45.83401" lon="4.6986">
        <ele>297.28857</ele>
        <time>2022-09-17T12:43:11.000Z</time>
      </trkpt>
      <trkpt lat="45.83401" lon="4.69856">
        <ele>297.30719</ele>
        <time>2022-09-17T12:43:12.000Z</time>
      </trkpt>
      <trkpt lat="45.83399" lon="4.69853">
        <ele>297.36337</ele>
        <time>2022-09-17T12:43:13.000Z</time>
      </trkpt>
      <trkpt lat="45.83397" lon="4.69849">
        <ele>297.44672</ele>
        <time>2022-09-17T12:43:14.000Z</time>
      </trkpt>
      <trkpt lat="45.83395" lon="4.69845">
        <ele>297.50909</ele>
        <time>2022-09-17T12:43:15.000Z</time>
      </trkpt>
      <trkpt lat="45.83394" lon="4.6984">
        <ele>297.5163</ele>
        <time>2022-09-17T12:43:16.000Z</time>
      </trkpt>
      <trkpt lat="45.83393" lon="4.69836">
        <ele>297.54691</ele>
        <time>2022-09-17T12:43:17.000Z</time>
      </trkpt>
      <trkpt lat="45.83392" lon="4.69832">
        <ele>297.57535</ele>
        <time>2022-09-17T12:43:18.000Z</time>
      </trkpt>
      <trkpt lat="45.83391" lon="4.69829">
        <ele>297.65024</ele>
        <time>2022-09-17T12:43:19.000Z</time>
      </trkpt>
      <trkpt lat="45.8339" lon="4.69824">
        <ele>297.80243</ele>
        <time>2022-09-17T12:43:20.000Z</time>
      </trkpt>
      <trkpt lat="45.83389" lon="4.6982">
        <ele>297.89999</ele>
        <time>2022-09-17T12:43:21.000Z</time>
      </trkpt>
      <trkpt lat="45.83388" lon="4.69816">
        <ele>297.9437</ele>
        <time>2022-09-17T12:43:22.000Z</time>
      </trkpt>
      <trkpt lat="45.83387" lon="4.69812">
        <ele>297.9483</ele>
        <time>2022-09-17T12:43:23.000Z</time>
      </trkpt>
      <trkpt lat="45.83386" lon="4.69808">
        <ele>297.91467</ele>
        <time>2022-09-17T12:43:24.000Z</time>
      </trkpt>
      <trkpt lat="45.83385" lon="4.69803">
        <ele>297.9129</ele>
        <time>2022-09-17T12:43:25.000Z</time>
      </trkpt>
      <trkpt lat="45.83384" lon="4.69799">
        <ele>297.98297</ele>
        <time>2022-09-17T12:43:26.000Z</time>
      </trkpt>
      <trkpt lat="45.83383" lon="4.69794">
        <ele>297.98962</ele>
        <time>2022-09-17T12:43:27.000Z</time>
      </trkpt>
      <trkpt lat="45.83382" lon="4.6979">
        <ele>297.94336</ele>
        <time>2022-09-17T12:43:28.000Z</time>
      </trkpt>
      <trkpt lat="45.83381" lon="4.69785">
        <ele>297.91949</ele>
        <time>2022-09-17T12:43:29.000Z</time>
      </trkpt>
      <trkpt lat="45.8338" lon="4.69781">
        <ele>297.94336</ele>
        <time>2022-09-17T12:43:30.000Z</time>
      </trkpt>
      <trkpt lat="45.83378" lon="4.69776">
        <ele>297.8811</ele>
        <time>2022-09-17T12:43:31.000Z</time>
      </trkpt>
      <trkpt lat="45.83377" lon="4.69772">
        <ele>297.806</ele>
        <time>2022-09-17T12:43:32.000Z</time>
      </trkpt>
      <trkpt lat="45.83376" lon="4.69767">
        <ele>297.71939</ele>
        <time>2022-09-17T12:43:33.000Z</time>
      </trkpt>
      <trkpt lat="45.83376" lon="4.6976">
        <ele>297.64236</ele>
        <time>2022-09-17T12:43:34.000Z</time>
      </trkpt>
      <trkpt lat="45.83375" lon="4.69755">
        <ele>297.61453</ele>
        <time>2022-09-17T12:43:35.000Z</time>
      </trkpt>
      <trkpt lat="45.83374" lon="4.69748">
        <ele>297.55542</ele>
        <time>2022-09-17T12:43:36.000Z</time>
      </trkpt>
      <trkpt lat="45.83373" lon="4.69744">
        <ele>297.41492</ele>
        <time>2022-09-17T12:43:37.000Z</time>
      </trkpt>
      <trkpt lat="45.83371" lon="4.69738">
        <ele>297.28998</ele>
        <time>2022-09-17T12:43:38.000Z</time>
      </trkpt>
      <trkpt lat="45.8337" lon="4.69732">
        <ele>297.12329</ele>
        <time>2022-09-17T12:43:39.000Z</time>
      </trkpt>
      <trkpt lat="45.83369" lon="4.69727">
        <ele>296.92014</ele>
        <time>2022-09-17T12:43:40.000Z</time>
      </trkpt>
      <trkpt lat="45.83367" lon="4.69721">
        <ele>296.70282</ele>
        <time>2022-09-17T12:43:41.000Z</time>
      </trkpt>
      <trkpt lat="45.83366" lon="4.69714">
        <ele>296.55841</ele>
        <time>2022-09-17T12:43:42.000Z</time>
      </trkpt>
      <trkpt lat="45.83365" lon="4.69706">
        <ele>296.41879</ele>
        <time>2022-09-17T12:43:43.000Z</time>
      </trkpt>
      <trkpt lat="45.83364" lon="4.697">
        <ele>296.33655</ele>
        <time>2022-09-17T12:43:44.000Z</time>
      </trkpt>
      <trkpt lat="45.83362" lon="4.69693">
        <ele>296.26355</ele>
        <time>2022-09-17T12:43:45.000Z</time>
      </trkpt>
      <trkpt lat="45.83361" lon="4.69687">
        <ele>296.1514</ele>
        <time>2022-09-17T12:43:46.000Z</time>
      </trkpt>
      <trkpt lat="45.8336" lon="4.69678">
        <ele>296.01263</ele>
        <time>2022-09-17T12:43:47.000Z</time>
      </trkpt>
      <trkpt lat="45.83359" lon="4.69672">
        <ele>295.91943</ele>
        <time>2022-09-17T12:43:48.000Z</time>
      </trkpt>
      <trkpt lat="45.83359" lon="4.69667">
        <ele>295.86746</ele>
        <time>2022-09-17T12:43:49.000Z</time>
      </trkpt>
      <trkpt lat="45.83357" lon="4.69659">
        <ele>295.63416</ele>
        <time>2022-09-17T12:43:50.000Z</time>
      </trkpt>
      <trkpt lat="45.83356" lon="4.69651">
        <ele>295.43716</ele>
        <time>2022-09-17T12:43:51.000Z</time>
      </trkpt>
      <trkpt lat="45.83355" lon="4.69645">
        <ele>295.31421</ele>
        <time>2022-09-17T12:43:52.000Z</time>
      </trkpt>
      <trkpt lat="45.83355" lon="4.69636">
        <ele>295.22839</ele>
        <time>2022-09-17T12:43:53.000Z</time>
      </trkpt>
      <trkpt lat="45.83354" lon="4.69628">
        <ele>295.19357</ele>
        <time>2022-09-17T12:43:54.000Z</time>
      </trkpt>
      <trkpt lat="45.83353" lon="4.69621">
        <ele>295.12704</ele>
        <time>2022-09-17T12:43:55.000Z</time>
      </trkpt>
      <trkpt lat="45.83352" lon="4.69613">
        <ele>295.02042</ele>
        <time>2022-09-17T12:43:56.000Z</time>
      </trkpt>
      <trkpt lat="45.83351" lon="4.69605">
        <ele>294.9837</ele>
        <time>2022-09-17T12:43:57.000Z</time>
      </trkpt>
      <trkpt lat="45.83352" lon="4.69597">
        <ele>294.91327</ele>
        <time>2022-09-17T12:43:58.000Z</time>
      </trkpt>
      <trkpt lat="45.8335" lon="4.69591">
        <ele>294.88568</ele>
        <time>2022-09-17T12:43:59.000Z</time>
      </trkpt>
      <trkpt lat="45.83348" lon="4.69583">
        <ele>294.8941</ele>
        <time>2022-09-17T12:44:00.000Z</time>
      </trkpt>
      <trkpt lat="45.83348" lon="4.69577">
        <ele>294.8793</ele>
        <time>2022-09-17T12:44:01.000Z</time>
      </trkpt>
      <trkpt lat="45.83347" lon="4.69569">
        <ele>294.78781</ele>
        <time>2022-09-17T12:44:02.000Z</time>
      </trkpt>
      <trkpt lat="45.83347" lon="4.69564">
        <ele>294.73767</ele>
        <time>2022-09-17T12:44:03.000Z</time>
      </trkpt>
      <trkpt lat="45.83346" lon="4.69556">
        <ele>294.70688</ele>
        <time>2022-09-17T12:44:04.000Z</time>
      </trkpt>
      <trkpt lat="45.83345" lon="4.6955">
        <ele>294.62457</ele>
        <time>2022-09-17T12:44:05.000Z</time>
      </trkpt>
      <trkpt lat="45.83344" lon="4.69543">
        <ele>294.56863</ele>
        <time>2022-09-17T12:44:06.000Z</time>
      </trkpt>
      <trkpt lat="45.83345" lon="4.69535">
        <ele>294.56689</ele>
        <time>2022-09-17T12:44:07.000Z</time>
      </trkpt>
      <trkpt lat="45.83347" lon="4.6953">
        <ele>294.43915</ele>
        <time>2022-09-17T12:44:08.000Z</time>
      </trkpt>
      <trkpt lat="45.83346" lon="4.69522">
        <ele>294.31696</ele>
        <time>2022-09-17T12:44:09.000Z</time>
      </trkpt>
      <trkpt lat="45.83345" lon="4.69514">
        <ele>294.26666</ele>
        <time>2022-09-17T12:44:10.000Z</time>
      </trkpt>
      <trkpt lat="45.83344" lon="4.69506">
        <ele>294.30469</ele>
        <time>2022-09-17T12:44:11.000Z</time>
      </trkpt>
      <trkpt lat="45.83343" lon="4.69499">
        <ele>294.30594</ele>
        <time>2022-09-17T12:44:12.000Z</time>
      </trkpt>
      <trkpt lat="45.83342" lon="4.69492">
        <ele>294.30978</ele>
        <time>2022-09-17T12:44:13.000Z</time>
      </trkpt>
      <trkpt lat="45.83341" lon="4.69486">
        <ele>294.23508</ele>
        <time>2022-09-17T12:44:14.000Z</time>
      </trkpt>
      <trkpt lat="45.8334" lon="4.69477">
        <ele>294.21552</ele>
        <time>2022-09-17T12:44:15.000Z</time>
      </trkpt>
      <trkpt lat="45.83341" lon="4.69471">
        <ele>294.21106</ele>
        <time>2022-09-17T12:44:16.000Z</time>
      </trkpt>
      <trkpt lat="45.83341" lon="4.69464">
        <ele>294.21057</ele>
        <time>2022-09-17T12:44:17.000Z</time>
      </trkpt>
      <trkpt lat="45.83342" lon="4.69456">
        <ele>294.22833</ele>
        <time>2022-09-17T12:44:18.000Z</time>
      </trkpt>
      <trkpt lat="45.83341" lon="4.69449">
        <ele>294.26843</ele>
        <time>2022-09-17T12:44:19.000Z</time>
      </trkpt>
      <trkpt lat="45.83342" lon="4.69441">
        <ele>294.26788</ele>
        <time>2022-09-17T12:44:20.000Z</time>
      </trkpt>
      <trkpt lat="45.83343" lon="4.69434">
        <ele>294.25015</ele>
        <time>2022-09-17T12:44:21.000Z</time>
      </trkpt>
      <trkpt lat="45.83344" lon="4.69427">
        <ele>294.30432</ele>
        <time>2022-09-17T12:44:22.000Z</time>
      </trkpt>
      <trkpt lat="45.83345" lon="4.6942">
        <ele>294.3353</ele>
        <time>2022-09-17T12:44:23.000Z</time>
      </trkpt>
      <trkpt lat="45.83346" lon="4.69415">
        <ele>294.35583</ele>
        <time>2022-09-17T12:44:24.000Z</time>
      </trkpt>
      <trkpt lat="45.83347" lon="4.69409">
        <ele>294.40945</ele>
        <time>2022-09-17T12:44:25.000Z</time>
      </trkpt>
      <trkpt lat="45.83346" lon="4.69401">
        <ele>294.53287</ele>
        <time>2022-09-17T12:44:26.000Z</time>
      </trkpt>
      <trkpt lat="45.83348" lon="4.69393">
        <ele>294.70685</ele>
        <time>2022-09-17T12:44:27.000Z</time>
      </trkpt>
      <trkpt lat="45.83349" lon="4.69385">
        <ele>294.98834</ele>
        <time>2022-09-17T12:44:28.000Z</time>
      </trkpt>
      <trkpt lat="45.83351" lon="4.69378">
        <ele>295.30011</ele>
        <time>2022-09-17T12:44:29.000Z</time>
      </trkpt>
      <trkpt lat="45.83351" lon="4.6937">
        <ele>295.64435</ele>
        <time>2022-09-17T12:44:30.000Z</time>
      </trkpt>
      <trkpt lat="45.83352" lon="4.69363">
        <ele>295.94452</ele>
        <time>2022-09-17T12:44:31.000Z</time>
      </trkpt>
      <trkpt lat="45.83353" lon="4.69356">
        <ele>296.2095</ele>
        <time>2022-09-17T12:44:32.000Z</time>
      </trkpt>
      <trkpt lat="45.83354" lon="4.69349">
        <ele>296.4523</ele>
        <time>2022-09-17T12:44:33.000Z</time>
      </trkpt>
      <trkpt lat="45.83354" lon="4.69342">
        <ele>296.68509</ele>
        <time>2022-09-17T12:44:34.000Z</time>
      </trkpt>
      <trkpt lat="45.83354" lon="4.69335">
        <ele>296.86209</ele>
        <time>2022-09-17T12:44:35.000Z</time>
      </trkpt>
      <trkpt lat="45.83354" lon="4.69328">
        <ele>297.06918</ele>
        <time>2022-09-17T12:44:36.000Z</time>
      </trkpt>
      <trkpt lat="45.83353" lon="4.69321">
        <ele>297.30194</ele>
        <time>2022-09-17T12:44:37.000Z</time>
      </trkpt>
      <trkpt lat="45.83353" lon="4.69314">
        <ele>297.55469</ele>
        <time>2022-09-17T12:44:38.000Z</time>
      </trkpt>
      <trkpt lat="45.83353" lon="4.69307">
        <ele>297.75476</ele>
        <time>2022-09-17T12:44:39.000Z</time>
      </trkpt>
      <trkpt lat="45.83354" lon="4.69302">
        <ele>297.96045</ele>
        <time>2022-09-17T12:44:40.000Z</time>
      </trkpt>
      <trkpt lat="45.83355" lon="4.69295">
        <ele>298.2511</ele>
        <time>2022-09-17T12:44:41.000Z</time>
      </trkpt>
      <trkpt lat="45.83356" lon="4.69288">
        <ele>298.48483</ele>
        <time>2022-09-17T12:44:42.000Z</time>
      </trkpt>
      <trkpt lat="45.83356" lon="4.69282">
        <ele>298.65878</ele>
        <time>2022-09-17T12:44:43.000Z</time>
      </trkpt>
      <trkpt lat="45.83356" lon="4.69275">
        <ele>298.83231</ele>
        <time>2022-09-17T12:44:44.000Z</time>
      </trkpt>
      <trkpt lat="45.83356" lon="4.69269">
        <ele>299.04007</ele>
        <time>2022-09-17T12:44:45.000Z</time>
      </trkpt>
      <trkpt lat="45.83357" lon="4.69263">
        <ele>299.18097</ele>
        <time>2022-09-17T12:44:46.000Z</time>
      </trkpt>
      <trkpt lat="45.83357" lon="4.69258">
        <ele>299.32132</ele>
        <time>2022-09-17T12:44:47.000Z</time>
      </trkpt>
      <trkpt lat="45.83358" lon="4.69251">
        <ele>299.48892</ele>
        <time>2022-09-17T12:44:48.000Z</time>
      </trkpt>
      <trkpt lat="45.83359" lon="4.69244">
        <ele>299.60245</ele>
        <time>2022-09-17T12:44:49.000Z</time>
      </trkpt>
      <trkpt lat="45.83361" lon="4.69237">
        <ele>299.68112</ele>
        <time>2022-09-17T12:44:50.000Z</time>
      </trkpt>
      <trkpt lat="45.83361" lon="4.69229">
        <ele>299.73184</ele>
        <time>2022-09-17T12:44:51.000Z</time>
      </trkpt>
      <trkpt lat="45.83362" lon="4.69222">
        <ele>299.77441</ele>
        <time>2022-09-17T12:44:52.000Z</time>
      </trkpt>
      <trkpt lat="45.83362" lon="4.69216">
        <ele>299.86685</ele>
        <time>2022-09-17T12:44:53.000Z</time>
      </trkpt>
      <trkpt lat="45.83361" lon="4.6921">
        <ele>299.97641</ele>
        <time>2022-09-17T12:44:54.000Z</time>
      </trkpt>
      <trkpt lat="45.83362" lon="4.69204">
        <ele>300.0639</ele>
        <time>2022-09-17T12:44:55.000Z</time>
      </trkpt>
      <trkpt lat="45.83363" lon="4.69197">
        <ele>300.17761</ele>
        <time>2022-09-17T12:44:56.000Z</time>
      </trkpt>
      <trkpt lat="45.83363" lon="4.6919">
        <ele>300.2793</ele>
        <time>2022-09-17T12:44:57.000Z</time>
      </trkpt>
      <trkpt lat="45.83365" lon="4.69183">
        <ele>300.28183</ele>
        <time>2022-09-17T12:44:58.000Z</time>
      </trkpt>
      <trkpt lat="45.83365" lon="4.69177">
        <ele>300.30145</ele>
        <time>2022-09-17T12:44:59.000Z</time>
      </trkpt>
      <trkpt lat="45.83366" lon="4.69171">
        <ele>300.32605</ele>
        <time>2022-09-17T12:45:00.000Z</time>
      </trkpt>
      <trkpt lat="45.83364" lon="4.69166">
        <ele>300.29047</ele>
        <time>2022-09-17T12:45:01.000Z</time>
      </trkpt>
      <trkpt lat="45.83365" lon="4.69159">
        <ele>300.21085</ele>
        <time>2022-09-17T12:45:02.000Z</time>
      </trkpt>
      <trkpt lat="45.83366" lon="4.69151">
        <ele>300.1163</ele>
        <time>2022-09-17T12:45:03.000Z</time>
      </trkpt>
      <trkpt lat="45.83366" lon="4.69142">
        <ele>299.99509</ele>
        <time>2022-09-17T12:45:04.000Z</time>
      </trkpt>
      <trkpt lat="45.83369" lon="4.69134">
        <ele>299.76776</ele>
        <time>2022-09-17T12:45:05.000Z</time>
      </trkpt>
      <trkpt lat="45.8337" lon="4.69126">
        <ele>299.47946</ele>
        <time>2022-09-17T12:45:06.000Z</time>
      </trkpt>
      <trkpt lat="45.83371" lon="4.69118">
        <ele>299.16821</ele>
        <time>2022-09-17T12:45:07.000Z</time>
      </trkpt>
      <trkpt lat="45.83372" lon="4.6911">
        <ele>298.88022</ele>
        <time>2022-09-17T12:45:08.000Z</time>
      </trkpt>
      <trkpt lat="45.83373" lon="4.69101">
        <ele>298.51865</ele>
        <time>2022-09-17T12:45:09.000Z</time>
      </trkpt>
      <trkpt lat="45.83374" lon="4.69093">
        <ele>298.19489</ele>
        <time>2022-09-17T12:45:10.000Z</time>
      </trkpt>
      <trkpt lat="45.83376" lon="4.69082">
        <ele>297.85629</ele>
        <time>2022-09-17T12:45:11.000Z</time>
      </trkpt>
      <trkpt lat="45.83377" lon="4.69075">
        <ele>297.51157</ele>
        <time>2022-09-17T12:45:12.000Z</time>
      </trkpt>
      <trkpt lat="45.83378" lon="4.69068">
        <ele>297.147</ele>
        <time>2022-09-17T12:45:13.000Z</time>
      </trkpt>
      <trkpt lat="45.8338" lon="4.6906">
        <ele>296.80441</ele>
        <time>2022-09-17T12:45:14.000Z</time>
      </trkpt>
      <trkpt lat="45.83384" lon="4.69048">
        <ele>296.48346</ele>
        <time>2022-09-17T12:45:15.000Z</time>
      </trkpt>
      <trkpt lat="45.83387" lon="4.69041">
        <ele>296.12109</ele>
        <time>2022-09-17T12:45:16.000Z</time>
      </trkpt>
      <trkpt lat="45.83392" lon="4.69035">
        <ele>295.75366</ele>
        <time>2022-09-17T12:45:17.000Z</time>
      </trkpt>
      <trkpt lat="45.83395" lon="4.69025">
        <ele>295.47214</ele>
        <time>2022-09-17T12:45:18.000Z</time>
      </trkpt>
      <trkpt lat="45.83397" lon="4.69016">
        <ele>295.12872</ele>
        <time>2022-09-17T12:45:19.000Z</time>
      </trkpt>
      <trkpt lat="45.83399" lon="4.69007">
        <ele>294.79034</ele>
        <time>2022-09-17T12:45:20.000Z</time>
      </trkpt>
      <trkpt lat="45.834" lon="4.68999">
        <ele>294.43268</ele>
        <time>2022-09-17T12:45:21.000Z</time>
      </trkpt>
      <trkpt lat="45.83402" lon="4.68992">
        <ele>294.11469</ele>
        <time>2022-09-17T12:45:22.000Z</time>
      </trkpt>
      <trkpt lat="45.83405" lon="4.68985">
        <ele>293.86523</ele>
        <time>2022-09-17T12:45:23.000Z</time>
      </trkpt>
      <trkpt lat="45.83406" lon="4.68978">
        <ele>293.61343</ele>
        <time>2022-09-17T12:45:24.000Z</time>
      </trkpt>
      <trkpt lat="45.83409" lon="4.6897">
        <ele>293.34711</ele>
        <time>2022-09-17T12:45:25.000Z</time>
      </trkpt>
      <trkpt lat="45.83411" lon="4.68962">
        <ele>293.10257</ele>
        <time>2022-09-17T12:45:26.000Z</time>
      </trkpt>
      <trkpt lat="45.83415" lon="4.68954">
        <ele>292.81256</ele>
        <time>2022-09-17T12:45:27.000Z</time>
      </trkpt>
      <trkpt lat="45.83417" lon="4.68945">
        <ele>292.47046</ele>
        <time>2022-09-17T12:45:28.000Z</time>
      </trkpt>
      <trkpt lat="45.83419" lon="4.68935">
        <ele>292.15891</ele>
        <time>2022-09-17T12:45:29.000Z</time>
      </trkpt>
      <trkpt lat="45.83421" lon="4.68927">
        <ele>291.84927</ele>
        <time>2022-09-17T12:45:30.000Z</time>
      </trkpt>
      <trkpt lat="45.83424" lon="4.68924">
        <ele>291.49713</ele>
        <time>2022-09-17T12:45:31.000Z</time>
      </trkpt>
      <trkpt lat="45.83425" lon="4.68917">
        <ele>291.11984</ele>
        <time>2022-09-17T12:45:32.000Z</time>
      </trkpt>
      <trkpt lat="45.83424" lon="4.68911">
        <ele>290.7023</ele>
        <time>2022-09-17T12:45:33.000Z</time>
      </trkpt>
      <trkpt lat="45.83423" lon="4.68907">
        <ele>290.17181</ele>
        <time>2022-09-17T12:45:34.000Z</time>
      </trkpt>
      <trkpt lat="45.83422" lon="4.68903">
        <ele>289.6264</ele>
        <time>2022-09-17T12:45:35.000Z</time>
      </trkpt>
      <trkpt lat="45.8342" lon="4.68898">
        <ele>289.06958</ele>
        <time>2022-09-17T12:45:36.000Z</time>
      </trkpt>
      <trkpt lat="45.83419" lon="4.68892">
        <ele>288.52097</ele>
        <time>2022-09-17T12:45:37.000Z</time>
      </trkpt>
      <trkpt lat="45.83417" lon="4.68886">
        <ele>287.90424</ele>
        <time>2022-09-17T12:45:38.000Z</time>
      </trkpt>
      <trkpt lat="45.83417" lon="4.68878">
        <ele>287.22598</ele>
        <time>2022-09-17T12:45:39.000Z</time>
      </trkpt>
      <trkpt lat="45.83414" lon="4.6887">
        <ele>286.48532</ele>
        <time>2022-09-17T12:45:40.000Z</time>
      </trkpt>
      <trkpt lat="45.83413" lon="4.68865">
        <ele>285.80453</ele>
        <time>2022-09-17T12:45:41.000Z</time>
      </trkpt>
      <trkpt lat="45.8341" lon="4.68859">
        <ele>285.16754</ele>
        <time>2022-09-17T12:45:42.000Z</time>
      </trkpt>
      <trkpt lat="45.83409" lon="4.6885">
        <ele>284.50461</ele>
        <time>2022-09-17T12:45:43.000Z</time>
      </trkpt>
      <trkpt lat="45.83407" lon="4.68844">
        <ele>283.81262</ele>
        <time>2022-09-17T12:45:44.000Z</time>
      </trkpt>
      <trkpt lat="45.83406" lon="4.68838">
        <ele>283.11966</ele>
        <time>2022-09-17T12:45:45.000Z</time>
      </trkpt>
      <trkpt lat="45.83405" lon="4.68829">
        <ele>282.46356</ele>
        <time>2022-09-17T12:45:46.000Z</time>
      </trkpt>
      <trkpt lat="45.83405" lon="4.68823">
        <ele>281.8205</ele>
        <time>2022-09-17T12:45:47.000Z</time>
      </trkpt>
      <trkpt lat="45.83402" lon="4.68817">
        <ele>281.22876</ele>
        <time>2022-09-17T12:45:48.000Z</time>
      </trkpt>
      <trkpt lat="45.83401" lon="4.6881">
        <ele>280.65143</ele>
        <time>2022-09-17T12:45:49.000Z</time>
      </trkpt>
      <trkpt lat="45.83399" lon="4.68803">
        <ele>280.06238</ele>
        <time>2022-09-17T12:45:50.000Z</time>
      </trkpt>
      <trkpt lat="45.83396" lon="4.68799">
        <ele>279.52939</ele>
        <time>2022-09-17T12:45:51.000Z</time>
      </trkpt>
      <trkpt lat="45.83395" lon="4.68794">
        <ele>279.03186</ele>
        <time>2022-09-17T12:45:52.000Z</time>
      </trkpt>
      <trkpt lat="45.83393" lon="4.68789">
        <ele>278.56915</ele>
        <time>2022-09-17T12:45:53.000Z</time>
      </trkpt>
      <trkpt lat="45.83392" lon="4.68785">
        <ele>278.1998</ele>
        <time>2022-09-17T12:45:54.000Z</time>
      </trkpt>
      <trkpt lat="45.83388" lon="4.68775">
        <ele>277.87357</ele>
        <time>2022-09-17T12:45:56.000Z</time>
      </trkpt>
      <trkpt lat="45.83386" lon="4.6877">
        <ele>277.58496</ele>
        <time>2022-09-17T12:45:57.000Z</time>
      </trkpt>
      <trkpt lat="45.83383" lon="4.68766">
        <ele>277.24335</ele>
        <time>2022-09-17T12:45:58.000Z</time>
      </trkpt>
      <trkpt lat="45.83381" lon="4.68761">
        <ele>276.99332</ele>
        <time>2022-09-17T12:45:59.000Z</time>
      </trkpt>
      <trkpt lat="45.83379" lon="4.68756">
        <ele>276.89093</ele>
        <time>2022-09-17T12:46:00.000Z</time>
      </trkpt>
      <trkpt lat="45.83376" lon="4.68751">
        <ele>276.87204</ele>
        <time>2022-09-17T12:46:01.000Z</time>
      </trkpt>
      <trkpt lat="45.83374" lon="4.68747">
        <ele>276.85083</ele>
        <time>2022-09-17T12:46:02.000Z</time>
      </trkpt>
      <trkpt lat="45.83372" lon="4.68743">
        <ele>276.76825</ele>
        <time>2022-09-17T12:46:03.000Z</time>
      </trkpt>
      <trkpt lat="45.8337" lon="4.68739">
        <ele>276.66492</ele>
        <time>2022-09-17T12:46:04.000Z</time>
      </trkpt>
      <trkpt lat="45.83369" lon="4.68736">
        <ele>276.51077</ele>
        <time>2022-09-17T12:46:05.000Z</time>
      </trkpt>
      <trkpt lat="45.83367" lon="4.68733">
        <ele>276.43594</ele>
        <time>2022-09-17T12:46:06.000Z</time>
      </trkpt>
      <trkpt lat="45.83365" lon="4.68729">
        <ele>276.35083</ele>
        <time>2022-09-17T12:46:07.000Z</time>
      </trkpt>
      <trkpt lat="45.83363" lon="4.68725">
        <ele>276.25217</ele>
        <time>2022-09-17T12:46:08.000Z</time>
      </trkpt>
      <trkpt lat="45.83361" lon="4.68721">
        <ele>276.12711</ele>
        <time>2022-09-17T12:46:09.000Z</time>
      </trkpt>
      <trkpt lat="45.83359" lon="4.68717">
        <ele>276.04608</ele>
        <time>2022-09-17T12:46:10.000Z</time>
      </trkpt>
      <trkpt lat="45.83358" lon="4.68712">
        <ele>275.95255</ele>
        <time>2022-09-17T12:46:11.000Z</time>
      </trkpt>
      <trkpt lat="45.83356" lon="4.68707">
        <ele>275.82086</ele>
        <time>2022-09-17T12:46:12.000Z</time>
      </trkpt>
      <trkpt lat="45.83354" lon="4.68702">
        <ele>275.76865</ele>
        <time>2022-09-17T12:46:13.000Z</time>
      </trkpt>
      <trkpt lat="45.83351" lon="4.68698">
        <ele>275.72223</ele>
        <time>2022-09-17T12:46:14.000Z</time>
      </trkpt>
      <trkpt lat="45.83348" lon="4.68695">
        <ele>275.68732</ele>
        <time>2022-09-17T12:46:15.000Z</time>
      </trkpt>
      <trkpt lat="45.83346" lon="4.68691">
        <ele>275.61993</ele>
        <time>2022-09-17T12:46:16.000Z</time>
      </trkpt>
      <trkpt lat="45.83343" lon="4.68688">
        <ele>275.54117</ele>
        <time>2022-09-17T12:46:17.000Z</time>
      </trkpt>
      <trkpt lat="45.83341" lon="4.68684">
        <ele>275.52753</ele>
        <time>2022-09-17T12:46:18.000Z</time>
      </trkpt>
      <trkpt lat="45.83339" lon="4.68679">
        <ele>275.46384</ele>
        <time>2022-09-17T12:46:19.000Z</time>
      </trkpt>
      <trkpt lat="45.83337" lon="4.68675">
        <ele>275.37173</ele>
        <time>2022-09-17T12:46:20.000Z</time>
      </trkpt>
      <trkpt lat="45.83336" lon="4.6867">
        <ele>275.2352</ele>
        <time>2022-09-17T12:46:21.000Z</time>
      </trkpt>
      <trkpt lat="45.83334" lon="4.68665">
        <ele>275.11609</ele>
        <time>2022-09-17T12:46:22.000Z</time>
      </trkpt>
      <trkpt lat="45.83332" lon="4.6866">
        <ele>274.99966</ele>
        <time>2022-09-17T12:46:23.000Z</time>
      </trkpt>
      <trkpt lat="45.83331" lon="4.68656">
        <ele>274.93536</ele>
        <time>2022-09-17T12:46:24.000Z</time>
      </trkpt>
      <trkpt lat="45.83329" lon="4.68651">
        <ele>274.98581</ele>
        <time>2022-09-17T12:46:25.000Z</time>
      </trkpt>
      <trkpt lat="45.83328" lon="4.68645">
        <ele>275.03494</ele>
        <time>2022-09-17T12:46:26.000Z</time>
      </trkpt>
      <trkpt lat="45.83327" lon="4.68639">
        <ele>275.05374</ele>
        <time>2022-09-17T12:46:27.000Z</time>
      </trkpt>
      <trkpt lat="45.83325" lon="4.68633">
        <ele>275.0495</ele>
        <time>2022-09-17T12:46:28.000Z</time>
      </trkpt>
      <trkpt lat="45.83324" lon="4.68626">
        <ele>275.01645</ele>
        <time>2022-09-17T12:46:29.000Z</time>
      </trkpt>
      <trkpt lat="45.83323" lon="4.6862">
        <ele>274.95343</ele>
        <time>2022-09-17T12:46:30.000Z</time>
      </trkpt>
      <trkpt lat="45.83321" lon="4.68614">
        <ele>274.8793</ele>
        <time>2022-09-17T12:46:31.000Z</time>
      </trkpt>
      <trkpt lat="45.83322" lon="4.68571">
        <ele>275.05173</ele>
        <time>2022-09-17T12:46:38.000Z</time>
      </trkpt>
      <trkpt lat="45.83318" lon="4.68566">
        <ele>275.31039</ele>
        <time>2022-09-17T12:46:40.000Z</time>
      </trkpt>
      <trkpt lat="45.83316" lon="4.68561">
        <ele>275.5722</ele>
        <time>2022-09-17T12:46:41.000Z</time>
      </trkpt>
      <trkpt lat="45.83314" lon="4.68556">
        <ele>275.82547</ele>
        <time>2022-09-17T12:46:42.000Z</time>
      </trkpt>
      <trkpt lat="45.83312" lon="4.68552">
        <ele>276.09042</ele>
        <time>2022-09-17T12:46:43.000Z</time>
      </trkpt>
      <trkpt lat="45.8331" lon="4.68548">
        <ele>276.33078</ele>
        <time>2022-09-17T12:46:44.000Z</time>
      </trkpt>
      <trkpt lat="45.83309" lon="4.68544">
        <ele>276.54333</ele>
        <time>2022-09-17T12:46:45.000Z</time>
      </trkpt>
      <trkpt lat="45.83307" lon="4.68541">
        <ele>276.74646</ele>
        <time>2022-09-17T12:46:46.000Z</time>
      </trkpt>
      <trkpt lat="45.83307" lon="4.68538">
        <ele>276.9483</ele>
        <time>2022-09-17T12:46:47.000Z</time>
      </trkpt>
      <trkpt lat="45.83307" lon="4.68534">
        <ele>277.20844</ele>
        <time>2022-09-17T12:46:48.000Z</time>
      </trkpt>
      <trkpt lat="45.83309" lon="4.68531">
        <ele>277.50665</ele>
        <time>2022-09-17T12:46:49.000Z</time>
      </trkpt>
      <trkpt lat="45.83312" lon="4.68528">
        <ele>277.82968</ele>
        <time>2022-09-17T12:46:50.000Z</time>
      </trkpt>
      <trkpt lat="45.83314" lon="4.68526">
        <ele>278.21164</ele>
        <time>2022-09-17T12:46:51.000Z</time>
      </trkpt>
      <trkpt lat="45.83317" lon="4.68526">
        <ele>278.56323</ele>
        <time>2022-09-17T12:46:52.000Z</time>
      </trkpt>
      <trkpt lat="45.83321" lon="4.68526">
        <ele>278.92203</ele>
        <time>2022-09-17T12:46:53.000Z</time>
      </trkpt>
      <trkpt lat="45.83324" lon="4.68527">
        <ele>279.35233</ele>
        <time>2022-09-17T12:46:54.000Z</time>
      </trkpt>
      <trkpt lat="45.83327" lon="4.68529">
        <ele>279.76056</ele>
        <time>2022-09-17T12:46:55.000Z</time>
      </trkpt>
      <trkpt lat="45.83331" lon="4.68531">
        <ele>280.20654</ele>
        <time>2022-09-17T12:46:56.000Z</time>
      </trkpt>
      <trkpt lat="45.83334" lon="4.68533">
        <ele>280.67932</ele>
        <time>2022-09-17T12:46:57.000Z</time>
      </trkpt>
      <trkpt lat="45.83337" lon="4.68535">
        <ele>281.16986</ele>
        <time>2022-09-17T12:46:58.000Z</time>
      </trkpt>
      <trkpt lat="45.8334" lon="4.68538">
        <ele>281.44366</ele>
        <time>2022-09-17T12:46:59.000Z</time>
      </trkpt>
      <trkpt lat="45.83344" lon="4.6854">
        <ele>281.54266</ele>
        <time>2022-09-17T12:47:00.000Z</time>
      </trkpt>
      <trkpt lat="45.83347" lon="4.68543">
        <ele>281.64346</ele>
        <time>2022-09-17T12:47:01.000Z</time>
      </trkpt>
      <trkpt lat="45.83351" lon="4.68545">
        <ele>281.78903</ele>
        <time>2022-09-17T12:47:02.000Z</time>
      </trkpt>
      <trkpt lat="45.83354" lon="4.68547">
        <ele>281.91315</ele>
        <time>2022-09-17T12:47:03.000Z</time>
      </trkpt>
      <trkpt lat="45.83358" lon="4.68548">
        <ele>282.07068</ele>
        <time>2022-09-17T12:47:04.000Z</time>
      </trkpt>
      <trkpt lat="45.83362" lon="4.68548">
        <ele>282.22128</ele>
        <time>2022-09-17T12:47:05.000Z</time>
      </trkpt>
      <trkpt lat="45.83366" lon="4.68547">
        <ele>282.35791</ele>
        <time>2022-09-17T12:47:06.000Z</time>
      </trkpt>
      <trkpt lat="45.8337" lon="4.68545">
        <ele>282.4494</ele>
        <time>2022-09-17T12:47:07.000Z</time>
      </trkpt>
      <trkpt lat="45.83373" lon="4.68543">
        <ele>282.53925</ele>
        <time>2022-09-17T12:47:08.000Z</time>
      </trkpt>
      <trkpt lat="45.83378" lon="4.68541">
        <ele>282.48767</ele>
        <time>2022-09-17T12:47:09.000Z</time>
      </trkpt>
      <trkpt lat="45.83382" lon="4.68539">
        <ele>282.38989</ele>
        <time>2022-09-17T12:47:10.000Z</time>
      </trkpt>
      <trkpt lat="45.83386" lon="4.68537">
        <ele>282.20886</ele>
        <time>2022-09-17T12:47:11.000Z</time>
      </trkpt>
      <trkpt lat="45.83391" lon="4.68533">
        <ele>282.04913</ele>
        <time>2022-09-17T12:47:12.000Z</time>
      </trkpt>
      <trkpt lat="45.83395" lon="4.68531">
        <ele>281.85724</ele>
        <time>2022-09-17T12:47:13.000Z</time>
      </trkpt>
      <trkpt lat="45.83399" lon="4.68528">
        <ele>281.62576</ele>
        <time>2022-09-17T12:47:14.000Z</time>
      </trkpt>
      <trkpt lat="45.83403" lon="4.68526">
        <ele>281.42584</ele>
        <time>2022-09-17T12:47:15.000Z</time>
      </trkpt>
      <trkpt lat="45.83408" lon="4.68523">
        <ele>281.18637</ele>
        <time>2022-09-17T12:47:16.000Z</time>
      </trkpt>
      <trkpt lat="45.83412" lon="4.68521">
        <ele>280.86984</ele>
        <time>2022-09-17T12:47:17.000Z</time>
      </trkpt>
      <trkpt lat="45.83417" lon="4.68517">
        <ele>280.54218</ele>
        <time>2022-09-17T12:47:18.000Z</time>
      </trkpt>
      <trkpt lat="45.83421" lon="4.68514">
        <ele>280.20953</ele>
        <time>2022-09-17T12:47:19.000Z</time>
      </trkpt>
      <trkpt lat="45.83427" lon="4.68512">
        <ele>279.91559</ele>
        <time>2022-09-17T12:47:20.000Z</time>
      </trkpt>
      <trkpt lat="45.83432" lon="4.68508">
        <ele>279.59775</ele>
        <time>2022-09-17T12:47:21.000Z</time>
      </trkpt>
      <trkpt lat="45.83436" lon="4.68506">
        <ele>279.24908</ele>
        <time>2022-09-17T12:47:22.000Z</time>
      </trkpt>
      <trkpt lat="45.83441" lon="4.68502">
        <ele>278.94382</ele>
        <time>2022-09-17T12:47:23.000Z</time>
      </trkpt>
      <trkpt lat="45.83445" lon="4.68499">
        <ele>278.72253</ele>
        <time>2022-09-17T12:47:24.000Z</time>
      </trkpt>
      <trkpt lat="45.8345" lon="4.68497">
        <ele>278.47897</ele>
        <time>2022-09-17T12:47:25.000Z</time>
      </trkpt>
      <trkpt lat="45.83455" lon="4.68493">
        <ele>278.29388</ele>
        <time>2022-09-17T12:47:26.000Z</time>
      </trkpt>
      <trkpt lat="45.83459" lon="4.68489">
        <ele>278.04401</ele>
        <time>2022-09-17T12:47:27.000Z</time>
      </trkpt>
      <trkpt lat="45.83465" lon="4.68486">
        <ele>277.73428</ele>
        <time>2022-09-17T12:47:28.000Z</time>
      </trkpt>
      <trkpt lat="45.83472" lon="4.68482">
        <ele>277.48535</ele>
        <time>2022-09-17T12:47:29.000Z</time>
      </trkpt>
      <trkpt lat="45.83477" lon="4.68478">
        <ele>277.23907</ele>
        <time>2022-09-17T12:47:30.000Z</time>
      </trkpt>
      <trkpt lat="45.83483" lon="4.68475">
        <ele>276.97565</ele>
        <time>2022-09-17T12:47:31.000Z</time>
      </trkpt>
      <trkpt lat="45.83489" lon="4.68471">
        <ele>276.62732</ele>
        <time>2022-09-17T12:47:32.000Z</time>
      </trkpt>
      <trkpt lat="45.83494" lon="4.68467">
        <ele>276.23572</ele>
        <time>2022-09-17T12:47:33.000Z</time>
      </trkpt>
      <trkpt lat="45.835" lon="4.68463">
        <ele>275.86713</ele>
        <time>2022-09-17T12:47:34.000Z</time>
      </trkpt>
      <trkpt lat="45.83505" lon="4.6846">
        <ele>275.55508</ele>
        <time>2022-09-17T12:47:35.000Z</time>
      </trkpt>
      <trkpt lat="45.8351" lon="4.68456">
        <ele>275.26862</ele>
        <time>2022-09-17T12:47:36.000Z</time>
      </trkpt>
      <trkpt lat="45.83516" lon="4.68454">
        <ele>274.9996</ele>
        <time>2022-09-17T12:47:37.000Z</time>
      </trkpt>
      <trkpt lat="45.83521" lon="4.6845">
        <ele>274.74237</ele>
        <time>2022-09-17T12:47:38.000Z</time>
      </trkpt>
      <trkpt lat="45.83525" lon="4.68447">
        <ele>274.44342</ele>
        <time>2022-09-17T12:47:39.000Z</time>
      </trkpt>
      <trkpt lat="45.8353" lon="4.68444">
        <ele>274.14139</ele>
        <time>2022-09-17T12:47:40.000Z</time>
      </trkpt>
      <trkpt lat="45.83536" lon="4.68441">
        <ele>273.89203</ele>
        <time>2022-09-17T12:47:41.000Z</time>
      </trkpt>
      <trkpt lat="45.83542" lon="4.68435">
        <ele>273.55951</ele>
        <time>2022-09-17T12:47:42.000Z</time>
      </trkpt>
      <trkpt lat="45.83547" lon="4.68428">
        <ele>273.18137</ele>
        <time>2022-09-17T12:47:43.000Z</time>
      </trkpt>
      <trkpt lat="45.8355" lon="4.68424">
        <ele>272.70706</ele>
        <time>2022-09-17T12:47:44.000Z</time>
      </trkpt>
      <trkpt lat="45.83554" lon="4.6842">
        <ele>272.23483</ele>
        <time>2022-09-17T12:47:45.000Z</time>
      </trkpt>
      <trkpt lat="45.83558" lon="4.68415">
        <ele>271.7774</ele>
        <time>2022-09-17T12:47:46.000Z</time>
      </trkpt>
      <trkpt lat="45.83562" lon="4.68411">
        <ele>271.40884</ele>
        <time>2022-09-17T12:47:47.000Z</time>
      </trkpt>
      <trkpt lat="45.83564" lon="4.68406">
        <ele>271.04785</ele>
        <time>2022-09-17T12:47:48.000Z</time>
      </trkpt>
      <trkpt lat="45.83569" lon="4.68401">
        <ele>270.70316</ele>
        <time>2022-09-17T12:47:49.000Z</time>
      </trkpt>
      <trkpt lat="45.83572" lon="4.68394">
        <ele>270.33643</ele>
        <time>2022-09-17T12:47:50.000Z</time>
      </trkpt>
      <trkpt lat="45.83574" lon="4.68392">
        <ele>269.97705</ele>
        <time>2022-09-17T12:47:51.000Z</time>
      </trkpt>
      <trkpt lat="45.83575" lon="4.68388">
        <ele>269.6377</ele>
        <time>2022-09-17T12:47:52.000Z</time>
      </trkpt>
      <trkpt lat="45.83578" lon="4.68383">
        <ele>269.31198</ele>
        <time>2022-09-17T12:47:53.000Z</time>
      </trkpt>
      <trkpt lat="45.83581" lon="4.6838">
        <ele>269.00922</ele>
        <time>2022-09-17T12:47:54.000Z</time>
      </trkpt>
      <trkpt lat="45.83583" lon="4.68377">
        <ele>268.68439</ele>
        <time>2022-09-17T12:47:55.000Z</time>
      </trkpt>
      <trkpt lat="45.83583" lon="4.68371">
        <ele>268.3927</ele>
        <time>2022-09-17T12:47:56.000Z</time>
      </trkpt>
      <trkpt lat="45.83582" lon="4.68366">
        <ele>268.18344</ele>
        <time>2022-09-17T12:47:57.000Z</time>
      </trkpt>
      <trkpt lat="45.83582" lon="4.68359">
        <ele>267.88052</ele>
        <time>2022-09-17T12:47:59.000Z</time>
      </trkpt>
      <trkpt lat="45.83582" lon="4.68355">
        <ele>267.73193</ele>
        <time>2022-09-17T12:48:00.000Z</time>
      </trkpt>
      <trkpt lat="45.83582" lon="4.6835">
        <ele>267.60284</ele>
        <time>2022-09-17T12:48:01.000Z</time>
      </trkpt>
      <trkpt lat="45.83582" lon="4.68345">
        <ele>267.43353</ele>
        <time>2022-09-17T12:48:02.000Z</time>
      </trkpt>
      <trkpt lat="45.83581" lon="4.6834">
        <ele>267.35809</ele>
        <time>2022-09-17T12:48:03.000Z</time>
      </trkpt>
      <trkpt lat="45.83581" lon="4.68335">
        <ele>267.2973</ele>
        <time>2022-09-17T12:48:04.000Z</time>
      </trkpt>
      <trkpt lat="45.8358" lon="4.6833">
        <ele>267.29352</ele>
        <time>2022-09-17T12:48:05.000Z</time>
      </trkpt>
      <trkpt lat="45.8358" lon="4.68325">
        <ele>267.34052</ele>
        <time>2022-09-17T12:48:06.000Z</time>
      </trkpt>
      <trkpt lat="45.8358" lon="4.6832">
        <ele>267.35828</ele>
        <time>2022-09-17T12:48:07.000Z</time>
      </trkpt>
      <trkpt lat="45.83581" lon="4.68316">
        <ele>267.37619</ele>
        <time>2022-09-17T12:48:08.000Z</time>
      </trkpt>
      <trkpt lat="45.83581" lon="4.68311">
        <ele>267.45755</ele>
        <time>2022-09-17T12:48:09.000Z</time>
      </trkpt>
      <trkpt lat="45.83582" lon="4.68307">
        <ele>267.57843</ele>
        <time>2022-09-17T12:48:10.000Z</time>
      </trkpt>
      <trkpt lat="45.83584" lon="4.68304">
        <ele>267.78479</ele>
        <time>2022-09-17T12:48:11.000Z</time>
      </trkpt>
      <trkpt lat="45.83585" lon="4.68301">
        <ele>268.01617</ele>
        <time>2022-09-17T12:48:12.000Z</time>
      </trkpt>
      <trkpt lat="45.83587" lon="4.68298">
        <ele>268.30646</ele>
        <time>2022-09-17T12:48:13.000Z</time>
      </trkpt>
      <trkpt lat="45.83589" lon="4.68295">
        <ele>268.67529</ele>
        <time>2022-09-17T12:48:14.000Z</time>
      </trkpt>
      <trkpt lat="45.8359" lon="4.68292">
        <ele>268.992</ele>
        <time>2022-09-17T12:48:15.000Z</time>
      </trkpt>
      <trkpt lat="45.83592" lon="4.68289">
        <ele>269.30573</ele>
        <time>2022-09-17T12:48:16.000Z</time>
      </trkpt>
      <trkpt lat="45.83593" lon="4.68286">
        <ele>269.57819</ele>
        <time>2022-09-17T12:48:17.000Z</time>
      </trkpt>
      <trkpt lat="45.83595" lon="4.68282">
        <ele>269.78513</ele>
        <time>2022-09-17T12:48:18.000Z</time>
      </trkpt>
      <trkpt lat="45.83596" lon="4.68278">
        <ele>270.11868</ele>
        <time>2022-09-17T12:48:19.000Z</time>
      </trkpt>
      <trkpt lat="45.83597" lon="4.68272">
        <ele>270.33743</ele>
        <time>2022-09-17T12:48:20.000Z</time>
      </trkpt>
      <trkpt lat="45.83597" lon="4.68267">
        <ele>270.3974</ele>
        <time>2022-09-17T12:48:21.000Z</time>
      </trkpt>
      <trkpt lat="45.83595" lon="4.68258">
        <ele>270.43695</ele>
        <time>2022-09-17T12:48:22.000Z</time>
      </trkpt>
      <trkpt lat="45.83595" lon="4.68248">
        <ele>270.59219</ele>
        <time>2022-09-17T12:48:23.000Z</time>
      </trkpt>
      <trkpt lat="45.83597" lon="4.6824">
        <ele>270.7178</ele>
        <time>2022-09-17T12:48:24.000Z</time>
      </trkpt>
      <trkpt lat="45.83601" lon="4.68231">
        <ele>270.8606</ele>
        <time>2022-09-17T12:48:25.000Z</time>
      </trkpt>
      <trkpt lat="45.83604" lon="4.68223">
        <ele>270.9559</ele>
        <time>2022-09-17T12:48:26.000Z</time>
      </trkpt>
      <trkpt lat="45.83608" lon="4.68216">
        <ele>271.02618</ele>
        <time>2022-09-17T12:48:27.000Z</time>
      </trkpt>
      <trkpt lat="45.83611" lon="4.68205">
        <ele>271.11902</ele>
        <time>2022-09-17T12:48:28.000Z</time>
      </trkpt>
      <trkpt lat="45.83614" lon="4.68194">
        <ele>271.15164</ele>
        <time>2022-09-17T12:48:29.000Z</time>
      </trkpt>
      <trkpt lat="45.83618" lon="4.68186">
        <ele>271.13675</ele>
        <time>2022-09-17T12:48:30.000Z</time>
      </trkpt>
      <trkpt lat="45.83623" lon="4.6818">
        <ele>271.02313</ele>
        <time>2022-09-17T12:48:31.000Z</time>
      </trkpt>
      <trkpt lat="45.83627" lon="4.68171">
        <ele>270.90656</ele>
        <time>2022-09-17T12:48:32.000Z</time>
      </trkpt>
      <trkpt lat="45.8363" lon="4.68163">
        <ele>270.75436</ele>
        <time>2022-09-17T12:48:33.000Z</time>
      </trkpt>
      <trkpt lat="45.83634" lon="4.68155">
        <ele>270.62726</ele>
        <time>2022-09-17T12:48:34.000Z</time>
      </trkpt>
      <trkpt lat="45.83638" lon="4.68148">
        <ele>270.42609</ele>
        <time>2022-09-17T12:48:35.000Z</time>
      </trkpt>
      <trkpt lat="45.83641" lon="4.6814">
        <ele>270.22711</ele>
        <time>2022-09-17T12:48:36.000Z</time>
      </trkpt>
      <trkpt lat="45.83645" lon="4.68134">
        <ele>270.02954</ele>
        <time>2022-09-17T12:48:37.000Z</time>
      </trkpt>
      <trkpt lat="45.83649" lon="4.68129">
        <ele>269.83102</ele>
        <time>2022-09-17T12:48:38.000Z</time>
      </trkpt>
      <trkpt lat="45.83653" lon="4.68124">
        <ele>269.55939</ele>
        <time>2022-09-17T12:48:39.000Z</time>
      </trkpt>
      <trkpt lat="45.83658" lon="4.68119">
        <ele>269.28888</ele>
        <time>2022-09-17T12:48:40.000Z</time>
      </trkpt>
      <trkpt lat="45.83662" lon="4.68113">
        <ele>269.14661</ele>
        <time>2022-09-17T12:48:41.000Z</time>
      </trkpt>
      <trkpt lat="45.83666" lon="4.68108">
        <ele>269.01489</ele>
        <time>2022-09-17T12:48:42.000Z</time>
      </trkpt>
      <trkpt lat="45.8367" lon="4.68102">
        <ele>268.75113</ele>
        <time>2022-09-17T12:48:43.000Z</time>
      </trkpt>
      <trkpt lat="45.83674" lon="4.68095">
        <ele>268.44385</ele>
        <time>2022-09-17T12:48:44.000Z</time>
      </trkpt>
      <trkpt lat="45.83679" lon="4.68089">
        <ele>268.11133</ele>
        <time>2022-09-17T12:48:45.000Z</time>
      </trkpt>
      <trkpt lat="45.83684" lon="4.68084">
        <ele>267.78772</ele>
        <time>2022-09-17T12:48:46.000Z</time>
      </trkpt>
      <trkpt lat="45.83689" lon="4.68078">
        <ele>267.43246</ele>
        <time>2022-09-17T12:48:47.000Z</time>
      </trkpt>
      <trkpt lat="45.83694" lon="4.68075">
        <ele>267.07535</ele>
        <time>2022-09-17T12:48:48.000Z</time>
      </trkpt>
      <trkpt lat="45.83697" lon="4.68072">
        <ele>266.74466</ele>
        <time>2022-09-17T12:48:49.000Z</time>
      </trkpt>
      <trkpt lat="45.83697" lon="4.68068">
        <ele>266.39474</ele>
        <time>2022-09-17T12:48:50.000Z</time>
      </trkpt>
      <trkpt lat="45.83699" lon="4.68062">
        <ele>266.0611</ele>
        <time>2022-09-17T12:48:51.000Z</time>
      </trkpt>
      <trkpt lat="45.83699" lon="4.68056">
        <ele>265.67142</ele>
        <time>2022-09-17T12:48:52.000Z</time>
      </trkpt>
      <trkpt lat="45.83699" lon="4.68053">
        <ele>265.43494</ele>
        <time>2022-09-17T12:48:53.000Z</time>
      </trkpt>
      <trkpt lat="45.83698" lon="4.68049">
        <ele>265.16949</ele>
        <time>2022-09-17T12:48:54.000Z</time>
      </trkpt>
      <trkpt lat="45.83695" lon="4.68046">
        <ele>264.95667</ele>
        <time>2022-09-17T12:48:55.000Z</time>
      </trkpt>
      <trkpt lat="45.83693" lon="4.68042">
        <ele>264.67255</ele>
        <time>2022-09-17T12:48:56.000Z</time>
      </trkpt>
      <trkpt lat="45.83688" lon="4.68038">
        <ele>264.40527</ele>
        <time>2022-09-17T12:48:57.000Z</time>
      </trkpt>
      <trkpt lat="45.83685" lon="4.68033">
        <ele>264.17767</ele>
        <time>2022-09-17T12:48:58.000Z</time>
      </trkpt>
      <trkpt lat="45.83682" lon="4.68029">
        <ele>263.98578</ele>
        <time>2022-09-17T12:48:59.000Z</time>
      </trkpt>
      <trkpt lat="45.83679" lon="4.68024">
        <ele>263.81711</ele>
        <time>2022-09-17T12:49:00.000Z</time>
      </trkpt>
      <trkpt lat="45.83676" lon="4.6802">
        <ele>263.54462</ele>
        <time>2022-09-17T12:49:01.000Z</time>
      </trkpt>
      <trkpt lat="45.83673" lon="4.68016">
        <ele>263.32013</ele>
        <time>2022-09-17T12:49:02.000Z</time>
      </trkpt>
      <trkpt lat="45.83671" lon="4.68013">
        <ele>263.12848</ele>
        <time>2022-09-17T12:49:03.000Z</time>
      </trkpt>
      <trkpt lat="45.83668" lon="4.68009">
        <ele>263.00006</ele>
        <time>2022-09-17T12:49:04.000Z</time>
      </trkpt>
      <trkpt lat="45.83665" lon="4.68005">
        <ele>262.93622</ele>
        <time>2022-09-17T12:49:05.000Z</time>
      </trkpt>
      <trkpt lat="45.83662" lon="4.68002">
        <ele>262.89398</ele>
        <time>2022-09-17T12:49:06.000Z</time>
      </trkpt>
      <trkpt lat="45.83659" lon="4.67998">
        <ele>262.8797</ele>
        <time>2022-09-17T12:49:07.000Z</time>
      </trkpt>
      <trkpt lat="45.83656" lon="4.67994">
        <ele>262.80109</ele>
        <time>2022-09-17T12:49:08.000Z</time>
      </trkpt>
      <trkpt lat="45.83653" lon="4.67989">
        <ele>262.72015</ele>
        <time>2022-09-17T12:49:09.000Z</time>
      </trkpt>
      <trkpt lat="45.8365" lon="4.67985">
        <ele>262.63245</ele>
        <time>2022-09-17T12:49:10.000Z</time>
      </trkpt>
      <trkpt lat="45.83645" lon="4.67981">
        <ele>262.56317</ele>
        <time>2022-09-17T12:49:11.000Z</time>
      </trkpt>
      <trkpt lat="45.8364" lon="4.67974">
        <ele>262.51056</ele>
        <time>2022-09-17T12:49:12.000Z</time>
      </trkpt>
      <trkpt lat="45.83637" lon="4.6797">
        <ele>262.29697</ele>
        <time>2022-09-17T12:49:13.000Z</time>
      </trkpt>
      <trkpt lat="45.83635" lon="4.67967">
        <ele>262.06549</ele>
        <time>2022-09-17T12:49:14.000Z</time>
      </trkpt>
      <trkpt lat="45.83632" lon="4.67964">
        <ele>261.80502</ele>
        <time>2022-09-17T12:49:15.000Z</time>
      </trkpt>
      <trkpt lat="45.83628" lon="4.6796">
        <ele>261.56207</ele>
        <time>2022-09-17T12:49:16.000Z</time>
      </trkpt>
      <trkpt lat="45.83624" lon="4.67957">
        <ele>261.31799</ele>
        <time>2022-09-17T12:49:17.000Z</time>
      </trkpt>
      <trkpt lat="45.8362" lon="4.67953">
        <ele>261.06378</ele>
        <time>2022-09-17T12:49:18.000Z</time>
      </trkpt>
      <trkpt lat="45.83616" lon="4.6795">
        <ele>260.75345</ele>
        <time>2022-09-17T12:49:19.000Z</time>
      </trkpt>
      <trkpt lat="45.83613" lon="4.67947">
        <ele>260.42297</ele>
        <time>2022-09-17T12:49:20.000Z</time>
      </trkpt>
      <trkpt lat="45.83609" lon="4.67944">
        <ele>260.19629</ele>
        <time>2022-09-17T12:49:21.000Z</time>
      </trkpt>
      <trkpt lat="45.83606" lon="4.67941">
        <ele>259.94696</ele>
        <time>2022-09-17T12:49:22.000Z</time>
      </trkpt>
      <trkpt lat="45.83602" lon="4.67938">
        <ele>259.66028</ele>
        <time>2022-09-17T12:49:23.000Z</time>
      </trkpt>
      <trkpt lat="45.83599" lon="4.67935">
        <ele>259.35684</ele>
        <time>2022-09-17T12:49:24.000Z</time>
      </trkpt>
      <trkpt lat="45.83595" lon="4.67932">
        <ele>259.05396</ele>
        <time>2022-09-17T12:49:25.000Z</time>
      </trkpt>
      <trkpt lat="45.83591" lon="4.67929">
        <ele>258.74213</ele>
        <time>2022-09-17T12:49:26.000Z</time>
      </trkpt>
      <trkpt lat="45.83587" lon="4.67927">
        <ele>258.49933</ele>
        <time>2022-09-17T12:49:27.000Z</time>
      </trkpt>
      <trkpt lat="45.83583" lon="4.67924">
        <ele>258.32892</ele>
        <time>2022-09-17T12:49:28.000Z</time>
      </trkpt>
      <trkpt lat="45.83579" lon="4.67921">
        <ele>258.13211</ele>
        <time>2022-09-17T12:49:29.000Z</time>
      </trkpt>
      <trkpt lat="45.83576" lon="4.67919">
        <ele>258.03122</ele>
        <time>2022-09-17T12:49:30.000Z</time>
      </trkpt>
      <trkpt lat="45.83572" lon="4.67916">
        <ele>257.9761</ele>
        <time>2022-09-17T12:49:31.000Z</time>
      </trkpt>
      <trkpt lat="45.83567" lon="4.67913">
        <ele>257.99716</ele>
        <time>2022-09-17T12:49:32.000Z</time>
      </trkpt>
      <trkpt lat="45.83564" lon="4.67912">
        <ele>257.9967</ele>
        <time>2022-09-17T12:49:33.000Z</time>
      </trkpt>
      <trkpt lat="45.83556" lon="4.67902">
        <ele>257.98901</ele>
        <time>2022-09-17T12:49:35.000Z</time>
      </trkpt>
      <trkpt lat="45.83552" lon="4.67899">
        <ele>258.04623</ele>
        <time>2022-09-17T12:49:36.000Z</time>
      </trkpt>
      <trkpt lat="45.83549" lon="4.67895">
        <ele>258.19739</ele>
        <time>2022-09-17T12:49:37.000Z</time>
      </trkpt>
      <trkpt lat="45.83545" lon="4.67889">
        <ele>258.38931</ele>
        <time>2022-09-17T12:49:38.000Z</time>
      </trkpt>
      <trkpt lat="45.83542" lon="4.67884">
        <ele>258.51736</ele>
        <time>2022-09-17T12:49:39.000Z</time>
      </trkpt>
      <trkpt lat="45.83539" lon="4.6788">
        <ele>258.68027</ele>
        <time>2022-09-17T12:49:40.000Z</time>
      </trkpt>
      <trkpt lat="45.83534" lon="4.67874">
        <ele>258.9234</ele>
        <time>2022-09-17T12:49:41.000Z</time>
      </trkpt>
      <trkpt lat="45.83531" lon="4.67868">
        <ele>259.21301</ele>
        <time>2022-09-17T12:49:42.000Z</time>
      </trkpt>
      <trkpt lat="45.83527" lon="4.67864">
        <ele>259.57611</ele>
        <time>2022-09-17T12:49:43.000Z</time>
      </trkpt>
      <trkpt lat="45.83523" lon="4.67859">
        <ele>259.93872</ele>
        <time>2022-09-17T12:49:44.000Z</time>
      </trkpt>
      <trkpt lat="45.8352" lon="4.67854">
        <ele>260.37915</ele>
        <time>2022-09-17T12:49:45.000Z</time>
      </trkpt>
      <trkpt lat="45.83516" lon="4.67848">
        <ele>260.72763</ele>
        <time>2022-09-17T12:49:46.000Z</time>
      </trkpt>
      <trkpt lat="45.83513" lon="4.67842">
        <ele>261.06549</ele>
        <time>2022-09-17T12:49:47.000Z</time>
      </trkpt>
      <trkpt lat="45.83509" lon="4.67838">
        <ele>261.35251</ele>
        <time>2022-09-17T12:49:48.000Z</time>
      </trkpt>
      <trkpt lat="45.83505" lon="4.67835">
        <ele>261.53912</ele>
        <time>2022-09-17T12:49:49.000Z</time>
      </trkpt>
      <trkpt lat="45.83501" lon="4.67833">
        <ele>261.71735</ele>
        <time>2022-09-17T12:49:50.000Z</time>
      </trkpt>
      <trkpt lat="45.83498" lon="4.67827">
        <ele>261.84409</ele>
        <time>2022-09-17T12:49:51.000Z</time>
      </trkpt>
      <trkpt lat="45.83493" lon="4.67824">
        <ele>261.91895</ele>
        <time>2022-09-17T12:49:52.000Z</time>
      </trkpt>
      <trkpt lat="45.83487" lon="4.67821">
        <ele>261.99506</ele>
        <time>2022-09-17T12:49:53.000Z</time>
      </trkpt>
      <trkpt lat="45.83483" lon="4.67817">
        <ele>262.20734</ele>
        <time>2022-09-17T12:49:54.000Z</time>
      </trkpt>
      <trkpt lat="45.83479" lon="4.67815">
        <ele>262.40668</ele>
        <time>2022-09-17T12:49:55.000Z</time>
      </trkpt>
      <trkpt lat="45.83475" lon="4.67813">
        <ele>262.64331</ele>
        <time>2022-09-17T12:49:56.000Z</time>
      </trkpt>
      <trkpt lat="45.83469" lon="4.67811">
        <ele>262.8941</ele>
        <time>2022-09-17T12:49:57.000Z</time>
      </trkpt>
      <trkpt lat="45.83463" lon="4.67808">
        <ele>263.07208</ele>
        <time>2022-09-17T12:49:58.000Z</time>
      </trkpt>
      <trkpt lat="45.83458" lon="4.67806">
        <ele>263.27267</ele>
        <time>2022-09-17T12:49:59.000Z</time>
      </trkpt>
      <trkpt lat="45.83453" lon="4.67803">
        <ele>263.45319</ele>
        <time>2022-09-17T12:50:00.000Z</time>
      </trkpt>
      <trkpt lat="45.83447" lon="4.678">
        <ele>263.62051</ele>
        <time>2022-09-17T12:50:01.000Z</time>
      </trkpt>
      <trkpt lat="45.83445" lon="4.67793">
        <ele>263.70917</ele>
        <time>2022-09-17T12:50:02.000Z</time>
      </trkpt>
      <trkpt lat="45.83442" lon="4.67786">
        <ele>263.72787</ele>
        <time>2022-09-17T12:50:03.000Z</time>
      </trkpt>
      <trkpt lat="45.83441" lon="4.67778">
        <ele>263.75803</ele>
        <time>2022-09-17T12:50:04.000Z</time>
      </trkpt>
      <trkpt lat="45.8344" lon="4.67772">
        <ele>263.78168</ele>
        <time>2022-09-17T12:50:05.000Z</time>
      </trkpt>
      <trkpt lat="45.8344" lon="4.67766">
        <ele>263.85748</ele>
        <time>2022-09-17T12:50:06.000Z</time>
      </trkpt>
      <trkpt lat="45.83439" lon="4.67761">
        <ele>263.97217</ele>
        <time>2022-09-17T12:50:07.000Z</time>
      </trkpt>
      <trkpt lat="45.83438" lon="4.67753">
        <ele>264.07745</ele>
        <time>2022-09-17T12:50:08.000Z</time>
      </trkpt>
      <trkpt lat="45.83437" lon="4.67749">
        <ele>264.24524</ele>
        <time>2022-09-17T12:50:09.000Z</time>
      </trkpt>
      <trkpt lat="45.83438" lon="4.67743">
        <ele>264.37167</ele>
        <time>2022-09-17T12:50:10.000Z</time>
      </trkpt>
      <trkpt lat="45.83436" lon="4.67739">
        <ele>264.55942</ele>
        <time>2022-09-17T12:50:11.000Z</time>
      </trkpt>
      <trkpt lat="45.83433" lon="4.67733">
        <ele>264.89191</ele>
        <time>2022-09-17T12:50:12.000Z</time>
      </trkpt>
      <trkpt lat="45.8343" lon="4.67727">
        <ele>265.21994</ele>
        <time>2022-09-17T12:50:13.000Z</time>
      </trkpt>
      <trkpt lat="45.83426" lon="4.67723">
        <ele>265.48907</ele>
        <time>2022-09-17T12:50:14.000Z</time>
      </trkpt>
      <trkpt lat="45.83421" lon="4.67717">
        <ele>265.85919</ele>
        <time>2022-09-17T12:50:15.000Z</time>
      </trkpt>
      <trkpt lat="45.83418" lon="4.67717">
        <ele>266.15631</ele>
        <time>2022-09-17T12:50:16.000Z</time>
      </trkpt>
      <trkpt lat="45.83414" lon="4.67712">
        <ele>266.32703</ele>
        <time>2022-09-17T12:50:17.000Z</time>
      </trkpt>
      <trkpt lat="45.8341" lon="4.67708">
        <ele>266.47021</ele>
        <time>2022-09-17T12:50:18.000Z</time>
      </trkpt>
      <trkpt lat="45.83406" lon="4.67703">
        <ele>266.55853</ele>
        <time>2022-09-17T12:50:19.000Z</time>
      </trkpt>
      <trkpt lat="45.83403" lon="4.67702">
        <ele>266.63806</ele>
        <time>2022-09-17T12:50:20.000Z</time>
      </trkpt>
      <trkpt lat="45.83399" lon="4.67698">
        <ele>266.70511</ele>
        <time>2022-09-17T12:50:21.000Z</time>
      </trkpt>
      <trkpt lat="45.83394" lon="4.67696">
        <ele>266.82901</ele>
        <time>2022-09-17T12:50:22.000Z</time>
      </trkpt>
      <trkpt lat="45.83389" lon="4.67693">
        <ele>266.95084</ele>
        <time>2022-09-17T12:50:23.000Z</time>
      </trkpt>
      <trkpt lat="45.83385" lon="4.67689">
        <ele>267.10193</ele>
        <time>2022-09-17T12:50:24.000Z</time>
      </trkpt>
      <trkpt lat="45.83381" lon="4.67685">
        <ele>267.19968</ele>
        <time>2022-09-17T12:50:25.000Z</time>
      </trkpt>
      <trkpt lat="45.83377" lon="4.67679">
        <ele>267.17856</ele>
        <time>2022-09-17T12:50:26.000Z</time>
      </trkpt>
      <trkpt lat="45.83373" lon="4.67678">
        <ele>267.09402</ele>
        <time>2022-09-17T12:50:27.000Z</time>
      </trkpt>
      <trkpt lat="45.8337" lon="4.67677">
        <ele>267.01889</ele>
        <time>2022-09-17T12:50:28.000Z</time>
      </trkpt>
      <trkpt lat="45.83366" lon="4.67676">
        <ele>266.99738</ele>
        <time>2022-09-17T12:50:29.000Z</time>
      </trkpt>
      <trkpt lat="45.83362" lon="4.67674">
        <ele>267.04636</ele>
        <time>2022-09-17T12:50:30.000Z</time>
      </trkpt>
      <trkpt lat="45.8336" lon="4.67672">
        <ele>267.0358</ele>
        <time>2022-09-17T12:50:31.000Z</time>
      </trkpt>
      <trkpt lat="45.83355" lon="4.67667">
        <ele>266.91776</ele>
        <time>2022-09-17T12:50:32.000Z</time>
      </trkpt>
      <trkpt lat="45.8335" lon="4.67663">
        <ele>266.73322</ele>
        <time>2022-09-17T12:50:33.000Z</time>
      </trkpt>
      <trkpt lat="45.83346" lon="4.67662">
        <ele>266.61392</ele>
        <time>2022-09-17T12:50:34.000Z</time>
      </trkpt>
      <trkpt lat="45.83342" lon="4.67658">
        <ele>266.40265</ele>
        <time>2022-09-17T12:50:35.000Z</time>
      </trkpt>
      <trkpt lat="45.8334" lon="4.67661">
        <ele>266.18646</ele>
        <time>2022-09-17T12:50:36.000Z</time>
      </trkpt>
      <trkpt lat="45.83335" lon="4.67656">
        <ele>266.04156</ele>
        <time>2022-09-17T12:50:37.000Z</time>
      </trkpt>
      <trkpt lat="45.8333" lon="4.67655">
        <ele>265.98422</ele>
        <time>2022-09-17T12:50:38.000Z</time>
      </trkpt>
      <trkpt lat="45.83328" lon="4.67652">
        <ele>266.09171</ele>
        <time>2022-09-17T12:50:39.000Z</time>
      </trkpt>
      <trkpt lat="45.83323" lon="4.6765">
        <ele>266.24701</ele>
        <time>2022-09-17T12:50:40.000Z</time>
      </trkpt>
      <trkpt lat="45.83318" lon="4.67648">
        <ele>266.35034</ele>
        <time>2022-09-17T12:50:41.000Z</time>
      </trkpt>
      <trkpt lat="45.83314" lon="4.67646">
        <ele>266.43155</ele>
        <time>2022-09-17T12:50:42.000Z</time>
      </trkpt>
      <trkpt lat="45.83306" lon="4.6764">
        <ele>266.50873</ele>
        <time>2022-09-17T12:50:44.000Z</time>
      </trkpt>
      <trkpt lat="45.83303" lon="4.67639">
        <ele>266.61798</ele>
        <time>2022-09-17T12:50:45.000Z</time>
      </trkpt>
      <trkpt lat="45.833" lon="4.67639">
        <ele>266.83759</ele>
        <time>2022-09-17T12:50:46.000Z</time>
      </trkpt>
      <trkpt lat="45.83296" lon="4.67637">
        <ele>267.14923</ele>
        <time>2022-09-17T12:50:47.000Z</time>
      </trkpt>
      <trkpt lat="45.83292" lon="4.67636">
        <ele>267.48883</ele>
        <time>2022-09-17T12:50:48.000Z</time>
      </trkpt>
      <trkpt lat="45.83288" lon="4.67635">
        <ele>267.87006</ele>
        <time>2022-09-17T12:50:49.000Z</time>
      </trkpt>
      <trkpt lat="45.83283" lon="4.67635">
        <ele>268.24255</ele>
        <time>2022-09-17T12:50:50.000Z</time>
      </trkpt>
      <trkpt lat="45.83279" lon="4.67634">
        <ele>268.53516</ele>
        <time>2022-09-17T12:50:51.000Z</time>
      </trkpt>
      <trkpt lat="45.83272" lon="4.67633">
        <ele>268.88858</ele>
        <time>2022-09-17T12:50:52.000Z</time>
      </trkpt>
      <trkpt lat="45.83267" lon="4.67631">
        <ele>269.21445</ele>
        <time>2022-09-17T12:50:53.000Z</time>
      </trkpt>
      <trkpt lat="45.83262" lon="4.67629">
        <ele>269.48416</ele>
        <time>2022-09-17T12:50:54.000Z</time>
      </trkpt>
      <trkpt lat="45.83256" lon="4.67627">
        <ele>269.61053</ele>
        <time>2022-09-17T12:50:55.000Z</time>
      </trkpt>
      <trkpt lat="45.8325" lon="4.67626">
        <ele>269.79562</ele>
        <time>2022-09-17T12:50:56.000Z</time>
      </trkpt>
      <trkpt lat="45.83245" lon="4.67622">
        <ele>270.04401</ele>
        <time>2022-09-17T12:50:57.000Z</time>
      </trkpt>
      <trkpt lat="45.83241" lon="4.67617">
        <ele>270.34186</ele>
        <time>2022-09-17T12:50:58.000Z</time>
      </trkpt>
      <trkpt lat="45.83238" lon="4.6761">
        <ele>270.55121</ele>
        <time>2022-09-17T12:50:59.000Z</time>
      </trkpt>
      <trkpt lat="45.83236" lon="4.67603">
        <ele>270.67871</ele>
        <time>2022-09-17T12:51:00.000Z</time>
      </trkpt>
      <trkpt lat="45.83236" lon="4.67595">
        <ele>270.81509</ele>
        <time>2022-09-17T12:51:01.000Z</time>
      </trkpt>
      <trkpt lat="45.83235" lon="4.67587">
        <ele>270.98273</ele>
        <time>2022-09-17T12:51:02.000Z</time>
      </trkpt>
      <trkpt lat="45.83236" lon="4.67582">
        <ele>271.16818</ele>
        <time>2022-09-17T12:51:03.000Z</time>
      </trkpt>
      <trkpt lat="45.83238" lon="4.67577">
        <ele>271.3493</ele>
        <time>2022-09-17T12:51:04.000Z</time>
      </trkpt>
      <trkpt lat="45.8324" lon="4.67572">
        <ele>271.39679</ele>
        <time>2022-09-17T12:51:05.000Z</time>
      </trkpt>
      <trkpt lat="45.83241" lon="4.67566">
        <ele>271.39331</ele>
        <time>2022-09-17T12:51:06.000Z</time>
      </trkpt>
      <trkpt lat="45.83241" lon="4.67562">
        <ele>271.41583</ele>
        <time>2022-09-17T12:51:07.000Z</time>
      </trkpt>
      <trkpt lat="45.83242" lon="4.67557">
        <ele>271.49191</ele>
        <time>2022-09-17T12:51:08.000Z</time>
      </trkpt>
      <trkpt lat="45.83242" lon="4.67552">
        <ele>271.53845</ele>
        <time>2022-09-17T12:51:09.000Z</time>
      </trkpt>
      <trkpt lat="45.8324" lon="4.67546">
        <ele>271.57614</ele>
        <time>2022-09-17T12:51:10.000Z</time>
      </trkpt>
      <trkpt lat="45.83238" lon="4.67543">
        <ele>271.62958</ele>
        <time>2022-09-17T12:51:11.000Z</time>
      </trkpt>
      <trkpt lat="45.83237" lon="4.67539">
        <ele>271.60385</ele>
        <time>2022-09-17T12:51:12.000Z</time>
      </trkpt>
      <trkpt lat="45.83234" lon="4.67534">
        <ele>271.62189</ele>
        <time>2022-09-17T12:51:13.000Z</time>
      </trkpt>
      <trkpt lat="45.83232" lon="4.67531">
        <ele>271.77502</ele>
        <time>2022-09-17T12:51:14.000Z</time>
      </trkpt>
      <trkpt lat="45.83229" lon="4.67528">
        <ele>271.99506</ele>
        <time>2022-09-17T12:51:15.000Z</time>
      </trkpt>
      <trkpt lat="45.83226" lon="4.67525">
        <ele>272.21936</ele>
        <time>2022-09-17T12:51:16.000Z</time>
      </trkpt>
      <trkpt lat="45.83223" lon="4.67522">
        <ele>272.43921</ele>
        <time>2022-09-17T12:51:17.000Z</time>
      </trkpt>
      <trkpt lat="45.83219" lon="4.6752">
        <ele>272.56653</ele>
        <time>2022-09-17T12:51:18.000Z</time>
      </trkpt>
      <trkpt lat="45.83216" lon="4.67517">
        <ele>272.73163</ele>
        <time>2022-09-17T12:51:19.000Z</time>
      </trkpt>
      <trkpt lat="45.83213" lon="4.67514">
        <ele>272.90973</ele>
        <time>2022-09-17T12:51:20.000Z</time>
      </trkpt>
      <trkpt lat="45.8321" lon="4.67512">
        <ele>273.08179</ele>
        <time>2022-09-17T12:51:21.000Z</time>
      </trkpt>
      <trkpt lat="45.83208" lon="4.6751">
        <ele>273.26682</ele>
        <time>2022-09-17T12:51:22.000Z</time>
      </trkpt>
      <trkpt lat="45.83205" lon="4.67507">
        <ele>273.40671</ele>
        <time>2022-09-17T12:51:23.000Z</time>
      </trkpt>
      <trkpt lat="45.83202" lon="4.67504">
        <ele>273.56342</ele>
        <time>2022-09-17T12:51:24.000Z</time>
      </trkpt>
      <trkpt lat="45.832" lon="4.67501">
        <ele>273.78674</ele>
        <time>2022-09-17T12:51:25.000Z</time>
      </trkpt>
      <trkpt lat="45.83197" lon="4.67498">
        <ele>273.94003</ele>
        <time>2022-09-17T12:51:26.000Z</time>
      </trkpt>
      <trkpt lat="45.83192" lon="4.67493">
        <ele>274.00156</ele>
        <time>2022-09-17T12:51:27.000Z</time>
      </trkpt>
      <trkpt lat="45.83189" lon="4.67489">
        <ele>274.03485</ele>
        <time>2022-09-17T12:51:28.000Z</time>
      </trkpt>
      <trkpt lat="45.83186" lon="4.67485">
        <ele>273.98837</ele>
        <time>2022-09-17T12:51:29.000Z</time>
      </trkpt>
      <trkpt lat="45.83183" lon="4.67481">
        <ele>273.99557</ele>
        <time>2022-09-17T12:51:30.000Z</time>
      </trkpt>
      <trkpt lat="45.83179" lon="4.67478">
        <ele>274.07684</ele>
        <time>2022-09-17T12:51:31.000Z</time>
      </trkpt>
      <trkpt lat="45.83176" lon="4.67474">
        <ele>274.25568</ele>
        <time>2022-09-17T12:51:32.000Z</time>
      </trkpt>
      <trkpt lat="45.83173" lon="4.67473">
        <ele>274.42145</ele>
        <time>2022-09-17T12:51:33.000Z</time>
      </trkpt>
      <trkpt lat="45.83169" lon="4.67472">
        <ele>274.57574</ele>
        <time>2022-09-17T12:51:34.000Z</time>
      </trkpt>
      <trkpt lat="45.83164" lon="4.6747">
        <ele>274.77954</ele>
        <time>2022-09-17T12:51:35.000Z</time>
      </trkpt>
      <trkpt lat="45.8316" lon="4.67471">
        <ele>274.95493</ele>
        <time>2022-09-17T12:51:36.000Z</time>
      </trkpt>
      <trkpt lat="45.83155" lon="4.67471">
        <ele>275.06335</ele>
        <time>2022-09-17T12:51:37.000Z</time>
      </trkpt>
      <trkpt lat="45.83151" lon="4.67471">
        <ele>275.18369</ele>
        <time>2022-09-17T12:51:38.000Z</time>
      </trkpt>
      <trkpt lat="45.83146" lon="4.67471">
        <ele>275.3299</ele>
        <time>2022-09-17T12:51:39.000Z</time>
      </trkpt>
      <trkpt lat="45.83142" lon="4.67468">
        <ele>275.43246</ele>
        <time>2022-09-17T12:51:40.000Z</time>
      </trkpt>
      <trkpt lat="45.83138" lon="4.67464">
        <ele>275.55286</ele>
        <time>2022-09-17T12:51:41.000Z</time>
      </trkpt>
      <trkpt lat="45.83135" lon="4.67461">
        <ele>275.69016</ele>
        <time>2022-09-17T12:51:42.000Z</time>
      </trkpt>
      <trkpt lat="45.83132" lon="4.67458">
        <ele>275.83887</ele>
        <time>2022-09-17T12:51:43.000Z</time>
      </trkpt>
      <trkpt lat="45.83129" lon="4.67453">
        <ele>275.94366</ele>
        <time>2022-09-17T12:51:44.000Z</time>
      </trkpt>
      <trkpt lat="45.83126" lon="4.67449">
        <ele>275.99207</ele>
        <time>2022-09-17T12:51:45.000Z</time>
      </trkpt>
      <trkpt lat="45.83124" lon="4.67445">
        <ele>276.13641</ele>
        <time>2022-09-17T12:51:46.000Z</time>
      </trkpt>
      <trkpt lat="45.8312" lon="4.67441">
        <ele>276.36005</ele>
        <time>2022-09-17T12:51:47.000Z</time>
      </trkpt>
      <trkpt lat="45.83116" lon="4.67436">
        <ele>276.5275</ele>
        <time>2022-09-17T12:51:48.000Z</time>
      </trkpt>
      <trkpt lat="45.83113" lon="4.67432">
        <ele>276.76611</ele>
        <time>2022-09-17T12:51:49.000Z</time>
      </trkpt>
      <trkpt lat="45.8311" lon="4.67428">
        <ele>276.93329</ele>
        <time>2022-09-17T12:51:50.000Z</time>
      </trkpt>
      <trkpt lat="45.83108" lon="4.67426">
        <ele>277.06674</ele>
        <time>2022-09-17T12:51:51.000Z</time>
      </trkpt>
      <trkpt lat="45.83103" lon="4.67423">
        <ele>277.10211</ele>
        <time>2022-09-17T12:51:52.000Z</time>
      </trkpt>
      <trkpt lat="45.831" lon="4.67419">
        <ele>277.20441</ele>
        <time>2022-09-17T12:51:53.000Z</time>
      </trkpt>
      <trkpt lat="45.83095" lon="4.67415">
        <ele>277.26056</ele>
        <time>2022-09-17T12:51:54.000Z</time>
      </trkpt>
      <trkpt lat="45.8309" lon="4.67411">
        <ele>277.29358</ele>
        <time>2022-09-17T12:51:55.000Z</time>
      </trkpt>
      <trkpt lat="45.83087" lon="4.67404">
        <ele>277.25519</ele>
        <time>2022-09-17T12:51:56.000Z</time>
      </trkpt>
      <trkpt lat="45.83084" lon="4.67399">
        <ele>277.25421</ele>
        <time>2022-09-17T12:51:57.000Z</time>
      </trkpt>
      <trkpt lat="45.83079" lon="4.67394">
        <ele>277.29614</ele>
        <time>2022-09-17T12:51:58.000Z</time>
      </trkpt>
      <trkpt lat="45.83075" lon="4.6739">
        <ele>277.30878</ele>
        <time>2022-09-17T12:51:59.000Z</time>
      </trkpt>
      <trkpt lat="45.83071" lon="4.67387">
        <ele>277.4187</ele>
        <time>2022-09-17T12:52:00.000Z</time>
      </trkpt>
      <trkpt lat="45.83069" lon="4.6738">
        <ele>277.40329</ele>
        <time>2022-09-17T12:52:01.000Z</time>
      </trkpt>
      <trkpt lat="45.83065" lon="4.67377">
        <ele>277.3598</ele>
        <time>2022-09-17T12:52:02.000Z</time>
      </trkpt>
      <trkpt lat="45.83062" lon="4.67372">
        <ele>277.33676</ele>
        <time>2022-09-17T12:52:03.000Z</time>
      </trkpt>
      <trkpt lat="45.83058" lon="4.6737">
        <ele>277.36005</ele>
        <time>2022-09-17T12:52:04.000Z</time>
      </trkpt>
      <trkpt lat="45.83054" lon="4.67366">
        <ele>277.46805</ele>
        <time>2022-09-17T12:52:05.000Z</time>
      </trkpt>
      <trkpt lat="45.8305" lon="4.67362">
        <ele>277.50946</ele>
        <time>2022-09-17T12:52:06.000Z</time>
      </trkpt>
      <trkpt lat="45.83046" lon="4.6736">
        <ele>277.53094</ele>
        <time>2022-09-17T12:52:07.000Z</time>
      </trkpt>
      <trkpt lat="45.83043" lon="4.67357">
        <ele>277.6485</ele>
        <time>2022-09-17T12:52:08.000Z</time>
      </trkpt>
      <trkpt lat="45.8304" lon="4.67352">
        <ele>277.84171</ele>
        <time>2022-09-17T12:52:09.000Z</time>
      </trkpt>
      <trkpt lat="45.83037" lon="4.67348">
        <ele>278.05099</ele>
        <time>2022-09-17T12:52:10.000Z</time>
      </trkpt>
      <trkpt lat="45.83035" lon="4.67345">
        <ele>278.19308</ele>
        <time>2022-09-17T12:52:11.000Z</time>
      </trkpt>
      <trkpt lat="45.83032" lon="4.67342">
        <ele>278.4119</ele>
        <time>2022-09-17T12:52:12.000Z</time>
      </trkpt>
      <trkpt lat="45.83028" lon="4.67339">
        <ele>278.5528</ele>
        <time>2022-09-17T12:52:13.000Z</time>
      </trkpt>
      <trkpt lat="45.83025" lon="4.67337">
        <ele>278.78604</ele>
        <time>2022-09-17T12:52:14.000Z</time>
      </trkpt>
      <trkpt lat="45.83021" lon="4.67334">
        <ele>278.97858</ele>
        <time>2022-09-17T12:52:15.000Z</time>
      </trkpt>
      <trkpt lat="45.83017" lon="4.67331">
        <ele>279.23712</ele>
        <time>2022-09-17T12:52:16.000Z</time>
      </trkpt>
      <trkpt lat="45.83014" lon="4.67328">
        <ele>279.45227</ele>
        <time>2022-09-17T12:52:17.000Z</time>
      </trkpt>
      <trkpt lat="45.8301" lon="4.67324">
        <ele>279.65839</ele>
        <time>2022-09-17T12:52:18.000Z</time>
      </trkpt>
      <trkpt lat="45.83007" lon="4.67321">
        <ele>279.89703</ele>
        <time>2022-09-17T12:52:19.000Z</time>
      </trkpt>
      <trkpt lat="45.83003" lon="4.67319">
        <ele>280.11401</ele>
        <time>2022-09-17T12:52:20.000Z</time>
      </trkpt>
      <trkpt lat="45.83" lon="4.67316">
        <ele>280.44763</ele>
        <time>2022-09-17T12:52:21.000Z</time>
      </trkpt>
      <trkpt lat="45.82998" lon="4.67313">
        <ele>280.83167</ele>
        <time>2022-09-17T12:52:22.000Z</time>
      </trkpt>
      <trkpt lat="45.82997" lon="4.6731">
        <ele>281.24017</ele>
        <time>2022-09-17T12:52:23.000Z</time>
      </trkpt>
      <trkpt lat="45.82997" lon="4.67306">
        <ele>281.65082</ele>
        <time>2022-09-17T12:52:24.000Z</time>
      </trkpt>
      <trkpt lat="45.82998" lon="4.67301">
        <ele>282.01117</ele>
        <time>2022-09-17T12:52:25.000Z</time>
      </trkpt>
      <trkpt lat="45.83" lon="4.67296">
        <ele>282.35233</ele>
        <time>2022-09-17T12:52:26.000Z</time>
      </trkpt>
      <trkpt lat="45.83002" lon="4.6729">
        <ele>282.65027</ele>
        <time>2022-09-17T12:52:27.000Z</time>
      </trkpt>
      <trkpt lat="45.83004" lon="4.67285">
        <ele>282.90057</ele>
        <time>2022-09-17T12:52:28.000Z</time>
      </trkpt>
      <trkpt lat="45.83006" lon="4.67279">
        <ele>283.09152</ele>
        <time>2022-09-17T12:52:29.000Z</time>
      </trkpt>
      <trkpt lat="45.83008" lon="4.67273">
        <ele>283.29312</ele>
        <time>2022-09-17T12:52:30.000Z</time>
      </trkpt>
      <trkpt lat="45.8301" lon="4.67268">
        <ele>283.57257</ele>
        <time>2022-09-17T12:52:31.000Z</time>
      </trkpt>
      <trkpt lat="45.83013" lon="4.67262">
        <ele>283.79071</ele>
        <time>2022-09-17T12:52:32.000Z</time>
      </trkpt>
      <trkpt lat="45.83015" lon="4.67256">
        <ele>284.04984</ele>
        <time>2022-09-17T12:52:33.000Z</time>
      </trkpt>
      <trkpt lat="45.83016" lon="4.67251">
        <ele>284.2182</ele>
        <time>2022-09-17T12:52:34.000Z</time>
      </trkpt>
      <trkpt lat="45.83018" lon="4.67245">
        <ele>284.41058</ele>
        <time>2022-09-17T12:52:35.000Z</time>
      </trkpt>
      <trkpt lat="45.8302" lon="4.6724">
        <ele>284.58682</ele>
        <time>2022-09-17T12:52:36.000Z</time>
      </trkpt>
      <trkpt lat="45.83021" lon="4.67235">
        <ele>284.85693</ele>
        <time>2022-09-17T12:52:37.000Z</time>
      </trkpt>
      <trkpt lat="45.83023" lon="4.6723">
        <ele>285.13071</ele>
        <time>2022-09-17T12:52:38.000Z</time>
      </trkpt>
      <trkpt lat="45.83024" lon="4.67226">
        <ele>285.40234</ele>
        <time>2022-09-17T12:52:39.000Z</time>
      </trkpt>
      <trkpt lat="45.83026" lon="4.67221">
        <ele>285.62607</ele>
        <time>2022-09-17T12:52:40.000Z</time>
      </trkpt>
      <trkpt lat="45.83027" lon="4.67217">
        <ele>285.82361</ele>
        <time>2022-09-17T12:52:41.000Z</time>
      </trkpt>
      <trkpt lat="45.83028" lon="4.67212">
        <ele>285.93097</ele>
        <time>2022-09-17T12:52:42.000Z</time>
      </trkpt>
      <trkpt lat="45.83029" lon="4.67207">
        <ele>286.01709</ele>
        <time>2022-09-17T12:52:43.000Z</time>
      </trkpt>
      <trkpt lat="45.8303" lon="4.67202">
        <ele>286.07837</ele>
        <time>2022-09-17T12:52:44.000Z</time>
      </trkpt>
      <trkpt lat="45.83031" lon="4.67197">
        <ele>286.17068</ele>
        <time>2022-09-17T12:52:45.000Z</time>
      </trkpt>
      <trkpt lat="45.83032" lon="4.67191">
        <ele>286.31332</ele>
        <time>2022-09-17T12:52:46.000Z</time>
      </trkpt>
      <trkpt lat="45.83031" lon="4.67186">
        <ele>286.48334</ele>
        <time>2022-09-17T12:52:47.000Z</time>
      </trkpt>
      <trkpt lat="45.83029" lon="4.67181">
        <ele>286.59305</ele>
        <time>2022-09-17T12:52:48.000Z</time>
      </trkpt>
      <trkpt lat="45.83027" lon="4.67176">
        <ele>286.67279</ele>
        <time>2022-09-17T12:52:49.000Z</time>
      </trkpt>
      <trkpt lat="45.83025" lon="4.67172">
        <ele>286.71429</ele>
        <time>2022-09-17T12:52:50.000Z</time>
      </trkpt>
      <trkpt lat="45.83022" lon="4.67167">
        <ele>286.79883</ele>
        <time>2022-09-17T12:52:51.000Z</time>
      </trkpt>
      <trkpt lat="45.8302" lon="4.67163">
        <ele>286.90363</ele>
        <time>2022-09-17T12:52:52.000Z</time>
      </trkpt>
      <trkpt lat="45.83017" lon="4.67159">
        <ele>287.01608</ele>
        <time>2022-09-17T12:52:53.000Z</time>
      </trkpt>
      <trkpt lat="45.83015" lon="4.67154">
        <ele>287.18948</ele>
        <time>2022-09-17T12:52:54.000Z</time>
      </trkpt>
      <trkpt lat="45.83013" lon="4.6715">
        <ele>287.31213</ele>
        <time>2022-09-17T12:52:55.000Z</time>
      </trkpt>
      <trkpt lat="45.8301" lon="4.67146">
        <ele>287.47495</ele>
        <time>2022-09-17T12:52:56.000Z</time>
      </trkpt>
      <trkpt lat="45.83008" lon="4.67141">
        <ele>287.65631</ele>
        <time>2022-09-17T12:52:57.000Z</time>
      </trkpt>
      <trkpt lat="45.83006" lon="4.67137">
        <ele>287.77368</ele>
        <time>2022-09-17T12:52:58.000Z</time>
      </trkpt>
      <trkpt lat="45.83005" lon="4.67133">
        <ele>287.87402</ele>
        <time>2022-09-17T12:52:59.000Z</time>
      </trkpt>
      <trkpt lat="45.83004" lon="4.67128">
        <ele>287.93356</ele>
        <time>2022-09-17T12:53:00.000Z</time>
      </trkpt>
      <trkpt lat="45.83004" lon="4.67123">
        <ele>288.04242</ele>
        <time>2022-09-17T12:53:01.000Z</time>
      </trkpt>
      <trkpt lat="45.83003" lon="4.67119">
        <ele>288.22787</ele>
        <time>2022-09-17T12:53:02.000Z</time>
      </trkpt>
      <trkpt lat="45.83003" lon="4.67114">
        <ele>288.37225</ele>
        <time>2022-09-17T12:53:03.000Z</time>
      </trkpt>
      <trkpt lat="45.83003" lon="4.6711">
        <ele>288.58167</ele>
        <time>2022-09-17T12:53:04.000Z</time>
      </trkpt>
      <trkpt lat="45.83002" lon="4.67106">
        <ele>288.81195</ele>
        <time>2022-09-17T12:53:05.000Z</time>
      </trkpt>
      <trkpt lat="45.83001" lon="4.67102">
        <ele>289.03162</ele>
        <time>2022-09-17T12:53:06.000Z</time>
      </trkpt>
      <trkpt lat="45.83" lon="4.67098">
        <ele>289.2532</ele>
        <time>2022-09-17T12:53:07.000Z</time>
      </trkpt>
      <trkpt lat="45.82999" lon="4.67093">
        <ele>289.47916</ele>
        <time>2022-09-17T12:53:08.000Z</time>
      </trkpt>
      <trkpt lat="45.82998" lon="4.67088">
        <ele>289.74503</ele>
        <time>2022-09-17T12:53:09.000Z</time>
      </trkpt>
      <trkpt lat="45.82999" lon="4.67082">
        <ele>290.07584</ele>
        <time>2022-09-17T12:53:10.000Z</time>
      </trkpt>
      <trkpt lat="45.83" lon="4.67077">
        <ele>290.31119</ele>
        <time>2022-09-17T12:53:11.000Z</time>
      </trkpt>
      <trkpt lat="45.83" lon="4.67071">
        <ele>290.47028</ele>
        <time>2022-09-17T12:53:12.000Z</time>
      </trkpt>
      <trkpt lat="45.83001" lon="4.67066">
        <ele>290.50824</ele>
        <time>2022-09-17T12:53:13.000Z</time>
      </trkpt>
      <trkpt lat="45.83001" lon="4.67061">
        <ele>290.47791</ele>
        <time>2022-09-17T12:53:14.000Z</time>
      </trkpt>
      <trkpt lat="45.83002" lon="4.67057">
        <ele>290.43921</ele>
        <time>2022-09-17T12:53:15.000Z</time>
      </trkpt>
      <trkpt lat="45.83003" lon="4.67051">
        <ele>290.29526</ele>
        <time>2022-09-17T12:53:16.000Z</time>
      </trkpt>
      <trkpt lat="45.83004" lon="4.67046">
        <ele>290.19498</ele>
        <time>2022-09-17T12:53:17.000Z</time>
      </trkpt>
      <trkpt lat="45.83005" lon="4.67041">
        <ele>290.11798</ele>
        <time>2022-09-17T12:53:18.000Z</time>
      </trkpt>
      <trkpt lat="45.83006" lon="4.67036">
        <ele>290.03033</ele>
        <time>2022-09-17T12:53:19.000Z</time>
      </trkpt>
      <trkpt lat="45.83007" lon="4.6703">
        <ele>290.01093</ele>
        <time>2022-09-17T12:53:20.000Z</time>
      </trkpt>
      <trkpt lat="45.83008" lon="4.67024">
        <ele>289.91617</ele>
        <time>2022-09-17T12:53:21.000Z</time>
      </trkpt>
      <trkpt lat="45.83008" lon="4.67018">
        <ele>289.79312</ele>
        <time>2022-09-17T12:53:22.000Z</time>
      </trkpt>
      <trkpt lat="45.83009" lon="4.67013">
        <ele>289.73431</ele>
        <time>2022-09-17T12:53:23.000Z</time>
      </trkpt>
      <trkpt lat="45.83009" lon="4.67007">
        <ele>289.63864</ele>
        <time>2022-09-17T12:53:24.000Z</time>
      </trkpt>
      <trkpt lat="45.8301" lon="4.67002">
        <ele>289.51093</ele>
        <time>2022-09-17T12:53:25.000Z</time>
      </trkpt>
      <trkpt lat="45.8301" lon="4.66997">
        <ele>289.37567</ele>
        <time>2022-09-17T12:53:26.000Z</time>
      </trkpt>
      <trkpt lat="45.83011" lon="4.66992">
        <ele>289.23618</ele>
        <time>2022-09-17T12:53:27.000Z</time>
      </trkpt>
      <trkpt lat="45.83012" lon="4.66986">
        <ele>289.19601</ele>
        <time>2022-09-17T12:53:28.000Z</time>
      </trkpt>
      <trkpt lat="45.83012" lon="4.6698">
        <ele>289.16205</ele>
        <time>2022-09-17T12:53:29.000Z</time>
      </trkpt>
      <trkpt lat="45.83013" lon="4.66975">
        <ele>289.11725</ele>
        <time>2022-09-17T12:53:30.000Z</time>
      </trkpt>
      <trkpt lat="45.83013" lon="4.6697">
        <ele>289.17511</ele>
        <time>2022-09-17T12:53:31.000Z</time>
      </trkpt>
      <trkpt lat="45.83013" lon="4.66965">
        <ele>289.32205</ele>
        <time>2022-09-17T12:53:32.000Z</time>
      </trkpt>
      <trkpt lat="45.83013" lon="4.6696">
        <ele>289.59076</ele>
        <time>2022-09-17T12:53:33.000Z</time>
      </trkpt>
      <trkpt lat="45.83014" lon="4.66954">
        <ele>289.90848</ele>
        <time>2022-09-17T12:53:34.000Z</time>
      </trkpt>
      <trkpt lat="45.83014" lon="4.66949">
        <ele>290.23206</ele>
        <time>2022-09-17T12:53:35.000Z</time>
      </trkpt>
      <trkpt lat="45.83015" lon="4.66943">
        <ele>290.61319</ele>
        <time>2022-09-17T12:53:36.000Z</time>
      </trkpt>
      <trkpt lat="45.83015" lon="4.66937">
        <ele>290.9072</ele>
        <time>2022-09-17T12:53:37.000Z</time>
      </trkpt>
      <trkpt lat="45.83015" lon="4.66932">
        <ele>291.28256</ele>
        <time>2022-09-17T12:53:38.000Z</time>
      </trkpt>
      <trkpt lat="45.83015" lon="4.66926">
        <ele>291.74921</ele>
        <time>2022-09-17T12:53:39.000Z</time>
      </trkpt>
      <trkpt lat="45.83016" lon="4.66921">
        <ele>292.24323</ele>
        <time>2022-09-17T12:53:40.000Z</time>
      </trkpt>
      <trkpt lat="45.83016" lon="4.66915">
        <ele>292.77167</ele>
        <time>2022-09-17T12:53:41.000Z</time>
      </trkpt>
      <trkpt lat="45.83016" lon="4.6691">
        <ele>293.33182</ele>
        <time>2022-09-17T12:53:42.000Z</time>
      </trkpt>
      <trkpt lat="45.83016" lon="4.66905">
        <ele>293.91522</ele>
        <time>2022-09-17T12:53:43.000Z</time>
      </trkpt>
      <trkpt lat="45.83016" lon="4.669">
        <ele>294.47861</ele>
        <time>2022-09-17T12:53:44.000Z</time>
      </trkpt>
      <trkpt lat="45.83016" lon="4.66895">
        <ele>295.08173</ele>
        <time>2022-09-17T12:53:45.000Z</time>
      </trkpt>
      <trkpt lat="45.83016" lon="4.66891">
        <ele>295.7233</ele>
        <time>2022-09-17T12:53:46.000Z</time>
      </trkpt>
      <trkpt lat="45.83016" lon="4.66886">
        <ele>296.38397</ele>
        <time>2022-09-17T12:53:47.000Z</time>
      </trkpt>
      <trkpt lat="45.83015" lon="4.66882">
        <ele>296.96552</ele>
        <time>2022-09-17T12:53:48.000Z</time>
      </trkpt>
      <trkpt lat="45.83015" lon="4.66878">
        <ele>297.54407</ele>
        <time>2022-09-17T12:53:49.000Z</time>
      </trkpt>
      <trkpt lat="45.83014" lon="4.66874">
        <ele>298.09216</ele>
        <time>2022-09-17T12:53:50.000Z</time>
      </trkpt>
      <trkpt lat="45.83014" lon="4.66869">
        <ele>298.62341</ele>
        <time>2022-09-17T12:53:51.000Z</time>
      </trkpt>
      <trkpt lat="45.83014" lon="4.66865">
        <ele>299.09973</ele>
        <time>2022-09-17T12:53:52.000Z</time>
      </trkpt>
      <trkpt lat="45.83014" lon="4.66861">
        <ele>299.56848</ele>
        <time>2022-09-17T12:53:53.000Z</time>
      </trkpt>
      <trkpt lat="45.83014" lon="4.66856">
        <ele>300.00107</ele>
        <time>2022-09-17T12:53:54.000Z</time>
      </trkpt>
      <trkpt lat="45.83014" lon="4.66851">
        <ele>300.52158</ele>
        <time>2022-09-17T12:53:55.000Z</time>
      </trkpt>
      <trkpt lat="45.83015" lon="4.66846">
        <ele>301.11136</ele>
        <time>2022-09-17T12:53:56.000Z</time>
      </trkpt>
      <trkpt lat="45.83017" lon="4.66843">
        <ele>301.73788</ele>
        <time>2022-09-17T12:53:57.000Z</time>
      </trkpt>
      <trkpt lat="45.83021" lon="4.66841">
        <ele>302.40454</ele>
        <time>2022-09-17T12:53:58.000Z</time>
      </trkpt>
      <trkpt lat="45.83025" lon="4.66841">
        <ele>302.95834</ele>
        <time>2022-09-17T12:53:59.000Z</time>
      </trkpt>
      <trkpt lat="45.8303" lon="4.66841">
        <ele>303.48615</ele>
        <time>2022-09-17T12:54:00.000Z</time>
      </trkpt>
      <trkpt lat="45.83038" lon="4.66845">
        <ele>304.00406</ele>
        <time>2022-09-17T12:54:01.000Z</time>
      </trkpt>
      <trkpt lat="45.83043" lon="4.66846">
        <ele>304.47687</ele>
        <time>2022-09-17T12:54:02.000Z</time>
      </trkpt>
      <trkpt lat="45.8305" lon="4.66846">
        <ele>304.86664</ele>
        <time>2022-09-17T12:54:03.000Z</time>
      </trkpt>
      <trkpt lat="45.83054" lon="4.66848">
        <ele>305.29477</ele>
        <time>2022-09-17T12:54:04.000Z</time>
      </trkpt>
      <trkpt lat="45.83059" lon="4.66848">
        <ele>305.67969</ele>
        <time>2022-09-17T12:54:05.000Z</time>
      </trkpt>
      <trkpt lat="45.83065" lon="4.66851">
        <ele>305.99554</ele>
        <time>2022-09-17T12:54:06.000Z</time>
      </trkpt>
      <trkpt lat="45.83071" lon="4.66852">
        <ele>306.31598</ele>
        <time>2022-09-17T12:54:07.000Z</time>
      </trkpt>
      <trkpt lat="45.83075" lon="4.66854">
        <ele>306.70947</ele>
        <time>2022-09-17T12:54:08.000Z</time>
      </trkpt>
      <trkpt lat="45.83081" lon="4.66857">
        <ele>307.09003</ele>
        <time>2022-09-17T12:54:09.000Z</time>
      </trkpt>
      <trkpt lat="45.83087" lon="4.66863">
        <ele>307.42041</ele>
        <time>2022-09-17T12:54:10.000Z</time>
      </trkpt>
      <trkpt lat="45.83092" lon="4.66867">
        <ele>307.79251</ele>
        <time>2022-09-17T12:54:11.000Z</time>
      </trkpt>
      <trkpt lat="45.831" lon="4.66868">
        <ele>308.1983</ele>
        <time>2022-09-17T12:54:12.000Z</time>
      </trkpt>
      <trkpt lat="45.83105" lon="4.66872">
        <ele>308.54547</ele>
        <time>2022-09-17T12:54:13.000Z</time>
      </trkpt>
      <trkpt lat="45.83111" lon="4.66875">
        <ele>308.86655</ele>
        <time>2022-09-17T12:54:14.000Z</time>
      </trkpt>
      <trkpt lat="45.83116" lon="4.66879">
        <ele>309.1246</ele>
        <time>2022-09-17T12:54:15.000Z</time>
      </trkpt>
      <trkpt lat="45.83121" lon="4.66883">
        <ele>309.27902</ele>
        <time>2022-09-17T12:54:16.000Z</time>
      </trkpt>
      <trkpt lat="45.83127" lon="4.66889">
        <ele>309.3783</ele>
        <time>2022-09-17T12:54:17.000Z</time>
      </trkpt>
      <trkpt lat="45.83131" lon="4.66892">
        <ele>309.33762</ele>
        <time>2022-09-17T12:54:18.000Z</time>
      </trkpt>
      <trkpt lat="45.83137" lon="4.66895">
        <ele>309.29626</ele>
        <time>2022-09-17T12:54:19.000Z</time>
      </trkpt>
      <trkpt lat="45.83142" lon="4.66898">
        <ele>309.18781</ele>
        <time>2022-09-17T12:54:20.000Z</time>
      </trkpt>
      <trkpt lat="45.83148" lon="4.66902">
        <ele>309.07251</ele>
        <time>2022-09-17T12:54:21.000Z</time>
      </trkpt>
      <trkpt lat="45.83153" lon="4.66905">
        <ele>308.96588</ele>
        <time>2022-09-17T12:54:22.000Z</time>
      </trkpt>
      <trkpt lat="45.83159" lon="4.6691">
        <ele>308.91595</ele>
        <time>2022-09-17T12:54:23.000Z</time>
      </trkpt>
      <trkpt lat="45.83164" lon="4.66914">
        <ele>308.85587</ele>
        <time>2022-09-17T12:54:24.000Z</time>
      </trkpt>
      <trkpt lat="45.83169" lon="4.66916">
        <ele>308.79449</ele>
        <time>2022-09-17T12:54:25.000Z</time>
      </trkpt>
      <trkpt lat="45.83175" lon="4.66918">
        <ele>308.70425</ele>
        <time>2022-09-17T12:54:26.000Z</time>
      </trkpt>
      <trkpt lat="45.83181" lon="4.66921">
        <ele>308.57956</ele>
        <time>2022-09-17T12:54:27.000Z</time>
      </trkpt>
      <trkpt lat="45.83187" lon="4.66923">
        <ele>308.37296</ele>
        <time>2022-09-17T12:54:28.000Z</time>
      </trkpt>
      <trkpt lat="45.83194" lon="4.66925">
        <ele>308.10333</ele>
        <time>2022-09-17T12:54:29.000Z</time>
      </trkpt>
      <trkpt lat="45.83201" lon="4.66929">
        <ele>307.82025</ele>
        <time>2022-09-17T12:54:30.000Z</time>
      </trkpt>
      <trkpt lat="45.83207" lon="4.66932">
        <ele>307.46484</ele>
        <time>2022-09-17T12:54:31.000Z</time>
      </trkpt>
      <trkpt lat="45.83213" lon="4.66934">
        <ele>307.07996</ele>
        <time>2022-09-17T12:54:32.000Z</time>
      </trkpt>
      <trkpt lat="45.83219" lon="4.66938">
        <ele>306.6889</ele>
        <time>2022-09-17T12:54:33.000Z</time>
      </trkpt>
      <trkpt lat="45.83224" lon="4.6694">
        <ele>306.3197</ele>
        <time>2022-09-17T12:54:34.000Z</time>
      </trkpt>
      <trkpt lat="45.8323" lon="4.66943">
        <ele>305.97507</ele>
        <time>2022-09-17T12:54:35.000Z</time>
      </trkpt>
      <trkpt lat="45.83236" lon="4.66947">
        <ele>305.63617</ele>
        <time>2022-09-17T12:54:36.000Z</time>
      </trkpt>
      <trkpt lat="45.83241" lon="4.66951">
        <ele>305.26828</ele>
        <time>2022-09-17T12:54:37.000Z</time>
      </trkpt>
      <trkpt lat="45.83247" lon="4.66954">
        <ele>304.92548</ele>
        <time>2022-09-17T12:54:38.000Z</time>
      </trkpt>
      <trkpt lat="45.83253" lon="4.66957">
        <ele>304.59579</ele>
        <time>2022-09-17T12:54:39.000Z</time>
      </trkpt>
      <trkpt lat="45.83258" lon="4.66959">
        <ele>304.34204</ele>
        <time>2022-09-17T12:54:40.000Z</time>
      </trkpt>
      <trkpt lat="45.83264" lon="4.66962">
        <ele>304.12906</ele>
        <time>2022-09-17T12:54:41.000Z</time>
      </trkpt>
      <trkpt lat="45.8327" lon="4.66965">
        <ele>303.90256</ele>
        <time>2022-09-17T12:54:42.000Z</time>
      </trkpt>
      <trkpt lat="45.83275" lon="4.66967">
        <ele>303.65204</ele>
        <time>2022-09-17T12:54:43.000Z</time>
      </trkpt>
      <trkpt lat="45.8328" lon="4.66969">
        <ele>303.34296</ele>
        <time>2022-09-17T12:54:44.000Z</time>
      </trkpt>
      <trkpt lat="45.83286" lon="4.6697">
        <ele>303.03394</ele>
        <time>2022-09-17T12:54:45.000Z</time>
      </trkpt>
      <trkpt lat="45.83292" lon="4.66972">
        <ele>302.77789</ele>
        <time>2022-09-17T12:54:46.000Z</time>
      </trkpt>
      <trkpt lat="45.83298" lon="4.66973">
        <ele>302.57986</ele>
        <time>2022-09-17T12:54:47.000Z</time>
      </trkpt>
      <trkpt lat="45.83304" lon="4.66974">
        <ele>302.42032</ele>
        <time>2022-09-17T12:54:48.000Z</time>
      </trkpt>
      <trkpt lat="45.83309" lon="4.66975">
        <ele>302.3277</ele>
        <time>2022-09-17T12:54:49.000Z</time>
      </trkpt>
      <trkpt lat="45.83314" lon="4.66976">
        <ele>302.29877</ele>
        <time>2022-09-17T12:54:50.000Z</time>
      </trkpt>
      <trkpt lat="45.8332" lon="4.66976">
        <ele>302.33856</ele>
        <time>2022-09-17T12:54:51.000Z</time>
      </trkpt>
      <trkpt lat="45.83326" lon="4.66976">
        <ele>302.44342</ele>
        <time>2022-09-17T12:54:52.000Z</time>
      </trkpt>
      <trkpt lat="45.83331" lon="4.66976">
        <ele>302.60168</ele>
        <time>2022-09-17T12:54:53.000Z</time>
      </trkpt>
      <trkpt lat="45.83336" lon="4.66976">
        <ele>302.75446</ele>
        <time>2022-09-17T12:54:54.000Z</time>
      </trkpt>
      <trkpt lat="45.8334" lon="4.66976">
        <ele>302.81342</ele>
        <time>2022-09-17T12:54:55.000Z</time>
      </trkpt>
      <trkpt lat="45.83347" lon="4.66973">
        <ele>302.77475</ele>
        <time>2022-09-17T12:54:56.000Z</time>
      </trkpt>
      <trkpt lat="45.83351" lon="4.66975">
        <ele>302.87015</ele>
        <time>2022-09-17T12:54:57.000Z</time>
      </trkpt>
      <trkpt lat="45.83357" lon="4.66976">
        <ele>302.98709</ele>
        <time>2022-09-17T12:54:58.000Z</time>
      </trkpt>
      <trkpt lat="45.83363" lon="4.66979">
        <ele>303.12387</ele>
        <time>2022-09-17T12:54:59.000Z</time>
      </trkpt>
      <trkpt lat="45.83365" lon="4.66985">
        <ele>303.20099</ele>
        <time>2022-09-17T12:55:00.000Z</time>
      </trkpt>
      <trkpt lat="45.83368" lon="4.66992">
        <ele>303.21649</ele>
        <time>2022-09-17T12:55:01.000Z</time>
      </trkpt>
      <trkpt lat="45.8337" lon="4.66999">
        <ele>303.29764</ele>
        <time>2022-09-17T12:55:02.000Z</time>
      </trkpt>
      <trkpt lat="45.83369" lon="4.67006">
        <ele>303.4545</ele>
        <time>2022-09-17T12:55:03.000Z</time>
      </trkpt>
      <trkpt lat="45.83368" lon="4.67013">
        <ele>303.63181</ele>
        <time>2022-09-17T12:55:04.000Z</time>
      </trkpt>
      <trkpt lat="45.83368" lon="4.67022">
        <ele>303.7807</ele>
        <time>2022-09-17T12:55:05.000Z</time>
      </trkpt>
      <trkpt lat="45.83369" lon="4.67031">
        <ele>303.99451</ele>
        <time>2022-09-17T12:55:06.000Z</time>
      </trkpt>
      <trkpt lat="45.83371" lon="4.67039">
        <ele>304.09219</ele>
        <time>2022-09-17T12:55:07.000Z</time>
      </trkpt>
      <trkpt lat="45.83375" lon="4.67042">
        <ele>304.18469</ele>
        <time>2022-09-17T12:55:08.000Z</time>
      </trkpt>
      <trkpt lat="45.83382" lon="4.67048">
        <ele>304.24011</ele>
        <time>2022-09-17T12:55:09.000Z</time>
      </trkpt>
      <trkpt lat="45.83387" lon="4.67054">
        <ele>304.22891</ele>
        <time>2022-09-17T12:55:10.000Z</time>
      </trkpt>
      <trkpt lat="45.83392" lon="4.67059">
        <ele>304.16364</ele>
        <time>2022-09-17T12:55:11.000Z</time>
      </trkpt>
      <trkpt lat="45.83397" lon="4.67065">
        <ele>304.04913</ele>
        <time>2022-09-17T12:55:12.000Z</time>
      </trkpt>
      <trkpt lat="45.83402" lon="4.67071">
        <ele>303.91205</ele>
        <time>2022-09-17T12:55:13.000Z</time>
      </trkpt>
      <trkpt lat="45.83407" lon="4.67079">
        <ele>303.79419</ele>
        <time>2022-09-17T12:55:14.000Z</time>
      </trkpt>
      <trkpt lat="45.83411" lon="4.67084">
        <ele>303.79938</ele>
        <time>2022-09-17T12:55:15.000Z</time>
      </trkpt>
      <trkpt lat="45.83416" lon="4.6709">
        <ele>303.90472</ele>
        <time>2022-09-17T12:55:16.000Z</time>
      </trkpt>
      <trkpt lat="45.83421" lon="4.67094">
        <ele>303.83563</ele>
        <time>2022-09-17T12:55:17.000Z</time>
      </trkpt>
      <trkpt lat="45.83425" lon="4.67099">
        <ele>303.76346</ele>
        <time>2022-09-17T12:55:18.000Z</time>
      </trkpt>
      <trkpt lat="45.83429" lon="4.67105">
        <ele>303.64209</ele>
        <time>2022-09-17T12:55:19.000Z</time>
      </trkpt>
      <trkpt lat="45.83434" lon="4.67111">
        <ele>303.6012</ele>
        <time>2022-09-17T12:55:20.000Z</time>
      </trkpt>
      <trkpt lat="45.83439" lon="4.67118">
        <ele>303.63998</ele>
        <time>2022-09-17T12:55:21.000Z</time>
      </trkpt>
      <trkpt lat="45.83443" lon="4.67123">
        <ele>303.64053</ele>
        <time>2022-09-17T12:55:22.000Z</time>
      </trkpt>
      <trkpt lat="45.83448" lon="4.6713">
        <ele>303.5567</ele>
        <time>2022-09-17T12:55:23.000Z</time>
      </trkpt>
      <trkpt lat="45.83452" lon="4.67138">
        <ele>303.53717</ele>
        <time>2022-09-17T12:55:24.000Z</time>
      </trkpt>
      <trkpt lat="45.83457" lon="4.67144">
        <ele>303.53876</ele>
        <time>2022-09-17T12:55:25.000Z</time>
      </trkpt>
      <trkpt lat="45.83461" lon="4.6715">
        <ele>303.51935</ele>
        <time>2022-09-17T12:55:26.000Z</time>
      </trkpt>
      <trkpt lat="45.83465" lon="4.67156">
        <ele>303.54633</ele>
        <time>2022-09-17T12:55:27.000Z</time>
      </trkpt>
      <trkpt lat="45.8347" lon="4.67162">
        <ele>303.54526</ele>
        <time>2022-09-17T12:55:28.000Z</time>
      </trkpt>
      <trkpt lat="45.83474" lon="4.67167">
        <ele>303.57132</ele>
        <time>2022-09-17T12:55:29.000Z</time>
      </trkpt>
      <trkpt lat="45.8348" lon="4.67174">
        <ele>303.66238</ele>
        <time>2022-09-17T12:55:30.000Z</time>
      </trkpt>
      <trkpt lat="45.83485" lon="4.6718">
        <ele>303.70697</ele>
        <time>2022-09-17T12:55:31.000Z</time>
      </trkpt>
      <trkpt lat="45.83489" lon="4.67186">
        <ele>303.71637</ele>
        <time>2022-09-17T12:55:32.000Z</time>
      </trkpt>
      <trkpt lat="45.83493" lon="4.67192">
        <ele>303.68777</ele>
        <time>2022-09-17T12:55:33.000Z</time>
      </trkpt>
      <trkpt lat="45.83498" lon="4.67198">
        <ele>303.59738</ele>
        <time>2022-09-17T12:55:34.000Z</time>
      </trkpt>
      <trkpt lat="45.83504" lon="4.67205">
        <ele>303.41269</ele>
        <time>2022-09-17T12:55:35.000Z</time>
      </trkpt>
      <trkpt lat="45.83511" lon="4.67211">
        <ele>303.28607</ele>
        <time>2022-09-17T12:55:36.000Z</time>
      </trkpt>
      <trkpt lat="45.83516" lon="4.67218">
        <ele>303.18652</ele>
        <time>2022-09-17T12:55:37.000Z</time>
      </trkpt>
      <trkpt lat="45.83523" lon="4.67227">
        <ele>303.12531</ele>
        <time>2022-09-17T12:55:38.000Z</time>
      </trkpt>
      <trkpt lat="45.8353" lon="4.67232">
        <ele>303.02402</ele>
        <time>2022-09-17T12:55:39.000Z</time>
      </trkpt>
      <trkpt lat="45.83536" lon="4.67235">
        <ele>302.7948</ele>
        <time>2022-09-17T12:55:40.000Z</time>
      </trkpt>
      <trkpt lat="45.83543" lon="4.6724">
        <ele>302.51105</ele>
        <time>2022-09-17T12:55:41.000Z</time>
      </trkpt>
      <trkpt lat="45.83549" lon="4.67246">
        <ele>302.16556</ele>
        <time>2022-09-17T12:55:42.000Z</time>
      </trkpt>
      <trkpt lat="45.83555" lon="4.67252">
        <ele>301.77859</ele>
        <time>2022-09-17T12:55:43.000Z</time>
      </trkpt>
      <trkpt lat="45.83563" lon="4.67257">
        <ele>301.41083</ele>
        <time>2022-09-17T12:55:44.000Z</time>
      </trkpt>
      <trkpt lat="45.83571" lon="4.67262">
        <ele>300.95261</ele>
        <time>2022-09-17T12:55:45.000Z</time>
      </trkpt>
      <trkpt lat="45.83577" lon="4.67268">
        <ele>300.46136</ele>
        <time>2022-09-17T12:55:46.000Z</time>
      </trkpt>
      <trkpt lat="45.83582" lon="4.67273">
        <ele>299.88251</ele>
        <time>2022-09-17T12:55:47.000Z</time>
      </trkpt>
      <trkpt lat="45.83588" lon="4.67278">
        <ele>299.30157</ele>
        <time>2022-09-17T12:55:48.000Z</time>
      </trkpt>
      <trkpt lat="45.83594" lon="4.67283">
        <ele>298.70709</ele>
        <time>2022-09-17T12:55:49.000Z</time>
      </trkpt>
      <trkpt lat="45.83601" lon="4.67287">
        <ele>298.04755</ele>
        <time>2022-09-17T12:55:50.000Z</time>
      </trkpt>
      <trkpt lat="45.83607" lon="4.67292">
        <ele>297.45441</ele>
        <time>2022-09-17T12:55:51.000Z</time>
      </trkpt>
      <trkpt lat="45.83613" lon="4.67295">
        <ele>296.87253</ele>
        <time>2022-09-17T12:55:52.000Z</time>
      </trkpt>
      <trkpt lat="45.83619" lon="4.673">
        <ele>296.3317</ele>
        <time>2022-09-17T12:55:53.000Z</time>
      </trkpt>
      <trkpt lat="45.83626" lon="4.67302">
        <ele>295.82156</ele>
        <time>2022-09-17T12:55:54.000Z</time>
      </trkpt>
      <trkpt lat="45.83632" lon="4.67306">
        <ele>295.35336</ele>
        <time>2022-09-17T12:55:55.000Z</time>
      </trkpt>
      <trkpt lat="45.83638" lon="4.67311">
        <ele>294.80286</ele>
        <time>2022-09-17T12:55:56.000Z</time>
      </trkpt>
      <trkpt lat="45.83643" lon="4.67315">
        <ele>294.20544</ele>
        <time>2022-09-17T12:55:57.000Z</time>
      </trkpt>
      <trkpt lat="45.83649" lon="4.67319">
        <ele>293.57043</ele>
        <time>2022-09-17T12:55:58.000Z</time>
      </trkpt>
      <trkpt lat="45.83655" lon="4.67323">
        <ele>292.94397</ele>
        <time>2022-09-17T12:55:59.000Z</time>
      </trkpt>
      <trkpt lat="45.8366" lon="4.67327">
        <ele>292.43909</ele>
        <time>2022-09-17T12:56:00.000Z</time>
      </trkpt>
      <trkpt lat="45.83667" lon="4.6733">
        <ele>291.93042</ele>
        <time>2022-09-17T12:56:01.000Z</time>
      </trkpt>
      <trkpt lat="45.83673" lon="4.67334">
        <ele>291.49628</ele>
        <time>2022-09-17T12:56:02.000Z</time>
      </trkpt>
      <trkpt lat="45.83679" lon="4.67337">
        <ele>291.0976</ele>
        <time>2022-09-17T12:56:03.000Z</time>
      </trkpt>
      <trkpt lat="45.83684" lon="4.67342">
        <ele>290.68805</ele>
        <time>2022-09-17T12:56:04.000Z</time>
      </trkpt>
      <trkpt lat="45.8369" lon="4.67345">
        <ele>290.37125</ele>
        <time>2022-09-17T12:56:05.000Z</time>
      </trkpt>
      <trkpt lat="45.83698" lon="4.67349">
        <ele>290.02789</ele>
        <time>2022-09-17T12:56:06.000Z</time>
      </trkpt>
      <trkpt lat="45.83703" lon="4.67353">
        <ele>289.78708</ele>
        <time>2022-09-17T12:56:07.000Z</time>
      </trkpt>
      <trkpt lat="45.83709" lon="4.67357">
        <ele>289.62103</ele>
        <time>2022-09-17T12:56:08.000Z</time>
      </trkpt>
      <trkpt lat="45.83714" lon="4.67361">
        <ele>289.43787</ele>
        <time>2022-09-17T12:56:09.000Z</time>
      </trkpt>
      <trkpt lat="45.83722" lon="4.67366">
        <ele>289.40948</ele>
        <time>2022-09-17T12:56:10.000Z</time>
      </trkpt>
      <trkpt lat="45.83728" lon="4.67371">
        <ele>289.27716</ele>
        <time>2022-09-17T12:56:11.000Z</time>
      </trkpt>
      <trkpt lat="45.83733" lon="4.67376">
        <ele>289.14642</ele>
        <time>2022-09-17T12:56:12.000Z</time>
      </trkpt>
      <trkpt lat="45.8374" lon="4.67378">
        <ele>289.0011</ele>
        <time>2022-09-17T12:56:13.000Z</time>
      </trkpt>
      <trkpt lat="45.83746" lon="4.67383">
        <ele>288.84604</ele>
        <time>2022-09-17T12:56:14.000Z</time>
      </trkpt>
      <trkpt lat="45.83753" lon="4.67388">
        <ele>288.69327</ele>
        <time>2022-09-17T12:56:15.000Z</time>
      </trkpt>
      <trkpt lat="45.8376" lon="4.67393">
        <ele>288.55835</ele>
        <time>2022-09-17T12:56:16.000Z</time>
      </trkpt>
      <trkpt lat="45.83766" lon="4.67396">
        <ele>288.49518</ele>
        <time>2022-09-17T12:56:17.000Z</time>
      </trkpt>
      <trkpt lat="45.83772" lon="4.674">
        <ele>288.39383</ele>
        <time>2022-09-17T12:56:18.000Z</time>
      </trkpt>
      <trkpt lat="45.83779" lon="4.67403">
        <ele>288.33682</ele>
        <time>2022-09-17T12:56:19.000Z</time>
      </trkpt>
      <trkpt lat="45.83786" lon="4.67407">
        <ele>288.21042</ele>
        <time>2022-09-17T12:56:20.000Z</time>
      </trkpt>
      <trkpt lat="45.83792" lon="4.6741">
        <ele>288.16663</ele>
        <time>2022-09-17T12:56:21.000Z</time>
      </trkpt>
      <trkpt lat="45.83798" lon="4.67412">
        <ele>288.07993</ele>
        <time>2022-09-17T12:56:22.000Z</time>
      </trkpt>
      <trkpt lat="45.83804" lon="4.67415">
        <ele>288.00977</ele>
        <time>2022-09-17T12:56:23.000Z</time>
      </trkpt>
      <trkpt lat="45.83811" lon="4.67417">
        <ele>287.84915</ele>
        <time>2022-09-17T12:56:24.000Z</time>
      </trkpt>
      <trkpt lat="45.83818" lon="4.67419">
        <ele>287.64133</ele>
        <time>2022-09-17T12:56:25.000Z</time>
      </trkpt>
      <trkpt lat="45.83826" lon="4.67422">
        <ele>287.38824</ele>
        <time>2022-09-17T12:56:26.000Z</time>
      </trkpt>
      <trkpt lat="45.83832" lon="4.67424">
        <ele>287.1311</ele>
        <time>2022-09-17T12:56:27.000Z</time>
      </trkpt>
      <trkpt lat="45.83838" lon="4.67426">
        <ele>286.76089</ele>
        <time>2022-09-17T12:56:28.000Z</time>
      </trkpt>
      <trkpt lat="45.83844" lon="4.67429">
        <ele>286.43378</ele>
        <time>2022-09-17T12:56:29.000Z</time>
      </trkpt>
      <trkpt lat="45.83849" lon="4.67432">
        <ele>285.97211</ele>
        <time>2022-09-17T12:56:30.000Z</time>
      </trkpt>
      <trkpt lat="45.83856" lon="4.67435">
        <ele>285.53278</ele>
        <time>2022-09-17T12:56:31.000Z</time>
      </trkpt>
      <trkpt lat="45.83862" lon="4.67438">
        <ele>285.10263</ele>
        <time>2022-09-17T12:56:32.000Z</time>
      </trkpt>
      <trkpt lat="45.83869" lon="4.6744">
        <ele>284.64392</ele>
        <time>2022-09-17T12:56:33.000Z</time>
      </trkpt>
      <trkpt lat="45.83875" lon="4.67442">
        <ele>284.19412</ele>
        <time>2022-09-17T12:56:34.000Z</time>
      </trkpt>
      <trkpt lat="45.83881" lon="4.67445">
        <ele>283.69174</ele>
        <time>2022-09-17T12:56:35.000Z</time>
      </trkpt>
      <trkpt lat="45.83888" lon="4.67447">
        <ele>283.20572</ele>
        <time>2022-09-17T12:56:36.000Z</time>
      </trkpt>
      <trkpt lat="45.83894" lon="4.67449">
        <ele>282.73633</ele>
        <time>2022-09-17T12:56:37.000Z</time>
      </trkpt>
      <trkpt lat="45.839" lon="4.67452">
        <ele>282.32233</ele>
        <time>2022-09-17T12:56:38.000Z</time>
      </trkpt>
      <trkpt lat="45.83906" lon="4.67454">
        <ele>281.91803</ele>
        <time>2022-09-17T12:56:39.000Z</time>
      </trkpt>
      <trkpt lat="45.83912" lon="4.67457">
        <ele>281.50113</ele>
        <time>2022-09-17T12:56:40.000Z</time>
      </trkpt>
      <trkpt lat="45.83919" lon="4.6746">
        <ele>280.97974</ele>
        <time>2022-09-17T12:56:41.000Z</time>
      </trkpt>
      <trkpt lat="45.83926" lon="4.67462">
        <ele>280.53748</ele>
        <time>2022-09-17T12:56:42.000Z</time>
      </trkpt>
      <trkpt lat="45.83931" lon="4.67464">
        <ele>280.06726</ele>
        <time>2022-09-17T12:56:43.000Z</time>
      </trkpt>
      <trkpt lat="45.83937" lon="4.67466">
        <ele>279.59454</ele>
        <time>2022-09-17T12:56:44.000Z</time>
      </trkpt>
      <trkpt lat="45.83944" lon="4.67467">
        <ele>279.12701</ele>
        <time>2022-09-17T12:56:45.000Z</time>
      </trkpt>
      <trkpt lat="45.83951" lon="4.67469">
        <ele>278.74591</ele>
        <time>2022-09-17T12:56:46.000Z</time>
      </trkpt>
      <trkpt lat="45.83958" lon="4.67471">
        <ele>278.35672</ele>
        <time>2022-09-17T12:56:47.000Z</time>
      </trkpt>
      <trkpt lat="45.83964" lon="4.67473">
        <ele>278.06238</ele>
        <time>2022-09-17T12:56:48.000Z</time>
      </trkpt>
      <trkpt lat="45.83971" lon="4.67474">
        <ele>277.71585</ele>
        <time>2022-09-17T12:56:49.000Z</time>
      </trkpt>
      <trkpt lat="45.83978" lon="4.67476">
        <ele>277.39279</ele>
        <time>2022-09-17T12:56:50.000Z</time>
      </trkpt>
      <trkpt lat="45.83985" lon="4.67478">
        <ele>277.13422</ele>
        <time>2022-09-17T12:56:51.000Z</time>
      </trkpt>
      <trkpt lat="45.83991" lon="4.67479">
        <ele>276.86484</ele>
        <time>2022-09-17T12:56:52.000Z</time>
      </trkpt>
      <trkpt lat="45.83998" lon="4.6748">
        <ele>276.68634</ele>
        <time>2022-09-17T12:56:53.000Z</time>
      </trkpt>
      <trkpt lat="45.84004" lon="4.67482">
        <ele>276.55539</ele>
        <time>2022-09-17T12:56:54.000Z</time>
      </trkpt>
      <trkpt lat="45.84011" lon="4.67484">
        <ele>276.49289</ele>
        <time>2022-09-17T12:56:55.000Z</time>
      </trkpt>
      <trkpt lat="45.84017" lon="4.67486">
        <ele>276.40143</ele>
        <time>2022-09-17T12:56:56.000Z</time>
      </trkpt>
      <trkpt lat="45.84023" lon="4.67489">
        <ele>276.29987</ele>
        <time>2022-09-17T12:56:57.000Z</time>
      </trkpt>
      <trkpt lat="45.84029" lon="4.67491">
        <ele>276.33609</ele>
        <time>2022-09-17T12:56:58.000Z</time>
      </trkpt>
      <trkpt lat="45.84036" lon="4.67492">
        <ele>276.362</ele>
        <time>2022-09-17T12:56:59.000Z</time>
      </trkpt>
      <trkpt lat="45.84042" lon="4.67494">
        <ele>276.44733</ele>
        <time>2022-09-17T12:57:00.000Z</time>
      </trkpt>
      <trkpt lat="45.84049" lon="4.67494">
        <ele>276.57144</ele>
        <time>2022-09-17T12:57:01.000Z</time>
      </trkpt>
      <trkpt lat="45.84055" lon="4.67495">
        <ele>276.61594</ele>
        <time>2022-09-17T12:57:02.000Z</time>
      </trkpt>
      <trkpt lat="45.84062" lon="4.67497">
        <ele>276.64197</ele>
        <time>2022-09-17T12:57:03.000Z</time>
      </trkpt>
      <trkpt lat="45.84069" lon="4.67499">
        <ele>276.64243</ele>
        <time>2022-09-17T12:57:04.000Z</time>
      </trkpt>
      <trkpt lat="45.84074" lon="4.67501">
        <ele>276.69257</ele>
        <time>2022-09-17T12:57:05.000Z</time>
      </trkpt>
      <trkpt lat="45.84081" lon="4.67503">
        <ele>276.71527</ele>
        <time>2022-09-17T12:57:06.000Z</time>
      </trkpt>
      <trkpt lat="45.84087" lon="4.67504">
        <ele>276.77814</ele>
        <time>2022-09-17T12:57:07.000Z</time>
      </trkpt>
      <trkpt lat="45.84094" lon="4.67504">
        <ele>276.79816</ele>
        <time>2022-09-17T12:57:08.000Z</time>
      </trkpt>
      <trkpt lat="45.84099" lon="4.67505">
        <ele>276.85291</ele>
        <time>2022-09-17T12:57:09.000Z</time>
      </trkpt>
      <trkpt lat="45.84105" lon="4.67504">
        <ele>276.91772</ele>
        <time>2022-09-17T12:57:10.000Z</time>
      </trkpt>
      <trkpt lat="45.84111" lon="4.67503">
        <ele>277.01324</ele>
        <time>2022-09-17T12:57:11.000Z</time>
      </trkpt>
      <trkpt lat="45.84117" lon="4.67504">
        <ele>277.05319</ele>
        <time>2022-09-17T12:57:12.000Z</time>
      </trkpt>
      <trkpt lat="45.84121" lon="4.67504">
        <ele>277.00851</ele>
        <time>2022-09-17T12:57:13.000Z</time>
      </trkpt>
      <trkpt lat="45.84123" lon="4.67506">
        <ele>276.93149</ele>
        <time>2022-09-17T12:57:14.000Z</time>
      </trkpt>
      <trkpt lat="45.84126" lon="4.67508">
        <ele>276.85773</ele>
        <time>2022-09-17T12:57:15.000Z</time>
      </trkpt>
      <trkpt lat="45.84131" lon="4.67509">
        <ele>276.83902</ele>
        <time>2022-09-17T12:57:17.000Z</time>
      </trkpt>
      <trkpt lat="45.84133" lon="4.6751">
        <ele>276.91718</ele>
        <time>2022-09-17T12:57:19.000Z</time>
      </trkpt>
      <trkpt lat="45.84135" lon="4.67509">
        <ele>276.82288</ele>
        <time>2022-09-17T12:57:20.000Z</time>
      </trkpt>
      <trkpt lat="45.84136" lon="4.67507">
        <ele>276.77322</ele>
        <time>2022-09-17T12:57:21.000Z</time>
      </trkpt>
      <trkpt lat="45.84135" lon="4.67504">
        <ele>276.70108</ele>
        <time>2022-09-17T12:57:22.000Z</time>
      </trkpt>
      <trkpt lat="45.84133" lon="4.67503">
        <ele>276.60287</ele>
        <time>2022-09-17T12:57:23.000Z</time>
      </trkpt>
      <trkpt lat="45.84131" lon="4.67502">
        <ele>276.5145</ele>
        <time>2022-09-17T12:57:24.000Z</time>
      </trkpt>
      <trkpt lat="45.84128" lon="4.67502">
        <ele>276.43524</ele>
        <time>2022-09-17T12:57:25.000Z</time>
      </trkpt>
      <trkpt lat="45.84126" lon="4.67502">
        <ele>276.32611</ele>
        <time>2022-09-17T12:57:26.000Z</time>
      </trkpt>
      <trkpt lat="45.84123" lon="4.67503">
        <ele>276.19437</ele>
        <time>2022-09-17T12:57:27.000Z</time>
      </trkpt>
      <trkpt lat="45.84121" lon="4.67503">
        <ele>276.12872</ele>
        <time>2022-09-17T12:57:28.000Z</time>
      </trkpt>
      <trkpt lat="45.84118" lon="4.67504">
        <ele>276.04456</ele>
        <time>2022-09-17T12:57:29.000Z</time>
      </trkpt>
      <trkpt lat="45.84115" lon="4.67504">
        <ele>275.96869</ele>
        <time>2022-09-17T12:57:30.000Z</time>
      </trkpt>
      <trkpt lat="45.84112" lon="4.67502">
        <ele>275.86969</ele>
        <time>2022-09-17T12:57:31.000Z</time>
      </trkpt>
      <trkpt lat="45.84109" lon="4.67503">
        <ele>275.75491</ele>
        <time>2022-09-17T12:57:32.000Z</time>
      </trkpt>
      <trkpt lat="45.84107" lon="4.67505">
        <ele>275.54584</ele>
        <time>2022-09-17T12:57:33.000Z</time>
      </trkpt>
      <trkpt lat="45.84107" lon="4.67508">
        <ele>275.47946</ele>
        <time>2022-09-17T12:57:34.000Z</time>
      </trkpt>
      <trkpt lat="45.84108" lon="4.67513">
        <ele>275.48657</ele>
        <time>2022-09-17T12:57:35.000Z</time>
      </trkpt>
      <trkpt lat="45.8411" lon="4.67517">
        <ele>275.50732</ele>
        <time>2022-09-17T12:57:36.000Z</time>
      </trkpt>
      <trkpt lat="45.84113" lon="4.67521">
        <ele>275.49609</ele>
        <time>2022-09-17T12:57:37.000Z</time>
      </trkpt>
      <trkpt lat="45.84116" lon="4.67525">
        <ele>275.42999</ele>
        <time>2022-09-17T12:57:38.000Z</time>
      </trkpt>
      <trkpt lat="45.8412" lon="4.67529">
        <ele>275.21014</ele>
        <time>2022-09-17T12:57:39.000Z</time>
      </trkpt>
      <trkpt lat="45.84127" lon="4.67533">
        <ele>275.01874</ele>
        <time>2022-09-17T12:57:40.000Z</time>
      </trkpt>
      <trkpt lat="45.84131" lon="4.67537">
        <ele>274.88348</ele>
        <time>2022-09-17T12:57:41.000Z</time>
      </trkpt>
      <trkpt lat="45.84135" lon="4.67541">
        <ele>274.77734</ele>
        <time>2022-09-17T12:57:42.000Z</time>
      </trkpt>
      <trkpt lat="45.8414" lon="4.67545">
        <ele>274.74313</ele>
        <time>2022-09-17T12:57:43.000Z</time>
      </trkpt>
      <trkpt lat="45.84144" lon="4.67549">
        <ele>274.70551</ele>
        <time>2022-09-17T12:57:44.000Z</time>
      </trkpt>
      <trkpt lat="45.84148" lon="4.67553">
        <ele>274.71182</ele>
        <time>2022-09-17T12:57:45.000Z</time>
      </trkpt>
      <trkpt lat="45.84152" lon="4.67558">
        <ele>274.72751</ele>
        <time>2022-09-17T12:57:46.000Z</time>
      </trkpt>
      <trkpt lat="45.84156" lon="4.67564">
        <ele>274.72351</ele>
        <time>2022-09-17T12:57:47.000Z</time>
      </trkpt>
      <trkpt lat="45.84162" lon="4.67571">
        <ele>274.66867</ele>
        <time>2022-09-17T12:57:48.000Z</time>
      </trkpt>
      <trkpt lat="45.84167" lon="4.67578">
        <ele>274.6153</ele>
        <time>2022-09-17T12:57:49.000Z</time>
      </trkpt>
      <trkpt lat="45.84172" lon="4.67583">
        <ele>274.58026</ele>
        <time>2022-09-17T12:57:50.000Z</time>
      </trkpt>
      <trkpt lat="45.84178" lon="4.67589">
        <ele>274.56882</ele>
        <time>2022-09-17T12:57:51.000Z</time>
      </trkpt>
      <trkpt lat="45.84183" lon="4.67595">
        <ele>274.52893</ele>
        <time>2022-09-17T12:57:52.000Z</time>
      </trkpt>
      <trkpt lat="45.84188" lon="4.676">
        <ele>274.64459</ele>
        <time>2022-09-17T12:57:53.000Z</time>
      </trkpt>
      <trkpt lat="45.84193" lon="4.67606">
        <ele>274.68747</ele>
        <time>2022-09-17T12:57:54.000Z</time>
      </trkpt>
      <trkpt lat="45.84197" lon="4.67611">
        <ele>274.72836</ele>
        <time>2022-09-17T12:57:55.000Z</time>
      </trkpt>
      <trkpt lat="45.84202" lon="4.67616">
        <ele>274.90985</ele>
        <time>2022-09-17T12:57:56.000Z</time>
      </trkpt>
      <trkpt lat="45.84208" lon="4.67619">
        <ele>275.17386</ele>
        <time>2022-09-17T12:57:57.000Z</time>
      </trkpt>
      <trkpt lat="45.84212" lon="4.67624">
        <ele>275.47256</ele>
        <time>2022-09-17T12:57:58.000Z</time>
      </trkpt>
      <trkpt lat="45.84217" lon="4.67629">
        <ele>275.85074</ele>
        <time>2022-09-17T12:57:59.000Z</time>
      </trkpt>
      <trkpt lat="45.84222" lon="4.67634">
        <ele>276.22211</ele>
        <time>2022-09-17T12:58:00.000Z</time>
      </trkpt>
      <trkpt lat="45.84227" lon="4.67638">
        <ele>276.55212</ele>
        <time>2022-09-17T12:58:01.000Z</time>
      </trkpt>
      <trkpt lat="45.84232" lon="4.6764">
        <ele>276.83743</ele>
        <time>2022-09-17T12:58:02.000Z</time>
      </trkpt>
      <trkpt lat="45.84238" lon="4.67643">
        <ele>277.06769</ele>
        <time>2022-09-17T12:58:03.000Z</time>
      </trkpt>
      <trkpt lat="45.84245" lon="4.67646">
        <ele>277.32062</ele>
        <time>2022-09-17T12:58:04.000Z</time>
      </trkpt>
      <trkpt lat="45.84251" lon="4.67647">
        <ele>277.56744</ele>
        <time>2022-09-17T12:58:05.000Z</time>
      </trkpt>
      <trkpt lat="45.84258" lon="4.67648">
        <ele>277.84296</ele>
        <time>2022-09-17T12:58:06.000Z</time>
      </trkpt>
      <trkpt lat="45.84264" lon="4.67648">
        <ele>278.16736</ele>
        <time>2022-09-17T12:58:07.000Z</time>
      </trkpt>
      <trkpt lat="45.8427" lon="4.67649">
        <ele>278.52026</ele>
        <time>2022-09-17T12:58:08.000Z</time>
      </trkpt>
      <trkpt lat="45.84277" lon="4.67649">
        <ele>278.87354</ele>
        <time>2022-09-17T12:58:09.000Z</time>
      </trkpt>
      <trkpt lat="45.84282" lon="4.67647">
        <ele>279.20529</ele>
        <time>2022-09-17T12:58:10.000Z</time>
      </trkpt>
      <trkpt lat="45.84289" lon="4.67646">
        <ele>279.50262</ele>
        <time>2022-09-17T12:58:11.000Z</time>
      </trkpt>
      <trkpt lat="45.84294" lon="4.67644">
        <ele>279.8591</ele>
        <time>2022-09-17T12:58:12.000Z</time>
      </trkpt>
      <trkpt lat="45.84301" lon="4.67641">
        <ele>280.11563</ele>
        <time>2022-09-17T12:58:13.000Z</time>
      </trkpt>
      <trkpt lat="45.84307" lon="4.67638">
        <ele>280.38495</ele>
        <time>2022-09-17T12:58:14.000Z</time>
      </trkpt>
      <trkpt lat="45.84314" lon="4.67634">
        <ele>280.59448</ele>
        <time>2022-09-17T12:58:15.000Z</time>
      </trkpt>
      <trkpt lat="45.8432" lon="4.6763">
        <ele>280.60596</ele>
        <time>2022-09-17T12:58:16.000Z</time>
      </trkpt>
      <trkpt lat="45.84326" lon="4.67625">
        <ele>280.50244</ele>
        <time>2022-09-17T12:58:17.000Z</time>
      </trkpt>
      <trkpt lat="45.84328" lon="4.67622">
        <ele>280.2995</ele>
        <time>2022-09-17T12:58:18.000Z</time>
      </trkpt>
      <trkpt lat="45.84334" lon="4.67619">
        <ele>280.07596</ele>
        <time>2022-09-17T12:58:19.000Z</time>
      </trkpt>
      <trkpt lat="45.84338" lon="4.67615">
        <ele>279.83566</ele>
        <time>2022-09-17T12:58:20.000Z</time>
      </trkpt>
      <trkpt lat="45.84345" lon="4.67611">
        <ele>279.56573</ele>
        <time>2022-09-17T12:58:21.000Z</time>
      </trkpt>
      <trkpt lat="45.84351" lon="4.67607">
        <ele>279.25568</ele>
        <time>2022-09-17T12:58:22.000Z</time>
      </trkpt>
      <trkpt lat="45.84356" lon="4.67604">
        <ele>278.94171</ele>
        <time>2022-09-17T12:58:23.000Z</time>
      </trkpt>
      <trkpt lat="45.84361" lon="4.67604">
        <ele>278.42987</ele>
        <time>2022-09-17T12:58:24.000Z</time>
      </trkpt>
      <trkpt lat="45.84368" lon="4.67598">
        <ele>277.7984</ele>
        <time>2022-09-17T12:58:25.000Z</time>
      </trkpt>
      <trkpt lat="45.84374" lon="4.67598">
        <ele>277.50604</ele>
        <time>2022-09-17T12:58:26.000Z</time>
      </trkpt>
      <trkpt lat="45.84378" lon="4.67595">
        <ele>277.15924</ele>
        <time>2022-09-17T12:58:27.000Z</time>
      </trkpt>
      <trkpt lat="45.84384" lon="4.67592">
        <ele>276.78104</ele>
        <time>2022-09-17T12:58:28.000Z</time>
      </trkpt>
      <trkpt lat="45.84388" lon="4.6759">
        <ele>276.40189</ele>
        <time>2022-09-17T12:58:29.000Z</time>
      </trkpt>
      <trkpt lat="45.84394" lon="4.67588">
        <ele>275.99963</ele>
        <time>2022-09-17T12:58:30.000Z</time>
      </trkpt>
      <trkpt lat="45.844" lon="4.67588">
        <ele>275.70636</ele>
        <time>2022-09-17T12:58:31.000Z</time>
      </trkpt>
      <trkpt lat="45.84406" lon="4.67588">
        <ele>275.44699</ele>
        <time>2022-09-17T12:58:32.000Z</time>
      </trkpt>
      <trkpt lat="45.84412" lon="4.67589">
        <ele>275.19894</ele>
        <time>2022-09-17T12:58:33.000Z</time>
      </trkpt>
      <trkpt lat="45.84417" lon="4.67591">
        <ele>274.92215</ele>
        <time>2022-09-17T12:58:34.000Z</time>
      </trkpt>
      <trkpt lat="45.84421" lon="4.67593">
        <ele>274.7009</ele>
        <time>2022-09-17T12:58:35.000Z</time>
      </trkpt>
      <trkpt lat="45.84426" lon="4.67595">
        <ele>274.53741</ele>
        <time>2022-09-17T12:58:36.000Z</time>
      </trkpt>
      <trkpt lat="45.84429" lon="4.67596">
        <ele>274.44016</ele>
        <time>2022-09-17T12:58:37.000Z</time>
      </trkpt>
      <trkpt lat="45.84435" lon="4.67596">
        <ele>274.47214</ele>
        <time>2022-09-17T12:58:38.000Z</time>
      </trkpt>
      <trkpt lat="45.8444" lon="4.67595">
        <ele>274.4765</ele>
        <time>2022-09-17T12:58:39.000Z</time>
      </trkpt>
      <trkpt lat="45.84445" lon="4.67593">
        <ele>274.3515</ele>
        <time>2022-09-17T12:58:41.000Z</time>
      </trkpt>
      <trkpt lat="45.84448" lon="4.6759">
        <ele>274.22433</ele>
        <time>2022-09-17T12:58:42.000Z</time>
      </trkpt>
      <trkpt lat="45.84451" lon="4.67587">
        <ele>274.19693</ele>
        <time>2022-09-17T12:58:43.000Z</time>
      </trkpt>
      <trkpt lat="45.84455" lon="4.67583">
        <ele>274.20789</ele>
        <time>2022-09-17T12:58:44.000Z</time>
      </trkpt>
      <trkpt lat="45.84459" lon="4.6758">
        <ele>274.41483</ele>
        <time>2022-09-17T12:58:45.000Z</time>
      </trkpt>
      <trkpt lat="45.84462" lon="4.67576">
        <ele>274.74091</ele>
        <time>2022-09-17T12:58:46.000Z</time>
      </trkpt>
      <trkpt lat="45.84465" lon="4.67573">
        <ele>274.75153</ele>
        <time>2022-09-17T12:58:47.000Z</time>
      </trkpt>
      <trkpt lat="45.84467" lon="4.6757">
        <ele>274.75476</ele>
        <time>2022-09-17T12:58:48.000Z</time>
      </trkpt>
      <trkpt lat="45.8447" lon="4.67567">
        <ele>274.70734</ele>
        <time>2022-09-17T12:58:49.000Z</time>
      </trkpt>
      <trkpt lat="45.84472" lon="4.67563">
        <ele>274.63055</ele>
        <time>2022-09-17T12:58:50.000Z</time>
      </trkpt>
      <trkpt lat="45.84474" lon="4.6756">
        <ele>274.58954</ele>
        <time>2022-09-17T12:58:51.000Z</time>
      </trkpt>
      <trkpt lat="45.84477" lon="4.67557">
        <ele>274.47308</ele>
        <time>2022-09-17T12:58:52.000Z</time>
      </trkpt>
      <trkpt lat="45.84479" lon="4.67553">
        <ele>274.25485</ele>
        <time>2022-09-17T12:58:53.000Z</time>
      </trkpt>
      <trkpt lat="45.84482" lon="4.6755">
        <ele>274.01425</ele>
        <time>2022-09-17T12:58:54.000Z</time>
      </trkpt>
      <trkpt lat="45.84485" lon="4.67548">
        <ele>273.79654</ele>
        <time>2022-09-17T12:58:55.000Z</time>
      </trkpt>
      <trkpt lat="45.84488" lon="4.67545">
        <ele>273.62726</ele>
        <time>2022-09-17T12:58:56.000Z</time>
      </trkpt>
      <trkpt lat="45.84491" lon="4.67544">
        <ele>273.51468</ele>
        <time>2022-09-17T12:58:57.000Z</time>
      </trkpt>
      <trkpt lat="45.84495" lon="4.67544">
        <ele>273.44476</ele>
        <time>2022-09-17T12:58:58.000Z</time>
      </trkpt>
      <trkpt lat="45.84499" lon="4.67545">
        <ele>273.32248</ele>
        <time>2022-09-17T12:58:59.000Z</time>
      </trkpt>
      <trkpt lat="45.84503" lon="4.67547">
        <ele>273.19934</ele>
        <time>2022-09-17T12:59:00.000Z</time>
      </trkpt>
      <trkpt lat="45.84506" lon="4.6755">
        <ele>273.21448</ele>
        <time>2022-09-17T12:59:01.000Z</time>
      </trkpt>
      <trkpt lat="45.8451" lon="4.6756">
        <ele>273.17719</ele>
        <time>2022-09-17T12:59:02.000Z</time>
      </trkpt>
      <trkpt lat="45.84513" lon="4.67562">
        <ele>273.06073</ele>
        <time>2022-09-17T12:59:03.000Z</time>
      </trkpt>
      <trkpt lat="45.84517" lon="4.67566">
        <ele>272.91708</ele>
        <time>2022-09-17T12:59:04.000Z</time>
      </trkpt>
      <trkpt lat="45.8452" lon="4.67571">
        <ele>272.81519</ele>
        <time>2022-09-17T12:59:05.000Z</time>
      </trkpt>
      <trkpt lat="45.84525" lon="4.67575">
        <ele>272.70395</ele>
        <time>2022-09-17T12:59:06.000Z</time>
      </trkpt>
      <trkpt lat="45.84529" lon="4.67578">
        <ele>272.62796</ele>
        <time>2022-09-17T12:59:07.000Z</time>
      </trkpt>
      <trkpt lat="45.84534" lon="4.67581">
        <ele>272.61115</ele>
        <time>2022-09-17T12:59:08.000Z</time>
      </trkpt>
      <trkpt lat="45.8454" lon="4.67583">
        <ele>272.75357</ele>
        <time>2022-09-17T12:59:09.000Z</time>
      </trkpt>
      <trkpt lat="45.84545" lon="4.67584">
        <ele>272.93039</ele>
        <time>2022-09-17T12:59:10.000Z</time>
      </trkpt>
      <trkpt lat="45.8455" lon="4.67587">
        <ele>273.07898</ele>
        <time>2022-09-17T12:59:11.000Z</time>
      </trkpt>
      <trkpt lat="45.84556" lon="4.67589">
        <ele>273.17938</ele>
        <time>2022-09-17T12:59:12.000Z</time>
      </trkpt>
      <trkpt lat="45.84561" lon="4.67592">
        <ele>273.3587</ele>
        <time>2022-09-17T12:59:13.000Z</time>
      </trkpt>
      <trkpt lat="45.84565" lon="4.67596">
        <ele>273.51553</ele>
        <time>2022-09-17T12:59:14.000Z</time>
      </trkpt>
      <trkpt lat="45.84568" lon="4.67597">
        <ele>273.65591</ele>
        <time>2022-09-17T12:59:15.000Z</time>
      </trkpt>
      <trkpt lat="45.84572" lon="4.67598">
        <ele>273.72324</ele>
        <time>2022-09-17T12:59:16.000Z</time>
      </trkpt>
      <trkpt lat="45.84579" lon="4.67599">
        <ele>273.79669</ele>
        <time>2022-09-17T12:59:17.000Z</time>
      </trkpt>
      <trkpt lat="45.84583" lon="4.67597">
        <ele>273.85379</ele>
        <time>2022-09-17T12:59:18.000Z</time>
      </trkpt>
      <trkpt lat="45.84588" lon="4.67595">
        <ele>273.96609</ele>
        <time>2022-09-17T12:59:19.000Z</time>
      </trkpt>
      <trkpt lat="45.84594" lon="4.67592">
        <ele>274.0705</ele>
        <time>2022-09-17T12:59:20.000Z</time>
      </trkpt>
      <trkpt lat="45.84597" lon="4.6759">
        <ele>274.19611</ele>
        <time>2022-09-17T12:59:21.000Z</time>
      </trkpt>
      <trkpt lat="45.84603" lon="4.67587">
        <ele>274.39551</ele>
        <time>2022-09-17T12:59:22.000Z</time>
      </trkpt>
      <trkpt lat="45.84608" lon="4.67583">
        <ele>274.59186</ele>
        <time>2022-09-17T12:59:23.000Z</time>
      </trkpt>
      <trkpt lat="45.84614" lon="4.6758">
        <ele>274.75323</ele>
        <time>2022-09-17T12:59:24.000Z</time>
      </trkpt>
      <trkpt lat="45.84617" lon="4.67577">
        <ele>274.85263</ele>
        <time>2022-09-17T12:59:25.000Z</time>
      </trkpt>
      <trkpt lat="45.84622" lon="4.67574">
        <ele>274.94058</ele>
        <time>2022-09-17T12:59:26.000Z</time>
      </trkpt>
      <trkpt lat="45.84626" lon="4.6757">
        <ele>274.93225</ele>
        <time>2022-09-17T12:59:27.000Z</time>
      </trkpt>
      <trkpt lat="45.8463" lon="4.67565">
        <ele>275.03647</ele>
        <time>2022-09-17T12:59:28.000Z</time>
      </trkpt>
      <trkpt lat="45.84636" lon="4.67561">
        <ele>274.9848</ele>
        <time>2022-09-17T12:59:29.000Z</time>
      </trkpt>
      <trkpt lat="45.84641" lon="4.67556">
        <ele>274.89722</ele>
        <time>2022-09-17T12:59:30.000Z</time>
      </trkpt>
      <trkpt lat="45.84645" lon="4.6755">
        <ele>274.8382</ele>
        <time>2022-09-17T12:59:31.000Z</time>
      </trkpt>
      <trkpt lat="45.84649" lon="4.67544">
        <ele>274.79401</ele>
        <time>2022-09-17T12:59:32.000Z</time>
      </trkpt>
      <trkpt lat="45.84654" lon="4.67538">
        <ele>274.69543</ele>
        <time>2022-09-17T12:59:33.000Z</time>
      </trkpt>
      <trkpt lat="45.84657" lon="4.67532">
        <ele>274.63049</ele>
        <time>2022-09-17T12:59:34.000Z</time>
      </trkpt>
      <trkpt lat="45.8466" lon="4.67525">
        <ele>274.62225</ele>
        <time>2022-09-17T12:59:35.000Z</time>
      </trkpt>
      <trkpt lat="45.84665" lon="4.6752">
        <ele>274.66772</ele>
        <time>2022-09-17T12:59:36.000Z</time>
      </trkpt>
      <trkpt lat="45.84668" lon="4.67514">
        <ele>274.6647</ele>
        <time>2022-09-17T12:59:37.000Z</time>
      </trkpt>
      <trkpt lat="45.84672" lon="4.67507">
        <ele>274.57794</ele>
        <time>2022-09-17T12:59:38.000Z</time>
      </trkpt>
      <trkpt lat="45.84675" lon="4.675">
        <ele>274.55017</ele>
        <time>2022-09-17T12:59:39.000Z</time>
      </trkpt>
      <trkpt lat="45.84678" lon="4.67494">
        <ele>274.55215</ele>
        <time>2022-09-17T12:59:40.000Z</time>
      </trkpt>
      <trkpt lat="45.84682" lon="4.67489">
        <ele>274.53445</ele>
        <time>2022-09-17T12:59:41.000Z</time>
      </trkpt>
      <trkpt lat="45.84684" lon="4.67479">
        <ele>274.5014</ele>
        <time>2022-09-17T12:59:42.000Z</time>
      </trkpt>
      <trkpt lat="45.84688" lon="4.67472">
        <ele>274.4505</ele>
        <time>2022-09-17T12:59:43.000Z</time>
      </trkpt>
      <trkpt lat="45.84692" lon="4.67464">
        <ele>274.48337</ele>
        <time>2022-09-17T12:59:44.000Z</time>
      </trkpt>
      <trkpt lat="45.84697" lon="4.67459">
        <ele>274.48785</ele>
        <time>2022-09-17T12:59:45.000Z</time>
      </trkpt>
      <trkpt lat="45.84703" lon="4.67457">
        <ele>274.48883</ele>
        <time>2022-09-17T12:59:46.000Z</time>
      </trkpt>
      <trkpt lat="45.8471" lon="4.67457">
        <ele>274.5715</ele>
        <time>2022-09-17T12:59:47.000Z</time>
      </trkpt>
      <trkpt lat="45.84717" lon="4.67456">
        <ele>274.56622</ele>
        <time>2022-09-17T12:59:48.000Z</time>
      </trkpt>
      <trkpt lat="45.84725" lon="4.67457">
        <ele>274.59454</ele>
        <time>2022-09-17T12:59:49.000Z</time>
      </trkpt>
      <trkpt lat="45.84731" lon="4.67457">
        <ele>274.64603</ele>
        <time>2022-09-17T12:59:50.000Z</time>
      </trkpt>
      <trkpt lat="45.84736" lon="4.67454">
        <ele>274.69473</ele>
        <time>2022-09-17T12:59:51.000Z</time>
      </trkpt>
      <trkpt lat="45.84744" lon="4.67451">
        <ele>274.75262</ele>
        <time>2022-09-17T12:59:52.000Z</time>
      </trkpt>
      <trkpt lat="45.84753" lon="4.67453">
        <ele>274.87469</ele>
        <time>2022-09-17T12:59:53.000Z</time>
      </trkpt>
      <trkpt lat="45.84758" lon="4.67453">
        <ele>275.04279</ele>
        <time>2022-09-17T12:59:54.000Z</time>
      </trkpt>
      <trkpt lat="45.84762" lon="4.67453">
        <ele>275.19247</ele>
        <time>2022-09-17T12:59:55.000Z</time>
      </trkpt>
      <trkpt lat="45.84769" lon="4.67451">
        <ele>275.28665</ele>
        <time>2022-09-17T12:59:56.000Z</time>
      </trkpt>
      <trkpt lat="45.84774" lon="4.6745">
        <ele>275.34705</ele>
        <time>2022-09-17T12:59:57.000Z</time>
      </trkpt>
      <trkpt lat="45.84777" lon="4.6745">
        <ele>275.39938</ele>
        <time>2022-09-17T12:59:58.000Z</time>
      </trkpt>
      <trkpt lat="45.84782" lon="4.67448">
        <ele>275.40436</ele>
        <time>2022-09-17T12:59:59.000Z</time>
      </trkpt>
      <trkpt lat="45.84788" lon="4.67449">
        <ele>275.38977</ele>
        <time>2022-09-17T13:00:00.000Z</time>
      </trkpt>
      <trkpt lat="45.84792" lon="4.67449">
        <ele>275.37711</ele>
        <time>2022-09-17T13:00:01.000Z</time>
      </trkpt>
      <trkpt lat="45.84797" lon="4.67448">
        <ele>275.34656</ele>
        <time>2022-09-17T13:00:02.000Z</time>
      </trkpt>
      <trkpt lat="45.84802" lon="4.67449">
        <ele>275.39825</ele>
        <time>2022-09-17T13:00:03.000Z</time>
      </trkpt>
      <trkpt lat="45.84808" lon="4.6745">
        <ele>275.38712</ele>
        <time>2022-09-17T13:00:04.000Z</time>
      </trkpt>
      <trkpt lat="45.84815" lon="4.67447">
        <ele>275.54208</ele>
        <time>2022-09-17T13:00:05.000Z</time>
      </trkpt>
      <trkpt lat="45.84821" lon="4.67446">
        <ele>275.85953</ele>
        <time>2022-09-17T13:00:06.000Z</time>
      </trkpt>
      <trkpt lat="45.84828" lon="4.67446">
        <ele>276.26059</ele>
        <time>2022-09-17T13:00:07.000Z</time>
      </trkpt>
      <trkpt lat="45.84833" lon="4.67448">
        <ele>276.60892</ele>
        <time>2022-09-17T13:00:08.000Z</time>
      </trkpt>
      <trkpt lat="45.84839" lon="4.67446">
        <ele>276.97504</ele>
        <time>2022-09-17T13:00:09.000Z</time>
      </trkpt>
      <trkpt lat="45.84845" lon="4.67444">
        <ele>277.26669</ele>
        <time>2022-09-17T13:00:10.000Z</time>
      </trkpt>
      <trkpt lat="45.84853" lon="4.67442">
        <ele>277.46594</ele>
        <time>2022-09-17T13:00:11.000Z</time>
      </trkpt>
      <trkpt lat="45.8486" lon="4.67439">
        <ele>277.65619</ele>
        <time>2022-09-17T13:00:12.000Z</time>
      </trkpt>
      <trkpt lat="45.84863" lon="4.67439">
        <ele>277.9722</ele>
        <time>2022-09-17T13:00:13.000Z</time>
      </trkpt>
      <trkpt lat="45.84869" lon="4.67439">
        <ele>278.22241</ele>
        <time>2022-09-17T13:00:14.000Z</time>
      </trkpt>
      <trkpt lat="45.84874" lon="4.67439">
        <ele>278.45023</ele>
        <time>2022-09-17T13:00:15.000Z</time>
      </trkpt>
      <trkpt lat="45.84879" lon="4.67439">
        <ele>278.63916</ele>
        <time>2022-09-17T13:00:16.000Z</time>
      </trkpt>
      <trkpt lat="45.84886" lon="4.67438">
        <ele>278.91095</ele>
        <time>2022-09-17T13:00:17.000Z</time>
      </trkpt>
      <trkpt lat="45.8489" lon="4.67436">
        <ele>279.19855</ele>
        <time>2022-09-17T13:00:18.000Z</time>
      </trkpt>
      <trkpt lat="45.84896" lon="4.67436">
        <ele>279.44913</ele>
        <time>2022-09-17T13:00:19.000Z</time>
      </trkpt>
      <trkpt lat="45.849" lon="4.67438">
        <ele>279.80194</ele>
        <time>2022-09-17T13:00:20.000Z</time>
      </trkpt>
      <trkpt lat="45.84904" lon="4.67436">
        <ele>280.15765</ele>
        <time>2022-09-17T13:00:21.000Z</time>
      </trkpt>
      <trkpt lat="45.84908" lon="4.67436">
        <ele>280.53503</ele>
        <time>2022-09-17T13:00:22.000Z</time>
      </trkpt>
      <trkpt lat="45.84915" lon="4.67435">
        <ele>280.91913</ele>
        <time>2022-09-17T13:00:23.000Z</time>
      </trkpt>
      <trkpt lat="45.8492" lon="4.67433">
        <ele>281.31979</ele>
        <time>2022-09-17T13:00:24.000Z</time>
      </trkpt>
      <trkpt lat="45.84925" lon="4.67433">
        <ele>281.51309</ele>
        <time>2022-09-17T13:00:25.000Z</time>
      </trkpt>
      <trkpt lat="45.8493" lon="4.67432">
        <ele>281.56171</ele>
        <time>2022-09-17T13:00:26.000Z</time>
      </trkpt>
      <trkpt lat="45.84935" lon="4.67432">
        <ele>281.487</ele>
        <time>2022-09-17T13:00:27.000Z</time>
      </trkpt>
      <trkpt lat="45.84941" lon="4.67429">
        <ele>281.37592</ele>
        <time>2022-09-17T13:00:28.000Z</time>
      </trkpt>
      <trkpt lat="45.84948" lon="4.67427">
        <ele>281.36969</ele>
        <time>2022-09-17T13:00:29.000Z</time>
      </trkpt>
      <trkpt lat="45.84954" lon="4.67424">
        <ele>281.5473</ele>
        <time>2022-09-17T13:00:30.000Z</time>
      </trkpt>
      <trkpt lat="45.8496" lon="4.67425">
        <ele>281.75021</ele>
        <time>2022-09-17T13:00:31.000Z</time>
      </trkpt>
      <trkpt lat="45.84964" lon="4.67424">
        <ele>282.0495</ele>
        <time>2022-09-17T13:00:32.000Z</time>
      </trkpt>
      <trkpt lat="45.84969" lon="4.67423">
        <ele>282.15967</ele>
        <time>2022-09-17T13:00:33.000Z</time>
      </trkpt>
      <trkpt lat="45.84975" lon="4.67421">
        <ele>282.26843</ele>
        <time>2022-09-17T13:00:34.000Z</time>
      </trkpt>
      <trkpt lat="45.84978" lon="4.6742">
        <ele>282.61212</ele>
        <time>2022-09-17T13:00:35.000Z</time>
      </trkpt>
      <trkpt lat="45.84984" lon="4.67418">
        <ele>282.97144</ele>
        <time>2022-09-17T13:00:36.000Z</time>
      </trkpt>
      <trkpt lat="45.8499" lon="4.6742">
        <ele>283.29947</ele>
        <time>2022-09-17T13:00:37.000Z</time>
      </trkpt>
      <trkpt lat="45.84997" lon="4.67422">
        <ele>283.61786</ele>
        <time>2022-09-17T13:00:38.000Z</time>
      </trkpt>
      <trkpt lat="45.85004" lon="4.67419">
        <ele>283.93619</ele>
        <time>2022-09-17T13:00:39.000Z</time>
      </trkpt>
      <trkpt lat="45.85009" lon="4.67419">
        <ele>284.25562</ele>
        <time>2022-09-17T13:00:40.000Z</time>
      </trkpt>
      <trkpt lat="45.85016" lon="4.67415">
        <ele>284.51102</ele>
        <time>2022-09-17T13:00:41.000Z</time>
      </trkpt>
      <trkpt lat="45.85022" lon="4.67415">
        <ele>284.67874</ele>
        <time>2022-09-17T13:00:42.000Z</time>
      </trkpt>
      <trkpt lat="45.85029" lon="4.67414">
        <ele>284.74225</ele>
        <time>2022-09-17T13:00:43.000Z</time>
      </trkpt>
      <trkpt lat="45.85035" lon="4.67412">
        <ele>284.79706</ele>
        <time>2022-09-17T13:00:44.000Z</time>
      </trkpt>
      <trkpt lat="45.85041" lon="4.67408">
        <ele>284.64258</ele>
        <time>2022-09-17T13:00:45.000Z</time>
      </trkpt>
      <trkpt lat="45.85047" lon="4.67404">
        <ele>284.5145</ele>
        <time>2022-09-17T13:00:46.000Z</time>
      </trkpt>
      <trkpt lat="45.85055" lon="4.67398">
        <ele>284.37686</ele>
        <time>2022-09-17T13:00:47.000Z</time>
      </trkpt>
      <trkpt lat="45.85059" lon="4.67396">
        <ele>284.21259</ele>
        <time>2022-09-17T13:00:48.000Z</time>
      </trkpt>
      <trkpt lat="45.85065" lon="4.67394">
        <ele>283.85757</ele>
        <time>2022-09-17T13:00:49.000Z</time>
      </trkpt>
      <trkpt lat="45.85072" lon="4.6739">
        <ele>283.31552</ele>
        <time>2022-09-17T13:00:50.000Z</time>
      </trkpt>
      <trkpt lat="45.85077" lon="4.67387">
        <ele>282.76535</ele>
        <time>2022-09-17T13:00:51.000Z</time>
      </trkpt>
      <trkpt lat="45.85084" lon="4.67384">
        <ele>282.11246</ele>
        <time>2022-09-17T13:00:52.000Z</time>
      </trkpt>
      <trkpt lat="45.85088" lon="4.67381">
        <ele>281.41998</ele>
        <time>2022-09-17T13:00:53.000Z</time>
      </trkpt>
      <trkpt lat="45.85094" lon="4.67376">
        <ele>280.69376</ele>
        <time>2022-09-17T13:00:54.000Z</time>
      </trkpt>
      <trkpt lat="45.85099" lon="4.67372">
        <ele>279.66394</ele>
        <time>2022-09-17T13:00:55.000Z</time>
      </trkpt>
      <trkpt lat="45.85105" lon="4.67369">
        <ele>278.67984</ele>
        <time>2022-09-17T13:00:56.000Z</time>
      </trkpt>
      <trkpt lat="45.85112" lon="4.67366">
        <ele>277.6163</ele>
        <time>2022-09-17T13:00:57.000Z</time>
      </trkpt>
      <trkpt lat="45.85117" lon="4.67363">
        <ele>276.56696</ele>
        <time>2022-09-17T13:00:58.000Z</time>
      </trkpt>
      <trkpt lat="45.85122" lon="4.67359">
        <ele>275.47916</ele>
        <time>2022-09-17T13:00:59.000Z</time>
      </trkpt>
      <trkpt lat="45.85128" lon="4.67354">
        <ele>274.35031</ele>
        <time>2022-09-17T13:01:00.000Z</time>
      </trkpt>
      <trkpt lat="45.85135" lon="4.67351">
        <ele>273.27826</ele>
        <time>2022-09-17T13:01:01.000Z</time>
      </trkpt>
      <trkpt lat="45.85138" lon="4.67347">
        <ele>272.27481</ele>
        <time>2022-09-17T13:01:02.000Z</time>
      </trkpt>
      <trkpt lat="45.85144" lon="4.67343">
        <ele>271.3287</ele>
        <time>2022-09-17T13:01:03.000Z</time>
      </trkpt>
      <trkpt lat="45.85151" lon="4.6734">
        <ele>270.43256</ele>
        <time>2022-09-17T13:01:04.000Z</time>
      </trkpt>
      <trkpt lat="45.85157" lon="4.67337">
        <ele>269.7984</ele>
        <time>2022-09-17T13:01:05.000Z</time>
      </trkpt>
      <trkpt lat="45.85162" lon="4.67335">
        <ele>269.05609</ele>
        <time>2022-09-17T13:01:06.000Z</time>
      </trkpt>
      <trkpt lat="45.85168" lon="4.67334">
        <ele>268.27658</ele>
        <time>2022-09-17T13:01:07.000Z</time>
      </trkpt>
      <trkpt lat="45.85174" lon="4.67332">
        <ele>267.59109</ele>
        <time>2022-09-17T13:01:08.000Z</time>
      </trkpt>
      <trkpt lat="45.8518" lon="4.67329">
        <ele>267.00192</ele>
        <time>2022-09-17T13:01:09.000Z</time>
      </trkpt>
      <trkpt lat="45.85185" lon="4.67326">
        <ele>266.54742</ele>
        <time>2022-09-17T13:01:10.000Z</time>
      </trkpt>
      <trkpt lat="45.8519" lon="4.67322">
        <ele>266.1651</ele>
        <time>2022-09-17T13:01:11.000Z</time>
      </trkpt>
      <trkpt lat="45.85197" lon="4.67325">
        <ele>265.71173</ele>
        <time>2022-09-17T13:01:12.000Z</time>
      </trkpt>
      <trkpt lat="45.85202" lon="4.67324">
        <ele>265.33987</ele>
        <time>2022-09-17T13:01:13.000Z</time>
      </trkpt>
      <trkpt lat="45.85207" lon="4.67325">
        <ele>265.08652</ele>
        <time>2022-09-17T13:01:14.000Z</time>
      </trkpt>
      <trkpt lat="45.85211" lon="4.67329">
        <ele>264.90106</ele>
        <time>2022-09-17T13:01:15.000Z</time>
      </trkpt>
      <trkpt lat="45.85215" lon="4.67332">
        <ele>264.69745</ele>
        <time>2022-09-17T13:01:16.000Z</time>
      </trkpt>
      <trkpt lat="45.85217" lon="4.67335">
        <ele>264.51465</ele>
        <time>2022-09-17T13:01:17.000Z</time>
      </trkpt>
      <trkpt lat="45.85219" lon="4.67341">
        <ele>264.41104</ele>
        <time>2022-09-17T13:01:18.000Z</time>
      </trkpt>
      <trkpt lat="45.8522" lon="4.67346">
        <ele>264.30707</ele>
        <time>2022-09-17T13:01:19.000Z</time>
      </trkpt>
      <trkpt lat="45.85223" lon="4.67348">
        <ele>264.19458</ele>
        <time>2022-09-17T13:01:20.000Z</time>
      </trkpt>
      <trkpt lat="45.85228" lon="4.67348">
        <ele>264.04572</ele>
        <time>2022-09-17T13:01:21.000Z</time>
      </trkpt>
      <trkpt lat="45.85235" lon="4.67349">
        <ele>264.04199</ele>
        <time>2022-09-17T13:01:22.000Z</time>
      </trkpt>
      <trkpt lat="45.85239" lon="4.67347">
        <ele>264.08408</ele>
        <time>2022-09-17T13:01:23.000Z</time>
      </trkpt>
      <trkpt lat="45.85243" lon="4.67344">
        <ele>264.04095</ele>
        <time>2022-09-17T13:01:24.000Z</time>
      </trkpt>
      <trkpt lat="45.85246" lon="4.67342">
        <ele>264.01831</ele>
        <time>2022-09-17T13:01:25.000Z</time>
      </trkpt>
      <trkpt lat="45.85251" lon="4.67341">
        <ele>264.11072</ele>
        <time>2022-09-17T13:01:26.000Z</time>
      </trkpt>
      <trkpt lat="45.85255" lon="4.6734">
        <ele>264.28387</ele>
        <time>2022-09-17T13:01:27.000Z</time>
      </trkpt>
      <trkpt lat="45.85259" lon="4.67338">
        <ele>264.47278</ele>
        <time>2022-09-17T13:01:28.000Z</time>
      </trkpt>
      <trkpt lat="45.85263" lon="4.67336">
        <ele>264.63953</ele>
        <time>2022-09-17T13:01:29.000Z</time>
      </trkpt>
      <trkpt lat="45.85267" lon="4.67334">
        <ele>264.74091</ele>
        <time>2022-09-17T13:01:30.000Z</time>
      </trkpt>
      <trkpt lat="45.8527" lon="4.67332">
        <ele>264.91727</ele>
        <time>2022-09-17T13:01:31.000Z</time>
      </trkpt>
      <trkpt lat="45.85273" lon="4.6733">
        <ele>265.17798</ele>
        <time>2022-09-17T13:01:32.000Z</time>
      </trkpt>
      <trkpt lat="45.85276" lon="4.67328">
        <ele>265.45511</ele>
        <time>2022-09-17T13:01:33.000Z</time>
      </trkpt>
      <trkpt lat="45.85279" lon="4.67325">
        <ele>265.61752</ele>
        <time>2022-09-17T13:01:34.000Z</time>
      </trkpt>
      <trkpt lat="45.85282" lon="4.67323">
        <ele>265.71539</ele>
        <time>2022-09-17T13:01:35.000Z</time>
      </trkpt>
      <trkpt lat="45.85284" lon="4.6732">
        <ele>265.75452</ele>
        <time>2022-09-17T13:01:36.000Z</time>
      </trkpt>
      <trkpt lat="45.85285" lon="4.67316">
        <ele>265.86981</ele>
        <time>2022-09-17T13:01:37.000Z</time>
      </trkpt>
      <trkpt lat="45.85286" lon="4.67312">
        <ele>265.94012</ele>
        <time>2022-09-17T13:01:38.000Z</time>
      </trkpt>
      <trkpt lat="45.85286" lon="4.67307">
        <ele>265.97278</ele>
        <time>2022-09-17T13:01:39.000Z</time>
      </trkpt>
      <trkpt lat="45.85285" lon="4.67302">
        <ele>265.98822</ele>
        <time>2022-09-17T13:01:40.000Z</time>
      </trkpt>
      <trkpt lat="45.85284" lon="4.67297">
        <ele>266.05173</ele>
        <time>2022-09-17T13:01:41.000Z</time>
      </trkpt>
      <trkpt lat="45.85283" lon="4.67293">
        <ele>265.99561</ele>
        <time>2022-09-17T13:01:42.000Z</time>
      </trkpt>
      <trkpt lat="45.85282" lon="4.67288">
        <ele>265.9025</ele>
        <time>2022-09-17T13:01:43.000Z</time>
      </trkpt>
      <trkpt lat="45.85281" lon="4.67284">
        <ele>265.79868</ele>
        <time>2022-09-17T13:01:44.000Z</time>
      </trkpt>
      <trkpt lat="45.8528" lon="4.67279">
        <ele>265.61374</ele>
        <time>2022-09-17T13:01:45.000Z</time>
      </trkpt>
      <trkpt lat="45.8528" lon="4.67274">
        <ele>265.41241</ele>
        <time>2022-09-17T13:01:46.000Z</time>
      </trkpt>
      <trkpt lat="45.8528" lon="4.67268">
        <ele>265.20651</ele>
        <time>2022-09-17T13:01:47.000Z</time>
      </trkpt>
      <trkpt lat="45.85279" lon="4.67262">
        <ele>264.92914</ele>
        <time>2022-09-17T13:01:48.000Z</time>
      </trkpt>
      <trkpt lat="45.85278" lon="4.67255">
        <ele>264.61172</ele>
        <time>2022-09-17T13:01:49.000Z</time>
      </trkpt>
      <trkpt lat="45.85277" lon="4.67248">
        <ele>264.31146</ele>
        <time>2022-09-17T13:01:50.000Z</time>
      </trkpt>
      <trkpt lat="45.85275" lon="4.67242">
        <ele>263.9639</ele>
        <time>2022-09-17T13:01:51.000Z</time>
      </trkpt>
      <trkpt lat="45.85274" lon="4.67235">
        <ele>263.59671</ele>
        <time>2022-09-17T13:01:52.000Z</time>
      </trkpt>
      <trkpt lat="45.85274" lon="4.67228">
        <ele>263.2735</ele>
        <time>2022-09-17T13:01:53.000Z</time>
      </trkpt>
      <trkpt lat="45.85272" lon="4.6722">
        <ele>263.05237</ele>
        <time>2022-09-17T13:01:54.000Z</time>
      </trkpt>
      <trkpt lat="45.85272" lon="4.67213">
        <ele>262.79626</ele>
        <time>2022-09-17T13:01:55.000Z</time>
      </trkpt>
      <trkpt lat="45.85272" lon="4.67205">
        <ele>262.56653</ele>
        <time>2022-09-17T13:01:56.000Z</time>
      </trkpt>
      <trkpt lat="45.85272" lon="4.67198">
        <ele>262.23706</ele>
        <time>2022-09-17T13:01:57.000Z</time>
      </trkpt>
      <trkpt lat="45.85273" lon="4.67194">
        <ele>261.82291</ele>
        <time>2022-09-17T13:01:58.000Z</time>
      </trkpt>
      <trkpt lat="45.85271" lon="4.67187">
        <ele>261.42944</ele>
        <time>2022-09-17T13:01:59.000Z</time>
      </trkpt>
      <trkpt lat="45.85271" lon="4.67181">
        <ele>261.02231</ele>
        <time>2022-09-17T13:02:00.000Z</time>
      </trkpt>
      <trkpt lat="45.8527" lon="4.67174">
        <ele>260.61557</ele>
        <time>2022-09-17T13:02:01.000Z</time>
      </trkpt>
      <trkpt lat="45.85268" lon="4.67167">
        <ele>260.2066</ele>
        <time>2022-09-17T13:02:02.000Z</time>
      </trkpt>
      <trkpt lat="45.85265" lon="4.67162">
        <ele>259.74356</ele>
        <time>2022-09-17T13:02:03.000Z</time>
      </trkpt>
      <trkpt lat="45.85263" lon="4.67157">
        <ele>259.26785</ele>
        <time>2022-09-17T13:02:04.000Z</time>
      </trkpt>
      <trkpt lat="45.85257" lon="4.67154">
        <ele>258.82257</ele>
        <time>2022-09-17T13:02:05.000Z</time>
      </trkpt>
      <trkpt lat="45.85253" lon="4.67151">
        <ele>258.30634</ele>
        <time>2022-09-17T13:02:06.000Z</time>
      </trkpt>
      <trkpt lat="45.85247" lon="4.67148">
        <ele>257.77667</ele>
        <time>2022-09-17T13:02:07.000Z</time>
      </trkpt>
      <trkpt lat="45.8524" lon="4.67144">
        <ele>257.29413</ele>
        <time>2022-09-17T13:02:08.000Z</time>
      </trkpt>
      <trkpt lat="45.85234" lon="4.67139">
        <ele>256.73981</ele>
        <time>2022-09-17T13:02:09.000Z</time>
      </trkpt>
      <trkpt lat="45.8523" lon="4.67138">
        <ele>256.14169</ele>
        <time>2022-09-17T13:02:10.000Z</time>
      </trkpt>
      <trkpt lat="45.85226" lon="4.67134">
        <ele>255.4559</ele>
        <time>2022-09-17T13:02:11.000Z</time>
      </trkpt>
      <trkpt lat="45.8522" lon="4.67131">
        <ele>254.83972</ele>
        <time>2022-09-17T13:02:12.000Z</time>
      </trkpt>
      <trkpt lat="45.85214" lon="4.67127">
        <ele>254.07817</ele>
        <time>2022-09-17T13:02:13.000Z</time>
      </trkpt>
      <trkpt lat="45.85206" lon="4.67121">
        <ele>253.20149</ele>
        <time>2022-09-17T13:02:14.000Z</time>
      </trkpt>
      <trkpt lat="45.85197" lon="4.67114">
        <ele>252.41577</ele>
        <time>2022-09-17T13:02:15.000Z</time>
      </trkpt>
      <trkpt lat="45.8519" lon="4.67109">
        <ele>251.62971</ele>
        <time>2022-09-17T13:02:16.000Z</time>
      </trkpt>
      <trkpt lat="45.85182" lon="4.67103">
        <ele>250.86621</ele>
        <time>2022-09-17T13:02:17.000Z</time>
      </trkpt>
      <trkpt lat="45.85176" lon="4.67099">
        <ele>250.13933</ele>
        <time>2022-09-17T13:02:18.000Z</time>
      </trkpt>
      <trkpt lat="45.85168" lon="4.67094">
        <ele>249.39168</ele>
        <time>2022-09-17T13:02:19.000Z</time>
      </trkpt>
      <trkpt lat="45.85161" lon="4.67092">
        <ele>248.7094</ele>
        <time>2022-09-17T13:02:20.000Z</time>
      </trkpt>
      <trkpt lat="45.85156" lon="4.67088">
        <ele>247.97427</ele>
        <time>2022-09-17T13:02:21.000Z</time>
      </trkpt>
      <trkpt lat="45.85146" lon="4.67082">
        <ele>247.20908</ele>
        <time>2022-09-17T13:02:23.000Z</time>
      </trkpt>
      <trkpt lat="45.8514" lon="4.67077">
        <ele>246.48286</ele>
        <time>2022-09-17T13:02:24.000Z</time>
      </trkpt>
      <trkpt lat="45.85136" lon="4.67074">
        <ele>245.76443</ele>
        <time>2022-09-17T13:02:25.000Z</time>
      </trkpt>
      <trkpt lat="45.85131" lon="4.67072">
        <ele>244.99283</ele>
        <time>2022-09-17T13:02:26.000Z</time>
      </trkpt>
      <trkpt lat="45.85129" lon="4.6707">
        <ele>244.07339</ele>
        <time>2022-09-17T13:02:27.000Z</time>
      </trkpt>
      <trkpt lat="45.85124" lon="4.6707">
        <ele>243.17227</ele>
        <time>2022-09-17T13:02:28.000Z</time>
      </trkpt>
      <trkpt lat="45.85119" lon="4.67071">
        <ele>242.33194</ele>
        <time>2022-09-17T13:02:29.000Z</time>
      </trkpt>
      <trkpt lat="45.85115" lon="4.67069">
        <ele>241.56873</ele>
        <time>2022-09-17T13:02:30.000Z</time>
      </trkpt>
      <trkpt lat="45.85114" lon="4.67064">
        <ele>240.80595</ele>
        <time>2022-09-17T13:02:31.000Z</time>
      </trkpt>
      <trkpt lat="45.85115" lon="4.6706">
        <ele>240.056</ele>
        <time>2022-09-17T13:02:32.000Z</time>
      </trkpt>
      <trkpt lat="45.85116" lon="4.67057">
        <ele>239.26619</ele>
        <time>2022-09-17T13:02:33.000Z</time>
      </trkpt>
      <trkpt lat="45.85115" lon="4.67051">
        <ele>238.5668</ele>
        <time>2022-09-17T13:02:35.000Z</time>
      </trkpt>
      <trkpt lat="45.85117" lon="4.67049">
        <ele>237.86653</ele>
        <time>2022-09-17T13:02:36.000Z</time>
      </trkpt>
      <trkpt lat="45.8512" lon="4.67044">
        <ele>237.24825</ele>
        <time>2022-09-17T13:02:38.000Z</time>
      </trkpt>
      <trkpt lat="45.85122" lon="4.67042">
        <ele>236.54407</ele>
        <time>2022-09-17T13:02:40.000Z</time>
      </trkpt>
      <trkpt lat="45.85123" lon="4.67038">
        <ele>235.80313</ele>
        <time>2022-09-17T13:02:42.000Z</time>
      </trkpt>
      <trkpt lat="45.85125" lon="4.67035">
        <ele>235.01797</ele>
        <time>2022-09-17T13:02:44.000Z</time>
      </trkpt>
      <trkpt lat="45.85127" lon="4.67033">
        <ele>234.27336</ele>
        <time>2022-09-17T13:02:46.000Z</time>
      </trkpt>
      <trkpt lat="45.85129" lon="4.67031">
        <ele>233.41956</ele>
        <time>2022-09-17T13:02:48.000Z</time>
      </trkpt>
      <trkpt lat="45.85132" lon="4.67029">
        <ele>232.59232</ele>
        <time>2022-09-17T13:02:50.000Z</time>
      </trkpt>
      <trkpt lat="45.85135" lon="4.67027">
        <ele>231.70642</ele>
        <time>2022-09-17T13:02:52.000Z</time>
      </trkpt>
      <trkpt lat="45.85137" lon="4.67026">
        <ele>230.85233</ele>
        <time>2022-09-17T13:02:53.000Z</time>
      </trkpt>
      <trkpt lat="45.85139" lon="4.67025">
        <ele>230.06226</ele>
        <time>2022-09-17T13:02:54.000Z</time>
      </trkpt>
      <trkpt lat="45.85141" lon="4.67024">
        <ele>229.38412</ele>
        <time>2022-09-17T13:02:55.000Z</time>
      </trkpt>
      <trkpt lat="45.85144" lon="4.67023">
        <ele>228.83093</ele>
        <time>2022-09-17T13:02:57.000Z</time>
      </trkpt>
      <trkpt lat="45.85146" lon="4.67023">
        <ele>228.28117</ele>
        <time>2022-09-17T13:02:58.000Z</time>
      </trkpt>
      <trkpt lat="45.85149" lon="4.67023">
        <ele>227.6508</ele>
        <time>2022-09-17T13:02:59.000Z</time>
      </trkpt>
      <trkpt lat="45.85151" lon="4.67024">
        <ele>227.1235</ele>
        <time>2022-09-17T13:03:00.000Z</time>
      </trkpt>
      <trkpt lat="45.85152" lon="4.67024">
        <ele>226.6851</ele>
        <time>2022-09-17T13:03:01.000Z</time>
      </trkpt>
      <trkpt lat="45.85155" lon="4.67025">
        <ele>226.40848</ele>
        <time>2022-09-17T13:03:03.000Z</time>
      </trkpt>
      <trkpt lat="45.85158" lon="4.67026">
        <ele>226.07068</ele>
        <time>2022-09-17T13:03:05.000Z</time>
      </trkpt>
      <trkpt lat="45.8516" lon="4.67027">
        <ele>225.67094</ele>
        <time>2022-09-17T13:03:06.000Z</time>
      </trkpt>
      <trkpt lat="45.85163" lon="4.67027">
        <ele>225.22818</ele>
        <time>2022-09-17T13:03:08.000Z</time>
      </trkpt>
      <trkpt lat="45.85167" lon="4.67027">
        <ele>224.79333</ele>
        <time>2022-09-17T13:03:10.000Z</time>
      </trkpt>
      <trkpt lat="45.85169" lon="4.67028">
        <ele>224.46887</ele>
        <time>2022-09-17T13:03:12.000Z</time>
      </trkpt>
      <trkpt lat="45.85172" lon="4.67029">
        <ele>224.21887</ele>
        <time>2022-09-17T13:03:13.000Z</time>
      </trkpt>
      <trkpt lat="45.85174" lon="4.6703">
        <ele>223.97363</ele>
        <time>2022-09-17T13:03:14.000Z</time>
      </trkpt>
      <trkpt lat="45.85176" lon="4.6703">
        <ele>223.83662</ele>
        <time>2022-09-17T13:03:15.000Z</time>
      </trkpt>
      <trkpt lat="45.85179" lon="4.6703">
        <ele>223.71603</ele>
        <time>2022-09-17T13:03:16.000Z</time>
      </trkpt>
      <trkpt lat="45.85181" lon="4.6703">
        <ele>223.64001</ele>
        <time>2022-09-17T13:03:17.000Z</time>
      </trkpt>
      <trkpt lat="45.85184" lon="4.6703">
        <ele>223.68904</ele>
        <time>2022-09-17T13:03:18.000Z</time>
      </trkpt>
      <trkpt lat="45.85187" lon="4.6703">
        <ele>223.73332</ele>
        <time>2022-09-17T13:03:19.000Z</time>
      </trkpt>
      <trkpt lat="45.8519" lon="4.6703">
        <ele>223.74158</ele>
        <time>2022-09-17T13:03:21.000Z</time>
      </trkpt>
      <trkpt lat="45.85192" lon="4.6703">
        <ele>223.76929</ele>
        <time>2022-09-17T13:03:22.000Z</time>
      </trkpt>
      <trkpt lat="45.85194" lon="4.67029">
        <ele>223.78149</ele>
        <time>2022-09-17T13:03:23.000Z</time>
      </trkpt>
      <trkpt lat="45.85197" lon="4.67029">
        <ele>223.76775</ele>
        <time>2022-09-17T13:03:25.000Z</time>
      </trkpt>
      <trkpt lat="45.85199" lon="4.67026">
        <ele>223.67075</ele>
        <time>2022-09-17T13:03:28.000Z</time>
      </trkpt>
      <trkpt lat="45.85201" lon="4.67025">
        <ele>223.46634</ele>
        <time>2022-09-17T13:03:31.000Z</time>
      </trkpt>
      <trkpt lat="45.85203" lon="4.67025">
        <ele>223.13016</ele>
        <time>2022-09-17T13:03:32.000Z</time>
      </trkpt>
      <trkpt lat="45.85207" lon="4.67026">
        <ele>222.63383</ele>
        <time>2022-09-17T13:03:33.000Z</time>
      </trkpt>
      <trkpt lat="45.85211" lon="4.67028">
        <ele>222.19829</ele>
        <time>2022-09-17T13:03:34.000Z</time>
      </trkpt>
      <trkpt lat="45.85215" lon="4.6703">
        <ele>221.77139</ele>
        <time>2022-09-17T13:03:35.000Z</time>
      </trkpt>
      <trkpt lat="45.8522" lon="4.67031">
        <ele>221.39969</ele>
        <time>2022-09-17T13:03:36.000Z</time>
      </trkpt>
      <trkpt lat="45.85225" lon="4.67032">
        <ele>220.97864</ele>
        <time>2022-09-17T13:03:37.000Z</time>
      </trkpt>
      <trkpt lat="45.85229" lon="4.67033">
        <ele>220.59615</ele>
        <time>2022-09-17T13:03:38.000Z</time>
      </trkpt>
      <trkpt lat="45.85234" lon="4.67033">
        <ele>220.23433</ele>
        <time>2022-09-17T13:03:39.000Z</time>
      </trkpt>
      <trkpt lat="45.85241" lon="4.67031">
        <ele>219.96333</ele>
        <time>2022-09-17T13:03:40.000Z</time>
      </trkpt>
      <trkpt lat="45.85247" lon="4.67031">
        <ele>219.59526</ele>
        <time>2022-09-17T13:03:41.000Z</time>
      </trkpt>
      <trkpt lat="45.85252" lon="4.67031">
        <ele>219.35857</ele>
        <time>2022-09-17T13:03:42.000Z</time>
      </trkpt>
      <trkpt lat="45.85258" lon="4.67029">
        <ele>219.18645</ele>
        <time>2022-09-17T13:03:43.000Z</time>
      </trkpt>
      <trkpt lat="45.85263" lon="4.67027">
        <ele>219.01724</ele>
        <time>2022-09-17T13:03:44.000Z</time>
      </trkpt>
      <trkpt lat="45.85269" lon="4.67025">
        <ele>218.88132</ele>
        <time>2022-09-17T13:03:45.000Z</time>
      </trkpt>
      <trkpt lat="45.85275" lon="4.67024">
        <ele>218.70808</ele>
        <time>2022-09-17T13:03:46.000Z</time>
      </trkpt>
      <trkpt lat="45.85282" lon="4.67023">
        <ele>218.47107</ele>
        <time>2022-09-17T13:03:47.000Z</time>
      </trkpt>
      <trkpt lat="45.85289" lon="4.67022">
        <ele>218.23909</ele>
        <time>2022-09-17T13:03:48.000Z</time>
      </trkpt>
      <trkpt lat="45.85297" lon="4.67021">
        <ele>218.06772</ele>
        <time>2022-09-17T13:03:49.000Z</time>
      </trkpt>
      <trkpt lat="45.85302" lon="4.67019">
        <ele>218.05685</ele>
        <time>2022-09-17T13:03:50.000Z</time>
      </trkpt>
      <trkpt lat="45.8531" lon="4.67017">
        <ele>218.05795</ele>
        <time>2022-09-17T13:03:51.000Z</time>
      </trkpt>
      <trkpt lat="45.85316" lon="4.67016">
        <ele>218.15022</ele>
        <time>2022-09-17T13:03:52.000Z</time>
      </trkpt>
      <trkpt lat="45.85322" lon="4.67013">
        <ele>218.33594</ele>
        <time>2022-09-17T13:03:53.000Z</time>
      </trkpt>
      <trkpt lat="45.85328" lon="4.6701">
        <ele>218.52779</ele>
        <time>2022-09-17T13:03:54.000Z</time>
      </trkpt>
      <trkpt lat="45.85333" lon="4.67006">
        <ele>218.73242</ele>
        <time>2022-09-17T13:03:55.000Z</time>
      </trkpt>
      <trkpt lat="45.85339" lon="4.67002">
        <ele>219.01445</ele>
        <time>2022-09-17T13:03:56.000Z</time>
      </trkpt>
      <trkpt lat="45.85346" lon="4.67001">
        <ele>219.23923</ele>
        <time>2022-09-17T13:03:57.000Z</time>
      </trkpt>
      <trkpt lat="45.85351" lon="4.66995">
        <ele>219.40433</ele>
        <time>2022-09-17T13:03:58.000Z</time>
      </trkpt>
      <trkpt lat="45.85356" lon="4.66987">
        <ele>219.56448</ele>
        <time>2022-09-17T13:03:59.000Z</time>
      </trkpt>
      <trkpt lat="45.85363" lon="4.66984">
        <ele>219.6158</ele>
        <time>2022-09-17T13:04:00.000Z</time>
      </trkpt>
      <trkpt lat="45.85369" lon="4.66977">
        <ele>219.76604</ele>
        <time>2022-09-17T13:04:01.000Z</time>
      </trkpt>
      <trkpt lat="45.85375" lon="4.66972">
        <ele>219.77766</ele>
        <time>2022-09-17T13:04:02.000Z</time>
      </trkpt>
      <trkpt lat="45.85381" lon="4.66969">
        <ele>219.65787</ele>
        <time>2022-09-17T13:04:03.000Z</time>
      </trkpt>
      <trkpt lat="45.85388" lon="4.66964">
        <ele>219.45187</ele>
        <time>2022-09-17T13:04:04.000Z</time>
      </trkpt>
      <trkpt lat="45.85394" lon="4.6696">
        <ele>219.02573</ele>
        <time>2022-09-17T13:04:05.000Z</time>
      </trkpt>
      <trkpt lat="45.854" lon="4.66957">
        <ele>218.72852</ele>
        <time>2022-09-17T13:04:06.000Z</time>
      </trkpt>
      <trkpt lat="45.85405" lon="4.66956">
        <ele>218.46098</ele>
        <time>2022-09-17T13:04:07.000Z</time>
      </trkpt>
      <trkpt lat="45.85413" lon="4.66953">
        <ele>218.24557</ele>
        <time>2022-09-17T13:04:08.000Z</time>
      </trkpt>
      <trkpt lat="45.8542" lon="4.66954">
        <ele>217.97278</ele>
        <time>2022-09-17T13:04:09.000Z</time>
      </trkpt>
      <trkpt lat="45.85427" lon="4.66956">
        <ele>217.55891</ele>
        <time>2022-09-17T13:04:10.000Z</time>
      </trkpt>
      <trkpt lat="45.85433" lon="4.66957">
        <ele>217.13501</ele>
        <time>2022-09-17T13:04:11.000Z</time>
      </trkpt>
      <trkpt lat="45.8544" lon="4.66958">
        <ele>216.6449</ele>
        <time>2022-09-17T13:04:12.000Z</time>
      </trkpt>
      <trkpt lat="45.85447" lon="4.66958">
        <ele>216.12772</ele>
        <time>2022-09-17T13:04:13.000Z</time>
      </trkpt>
      <trkpt lat="45.85454" lon="4.66959">
        <ele>215.57027</ele>
        <time>2022-09-17T13:04:14.000Z</time>
      </trkpt>
      <trkpt lat="45.85461" lon="4.66959">
        <ele>214.95276</ele>
        <time>2022-09-17T13:04:15.000Z</time>
      </trkpt>
      <trkpt lat="45.85468" lon="4.66957">
        <ele>214.30551</ele>
        <time>2022-09-17T13:04:16.000Z</time>
      </trkpt>
      <trkpt lat="45.85474" lon="4.66955">
        <ele>213.59885</ele>
        <time>2022-09-17T13:04:17.000Z</time>
      </trkpt>
      <trkpt lat="45.85479" lon="4.66953">
        <ele>212.8851</ele>
        <time>2022-09-17T13:04:18.000Z</time>
      </trkpt>
      <trkpt lat="45.85485" lon="4.66952">
        <ele>212.16475</ele>
        <time>2022-09-17T13:04:19.000Z</time>
      </trkpt>
      <trkpt lat="45.85489" lon="4.66951">
        <ele>211.42221</ele>
        <time>2022-09-17T13:04:20.000Z</time>
      </trkpt>
      <trkpt lat="45.85493" lon="4.66954">
        <ele>210.54607</ele>
        <time>2022-09-17T13:04:21.000Z</time>
      </trkpt>
      <trkpt lat="45.855" lon="4.66952">
        <ele>209.74783</ele>
        <time>2022-09-17T13:04:22.000Z</time>
      </trkpt>
      <trkpt lat="45.85503" lon="4.66951">
        <ele>208.90494</ele>
        <time>2022-09-17T13:04:23.000Z</time>
      </trkpt>
      <trkpt lat="45.85509" lon="4.6695">
        <ele>208.10336</ele>
        <time>2022-09-17T13:04:24.000Z</time>
      </trkpt>
      <trkpt lat="45.85513" lon="4.6695">
        <ele>207.51529</ele>
        <time>2022-09-17T13:04:25.000Z</time>
      </trkpt>
      <trkpt lat="45.85517" lon="4.6695">
        <ele>206.84738</ele>
        <time>2022-09-17T13:04:26.000Z</time>
      </trkpt>
      <trkpt lat="45.85522" lon="4.66951">
        <ele>206.18637</ele>
        <time>2022-09-17T13:04:27.000Z</time>
      </trkpt>
      <trkpt lat="45.8553" lon="4.66954">
        <ele>205.55399</ele>
        <time>2022-09-17T13:04:28.000Z</time>
      </trkpt>
      <trkpt lat="45.85532" lon="4.66957">
        <ele>204.88663</ele>
        <time>2022-09-17T13:04:29.000Z</time>
      </trkpt>
      <trkpt lat="45.85533" lon="4.66962">
        <ele>204.39125</ele>
        <time>2022-09-17T13:04:30.000Z</time>
      </trkpt>
      <trkpt lat="45.85535" lon="4.66968">
        <ele>203.95561</ele>
        <time>2022-09-17T13:04:31.000Z</time>
      </trkpt>
      <trkpt lat="45.85537" lon="4.66973">
        <ele>203.63269</ele>
        <time>2022-09-17T13:04:32.000Z</time>
      </trkpt>
      <trkpt lat="45.8554" lon="4.66977">
        <ele>203.311</ele>
        <time>2022-09-17T13:04:33.000Z</time>
      </trkpt>
      <trkpt lat="45.85542" lon="4.66985">
        <ele>203.11313</ele>
        <time>2022-09-17T13:04:34.000Z</time>
      </trkpt>
      <trkpt lat="45.85544" lon="4.6699">
        <ele>203.00462</ele>
        <time>2022-09-17T13:04:35.000Z</time>
      </trkpt>
      <trkpt lat="45.85545" lon="4.66995">
        <ele>202.9243</ele>
        <time>2022-09-17T13:04:36.000Z</time>
      </trkpt>
      <trkpt lat="45.85549" lon="4.67003">
        <ele>202.8457</ele>
        <time>2022-09-17T13:04:37.000Z</time>
      </trkpt>
      <trkpt lat="45.85551" lon="4.6701">
        <ele>202.85051</ele>
        <time>2022-09-17T13:04:38.000Z</time>
      </trkpt>
      <trkpt lat="45.85551" lon="4.67017">
        <ele>202.90201</ele>
        <time>2022-09-17T13:04:39.000Z</time>
      </trkpt>
      <trkpt lat="45.85553" lon="4.67026">
        <ele>203.0247</ele>
        <time>2022-09-17T13:04:40.000Z</time>
      </trkpt>
      <trkpt lat="45.85555" lon="4.6703">
        <ele>203.33353</ele>
        <time>2022-09-17T13:04:41.000Z</time>
      </trkpt>
      <trkpt lat="45.85556" lon="4.67037">
        <ele>203.62744</ele>
        <time>2022-09-17T13:04:42.000Z</time>
      </trkpt>
      <trkpt lat="45.85557" lon="4.67043">
        <ele>204.00278</ele>
        <time>2022-09-17T13:04:43.000Z</time>
      </trkpt>
      <trkpt lat="45.85559" lon="4.67049">
        <ele>204.39861</ele>
        <time>2022-09-17T13:04:44.000Z</time>
      </trkpt>
      <trkpt lat="45.85561" lon="4.67055">
        <ele>204.74783</ele>
        <time>2022-09-17T13:04:45.000Z</time>
      </trkpt>
      <trkpt lat="45.85564" lon="4.6706">
        <ele>205.1239</ele>
        <time>2022-09-17T13:04:46.000Z</time>
      </trkpt>
      <trkpt lat="45.85565" lon="4.67067">
        <ele>205.51611</ele>
        <time>2022-09-17T13:04:47.000Z</time>
      </trkpt>
      <trkpt lat="45.85565" lon="4.67073">
        <ele>205.95779</ele>
        <time>2022-09-17T13:04:48.000Z</time>
      </trkpt>
      <trkpt lat="45.85569" lon="4.6708">
        <ele>206.42142</ele>
        <time>2022-09-17T13:04:49.000Z</time>
      </trkpt>
      <trkpt lat="45.85573" lon="4.67087">
        <ele>206.72305</ele>
        <time>2022-09-17T13:04:50.000Z</time>
      </trkpt>
      <trkpt lat="45.85576" lon="4.67092">
        <ele>207.10579</ele>
        <time>2022-09-17T13:04:51.000Z</time>
      </trkpt>
      <trkpt lat="45.85578" lon="4.67099">
        <ele>207.42282</ele>
        <time>2022-09-17T13:04:52.000Z</time>
      </trkpt>
      <trkpt lat="45.85578" lon="4.67106">
        <ele>207.70833</ele>
        <time>2022-09-17T13:04:53.000Z</time>
      </trkpt>
      <trkpt lat="45.85579" lon="4.67113">
        <ele>207.89688</ele>
        <time>2022-09-17T13:04:54.000Z</time>
      </trkpt>
      <trkpt lat="45.85582" lon="4.67122">
        <ele>207.99727</ele>
        <time>2022-09-17T13:04:55.000Z</time>
      </trkpt>
      <trkpt lat="45.85585" lon="4.67128">
        <ele>208.0795</ele>
        <time>2022-09-17T13:04:56.000Z</time>
      </trkpt>
      <trkpt lat="45.85587" lon="4.67134">
        <ele>208.28464</ele>
        <time>2022-09-17T13:04:57.000Z</time>
      </trkpt>
      <trkpt lat="45.85588" lon="4.6714">
        <ele>208.42941</ele>
        <time>2022-09-17T13:04:58.000Z</time>
      </trkpt>
      <trkpt lat="45.85593" lon="4.67144">
        <ele>208.49295</ele>
        <time>2022-09-17T13:04:59.000Z</time>
      </trkpt>
      <trkpt lat="45.85596" lon="4.67151">
        <ele>208.57463</ele>
        <time>2022-09-17T13:05:00.000Z</time>
      </trkpt>
      <trkpt lat="45.85598" lon="4.67157">
        <ele>208.51913</ele>
        <time>2022-09-17T13:05:01.000Z</time>
      </trkpt>
      <trkpt lat="45.85601" lon="4.67164">
        <ele>208.36356</ele>
        <time>2022-09-17T13:05:02.000Z</time>
      </trkpt>
      <trkpt lat="45.85604" lon="4.67171">
        <ele>208.21277</ele>
        <time>2022-09-17T13:05:03.000Z</time>
      </trkpt>
      <trkpt lat="45.85606" lon="4.67176">
        <ele>208.01045</ele>
        <time>2022-09-17T13:05:04.000Z</time>
      </trkpt>
      <trkpt lat="45.85608" lon="4.67183">
        <ele>207.81799</ele>
        <time>2022-09-17T13:05:05.000Z</time>
      </trkpt>
      <trkpt lat="45.85607" lon="4.67189">
        <ele>207.56625</ele>
        <time>2022-09-17T13:05:06.000Z</time>
      </trkpt>
      <trkpt lat="45.8561" lon="4.67196">
        <ele>207.22311</ele>
        <time>2022-09-17T13:05:07.000Z</time>
      </trkpt>
      <trkpt lat="45.85612" lon="4.672">
        <ele>206.85173</ele>
        <time>2022-09-17T13:05:08.000Z</time>
      </trkpt>
      <trkpt lat="45.85616" lon="4.67204">
        <ele>206.53235</ele>
        <time>2022-09-17T13:05:09.000Z</time>
      </trkpt>
      <trkpt lat="45.85622" lon="4.67206">
        <ele>206.34241</ele>
        <time>2022-09-17T13:05:10.000Z</time>
      </trkpt>
      <trkpt lat="45.85624" lon="4.67208">
        <ele>206.03088</ele>
        <time>2022-09-17T13:05:11.000Z</time>
      </trkpt>
      <trkpt lat="45.8563" lon="4.67212">
        <ele>205.77434</ele>
        <time>2022-09-17T13:05:12.000Z</time>
      </trkpt>
      <trkpt lat="45.85634" lon="4.67216">
        <ele>205.56096</ele>
        <time>2022-09-17T13:05:13.000Z</time>
      </trkpt>
      <trkpt lat="45.85639" lon="4.67219">
        <ele>205.40356</ele>
        <time>2022-09-17T13:05:14.000Z</time>
      </trkpt>
      <trkpt lat="45.85645" lon="4.67227">
        <ele>205.35934</ele>
        <time>2022-09-17T13:05:15.000Z</time>
      </trkpt>
      <trkpt lat="45.85651" lon="4.67228">
        <ele>205.33716</ele>
        <time>2022-09-17T13:05:16.000Z</time>
      </trkpt>
      <trkpt lat="45.85656" lon="4.6723">
        <ele>205.21684</ele>
        <time>2022-09-17T13:05:17.000Z</time>
      </trkpt>
      <trkpt lat="45.85661" lon="4.67233">
        <ele>205.12349</ele>
        <time>2022-09-17T13:05:18.000Z</time>
      </trkpt>
      <trkpt lat="45.85664" lon="4.67236">
        <ele>205.106</ele>
        <time>2022-09-17T13:05:19.000Z</time>
      </trkpt>
      <trkpt lat="45.85668" lon="4.6724">
        <ele>205.12405</ele>
        <time>2022-09-17T13:05:20.000Z</time>
      </trkpt>
      <trkpt lat="45.85669" lon="4.67242">
        <ele>205.14851</ele>
        <time>2022-09-17T13:05:21.000Z</time>
      </trkpt>
      <trkpt lat="45.85675" lon="4.67249">
        <ele>205.20154</ele>
        <time>2022-09-17T13:05:22.000Z</time>
      </trkpt>
      <trkpt lat="45.85679" lon="4.67249">
        <ele>205.27751</ele>
        <time>2022-09-17T13:05:23.000Z</time>
      </trkpt>
      <trkpt lat="45.85681" lon="4.67254">
        <ele>205.33731</ele>
        <time>2022-09-17T13:05:24.000Z</time>
      </trkpt>
      <trkpt lat="45.85686" lon="4.67254">
        <ele>205.48921</ele>
        <time>2022-09-17T13:05:25.000Z</time>
      </trkpt>
      <trkpt lat="45.85692" lon="4.67256">
        <ele>205.58768</ele>
        <time>2022-09-17T13:05:26.000Z</time>
      </trkpt>
      <trkpt lat="45.85697" lon="4.67258">
        <ele>205.79558</ele>
        <time>2022-09-17T13:05:27.000Z</time>
      </trkpt>
      <trkpt lat="45.85703" lon="4.67262">
        <ele>206.02664</ele>
        <time>2022-09-17T13:05:28.000Z</time>
      </trkpt>
      <trkpt lat="45.85708" lon="4.67266">
        <ele>206.1864</ele>
        <time>2022-09-17T13:05:29.000Z</time>
      </trkpt>
      <trkpt lat="45.85713" lon="4.6727">
        <ele>206.30045</ele>
        <time>2022-09-17T13:05:30.000Z</time>
      </trkpt>
      <trkpt lat="45.85718" lon="4.67273">
        <ele>206.49524</ele>
        <time>2022-09-17T13:05:31.000Z</time>
      </trkpt>
      <trkpt lat="45.85724" lon="4.67276">
        <ele>206.61926</ele>
        <time>2022-09-17T13:05:32.000Z</time>
      </trkpt>
      <trkpt lat="45.85727" lon="4.67278">
        <ele>206.75818</ele>
        <time>2022-09-17T13:05:33.000Z</time>
      </trkpt>
      <trkpt lat="45.85729" lon="4.67283">
        <ele>206.70657</ele>
        <time>2022-09-17T13:05:34.000Z</time>
      </trkpt>
      <trkpt lat="45.85735" lon="4.67289">
        <ele>206.4948</ele>
        <time>2022-09-17T13:05:35.000Z</time>
      </trkpt>
      <trkpt lat="45.85739" lon="4.67292">
        <ele>206.25606</ele>
        <time>2022-09-17T13:05:36.000Z</time>
      </trkpt>
      <trkpt lat="45.85743" lon="4.67298">
        <ele>206.04993</ele>
        <time>2022-09-17T13:05:37.000Z</time>
      </trkpt>
      <trkpt lat="45.85747" lon="4.67302">
        <ele>205.82303</ele>
        <time>2022-09-17T13:05:38.000Z</time>
      </trkpt>
      <trkpt lat="45.85749" lon="4.67306">
        <ele>205.49185</ele>
        <time>2022-09-17T13:05:39.000Z</time>
      </trkpt>
      <trkpt lat="45.85754" lon="4.6731">
        <ele>205.13428</ele>
        <time>2022-09-17T13:05:40.000Z</time>
      </trkpt>
      <trkpt lat="45.85757" lon="4.67315">
        <ele>204.78061</ele>
        <time>2022-09-17T13:05:41.000Z</time>
      </trkpt>
      <trkpt lat="45.8576" lon="4.67317">
        <ele>204.44864</ele>
        <time>2022-09-17T13:05:42.000Z</time>
      </trkpt>
      <trkpt lat="45.85763" lon="4.67321">
        <ele>204.05978</ele>
        <time>2022-09-17T13:05:43.000Z</time>
      </trkpt>
      <trkpt lat="45.85766" lon="4.67325">
        <ele>203.73947</ele>
        <time>2022-09-17T13:05:44.000Z</time>
      </trkpt>
      <trkpt lat="45.85769" lon="4.67329">
        <ele>203.34705</ele>
        <time>2022-09-17T13:05:45.000Z</time>
      </trkpt>
      <trkpt lat="45.85773" lon="4.67332">
        <ele>203.14931</ele>
        <time>2022-09-17T13:05:46.000Z</time>
      </trkpt>
      <trkpt lat="45.85775" lon="4.67336">
        <ele>202.79312</ele>
        <time>2022-09-17T13:05:47.000Z</time>
      </trkpt>
      <trkpt lat="45.85777" lon="4.67339">
        <ele>202.38791</ele>
        <time>2022-09-17T13:05:48.000Z</time>
      </trkpt>
      <trkpt lat="45.85778" lon="4.67343">
        <ele>202.1409</ele>
        <time>2022-09-17T13:05:49.000Z</time>
      </trkpt>
      <trkpt lat="45.85778" lon="4.67346">
        <ele>201.88504</ele>
        <time>2022-09-17T13:05:50.000Z</time>
      </trkpt>
      <trkpt lat="45.85779" lon="4.6735">
        <ele>201.5311</ele>
        <time>2022-09-17T13:05:51.000Z</time>
      </trkpt>
      <trkpt lat="45.85779" lon="4.67354">
        <ele>201.22714</ele>
        <time>2022-09-17T13:05:52.000Z</time>
      </trkpt>
      <trkpt lat="45.85779" lon="4.67358">
        <ele>200.87718</ele>
        <time>2022-09-17T13:05:53.000Z</time>
      </trkpt>
      <trkpt lat="45.85779" lon="4.67362">
        <ele>200.67096</ele>
        <time>2022-09-17T13:05:54.000Z</time>
      </trkpt>
      <trkpt lat="45.85778" lon="4.67365">
        <ele>200.60812</ele>
        <time>2022-09-17T13:05:55.000Z</time>
      </trkpt>
      <trkpt lat="45.85776" lon="4.67366">
        <ele>200.51144</ele>
        <time>2022-09-17T13:05:56.000Z</time>
      </trkpt>
      <trkpt lat="45.85773" lon="4.67365">
        <ele>200.41234</ele>
        <time>2022-09-17T13:05:57.000Z</time>
      </trkpt>
      <trkpt lat="45.85772" lon="4.67363">
        <ele>200.3335</ele>
        <time>2022-09-17T13:05:58.000Z</time>
      </trkpt>
      <trkpt lat="45.85771" lon="4.6736">
        <ele>200.26607</ele>
        <time>2022-09-17T13:05:59.000Z</time>
      </trkpt>
      <trkpt lat="45.85771" lon="4.67357">
        <ele>200.21008</ele>
        <time>2022-09-17T13:06:00.000Z</time>
      </trkpt>
      <trkpt lat="45.85772" lon="4.67354">
        <ele>200.08263</ele>
        <time>2022-09-17T13:06:02.000Z</time>
      </trkpt>
      <trkpt lat="45.85775" lon="4.67354">
        <ele>200.07333</ele>
        <time>2022-09-17T13:06:08.000Z</time>
      </trkpt>
      <trkpt lat="45.85777" lon="4.67355">
        <ele>200.04208</ele>
        <time>2022-09-17T13:06:10.000Z</time>
      </trkpt>
      <trkpt lat="45.85778" lon="4.67359">
        <ele>199.9296</ele>
        <time>2022-09-17T13:06:11.000Z</time>
      </trkpt>
      <trkpt lat="45.85778" lon="4.67364">
        <ele>199.81923</ele>
        <time>2022-09-17T13:06:12.000Z</time>
      </trkpt>
      <trkpt lat="45.85776" lon="4.67368">
        <ele>199.5988</ele>
        <time>2022-09-17T13:06:13.000Z</time>
      </trkpt>
      <trkpt lat="45.85773" lon="4.67371">
        <ele>199.48788</ele>
        <time>2022-09-17T13:06:14.000Z</time>
      </trkpt>
      <trkpt lat="45.8577" lon="4.67373">
        <ele>199.41136</ele>
        <time>2022-09-17T13:06:15.000Z</time>
      </trkpt>
      <trkpt lat="45.85766" lon="4.67376">
        <ele>199.24594</ele>
        <time>2022-09-17T13:06:16.000Z</time>
      </trkpt>
      <trkpt lat="45.85762" lon="4.6738">
        <ele>199.06268</ele>
        <time>2022-09-17T13:06:17.000Z</time>
      </trkpt>
      <trkpt lat="45.85759" lon="4.67385">
        <ele>198.99883</ele>
        <time>2022-09-17T13:06:18.000Z</time>
      </trkpt>
      <trkpt lat="45.85756" lon="4.67391">
        <ele>198.92595</ele>
        <time>2022-09-17T13:06:19.000Z</time>
      </trkpt>
      <trkpt lat="45.85753" lon="4.67397">
        <ele>198.8354</ele>
        <time>2022-09-17T13:06:20.000Z</time>
      </trkpt>
      <trkpt lat="45.8575" lon="4.67402">
        <ele>198.72836</ele>
        <time>2022-09-17T13:06:21.000Z</time>
      </trkpt>
      <trkpt lat="45.85747" lon="4.67408">
        <ele>198.61911</ele>
        <time>2022-09-17T13:06:22.000Z</time>
      </trkpt>
      <trkpt lat="45.85743" lon="4.67414">
        <ele>198.54616</ele>
        <time>2022-09-17T13:06:23.000Z</time>
      </trkpt>
      <trkpt lat="45.85739" lon="4.67421">
        <ele>198.48524</ele>
        <time>2022-09-17T13:06:24.000Z</time>
      </trkpt>
      <trkpt lat="45.85737" lon="4.67427">
        <ele>198.41197</ele>
        <time>2022-09-17T13:06:25.000Z</time>
      </trkpt>
      <trkpt lat="45.85733" lon="4.67433">
        <ele>198.38528</ele>
        <time>2022-09-17T13:06:26.000Z</time>
      </trkpt>
      <trkpt lat="45.8573" lon="4.67438">
        <ele>198.34824</ele>
        <time>2022-09-17T13:06:27.000Z</time>
      </trkpt>
      <trkpt lat="45.85727" lon="4.67442">
        <ele>198.34995</ele>
        <time>2022-09-17T13:06:28.000Z</time>
      </trkpt>
      <trkpt lat="45.85723" lon="4.67446">
        <ele>198.24374</ele>
        <time>2022-09-17T13:06:29.000Z</time>
      </trkpt>
      <trkpt lat="45.85722" lon="4.67449">
        <ele>198.1257</ele>
        <time>2022-09-17T13:06:30.000Z</time>
      </trkpt>
      <trkpt lat="45.85719" lon="4.67454">
        <ele>198.11349</ele>
        <time>2022-09-17T13:06:31.000Z</time>
      </trkpt>
      <trkpt lat="45.85718" lon="4.67458">
        <ele>198.0883</ele>
        <time>2022-09-17T13:06:32.000Z</time>
      </trkpt>
      <trkpt lat="45.85715" lon="4.67461">
        <ele>198.10472</ele>
        <time>2022-09-17T13:06:33.000Z</time>
      </trkpt>
      <trkpt lat="45.85713" lon="4.67466">
        <ele>198.11183</ele>
        <time>2022-09-17T13:06:34.000Z</time>
      </trkpt>
      <trkpt lat="45.85711" lon="4.67469">
        <ele>198.05185</ele>
        <time>2022-09-17T13:06:35.000Z</time>
      </trkpt>
      <trkpt lat="45.85708" lon="4.67475">
        <ele>197.99692</ele>
        <time>2022-09-17T13:06:36.000Z</time>
      </trkpt>
      <trkpt lat="45.85705" lon="4.67478">
        <ele>197.96109</ele>
        <time>2022-09-17T13:06:37.000Z</time>
      </trkpt>
      <trkpt lat="45.85702" lon="4.67483">
        <ele>197.85849</ele>
        <time>2022-09-17T13:06:38.000Z</time>
      </trkpt>
      <trkpt lat="45.857" lon="4.67489">
        <ele>197.74016</ele>
        <time>2022-09-17T13:06:39.000Z</time>
      </trkpt>
      <trkpt lat="45.85697" lon="4.67494">
        <ele>197.70201</ele>
        <time>2022-09-17T13:06:40.000Z</time>
      </trkpt>
      <trkpt lat="45.85694" lon="4.67498">
        <ele>197.74789</ele>
        <time>2022-09-17T13:06:41.000Z</time>
      </trkpt>
      <trkpt lat="45.85691" lon="4.67504">
        <ele>197.83127</ele>
        <time>2022-09-17T13:06:42.000Z</time>
      </trkpt>
      <trkpt lat="45.85688" lon="4.67508">
        <ele>197.82671</ele>
        <time>2022-09-17T13:06:43.000Z</time>
      </trkpt>
      <trkpt lat="45.85685" lon="4.67512">
        <ele>197.84824</ele>
        <time>2022-09-17T13:06:44.000Z</time>
      </trkpt>
      <trkpt lat="45.85681" lon="4.67518">
        <ele>197.83092</ele>
        <time>2022-09-17T13:06:45.000Z</time>
      </trkpt>
      <trkpt lat="45.85678" lon="4.67523">
        <ele>197.83632</ele>
        <time>2022-09-17T13:06:46.000Z</time>
      </trkpt>
      <trkpt lat="45.85675" lon="4.67529">
        <ele>197.88492</ele>
        <time>2022-09-17T13:06:47.000Z</time>
      </trkpt>
      <trkpt lat="45.85671" lon="4.67533">
        <ele>197.93513</ele>
        <time>2022-09-17T13:06:48.000Z</time>
      </trkpt>
      <trkpt lat="45.85667" lon="4.67538">
        <ele>197.99576</ele>
        <time>2022-09-17T13:06:49.000Z</time>
      </trkpt>
      <trkpt lat="45.85663" lon="4.67542">
        <ele>198.16162</ele>
        <time>2022-09-17T13:06:50.000Z</time>
      </trkpt>
      <trkpt lat="45.85659" lon="4.67546">
        <ele>198.27176</ele>
        <time>2022-09-17T13:06:51.000Z</time>
      </trkpt>
      <trkpt lat="45.85656" lon="4.6755">
        <ele>198.41096</ele>
        <time>2022-09-17T13:06:52.000Z</time>
      </trkpt>
      <trkpt lat="45.85652" lon="4.67553">
        <ele>198.53065</ele>
        <time>2022-09-17T13:06:53.000Z</time>
      </trkpt>
      <trkpt lat="45.85648" lon="4.67555">
        <ele>198.66051</ele>
        <time>2022-09-17T13:06:54.000Z</time>
      </trkpt>
      <trkpt lat="45.85644" lon="4.67558">
        <ele>198.88455</ele>
        <time>2022-09-17T13:06:55.000Z</time>
      </trkpt>
      <trkpt lat="45.8564" lon="4.67562">
        <ele>199.0853</ele>
        <time>2022-09-17T13:06:56.000Z</time>
      </trkpt>
      <trkpt lat="45.85636" lon="4.67565">
        <ele>199.2851</ele>
        <time>2022-09-17T13:06:57.000Z</time>
      </trkpt>
      <trkpt lat="45.85632" lon="4.6757">
        <ele>199.46585</ele>
        <time>2022-09-17T13:06:58.000Z</time>
      </trkpt>
      <trkpt lat="45.85628" lon="4.67574">
        <ele>199.58951</ele>
        <time>2022-09-17T13:06:59.000Z</time>
      </trkpt>
      <trkpt lat="45.85623" lon="4.67578">
        <ele>199.70923</ele>
        <time>2022-09-17T13:07:00.000Z</time>
      </trkpt>
      <trkpt lat="45.85618" lon="4.67581">
        <ele>199.77582</ele>
        <time>2022-09-17T13:07:01.000Z</time>
      </trkpt>
      <trkpt lat="45.85614" lon="4.67584">
        <ele>199.80051</ele>
        <time>2022-09-17T13:07:02.000Z</time>
      </trkpt>
      <trkpt lat="45.85609" lon="4.67587">
        <ele>199.94537</ele>
        <time>2022-09-17T13:07:03.000Z</time>
      </trkpt>
      <trkpt lat="45.85605" lon="4.67593">
        <ele>199.98123</ele>
        <time>2022-09-17T13:07:04.000Z</time>
      </trkpt>
      <trkpt lat="45.85601" lon="4.67597">
        <ele>200.08031</ele>
        <time>2022-09-17T13:07:05.000Z</time>
      </trkpt>
      <trkpt lat="45.85597" lon="4.676">
        <ele>200.14664</ele>
        <time>2022-09-17T13:07:06.000Z</time>
      </trkpt>
      <trkpt lat="45.85592" lon="4.67602">
        <ele>200.23347</ele>
        <time>2022-09-17T13:07:07.000Z</time>
      </trkpt>
      <trkpt lat="45.85589" lon="4.67604">
        <ele>200.40207</ele>
        <time>2022-09-17T13:07:08.000Z</time>
      </trkpt>
      <trkpt lat="45.85585" lon="4.67608">
        <ele>200.56093</ele>
        <time>2022-09-17T13:07:09.000Z</time>
      </trkpt>
      <trkpt lat="45.85582" lon="4.67613">
        <ele>200.67783</ele>
        <time>2022-09-17T13:07:10.000Z</time>
      </trkpt>
      <trkpt lat="45.85578" lon="4.67619">
        <ele>200.76543</ele>
        <time>2022-09-17T13:07:11.000Z</time>
      </trkpt>
      <trkpt lat="45.85574" lon="4.67624">
        <ele>200.84572</ele>
        <time>2022-09-17T13:07:12.000Z</time>
      </trkpt>
      <trkpt lat="45.85571" lon="4.67629">
        <ele>200.96945</ele>
        <time>2022-09-17T13:07:13.000Z</time>
      </trkpt>
      <trkpt lat="45.85568" lon="4.67634">
        <ele>201.09097</ele>
        <time>2022-09-17T13:07:14.000Z</time>
      </trkpt>
      <trkpt lat="45.85565" lon="4.67637">
        <ele>201.13667</ele>
        <time>2022-09-17T13:07:15.000Z</time>
      </trkpt>
      <trkpt lat="45.85562" lon="4.67641">
        <ele>201.20145</ele>
        <time>2022-09-17T13:07:16.000Z</time>
      </trkpt>
      <trkpt lat="45.85558" lon="4.67646">
        <ele>201.28423</ele>
        <time>2022-09-17T13:07:17.000Z</time>
      </trkpt>
      <trkpt lat="45.85554" lon="4.67649">
        <ele>201.34366</ele>
        <time>2022-09-17T13:07:18.000Z</time>
      </trkpt>
      <trkpt lat="45.8555" lon="4.67653">
        <ele>201.43938</ele>
        <time>2022-09-17T13:07:19.000Z</time>
      </trkpt>
      <trkpt lat="45.85546" lon="4.67656">
        <ele>201.50467</ele>
        <time>2022-09-17T13:07:20.000Z</time>
      </trkpt>
      <trkpt lat="45.85542" lon="4.67659">
        <ele>201.54121</ele>
        <time>2022-09-17T13:07:21.000Z</time>
      </trkpt>
      <trkpt lat="45.85538" lon="4.67664">
        <ele>201.51212</ele>
        <time>2022-09-17T13:07:22.000Z</time>
      </trkpt>
      <trkpt lat="45.85534" lon="4.67667">
        <ele>201.42599</ele>
        <time>2022-09-17T13:07:23.000Z</time>
      </trkpt>
      <trkpt lat="45.8553" lon="4.67671">
        <ele>201.46172</ele>
        <time>2022-09-17T13:07:24.000Z</time>
      </trkpt>
      <trkpt lat="45.85527" lon="4.67677">
        <ele>201.46068</ele>
        <time>2022-09-17T13:07:25.000Z</time>
      </trkpt>
      <trkpt lat="45.85524" lon="4.67682">
        <ele>201.32825</ele>
        <time>2022-09-17T13:07:26.000Z</time>
      </trkpt>
      <trkpt lat="45.85521" lon="4.67688">
        <ele>201.06863</ele>
        <time>2022-09-17T13:07:27.000Z</time>
      </trkpt>
      <trkpt lat="45.85518" lon="4.67693">
        <ele>200.73282</ele>
        <time>2022-09-17T13:07:28.000Z</time>
      </trkpt>
      <trkpt lat="45.85515" lon="4.67698">
        <ele>200.37265</ele>
        <time>2022-09-17T13:07:29.000Z</time>
      </trkpt>
      <trkpt lat="45.85512" lon="4.67704">
        <ele>200.02962</ele>
        <time>2022-09-17T13:07:30.000Z</time>
      </trkpt>
      <trkpt lat="45.85508" lon="4.67709">
        <ele>199.74165</ele>
        <time>2022-09-17T13:07:31.000Z</time>
      </trkpt>
      <trkpt lat="45.85505" lon="4.67717">
        <ele>199.41293</ele>
        <time>2022-09-17T13:07:32.000Z</time>
      </trkpt>
      <trkpt lat="45.85502" lon="4.67724">
        <ele>199.01097</ele>
        <time>2022-09-17T13:07:33.000Z</time>
      </trkpt>
      <trkpt lat="45.85499" lon="4.67731">
        <ele>198.5806</ele>
        <time>2022-09-17T13:07:34.000Z</time>
      </trkpt>
      <trkpt lat="45.85496" lon="4.67737">
        <ele>198.17062</ele>
        <time>2022-09-17T13:07:35.000Z</time>
      </trkpt>
      <trkpt lat="45.85493" lon="4.67743">
        <ele>197.69632</ele>
        <time>2022-09-17T13:07:36.000Z</time>
      </trkpt>
      <trkpt lat="45.85491" lon="4.67749">
        <ele>197.23647</ele>
        <time>2022-09-17T13:07:37.000Z</time>
      </trkpt>
      <trkpt lat="45.85489" lon="4.67756">
        <ele>196.75095</ele>
        <time>2022-09-17T13:07:38.000Z</time>
      </trkpt>
      <trkpt lat="45.85489" lon="4.67761">
        <ele>196.24538</ele>
        <time>2022-09-17T13:07:39.000Z</time>
      </trkpt>
      <trkpt lat="45.85488" lon="4.67768">
        <ele>195.57661</ele>
        <time>2022-09-17T13:07:40.000Z</time>
      </trkpt>
      <trkpt lat="45.85487" lon="4.67774">
        <ele>194.92459</ele>
        <time>2022-09-17T13:07:41.000Z</time>
      </trkpt>
      <trkpt lat="45.85489" lon="4.67781">
        <ele>194.37781</ele>
        <time>2022-09-17T13:07:42.000Z</time>
      </trkpt>
      <trkpt lat="45.8549" lon="4.67789">
        <ele>193.89835</ele>
        <time>2022-09-17T13:07:43.000Z</time>
      </trkpt>
      <trkpt lat="45.8549" lon="4.67796">
        <ele>193.39445</ele>
        <time>2022-09-17T13:07:44.000Z</time>
      </trkpt>
      <trkpt lat="45.85494" lon="4.67802">
        <ele>192.95261</ele>
        <time>2022-09-17T13:07:45.000Z</time>
      </trkpt>
      <trkpt lat="45.85496" lon="4.67808">
        <ele>192.69629</ele>
        <time>2022-09-17T13:07:46.000Z</time>
      </trkpt>
      <trkpt lat="45.85498" lon="4.67817">
        <ele>192.54338</ele>
        <time>2022-09-17T13:07:47.000Z</time>
      </trkpt>
      <trkpt lat="45.85498" lon="4.67825">
        <ele>192.47629</ele>
        <time>2022-09-17T13:07:48.000Z</time>
      </trkpt>
      <trkpt lat="45.85498" lon="4.67831">
        <ele>192.4288</ele>
        <time>2022-09-17T13:07:49.000Z</time>
      </trkpt>
      <trkpt lat="45.85499" lon="4.6784">
        <ele>192.41829</ele>
        <time>2022-09-17T13:07:50.000Z</time>
      </trkpt>
      <trkpt lat="45.855" lon="4.67847">
        <ele>192.40251</ele>
        <time>2022-09-17T13:07:51.000Z</time>
      </trkpt>
      <trkpt lat="45.85505" lon="4.67854">
        <ele>192.5127</ele>
        <time>2022-09-17T13:07:52.000Z</time>
      </trkpt>
      <trkpt lat="45.85507" lon="4.67861">
        <ele>192.69498</ele>
        <time>2022-09-17T13:07:53.000Z</time>
      </trkpt>
      <trkpt lat="45.85506" lon="4.67869">
        <ele>192.86356</ele>
        <time>2022-09-17T13:07:54.000Z</time>
      </trkpt>
      <trkpt lat="45.85506" lon="4.67879">
        <ele>193.01091</ele>
        <time>2022-09-17T13:07:55.000Z</time>
      </trkpt>
      <trkpt lat="45.85507" lon="4.67888">
        <ele>193.13147</ele>
        <time>2022-09-17T13:07:56.000Z</time>
      </trkpt>
      <trkpt lat="45.8551" lon="4.67894">
        <ele>193.30043</ele>
        <time>2022-09-17T13:07:57.000Z</time>
      </trkpt>
      <trkpt lat="45.85514" lon="4.67899">
        <ele>193.55855</ele>
        <time>2022-09-17T13:07:58.000Z</time>
      </trkpt>
      <trkpt lat="45.8551" lon="4.67905">
        <ele>193.83627</ele>
        <time>2022-09-17T13:07:59.000Z</time>
      </trkpt>
      <trkpt lat="45.85514" lon="4.6791">
        <ele>194.30954</ele>
        <time>2022-09-17T13:08:00.000Z</time>
      </trkpt>
      <trkpt lat="45.85515" lon="4.67914">
        <ele>194.78137</ele>
        <time>2022-09-17T13:08:01.000Z</time>
      </trkpt>
      <trkpt lat="45.85512" lon="4.67918">
        <ele>195.06721</ele>
        <time>2022-09-17T13:08:02.000Z</time>
      </trkpt>
      <trkpt lat="45.85514" lon="4.6792">
        <ele>195.35513</ele>
        <time>2022-09-17T13:08:03.000Z</time>
      </trkpt>
      <trkpt lat="45.85516" lon="4.67925">
        <ele>195.74171</ele>
        <time>2022-09-17T13:08:04.000Z</time>
      </trkpt>
      <trkpt lat="45.85518" lon="4.67929">
        <ele>196.09988</ele>
        <time>2022-09-17T13:08:05.000Z</time>
      </trkpt>
      <trkpt lat="45.85519" lon="4.67934">
        <ele>196.39896</ele>
        <time>2022-09-17T13:08:06.000Z</time>
      </trkpt>
      <trkpt lat="45.85521" lon="4.67939">
        <ele>196.65404</ele>
        <time>2022-09-17T13:08:07.000Z</time>
      </trkpt>
      <trkpt lat="45.85521" lon="4.67942">
        <ele>196.83534</ele>
        <time>2022-09-17T13:08:08.000Z</time>
      </trkpt>
      <trkpt lat="45.85523" lon="4.67946">
        <ele>197.04343</ele>
        <time>2022-09-17T13:08:09.000Z</time>
      </trkpt>
      <trkpt lat="45.85524" lon="4.6795">
        <ele>197.2379</ele>
        <time>2022-09-17T13:08:10.000Z</time>
      </trkpt>
      <trkpt lat="45.85526" lon="4.67953">
        <ele>197.49484</ele>
        <time>2022-09-17T13:08:12.000Z</time>
      </trkpt>
      <trkpt lat="45.85527" lon="4.67955">
        <ele>197.68979</ele>
        <time>2022-09-17T13:08:13.000Z</time>
      </trkpt>
      <trkpt lat="45.85528" lon="4.67958">
        <ele>197.84535</ele>
        <time>2022-09-17T13:08:14.000Z</time>
      </trkpt>
      <trkpt lat="45.85529" lon="4.6796">
        <ele>198.08498</ele>
        <time>2022-09-17T13:08:15.000Z</time>
      </trkpt>
      <trkpt lat="45.8553" lon="4.67963">
        <ele>198.4007</ele>
        <time>2022-09-17T13:08:16.000Z</time>
      </trkpt>
      <trkpt lat="45.85532" lon="4.67967">
        <ele>198.81381</ele>
        <time>2022-09-17T13:08:17.000Z</time>
      </trkpt>
      <trkpt lat="45.85533" lon="4.67971">
        <ele>199.13069</ele>
        <time>2022-09-17T13:08:18.000Z</time>
      </trkpt>
      <trkpt lat="45.85534" lon="4.67977">
        <ele>199.42595</ele>
        <time>2022-09-17T13:08:19.000Z</time>
      </trkpt>
      <trkpt lat="45.85535" lon="4.67983">
        <ele>199.71362</ele>
        <time>2022-09-17T13:08:20.000Z</time>
      </trkpt>
      <trkpt lat="45.85539" lon="4.67992">
        <ele>199.90161</ele>
        <time>2022-09-17T13:08:21.000Z</time>
      </trkpt>
      <trkpt lat="45.85543" lon="4.67999">
        <ele>200.13193</ele>
        <time>2022-09-17T13:08:22.000Z</time>
      </trkpt>
      <trkpt lat="45.85545" lon="4.68004">
        <ele>200.48918</ele>
        <time>2022-09-17T13:08:23.000Z</time>
      </trkpt>
      <trkpt lat="45.85547" lon="4.68013">
        <ele>200.91885</ele>
        <time>2022-09-17T13:08:24.000Z</time>
      </trkpt>
      <trkpt lat="45.85552" lon="4.68022">
        <ele>201.26433</ele>
        <time>2022-09-17T13:08:25.000Z</time>
      </trkpt>
      <trkpt lat="45.85555" lon="4.68029">
        <ele>201.55753</ele>
        <time>2022-09-17T13:08:26.000Z</time>
      </trkpt>
      <trkpt lat="45.85557" lon="4.68034">
        <ele>201.83136</ele>
        <time>2022-09-17T13:08:27.000Z</time>
      </trkpt>
      <trkpt lat="45.85559" lon="4.68041">
        <ele>202.09671</ele>
        <time>2022-09-17T13:08:28.000Z</time>
      </trkpt>
      <trkpt lat="45.85562" lon="4.68048">
        <ele>202.39201</ele>
        <time>2022-09-17T13:08:29.000Z</time>
      </trkpt>
      <trkpt lat="45.85562" lon="4.68053">
        <ele>202.66246</ele>
        <time>2022-09-17T13:08:30.000Z</time>
      </trkpt>
      <trkpt lat="45.85562" lon="4.6806">
        <ele>202.93564</ele>
        <time>2022-09-17T13:08:31.000Z</time>
      </trkpt>
      <trkpt lat="45.85564" lon="4.68065">
        <ele>203.13094</ele>
        <time>2022-09-17T13:08:32.000Z</time>
      </trkpt>
      <trkpt lat="45.85564" lon="4.68068">
        <ele>203.43752</ele>
        <time>2022-09-17T13:08:33.000Z</time>
      </trkpt>
      <trkpt lat="45.85566" lon="4.68076">
        <ele>203.73648</ele>
        <time>2022-09-17T13:08:34.000Z</time>
      </trkpt>
      <trkpt lat="45.85566" lon="4.68082">
        <ele>203.97772</ele>
        <time>2022-09-17T13:08:35.000Z</time>
      </trkpt>
      <trkpt lat="45.85569" lon="4.68088">
        <ele>204.15802</ele>
        <time>2022-09-17T13:08:36.000Z</time>
      </trkpt>
      <trkpt lat="45.85571" lon="4.68093">
        <ele>204.31741</ele>
        <time>2022-09-17T13:08:37.000Z</time>
      </trkpt>
      <trkpt lat="45.85573" lon="4.68097">
        <ele>204.5047</ele>
        <time>2022-09-17T13:08:38.000Z</time>
      </trkpt>
      <trkpt lat="45.85575" lon="4.681">
        <ele>204.71069</ele>
        <time>2022-09-17T13:08:39.000Z</time>
      </trkpt>
      <trkpt lat="45.85576" lon="4.68105">
        <ele>204.96939</ele>
        <time>2022-09-17T13:08:40.000Z</time>
      </trkpt>
      <trkpt lat="45.85578" lon="4.6811">
        <ele>205.29524</ele>
        <time>2022-09-17T13:08:41.000Z</time>
      </trkpt>
      <trkpt lat="45.8558" lon="4.68114">
        <ele>205.57109</ele>
        <time>2022-09-17T13:08:42.000Z</time>
      </trkpt>
      <trkpt lat="45.85582" lon="4.68119">
        <ele>205.70625</ele>
        <time>2022-09-17T13:08:43.000Z</time>
      </trkpt>
      <trkpt lat="45.85583" lon="4.68123">
        <ele>205.76212</ele>
        <time>2022-09-17T13:08:44.000Z</time>
      </trkpt>
      <trkpt lat="45.85585" lon="4.68128">
        <ele>205.85855</ele>
        <time>2022-09-17T13:08:45.000Z</time>
      </trkpt>
      <trkpt lat="45.85587" lon="4.68134">
        <ele>205.98441</ele>
        <time>2022-09-17T13:08:46.000Z</time>
      </trkpt>
      <trkpt lat="45.85589" lon="4.68139">
        <ele>206.17648</ele>
        <time>2022-09-17T13:08:47.000Z</time>
      </trkpt>
      <trkpt lat="45.85592" lon="4.68143">
        <ele>206.39388</ele>
        <time>2022-09-17T13:08:48.000Z</time>
      </trkpt>
      <trkpt lat="45.85594" lon="4.68147">
        <ele>206.59489</ele>
        <time>2022-09-17T13:08:49.000Z</time>
      </trkpt>
      <trkpt lat="45.85597" lon="4.68149">
        <ele>206.85385</ele>
        <time>2022-09-17T13:08:50.000Z</time>
      </trkpt>
      <trkpt lat="45.85599" lon="4.68152">
        <ele>207.07256</ele>
        <time>2022-09-17T13:08:51.000Z</time>
      </trkpt>
      <trkpt lat="45.85601" lon="4.68154">
        <ele>207.28922</ele>
        <time>2022-09-17T13:08:52.000Z</time>
      </trkpt>
      <trkpt lat="45.85603" lon="4.68157">
        <ele>207.33054</ele>
        <time>2022-09-17T13:08:53.000Z</time>
      </trkpt>
      <trkpt lat="45.85605" lon="4.6816">
        <ele>207.34761</ele>
        <time>2022-09-17T13:08:54.000Z</time>
      </trkpt>
      <trkpt lat="45.85607" lon="4.68163">
        <ele>207.3334</ele>
        <time>2022-09-17T13:08:55.000Z</time>
      </trkpt>
      <trkpt lat="45.85609" lon="4.68166">
        <ele>207.26672</ele>
        <time>2022-09-17T13:08:56.000Z</time>
      </trkpt>
      <trkpt lat="45.85612" lon="4.6817">
        <ele>207.1788</ele>
        <time>2022-09-17T13:08:57.000Z</time>
      </trkpt>
      <trkpt lat="45.85614" lon="4.68174">
        <ele>207.03979</ele>
        <time>2022-09-17T13:08:58.000Z</time>
      </trkpt>
      <trkpt lat="45.85617" lon="4.68177">
        <ele>206.87334</ele>
        <time>2022-09-17T13:08:59.000Z</time>
      </trkpt>
      <trkpt lat="45.85619" lon="4.6818">
        <ele>206.64758</ele>
        <time>2022-09-17T13:09:00.000Z</time>
      </trkpt>
      <trkpt lat="45.85621" lon="4.68183">
        <ele>206.3895</ele>
        <time>2022-09-17T13:09:01.000Z</time>
      </trkpt>
      <trkpt lat="45.85623" lon="4.68187">
        <ele>206.10501</ele>
        <time>2022-09-17T13:09:02.000Z</time>
      </trkpt>
      <trkpt lat="45.85626" lon="4.68191">
        <ele>206.14819</ele>
        <time>2022-09-17T13:09:03.000Z</time>
      </trkpt>
      <trkpt lat="45.85628" lon="4.68195">
        <ele>206.13457</ele>
        <time>2022-09-17T13:09:04.000Z</time>
      </trkpt>
      <trkpt lat="45.85631" lon="4.682">
        <ele>206.0511</ele>
        <time>2022-09-17T13:09:05.000Z</time>
      </trkpt>
      <trkpt lat="45.85633" lon="4.68204">
        <ele>205.95206</ele>
        <time>2022-09-17T13:09:06.000Z</time>
      </trkpt>
      <trkpt lat="45.85636" lon="4.68208">
        <ele>205.84082</ele>
        <time>2022-09-17T13:09:07.000Z</time>
      </trkpt>
      <trkpt lat="45.85638" lon="4.68212">
        <ele>205.73911</ele>
        <time>2022-09-17T13:09:08.000Z</time>
      </trkpt>
      <trkpt lat="45.85642" lon="4.68216">
        <ele>205.65271</ele>
        <time>2022-09-17T13:09:09.000Z</time>
      </trkpt>
      <trkpt lat="45.85646" lon="4.6822">
        <ele>205.54135</ele>
        <time>2022-09-17T13:09:10.000Z</time>
      </trkpt>
      <trkpt lat="45.85649" lon="4.68223">
        <ele>205.42966</ele>
        <time>2022-09-17T13:09:11.000Z</time>
      </trkpt>
      <trkpt lat="45.85653" lon="4.68225">
        <ele>205.32462</ele>
        <time>2022-09-17T13:09:12.000Z</time>
      </trkpt>
      <trkpt lat="45.85656" lon="4.68228">
        <ele>205.24686</ele>
        <time>2022-09-17T13:09:13.000Z</time>
      </trkpt>
      <trkpt lat="45.85659" lon="4.68231">
        <ele>205.17351</ele>
        <time>2022-09-17T13:09:14.000Z</time>
      </trkpt>
      <trkpt lat="45.85662" lon="4.68235">
        <ele>205.13261</ele>
        <time>2022-09-17T13:09:15.000Z</time>
      </trkpt>
      <trkpt lat="45.85665" lon="4.68238">
        <ele>205.12737</ele>
        <time>2022-09-17T13:09:16.000Z</time>
      </trkpt>
      <trkpt lat="45.85667" lon="4.68242">
        <ele>205.13315</ele>
        <time>2022-09-17T13:09:17.000Z</time>
      </trkpt>
      <trkpt lat="45.85669" lon="4.68246">
        <ele>205.16068</ele>
        <time>2022-09-17T13:09:18.000Z</time>
      </trkpt>
      <trkpt lat="45.85672" lon="4.6825">
        <ele>205.17065</ele>
        <time>2022-09-17T13:09:19.000Z</time>
      </trkpt>
      <trkpt lat="45.85675" lon="4.68255">
        <ele>205.17549</ele>
        <time>2022-09-17T13:09:20.000Z</time>
      </trkpt>
      <trkpt lat="45.85677" lon="4.68257">
        <ele>205.16118</ele>
        <time>2022-09-17T13:09:21.000Z</time>
      </trkpt>
      <trkpt lat="45.85681" lon="4.68261">
        <ele>205.17337</ele>
        <time>2022-09-17T13:09:22.000Z</time>
      </trkpt>
      <trkpt lat="45.85684" lon="4.68265">
        <ele>204.97066</ele>
        <time>2022-09-17T13:09:23.000Z</time>
      </trkpt>
      <trkpt lat="45.85688" lon="4.68269">
        <ele>204.83163</ele>
        <time>2022-09-17T13:09:24.000Z</time>
      </trkpt>
      <trkpt lat="45.85691" lon="4.68274">
        <ele>204.69566</ele>
        <time>2022-09-17T13:09:25.000Z</time>
      </trkpt>
      <trkpt lat="45.85695" lon="4.68278">
        <ele>204.59903</ele>
        <time>2022-09-17T13:09:26.000Z</time>
      </trkpt>
      <trkpt lat="45.85698" lon="4.68281">
        <ele>204.40817</ele>
        <time>2022-09-17T13:09:27.000Z</time>
      </trkpt>
      <trkpt lat="45.85702" lon="4.68285">
        <ele>204.20444</ele>
        <time>2022-09-17T13:09:28.000Z</time>
      </trkpt>
      <trkpt lat="45.85705" lon="4.6829">
        <ele>203.98686</ele>
        <time>2022-09-17T13:09:29.000Z</time>
      </trkpt>
      <trkpt lat="45.85709" lon="4.68293">
        <ele>203.75739</ele>
        <time>2022-09-17T13:09:30.000Z</time>
      </trkpt>
      <trkpt lat="45.85713" lon="4.68299">
        <ele>203.52292</ele>
        <time>2022-09-17T13:09:31.000Z</time>
      </trkpt>
      <trkpt lat="45.85716" lon="4.68304">
        <ele>203.29196</ele>
        <time>2022-09-17T13:09:32.000Z</time>
      </trkpt>
      <trkpt lat="45.8572" lon="4.68308">
        <ele>203.07101</ele>
        <time>2022-09-17T13:09:33.000Z</time>
      </trkpt>
      <trkpt lat="45.85723" lon="4.68313">
        <ele>202.81587</ele>
        <time>2022-09-17T13:09:34.000Z</time>
      </trkpt>
      <trkpt lat="45.85725" lon="4.68317">
        <ele>202.5376</ele>
        <time>2022-09-17T13:09:35.000Z</time>
      </trkpt>
      <trkpt lat="45.85727" lon="4.68324">
        <ele>202.29271</ele>
        <time>2022-09-17T13:09:36.000Z</time>
      </trkpt>
      <trkpt lat="45.85731" lon="4.68331">
        <ele>202.01907</ele>
        <time>2022-09-17T13:09:37.000Z</time>
      </trkpt>
      <trkpt lat="45.85733" lon="4.68337">
        <ele>201.75708</ele>
        <time>2022-09-17T13:09:38.000Z</time>
      </trkpt>
      <trkpt lat="45.85736" lon="4.68343">
        <ele>201.45221</ele>
        <time>2022-09-17T13:09:39.000Z</time>
      </trkpt>
      <trkpt lat="45.85739" lon="4.68349">
        <ele>201.22073</ele>
        <time>2022-09-17T13:09:40.000Z</time>
      </trkpt>
      <trkpt lat="45.85742" lon="4.68355">
        <ele>201.03905</ele>
        <time>2022-09-17T13:09:41.000Z</time>
      </trkpt>
      <trkpt lat="45.85745" lon="4.6836">
        <ele>200.88664</ele>
        <time>2022-09-17T13:09:42.000Z</time>
      </trkpt>
      <trkpt lat="45.85746" lon="4.68367">
        <ele>200.76407</ele>
        <time>2022-09-17T13:09:43.000Z</time>
      </trkpt>
      <trkpt lat="45.85749" lon="4.68374">
        <ele>200.60526</ele>
        <time>2022-09-17T13:09:44.000Z</time>
      </trkpt>
      <trkpt lat="45.85751" lon="4.68381">
        <ele>200.47186</ele>
        <time>2022-09-17T13:09:45.000Z</time>
      </trkpt>
      <trkpt lat="45.85751" lon="4.6839">
        <ele>200.28609</ele>
        <time>2022-09-17T13:09:46.000Z</time>
      </trkpt>
      <trkpt lat="45.85752" lon="4.68397">
        <ele>200.16084</ele>
        <time>2022-09-17T13:09:47.000Z</time>
      </trkpt>
      <trkpt lat="45.85757" lon="4.68406">
        <ele>200.04208</ele>
        <time>2022-09-17T13:09:48.000Z</time>
      </trkpt>
      <trkpt lat="45.85759" lon="4.68409">
        <ele>199.89928</ele>
        <time>2022-09-17T13:09:49.000Z</time>
      </trkpt>
      <trkpt lat="45.85761" lon="4.68415">
        <ele>199.68869</ele>
        <time>2022-09-17T13:09:50.000Z</time>
      </trkpt>
      <trkpt lat="45.85764" lon="4.68423">
        <ele>199.48099</ele>
        <time>2022-09-17T13:09:51.000Z</time>
      </trkpt>
      <trkpt lat="45.85768" lon="4.6843">
        <ele>199.2706</ele>
        <time>2022-09-17T13:09:52.000Z</time>
      </trkpt>
      <trkpt lat="45.8577" lon="4.68436">
        <ele>199.03714</ele>
        <time>2022-09-17T13:09:53.000Z</time>
      </trkpt>
      <trkpt lat="45.85774" lon="4.68446">
        <ele>198.84381</ele>
        <time>2022-09-17T13:09:54.000Z</time>
      </trkpt>
      <trkpt lat="45.85776" lon="4.68455">
        <ele>198.68112</ele>
        <time>2022-09-17T13:09:55.000Z</time>
      </trkpt>
      <trkpt lat="45.85779" lon="4.68464">
        <ele>198.48584</ele>
        <time>2022-09-17T13:09:56.000Z</time>
      </trkpt>
      <trkpt lat="45.85779" lon="4.6847">
        <ele>198.35831</ele>
        <time>2022-09-17T13:09:57.000Z</time>
      </trkpt>
      <trkpt lat="45.85781" lon="4.68478">
        <ele>198.15546</ele>
        <time>2022-09-17T13:09:58.000Z</time>
      </trkpt>
      <trkpt lat="45.85783" lon="4.68485">
        <ele>198.03384</ele>
        <time>2022-09-17T13:09:59.000Z</time>
      </trkpt>
      <trkpt lat="45.85784" lon="4.68494">
        <ele>197.85123</ele>
        <time>2022-09-17T13:10:00.000Z</time>
      </trkpt>
      <trkpt lat="45.85783" lon="4.68503">
        <ele>197.66241</ele>
        <time>2022-09-17T13:10:01.000Z</time>
      </trkpt>
      <trkpt lat="45.85783" lon="4.68514">
        <ele>197.56166</ele>
        <time>2022-09-17T13:10:02.000Z</time>
      </trkpt>
      <trkpt lat="45.85785" lon="4.68527">
        <ele>197.54367</ele>
        <time>2022-09-17T13:10:03.000Z</time>
      </trkpt>
      <trkpt lat="45.85787" lon="4.68533">
        <ele>197.58755</ele>
        <time>2022-09-17T13:10:04.000Z</time>
      </trkpt>
      <trkpt lat="45.85788" lon="4.68537">
        <ele>197.61073</ele>
        <time>2022-09-17T13:10:05.000Z</time>
      </trkpt>
      <trkpt lat="45.8579" lon="4.68544">
        <ele>197.66055</ele>
        <time>2022-09-17T13:10:06.000Z</time>
      </trkpt>
      <trkpt lat="45.85793" lon="4.68551">
        <ele>197.72368</ele>
        <time>2022-09-17T13:10:07.000Z</time>
      </trkpt>
      <trkpt lat="45.85796" lon="4.68555">
        <ele>197.80183</ele>
        <time>2022-09-17T13:10:08.000Z</time>
      </trkpt>
      <trkpt lat="45.85798" lon="4.68563">
        <ele>197.89151</ele>
        <time>2022-09-17T13:10:09.000Z</time>
      </trkpt>
      <trkpt lat="45.85801" lon="4.68569">
        <ele>198.05444</ele>
        <time>2022-09-17T13:10:10.000Z</time>
      </trkpt>
      <trkpt lat="45.85804" lon="4.68577">
        <ele>198.21585</ele>
        <time>2022-09-17T13:10:11.000Z</time>
      </trkpt>
      <trkpt lat="45.85806" lon="4.68585">
        <ele>198.39018</ele>
        <time>2022-09-17T13:10:12.000Z</time>
      </trkpt>
      <trkpt lat="45.85808" lon="4.68593">
        <ele>198.64841</ele>
        <time>2022-09-17T13:10:13.000Z</time>
      </trkpt>
      <trkpt lat="45.8581" lon="4.68599">
        <ele>199.01477</ele>
        <time>2022-09-17T13:10:14.000Z</time>
      </trkpt>
      <trkpt lat="45.85811" lon="4.68607">
        <ele>199.50943</ele>
        <time>2022-09-17T13:10:15.000Z</time>
      </trkpt>
      <trkpt lat="45.85813" lon="4.68614">
        <ele>199.96646</ele>
        <time>2022-09-17T13:10:16.000Z</time>
      </trkpt>
      <trkpt lat="45.85815" lon="4.68621">
        <ele>200.38795</ele>
        <time>2022-09-17T13:10:17.000Z</time>
      </trkpt>
      <trkpt lat="45.85816" lon="4.68628">
        <ele>200.90405</ele>
        <time>2022-09-17T13:10:18.000Z</time>
      </trkpt>
      <trkpt lat="45.85814" lon="4.68633">
        <ele>201.37566</ele>
        <time>2022-09-17T13:10:19.000Z</time>
      </trkpt>
      <trkpt lat="45.85814" lon="4.68639">
        <ele>201.9427</ele>
        <time>2022-09-17T13:10:20.000Z</time>
      </trkpt>
      <trkpt lat="45.85814" lon="4.68646">
        <ele>202.49086</ele>
        <time>2022-09-17T13:10:21.000Z</time>
      </trkpt>
      <trkpt lat="45.85813" lon="4.68654">
        <ele>202.89651</ele>
        <time>2022-09-17T13:10:22.000Z</time>
      </trkpt>
      <trkpt lat="45.85814" lon="4.68664">
        <ele>203.08093</ele>
        <time>2022-09-17T13:10:23.000Z</time>
      </trkpt>
      <trkpt lat="45.85811" lon="4.68671">
        <ele>203.15289</ele>
        <time>2022-09-17T13:10:24.000Z</time>
      </trkpt>
      <trkpt lat="45.85811" lon="4.68679">
        <ele>203.27499</ele>
        <time>2022-09-17T13:10:25.000Z</time>
      </trkpt>
      <trkpt lat="45.85814" lon="4.68686">
        <ele>203.30521</ele>
        <time>2022-09-17T13:10:26.000Z</time>
      </trkpt>
      <trkpt lat="45.85816" lon="4.68694">
        <ele>203.27663</ele>
        <time>2022-09-17T13:10:27.000Z</time>
      </trkpt>
      <trkpt lat="45.85815" lon="4.68702">
        <ele>203.14398</ele>
        <time>2022-09-17T13:10:28.000Z</time>
      </trkpt>
      <trkpt lat="45.85813" lon="4.6871">
        <ele>202.98051</ele>
        <time>2022-09-17T13:10:29.000Z</time>
      </trkpt>
      <trkpt lat="45.85811" lon="4.68718">
        <ele>202.85132</ele>
        <time>2022-09-17T13:10:30.000Z</time>
      </trkpt>
      <trkpt lat="45.85811" lon="4.68724">
        <ele>202.77711</ele>
        <time>2022-09-17T13:10:31.000Z</time>
      </trkpt>
      <trkpt lat="45.85809" lon="4.68732">
        <ele>202.70053</ele>
        <time>2022-09-17T13:10:32.000Z</time>
      </trkpt>
      <trkpt lat="45.85807" lon="4.68741">
        <ele>202.56023</ele>
        <time>2022-09-17T13:10:33.000Z</time>
      </trkpt>
      <trkpt lat="45.85805" lon="4.68748">
        <ele>202.31259</ele>
        <time>2022-09-17T13:10:34.000Z</time>
      </trkpt>
      <trkpt lat="45.85804" lon="4.68757">
        <ele>201.95349</ele>
        <time>2022-09-17T13:10:35.000Z</time>
      </trkpt>
      <trkpt lat="45.85801" lon="4.68764">
        <ele>201.60464</ele>
        <time>2022-09-17T13:10:36.000Z</time>
      </trkpt>
      <trkpt lat="45.85801" lon="4.68769">
        <ele>201.19859</ele>
        <time>2022-09-17T13:10:37.000Z</time>
      </trkpt>
      <trkpt lat="45.85802" lon="4.68778">
        <ele>200.76384</ele>
        <time>2022-09-17T13:10:38.000Z</time>
      </trkpt>
      <trkpt lat="45.85806" lon="4.6879">
        <ele>200.27129</ele>
        <time>2022-09-17T13:10:39.000Z</time>
      </trkpt>
      <trkpt lat="45.85808" lon="4.68797">
        <ele>199.70404</ele>
        <time>2022-09-17T13:10:40.000Z</time>
      </trkpt>
      <trkpt lat="45.85808" lon="4.68805">
        <ele>199.17073</ele>
        <time>2022-09-17T13:10:41.000Z</time>
      </trkpt>
      <trkpt lat="45.85811" lon="4.68812">
        <ele>198.6409</ele>
        <time>2022-09-17T13:10:42.000Z</time>
      </trkpt>
      <trkpt lat="45.85812" lon="4.68818">
        <ele>198.15512</ele>
        <time>2022-09-17T13:10:43.000Z</time>
      </trkpt>
      <trkpt lat="45.85813" lon="4.68825">
        <ele>197.71133</ele>
        <time>2022-09-17T13:10:44.000Z</time>
      </trkpt>
      <trkpt lat="45.85818" lon="4.68821">
        <ele>197.20731</ele>
        <time>2022-09-17T13:10:45.000Z</time>
      </trkpt>
      <trkpt lat="45.85819" lon="4.68824">
        <ele>196.8019</ele>
        <time>2022-09-17T13:10:46.000Z</time>
      </trkpt>
      <trkpt lat="45.85821" lon="4.68829">
        <ele>196.38333</ele>
        <time>2022-09-17T13:10:47.000Z</time>
      </trkpt>
      <trkpt lat="45.85818" lon="4.68836">
        <ele>196.13049</ele>
        <time>2022-09-17T13:10:49.000Z</time>
      </trkpt>
      <trkpt lat="45.85819" lon="4.68841">
        <ele>195.88672</ele>
        <time>2022-09-17T13:10:50.000Z</time>
      </trkpt>
      <trkpt lat="45.85819" lon="4.68845">
        <ele>195.70752</ele>
        <time>2022-09-17T13:10:52.000Z</time>
      </trkpt>
      <trkpt lat="45.8582" lon="4.68851">
        <ele>195.53033</ele>
        <time>2022-09-17T13:10:53.000Z</time>
      </trkpt>
      <trkpt lat="45.85817" lon="4.68854">
        <ele>195.39139</ele>
        <time>2022-09-17T13:10:54.000Z</time>
      </trkpt>
      <trkpt lat="45.85815" lon="4.68857">
        <ele>195.27103</ele>
        <time>2022-09-17T13:10:55.000Z</time>
      </trkpt>
      <trkpt lat="45.85812" lon="4.68861">
        <ele>195.18655</ele>
        <time>2022-09-17T13:10:56.000Z</time>
      </trkpt>
      <trkpt lat="45.85808" lon="4.68866">
        <ele>195.11395</ele>
        <time>2022-09-17T13:10:57.000Z</time>
      </trkpt>
      <trkpt lat="45.85806" lon="4.68872">
        <ele>195.12732</ele>
        <time>2022-09-17T13:10:58.000Z</time>
      </trkpt>
      <trkpt lat="45.85805" lon="4.68878">
        <ele>195.12173</ele>
        <time>2022-09-17T13:10:59.000Z</time>
      </trkpt>
      <trkpt lat="45.85805" lon="4.68885">
        <ele>195.12091</ele>
        <time>2022-09-17T13:11:00.000Z</time>
      </trkpt>
      <trkpt lat="45.85805" lon="4.68892">
        <ele>195.24704</ele>
        <time>2022-09-17T13:11:01.000Z</time>
      </trkpt>
      <trkpt lat="45.85805" lon="4.68898">
        <ele>195.45183</ele>
        <time>2022-09-17T13:11:02.000Z</time>
      </trkpt>
      <trkpt lat="45.85806" lon="4.68904">
        <ele>195.68463</ele>
        <time>2022-09-17T13:11:03.000Z</time>
      </trkpt>
      <trkpt lat="45.85806" lon="4.68911">
        <ele>195.96085</ele>
        <time>2022-09-17T13:11:04.000Z</time>
      </trkpt>
      <trkpt lat="45.85806" lon="4.68918">
        <ele>196.39604</ele>
        <time>2022-09-17T13:11:05.000Z</time>
      </trkpt>
      <trkpt lat="45.85806" lon="4.68925">
        <ele>196.83151</ele>
        <time>2022-09-17T13:11:06.000Z</time>
      </trkpt>
      <trkpt lat="45.85806" lon="4.68931">
        <ele>197.42621</ele>
        <time>2022-09-17T13:11:07.000Z</time>
      </trkpt>
      <trkpt lat="45.85805" lon="4.68937">
        <ele>198.01688</ele>
        <time>2022-09-17T13:11:08.000Z</time>
      </trkpt>
      <trkpt lat="45.85807" lon="4.68943">
        <ele>198.6731</ele>
        <time>2022-09-17T13:11:09.000Z</time>
      </trkpt>
      <trkpt lat="45.85807" lon="4.68952">
        <ele>199.24545</ele>
        <time>2022-09-17T13:11:10.000Z</time>
      </trkpt>
      <trkpt lat="45.85808" lon="4.68958">
        <ele>199.84563</ele>
        <time>2022-09-17T13:11:11.000Z</time>
      </trkpt>
      <trkpt lat="45.85808" lon="4.68966">
        <ele>200.31009</ele>
        <time>2022-09-17T13:11:12.000Z</time>
      </trkpt>
      <trkpt lat="45.85808" lon="4.68975">
        <ele>200.63983</ele>
        <time>2022-09-17T13:11:13.000Z</time>
      </trkpt>
      <trkpt lat="45.85806" lon="4.68981">
        <ele>200.93291</ele>
        <time>2022-09-17T13:11:14.000Z</time>
      </trkpt>
      <trkpt lat="45.85805" lon="4.68988">
        <ele>201.14804</ele>
        <time>2022-09-17T13:11:15.000Z</time>
      </trkpt>
      <trkpt lat="45.85805" lon="4.68995">
        <ele>201.22079</ele>
        <time>2022-09-17T13:11:16.000Z</time>
      </trkpt>
      <trkpt lat="45.85804" lon="4.69003">
        <ele>201.25464</ele>
        <time>2022-09-17T13:11:17.000Z</time>
      </trkpt>
      <trkpt lat="45.85803" lon="4.69009">
        <ele>201.28911</ele>
        <time>2022-09-17T13:11:18.000Z</time>
      </trkpt>
      <trkpt lat="45.85802" lon="4.69018">
        <ele>201.38666</ele>
        <time>2022-09-17T13:11:19.000Z</time>
      </trkpt>
      <trkpt lat="45.85802" lon="4.69026">
        <ele>201.47429</ele>
        <time>2022-09-17T13:11:20.000Z</time>
      </trkpt>
      <trkpt lat="45.85801" lon="4.69033">
        <ele>201.55907</ele>
        <time>2022-09-17T13:11:21.000Z</time>
      </trkpt>
      <trkpt lat="45.85801" lon="4.69042">
        <ele>201.5256</ele>
        <time>2022-09-17T13:11:22.000Z</time>
      </trkpt>
      <trkpt lat="45.85799" lon="4.6905">
        <ele>201.40002</ele>
        <time>2022-09-17T13:11:23.000Z</time>
      </trkpt>
      <trkpt lat="45.85799" lon="4.69058">
        <ele>201.21115</ele>
        <time>2022-09-17T13:11:24.000Z</time>
      </trkpt>
      <trkpt lat="45.85797" lon="4.69064">
        <ele>200.94044</ele>
        <time>2022-09-17T13:11:25.000Z</time>
      </trkpt>
      <trkpt lat="45.85795" lon="4.69072">
        <ele>200.70316</ele>
        <time>2022-09-17T13:11:26.000Z</time>
      </trkpt>
      <trkpt lat="45.85794" lon="4.69079">
        <ele>200.354</ele>
        <time>2022-09-17T13:11:27.000Z</time>
      </trkpt>
      <trkpt lat="45.85791" lon="4.69086">
        <ele>199.98737</ele>
        <time>2022-09-17T13:11:28.000Z</time>
      </trkpt>
      <trkpt lat="45.8579" lon="4.69093">
        <ele>199.57059</ele>
        <time>2022-09-17T13:11:29.000Z</time>
      </trkpt>
      <trkpt lat="45.85789" lon="4.69101">
        <ele>199.21484</ele>
        <time>2022-09-17T13:11:30.000Z</time>
      </trkpt>
      <trkpt lat="45.8579" lon="4.69106">
        <ele>198.86452</ele>
        <time>2022-09-17T13:11:31.000Z</time>
      </trkpt>
      <trkpt lat="45.85789" lon="4.69114">
        <ele>198.51512</ele>
        <time>2022-09-17T13:11:32.000Z</time>
      </trkpt>
      <trkpt lat="45.8579" lon="4.69118">
        <ele>198.28964</ele>
        <time>2022-09-17T13:11:33.000Z</time>
      </trkpt>
      <trkpt lat="45.85788" lon="4.69126">
        <ele>197.99875</ele>
        <time>2022-09-17T13:11:34.000Z</time>
      </trkpt>
      <trkpt lat="45.85787" lon="4.69132">
        <ele>197.81487</ele>
        <time>2022-09-17T13:11:35.000Z</time>
      </trkpt>
      <trkpt lat="45.85785" lon="4.69139">
        <ele>197.75192</ele>
        <time>2022-09-17T13:11:36.000Z</time>
      </trkpt>
      <trkpt lat="45.85783" lon="4.69144">
        <ele>197.70839</ele>
        <time>2022-09-17T13:11:37.000Z</time>
      </trkpt>
      <trkpt lat="45.85782" lon="4.69153">
        <ele>197.63307</ele>
        <time>2022-09-17T13:11:38.000Z</time>
      </trkpt>
      <trkpt lat="45.85779" lon="4.69161">
        <ele>197.63553</ele>
        <time>2022-09-17T13:11:39.000Z</time>
      </trkpt>
      <trkpt lat="45.85777" lon="4.69168">
        <ele>197.71722</ele>
        <time>2022-09-17T13:11:40.000Z</time>
      </trkpt>
      <trkpt lat="45.85778" lon="4.69175">
        <ele>197.81345</ele>
        <time>2022-09-17T13:11:41.000Z</time>
      </trkpt>
      <trkpt lat="45.85775" lon="4.69182">
        <ele>197.9825</ele>
        <time>2022-09-17T13:11:42.000Z</time>
      </trkpt>
      <trkpt lat="45.85774" lon="4.69187">
        <ele>198.33531</ele>
        <time>2022-09-17T13:11:43.000Z</time>
      </trkpt>
      <trkpt lat="45.85773" lon="4.69194">
        <ele>198.68768</ele>
        <time>2022-09-17T13:11:44.000Z</time>
      </trkpt>
      <trkpt lat="45.85773" lon="4.69199">
        <ele>199.06261</ele>
        <time>2022-09-17T13:11:45.000Z</time>
      </trkpt>
      <trkpt lat="45.85773" lon="4.69205">
        <ele>199.40536</ele>
        <time>2022-09-17T13:11:46.000Z</time>
      </trkpt>
      <trkpt lat="45.8577" lon="4.69207">
        <ele>199.72169</ele>
        <time>2022-09-17T13:11:47.000Z</time>
      </trkpt>
      <trkpt lat="45.85769" lon="4.6921">
        <ele>200.04178</ele>
        <time>2022-09-17T13:11:48.000Z</time>
      </trkpt>
      <trkpt lat="45.85768" lon="4.69216">
        <ele>200.39798</ele>
        <time>2022-09-17T13:11:49.000Z</time>
      </trkpt>
      <trkpt lat="45.85767" lon="4.69223">
        <ele>200.70702</ele>
        <time>2022-09-17T13:11:50.000Z</time>
      </trkpt>
      <trkpt lat="45.85768" lon="4.69226">
        <ele>201.01532</ele>
        <time>2022-09-17T13:11:51.000Z</time>
      </trkpt>
      <trkpt lat="45.85769" lon="4.6923">
        <ele>201.34192</ele>
        <time>2022-09-17T13:11:52.000Z</time>
      </trkpt>
      <trkpt lat="45.85769" lon="4.69233">
        <ele>201.57544</ele>
        <time>2022-09-17T13:11:53.000Z</time>
      </trkpt>
      <trkpt lat="45.85768" lon="4.69237">
        <ele>201.78683</ele>
        <time>2022-09-17T13:11:54.000Z</time>
      </trkpt>
      <trkpt lat="45.85766" lon="4.69241">
        <ele>201.87308</ele>
        <time>2022-09-17T13:11:55.000Z</time>
      </trkpt>
      <trkpt lat="45.85764" lon="4.69245">
        <ele>201.96581</ele>
        <time>2022-09-17T13:11:56.000Z</time>
      </trkpt>
      <trkpt lat="45.85763" lon="4.6925">
        <ele>201.98148</ele>
        <time>2022-09-17T13:11:57.000Z</time>
      </trkpt>
      <trkpt lat="45.85762" lon="4.69255">
        <ele>202.00346</ele>
        <time>2022-09-17T13:11:58.000Z</time>
      </trkpt>
      <trkpt lat="45.85762" lon="4.69259">
        <ele>201.90701</ele>
        <time>2022-09-17T13:11:59.000Z</time>
      </trkpt>
      <trkpt lat="45.85762" lon="4.69264">
        <ele>201.72948</ele>
        <time>2022-09-17T13:12:00.000Z</time>
      </trkpt>
      <trkpt lat="45.85762" lon="4.69269">
        <ele>201.44595</ele>
        <time>2022-09-17T13:12:01.000Z</time>
      </trkpt>
      <trkpt lat="45.85762" lon="4.69274">
        <ele>201.1158</ele>
        <time>2022-09-17T13:12:02.000Z</time>
      </trkpt>
      <trkpt lat="45.85762" lon="4.6928">
        <ele>200.62509</ele>
        <time>2022-09-17T13:12:03.000Z</time>
      </trkpt>
      <trkpt lat="45.85762" lon="4.69286">
        <ele>200.17302</ele>
        <time>2022-09-17T13:12:04.000Z</time>
      </trkpt>
      <trkpt lat="45.85762" lon="4.69292">
        <ele>199.75314</ele>
        <time>2022-09-17T13:12:05.000Z</time>
      </trkpt>
      <trkpt lat="45.85762" lon="4.69298">
        <ele>199.30957</ele>
        <time>2022-09-17T13:12:06.000Z</time>
      </trkpt>
      <trkpt lat="45.8576" lon="4.69306">
        <ele>198.92058</ele>
        <time>2022-09-17T13:12:07.000Z</time>
      </trkpt>
      <trkpt lat="45.8576" lon="4.69312">
        <ele>198.51822</ele>
        <time>2022-09-17T13:12:08.000Z</time>
      </trkpt>
      <trkpt lat="45.85759" lon="4.69318">
        <ele>198.12691</ele>
        <time>2022-09-17T13:12:09.000Z</time>
      </trkpt>
      <trkpt lat="45.85759" lon="4.69324">
        <ele>197.71196</ele>
        <time>2022-09-17T13:12:10.000Z</time>
      </trkpt>
      <trkpt lat="45.85759" lon="4.69329">
        <ele>197.32455</ele>
        <time>2022-09-17T13:12:11.000Z</time>
      </trkpt>
      <trkpt lat="45.85758" lon="4.69335">
        <ele>196.9335</ele>
        <time>2022-09-17T13:12:12.000Z</time>
      </trkpt>
      <trkpt lat="45.85758" lon="4.69341">
        <ele>196.58298</ele>
        <time>2022-09-17T13:12:13.000Z</time>
      </trkpt>
      <trkpt lat="45.85759" lon="4.69348">
        <ele>196.27914</ele>
        <time>2022-09-17T13:12:14.000Z</time>
      </trkpt>
      <trkpt lat="45.8576" lon="4.69353">
        <ele>196.02478</ele>
        <time>2022-09-17T13:12:15.000Z</time>
      </trkpt>
      <trkpt lat="45.85759" lon="4.69358">
        <ele>195.78526</ele>
        <time>2022-09-17T13:12:16.000Z</time>
      </trkpt>
      <trkpt lat="45.85758" lon="4.69364">
        <ele>195.63623</ele>
        <time>2022-09-17T13:12:17.000Z</time>
      </trkpt>
      <trkpt lat="45.85757" lon="4.6937">
        <ele>195.5144</ele>
        <time>2022-09-17T13:12:18.000Z</time>
      </trkpt>
      <trkpt lat="45.85758" lon="4.69377">
        <ele>195.45702</ele>
        <time>2022-09-17T13:12:19.000Z</time>
      </trkpt>
      <trkpt lat="45.85758" lon="4.69382">
        <ele>195.4595</ele>
        <time>2022-09-17T13:12:20.000Z</time>
      </trkpt>
      <trkpt lat="45.85758" lon="4.69388">
        <ele>195.50421</ele>
        <time>2022-09-17T13:12:21.000Z</time>
      </trkpt>
      <trkpt lat="45.85758" lon="4.69394">
        <ele>195.58481</ele>
        <time>2022-09-17T13:12:22.000Z</time>
      </trkpt>
      <trkpt lat="45.85759" lon="4.694">
        <ele>195.70067</ele>
        <time>2022-09-17T13:12:23.000Z</time>
      </trkpt>
      <trkpt lat="45.85759" lon="4.69406">
        <ele>195.8409</ele>
        <time>2022-09-17T13:12:24.000Z</time>
      </trkpt>
      <trkpt lat="45.8576" lon="4.69411">
        <ele>195.95314</ele>
        <time>2022-09-17T13:12:25.000Z</time>
      </trkpt>
      <trkpt lat="45.8576" lon="4.69417">
        <ele>196.08565</ele>
        <time>2022-09-17T13:12:26.000Z</time>
      </trkpt>
      <trkpt lat="45.85761" lon="4.69424">
        <ele>196.18784</ele>
        <time>2022-09-17T13:12:27.000Z</time>
      </trkpt>
      <trkpt lat="45.85761" lon="4.6943">
        <ele>196.35239</ele>
        <time>2022-09-17T13:12:28.000Z</time>
      </trkpt>
      <trkpt lat="45.85761" lon="4.69437">
        <ele>196.51529</ele>
        <time>2022-09-17T13:12:29.000Z</time>
      </trkpt>
      <trkpt lat="45.85762" lon="4.69444">
        <ele>196.69035</ele>
        <time>2022-09-17T13:12:30.000Z</time>
      </trkpt>
      <trkpt lat="45.85763" lon="4.69451">
        <ele>196.8676</ele>
        <time>2022-09-17T13:12:31.000Z</time>
      </trkpt>
      <trkpt lat="45.85763" lon="4.69458">
        <ele>197.0459</ele>
        <time>2022-09-17T13:12:32.000Z</time>
      </trkpt>
      <trkpt lat="45.85764" lon="4.69464">
        <ele>197.24835</ele>
        <time>2022-09-17T13:12:33.000Z</time>
      </trkpt>
      <trkpt lat="45.85765" lon="4.69469">
        <ele>197.51062</ele>
        <time>2022-09-17T13:12:34.000Z</time>
      </trkpt>
      <trkpt lat="45.85766" lon="4.69475">
        <ele>197.75909</ele>
        <time>2022-09-17T13:12:35.000Z</time>
      </trkpt>
      <trkpt lat="45.85767" lon="4.69482">
        <ele>197.96007</ele>
        <time>2022-09-17T13:12:36.000Z</time>
      </trkpt>
      <trkpt lat="45.85768" lon="4.69488">
        <ele>198.10724</ele>
        <time>2022-09-17T13:12:37.000Z</time>
      </trkpt>
      <trkpt lat="45.85769" lon="4.69495">
        <ele>198.18243</ele>
        <time>2022-09-17T13:12:38.000Z</time>
      </trkpt>
      <trkpt lat="45.85769" lon="4.695">
        <ele>198.30266</ele>
        <time>2022-09-17T13:12:39.000Z</time>
      </trkpt>
      <trkpt lat="45.8577" lon="4.69506">
        <ele>198.3735</ele>
        <time>2022-09-17T13:12:40.000Z</time>
      </trkpt>
      <trkpt lat="45.85771" lon="4.69513">
        <ele>198.42728</ele>
        <time>2022-09-17T13:12:41.000Z</time>
      </trkpt>
      <trkpt lat="45.85772" lon="4.69519">
        <ele>198.49396</ele>
        <time>2022-09-17T13:12:42.000Z</time>
      </trkpt>
      <trkpt lat="45.85773" lon="4.69524">
        <ele>198.58774</ele>
        <time>2022-09-17T13:12:43.000Z</time>
      </trkpt>
      <trkpt lat="45.85774" lon="4.6953">
        <ele>198.66727</ele>
        <time>2022-09-17T13:12:44.000Z</time>
      </trkpt>
      <trkpt lat="45.85774" lon="4.69536">
        <ele>198.80313</ele>
        <time>2022-09-17T13:12:45.000Z</time>
      </trkpt>
      <trkpt lat="45.85775" lon="4.69542">
        <ele>198.98595</ele>
        <time>2022-09-17T13:12:46.000Z</time>
      </trkpt>
      <trkpt lat="45.85776" lon="4.69548">
        <ele>199.10989</ele>
        <time>2022-09-17T13:12:47.000Z</time>
      </trkpt>
      <trkpt lat="45.85777" lon="4.69554">
        <ele>199.21696</ele>
        <time>2022-09-17T13:12:48.000Z</time>
      </trkpt>
      <trkpt lat="45.85779" lon="4.6956">
        <ele>199.34262</ele>
        <time>2022-09-17T13:12:49.000Z</time>
      </trkpt>
      <trkpt lat="45.8578" lon="4.69565">
        <ele>199.54826</ele>
        <time>2022-09-17T13:12:50.000Z</time>
      </trkpt>
      <trkpt lat="45.85781" lon="4.69571">
        <ele>199.69272</ele>
        <time>2022-09-17T13:12:51.000Z</time>
      </trkpt>
      <trkpt lat="45.85782" lon="4.69577">
        <ele>199.78081</ele>
        <time>2022-09-17T13:12:52.000Z</time>
      </trkpt>
      <trkpt lat="45.85783" lon="4.69583">
        <ele>199.86186</ele>
        <time>2022-09-17T13:12:53.000Z</time>
      </trkpt>
      <trkpt lat="45.85784" lon="4.6959">
        <ele>199.91129</ele>
        <time>2022-09-17T13:12:54.000Z</time>
      </trkpt>
      <trkpt lat="45.85785" lon="4.69596">
        <ele>199.99454</ele>
        <time>2022-09-17T13:12:55.000Z</time>
      </trkpt>
      <trkpt lat="45.85785" lon="4.69604">
        <ele>200.04002</ele>
        <time>2022-09-17T13:12:56.000Z</time>
      </trkpt>
      <trkpt lat="45.85788" lon="4.6961">
        <ele>200.12921</ele>
        <time>2022-09-17T13:12:57.000Z</time>
      </trkpt>
      <trkpt lat="45.8579" lon="4.69616">
        <ele>200.21829</ele>
        <time>2022-09-17T13:12:58.000Z</time>
      </trkpt>
      <trkpt lat="45.85792" lon="4.69623">
        <ele>200.26779</ele>
        <time>2022-09-17T13:12:59.000Z</time>
      </trkpt>
      <trkpt lat="45.85794" lon="4.6963">
        <ele>200.3139</ele>
        <time>2022-09-17T13:13:00.000Z</time>
      </trkpt>
      <trkpt lat="45.85795" lon="4.69637">
        <ele>200.37552</ele>
        <time>2022-09-17T13:13:01.000Z</time>
      </trkpt>
      <trkpt lat="45.85796" lon="4.69642">
        <ele>200.412</ele>
        <time>2022-09-17T13:13:02.000Z</time>
      </trkpt>
      <trkpt lat="45.85799" lon="4.6965">
        <ele>200.32722</ele>
        <time>2022-09-17T13:13:03.000Z</time>
      </trkpt>
      <trkpt lat="45.85802" lon="4.69656">
        <ele>200.23964</ele>
        <time>2022-09-17T13:13:04.000Z</time>
      </trkpt>
      <trkpt lat="45.85805" lon="4.69661">
        <ele>200.10973</ele>
        <time>2022-09-17T13:13:05.000Z</time>
      </trkpt>
      <trkpt lat="45.85809" lon="4.69666">
        <ele>199.87607</ele>
        <time>2022-09-17T13:13:06.000Z</time>
      </trkpt>
      <trkpt lat="45.8581" lon="4.69671">
        <ele>199.7336</ele>
        <time>2022-09-17T13:13:07.000Z</time>
      </trkpt>
      <trkpt lat="45.85812" lon="4.69677">
        <ele>199.59171</ele>
        <time>2022-09-17T13:13:08.000Z</time>
      </trkpt>
      <trkpt lat="45.85814" lon="4.69682">
        <ele>199.46953</ele>
        <time>2022-09-17T13:13:09.000Z</time>
      </trkpt>
      <trkpt lat="45.85816" lon="4.69687">
        <ele>199.37943</ele>
        <time>2022-09-17T13:13:10.000Z</time>
      </trkpt>
      <trkpt lat="45.85817" lon="4.69693">
        <ele>199.38292</ele>
        <time>2022-09-17T13:13:11.000Z</time>
      </trkpt>
      <trkpt lat="45.85817" lon="4.69698">
        <ele>199.46498</ele>
        <time>2022-09-17T13:13:12.000Z</time>
      </trkpt>
      <trkpt lat="45.85818" lon="4.69702">
        <ele>199.50352</ele>
        <time>2022-09-17T13:13:13.000Z</time>
      </trkpt>
      <trkpt lat="45.85817" lon="4.69705">
        <ele>199.55287</ele>
        <time>2022-09-17T13:13:14.000Z</time>
      </trkpt>
      <trkpt lat="45.85818" lon="4.69708">
        <ele>199.55852</ele>
        <time>2022-09-17T13:13:15.000Z</time>
      </trkpt>
      <trkpt lat="45.85818" lon="4.69711">
        <ele>199.58994</ele>
        <time>2022-09-17T13:13:16.000Z</time>
      </trkpt>
      <trkpt lat="45.85819" lon="4.69714">
        <ele>199.60025</ele>
        <time>2022-09-17T13:13:18.000Z</time>
      </trkpt>
      <trkpt lat="45.85819" lon="4.69717">
        <ele>199.64136</ele>
        <time>2022-09-17T13:13:20.000Z</time>
      </trkpt>
      <trkpt lat="45.85819" lon="4.6972">
        <ele>199.69736</ele>
        <time>2022-09-17T13:13:21.000Z</time>
      </trkpt>
      <trkpt lat="45.85819" lon="4.69723">
        <ele>199.82722</ele>
        <time>2022-09-17T13:13:22.000Z</time>
      </trkpt>
      <trkpt lat="45.85819" lon="4.69727">
        <ele>199.96785</ele>
        <time>2022-09-17T13:13:23.000Z</time>
      </trkpt>
      <trkpt lat="45.85819" lon="4.69731">
        <ele>200.08243</ele>
        <time>2022-09-17T13:13:24.000Z</time>
      </trkpt>
      <trkpt lat="45.85819" lon="4.69735">
        <ele>200.27725</ele>
        <time>2022-09-17T13:13:25.000Z</time>
      </trkpt>
      <trkpt lat="45.85819" lon="4.6974">
        <ele>200.50539</ele>
        <time>2022-09-17T13:13:26.000Z</time>
      </trkpt>
      <trkpt lat="45.8582" lon="4.69745">
        <ele>200.68832</ele>
        <time>2022-09-17T13:13:27.000Z</time>
      </trkpt>
      <trkpt lat="45.8582" lon="4.6975">
        <ele>200.89107</ele>
        <time>2022-09-17T13:13:28.000Z</time>
      </trkpt>
      <trkpt lat="45.8582" lon="4.69755">
        <ele>201.1058</ele>
        <time>2022-09-17T13:13:29.000Z</time>
      </trkpt>
      <trkpt lat="45.85821" lon="4.6976">
        <ele>201.36777</ele>
        <time>2022-09-17T13:13:30.000Z</time>
      </trkpt>
      <trkpt lat="45.85821" lon="4.69765">
        <ele>201.56331</ele>
        <time>2022-09-17T13:13:31.000Z</time>
      </trkpt>
      <trkpt lat="45.85821" lon="4.6977">
        <ele>201.62859</ele>
        <time>2022-09-17T13:13:32.000Z</time>
      </trkpt>
      <trkpt lat="45.85822" lon="4.69776">
        <ele>201.61017</ele>
        <time>2022-09-17T13:13:33.000Z</time>
      </trkpt>
      <trkpt lat="45.85823" lon="4.69781">
        <ele>201.58319</ele>
        <time>2022-09-17T13:13:34.000Z</time>
      </trkpt>
      <trkpt lat="45.85823" lon="4.69787">
        <ele>201.62625</ele>
        <time>2022-09-17T13:13:35.000Z</time>
      </trkpt>
      <trkpt lat="45.85824" lon="4.69792">
        <ele>201.63138</ele>
        <time>2022-09-17T13:13:36.000Z</time>
      </trkpt>
      <trkpt lat="45.85824" lon="4.69797">
        <ele>201.69395</ele>
        <time>2022-09-17T13:13:37.000Z</time>
      </trkpt>
      <trkpt lat="45.85824" lon="4.69803">
        <ele>201.77824</ele>
        <time>2022-09-17T13:13:38.000Z</time>
      </trkpt>
      <trkpt lat="45.85825" lon="4.69809">
        <ele>201.87819</ele>
        <time>2022-09-17T13:13:39.000Z</time>
      </trkpt>
      <trkpt lat="45.85826" lon="4.69815">
        <ele>201.93576</ele>
        <time>2022-09-17T13:13:40.000Z</time>
      </trkpt>
      <trkpt lat="45.85827" lon="4.69819">
        <ele>201.95923</ele>
        <time>2022-09-17T13:13:41.000Z</time>
      </trkpt>
      <trkpt lat="45.8583" lon="4.69822">
        <ele>201.93311</ele>
        <time>2022-09-17T13:13:42.000Z</time>
      </trkpt>
      <trkpt lat="45.85832" lon="4.69823">
        <ele>201.85977</ele>
        <time>2022-09-17T13:13:43.000Z</time>
      </trkpt>
      <trkpt lat="45.85833" lon="4.69822">
        <ele>201.81874</ele>
        <time>2022-09-17T13:13:44.000Z</time>
      </trkpt>
      <trkpt lat="45.85836" lon="4.69821">
        <ele>201.80379</ele>
        <time>2022-09-17T13:13:45.000Z</time>
      </trkpt>
      <trkpt lat="45.85838" lon="4.6982">
        <ele>201.74059</ele>
        <time>2022-09-17T13:13:46.000Z</time>
      </trkpt>
      <trkpt lat="45.85841" lon="4.69819">
        <ele>201.7439</ele>
        <time>2022-09-17T13:13:48.000Z</time>
      </trkpt>
      <trkpt lat="45.85843" lon="4.69818">
        <ele>201.7496</ele>
        <time>2022-09-17T13:13:55.000Z</time>
      </trkpt>
      <trkpt lat="45.85845" lon="4.69817">
        <ele>201.64236</ele>
        <time>2022-09-17T13:13:57.000Z</time>
      </trkpt>
      <trkpt lat="45.85848" lon="4.69818">
        <ele>201.43106</ele>
        <time>2022-09-17T13:13:59.000Z</time>
      </trkpt>
      <trkpt lat="45.8585" lon="4.6982">
        <ele>201.18889</ele>
        <time>2022-09-17T13:14:01.000Z</time>
      </trkpt>
      <trkpt lat="45.85853" lon="4.69819">
        <ele>200.91913</ele>
        <time>2022-09-17T13:14:03.000Z</time>
      </trkpt>
      <trkpt lat="45.85856" lon="4.69819">
        <ele>200.57004</ele>
        <time>2022-09-17T13:14:05.000Z</time>
      </trkpt>
      <trkpt lat="45.85858" lon="4.69819">
        <ele>200.14731</ele>
        <time>2022-09-17T13:14:06.000Z</time>
      </trkpt>
      <trkpt lat="45.8586" lon="4.69819">
        <ele>199.72887</ele>
        <time>2022-09-17T13:14:07.000Z</time>
      </trkpt>
      <trkpt lat="45.85862" lon="4.69818">
        <ele>199.3385</ele>
        <time>2022-09-17T13:14:08.000Z</time>
      </trkpt>
      <trkpt lat="45.85866" lon="4.69816">
        <ele>198.98688</ele>
        <time>2022-09-17T13:14:10.000Z</time>
      </trkpt>
      <trkpt lat="45.85869" lon="4.69816">
        <ele>198.64549</ele>
        <time>2022-09-17T13:14:12.000Z</time>
      </trkpt>
      <trkpt lat="45.85871" lon="4.69817">
        <ele>198.2823</ele>
        <time>2022-09-17T13:14:14.000Z</time>
      </trkpt>
      <trkpt lat="45.85874" lon="4.69818">
        <ele>197.89725</ele>
        <time>2022-09-17T13:14:16.000Z</time>
      </trkpt>
      <trkpt lat="45.85876" lon="4.6982">
        <ele>197.61734</ele>
        <time>2022-09-17T13:14:28.000Z</time>
      </trkpt>
      <trkpt lat="45.85878" lon="4.69821">
        <ele>197.33212</ele>
        <time>2022-09-17T13:14:30.000Z</time>
      </trkpt>
      <trkpt lat="45.85879" lon="4.6982">
        <ele>196.97</ele>
        <time>2022-09-17T13:14:37.000Z</time>
      </trkpt>
      <trkpt lat="45.85882" lon="4.69824">
        <ele>196.6689</ele>
        <time>2022-09-17T13:17:48.000Z</time>
      </trkpt>
      <trkpt lat="45.85883" lon="4.69826">
        <ele>196.27792</ele>
        <time>2022-09-17T13:17:49.000Z</time>
      </trkpt>
      <trkpt lat="45.85885" lon="4.69828">
        <ele>196.0275</ele>
        <time>2022-09-17T13:17:50.000Z</time>
      </trkpt>
      <trkpt lat="45.85887" lon="4.6983">
        <ele>195.80069</ele>
        <time>2022-09-17T13:17:51.000Z</time>
      </trkpt>
      <trkpt lat="45.85889" lon="4.69832">
        <ele>195.71912</ele>
        <time>2022-09-17T13:17:52.000Z</time>
      </trkpt>
      <trkpt lat="45.8589" lon="4.69835">
        <ele>195.69058</ele>
        <time>2022-09-17T13:17:53.000Z</time>
      </trkpt>
      <trkpt lat="45.85892" lon="4.69838">
        <ele>195.72116</ele>
        <time>2022-09-17T13:17:54.000Z</time>
      </trkpt>
      <trkpt lat="45.85895" lon="4.69841">
        <ele>195.7836</ele>
        <time>2022-09-17T13:17:55.000Z</time>
      </trkpt>
      <trkpt lat="45.85897" lon="4.69845">
        <ele>195.83191</ele>
        <time>2022-09-17T13:17:56.000Z</time>
      </trkpt>
      <trkpt lat="45.859" lon="4.69848">
        <ele>195.91299</ele>
        <time>2022-09-17T13:17:57.000Z</time>
      </trkpt>
      <trkpt lat="45.85903" lon="4.69851">
        <ele>196.1041</ele>
        <time>2022-09-17T13:17:58.000Z</time>
      </trkpt>
      <trkpt lat="45.85906" lon="4.69854">
        <ele>196.25729</ele>
        <time>2022-09-17T13:17:59.000Z</time>
      </trkpt>
      <trkpt lat="45.8591" lon="4.69857">
        <ele>196.39041</ele>
        <time>2022-09-17T13:18:00.000Z</time>
      </trkpt>
      <trkpt lat="45.85913" lon="4.69861">
        <ele>196.39798</ele>
        <time>2022-09-17T13:18:01.000Z</time>
      </trkpt>
      <trkpt lat="45.85916" lon="4.69864">
        <ele>196.36983</ele>
        <time>2022-09-17T13:18:02.000Z</time>
      </trkpt>
      <trkpt lat="45.85919" lon="4.69868">
        <ele>196.40265</ele>
        <time>2022-09-17T13:18:03.000Z</time>
      </trkpt>
      <trkpt lat="45.85922" lon="4.69872">
        <ele>196.50462</ele>
        <time>2022-09-17T13:18:04.000Z</time>
      </trkpt>
      <trkpt lat="45.85924" lon="4.69876">
        <ele>196.46429</ele>
        <time>2022-09-17T13:18:05.000Z</time>
      </trkpt>
      <trkpt lat="45.85927" lon="4.69879">
        <ele>196.39453</ele>
        <time>2022-09-17T13:18:06.000Z</time>
      </trkpt>
      <trkpt lat="45.8593" lon="4.69882">
        <ele>196.40005</ele>
        <time>2022-09-17T13:18:07.000Z</time>
      </trkpt>
      <trkpt lat="45.85933" lon="4.69886">
        <ele>196.34967</ele>
        <time>2022-09-17T13:18:08.000Z</time>
      </trkpt>
      <trkpt lat="45.85936" lon="4.69889">
        <ele>196.26917</ele>
        <time>2022-09-17T13:18:09.000Z</time>
      </trkpt>
      <trkpt lat="45.85939" lon="4.69893">
        <ele>196.09634</ele>
        <time>2022-09-17T13:18:10.000Z</time>
      </trkpt>
      <trkpt lat="45.85942" lon="4.69897">
        <ele>195.8326</ele>
        <time>2022-09-17T13:18:11.000Z</time>
      </trkpt>
      <trkpt lat="45.85945" lon="4.699">
        <ele>195.39534</ele>
        <time>2022-09-17T13:18:12.000Z</time>
      </trkpt>
      <trkpt lat="45.85949" lon="4.69903">
        <ele>195.008</ele>
        <time>2022-09-17T13:18:13.000Z</time>
      </trkpt>
      <trkpt lat="45.85952" lon="4.69906">
        <ele>194.60353</ele>
        <time>2022-09-17T13:18:14.000Z</time>
      </trkpt>
      <trkpt lat="45.85955" lon="4.69909">
        <ele>194.16158</ele>
        <time>2022-09-17T13:18:15.000Z</time>
      </trkpt>
      <trkpt lat="45.85958" lon="4.69912">
        <ele>193.88928</ele>
        <time>2022-09-17T13:18:16.000Z</time>
      </trkpt>
      <trkpt lat="45.8596" lon="4.69915">
        <ele>193.67505</ele>
        <time>2022-09-17T13:18:17.000Z</time>
      </trkpt>
      <trkpt lat="45.85963" lon="4.69918">
        <ele>193.46736</ele>
        <time>2022-09-17T13:18:18.000Z</time>
      </trkpt>
      <trkpt lat="45.85966" lon="4.6992">
        <ele>193.28256</ele>
        <time>2022-09-17T13:18:19.000Z</time>
      </trkpt>
      <trkpt lat="45.85969" lon="4.69923">
        <ele>193.13382</ele>
        <time>2022-09-17T13:18:20.000Z</time>
      </trkpt>
      <trkpt lat="45.85972" lon="4.69926">
        <ele>193.04332</ele>
        <time>2022-09-17T13:18:21.000Z</time>
      </trkpt>
      <trkpt lat="45.85975" lon="4.69929">
        <ele>192.99652</ele>
        <time>2022-09-17T13:18:22.000Z</time>
      </trkpt>
      <trkpt lat="45.85977" lon="4.69931">
        <ele>192.83257</ele>
        <time>2022-09-17T13:18:23.000Z</time>
      </trkpt>
      <trkpt lat="45.8598" lon="4.69934">
        <ele>192.70766</ele>
        <time>2022-09-17T13:18:24.000Z</time>
      </trkpt>
      <trkpt lat="45.85983" lon="4.69936">
        <ele>192.69576</ele>
        <time>2022-09-17T13:18:25.000Z</time>
      </trkpt>
      <trkpt lat="45.85987" lon="4.69938">
        <ele>192.69778</ele>
        <time>2022-09-17T13:18:26.000Z</time>
      </trkpt>
      <trkpt lat="45.8599" lon="4.69939">
        <ele>192.7467</ele>
        <time>2022-09-17T13:18:27.000Z</time>
      </trkpt>
      <trkpt lat="45.85994" lon="4.69941">
        <ele>192.76517</ele>
        <time>2022-09-17T13:18:28.000Z</time>
      </trkpt>
      <trkpt lat="45.85997" lon="4.69941">
        <ele>192.90009</ele>
        <time>2022-09-17T13:18:29.000Z</time>
      </trkpt>
      <trkpt lat="45.86001" lon="4.69942">
        <ele>193.0834</ele>
        <time>2022-09-17T13:18:30.000Z</time>
      </trkpt>
      <trkpt lat="45.86004" lon="4.69943">
        <ele>193.36417</ele>
        <time>2022-09-17T13:18:31.000Z</time>
      </trkpt>
      <trkpt lat="45.86008" lon="4.69944">
        <ele>193.79938</ele>
        <time>2022-09-17T13:18:32.000Z</time>
      </trkpt>
      <trkpt lat="45.86011" lon="4.69945">
        <ele>194.19901</ele>
        <time>2022-09-17T13:18:33.000Z</time>
      </trkpt>
      <trkpt lat="45.86014" lon="4.69945">
        <ele>194.63943</ele>
        <time>2022-09-17T13:18:34.000Z</time>
      </trkpt>
      <trkpt lat="45.86018" lon="4.69946">
        <ele>195.07455</ele>
        <time>2022-09-17T13:18:35.000Z</time>
      </trkpt>
      <trkpt lat="45.86021" lon="4.69946">
        <ele>195.45857</ele>
        <time>2022-09-17T13:18:36.000Z</time>
      </trkpt>
      <trkpt lat="45.86024" lon="4.69947">
        <ele>195.84793</ele>
        <time>2022-09-17T13:18:37.000Z</time>
      </trkpt>
      <trkpt lat="45.86027" lon="4.69947">
        <ele>196.19783</ele>
        <time>2022-09-17T13:18:38.000Z</time>
      </trkpt>
      <trkpt lat="45.86031" lon="4.69949">
        <ele>196.43607</ele>
        <time>2022-09-17T13:18:39.000Z</time>
      </trkpt>
      <trkpt lat="45.86034" lon="4.6995">
        <ele>196.62276</ele>
        <time>2022-09-17T13:18:40.000Z</time>
      </trkpt>
      <trkpt lat="45.86038" lon="4.6995">
        <ele>196.80374</ele>
        <time>2022-09-17T13:18:41.000Z</time>
      </trkpt>
      <trkpt lat="45.86043" lon="4.69951">
        <ele>196.94362</ele>
        <time>2022-09-17T13:18:42.000Z</time>
      </trkpt>
      <trkpt lat="45.86047" lon="4.69952">
        <ele>197.25845</ele>
        <time>2022-09-17T13:18:43.000Z</time>
      </trkpt>
      <trkpt lat="45.86051" lon="4.69952">
        <ele>197.56287</ele>
        <time>2022-09-17T13:18:44.000Z</time>
      </trkpt>
      <trkpt lat="45.86055" lon="4.69953">
        <ele>197.74335</ele>
        <time>2022-09-17T13:18:45.000Z</time>
      </trkpt>
      <trkpt lat="45.86059" lon="4.69954">
        <ele>197.9003</ele>
        <time>2022-09-17T13:18:46.000Z</time>
      </trkpt>
      <trkpt lat="45.86063" lon="4.69954">
        <ele>198.04514</ele>
        <time>2022-09-17T13:18:47.000Z</time>
      </trkpt>
      <trkpt lat="45.86067" lon="4.69953">
        <ele>198.1723</ele>
        <time>2022-09-17T13:18:48.000Z</time>
      </trkpt>
      <trkpt lat="45.86071" lon="4.69952">
        <ele>198.19351</ele>
        <time>2022-09-17T13:18:49.000Z</time>
      </trkpt>
      <trkpt lat="45.86075" lon="4.69951">
        <ele>198.1808</ele>
        <time>2022-09-17T13:18:50.000Z</time>
      </trkpt>
      <trkpt lat="45.86078" lon="4.6995">
        <ele>198.05853</ele>
        <time>2022-09-17T13:18:51.000Z</time>
      </trkpt>
      <trkpt lat="45.86081" lon="4.69949">
        <ele>197.8488</ele>
        <time>2022-09-17T13:18:52.000Z</time>
      </trkpt>
      <trkpt lat="45.86084" lon="4.69947">
        <ele>197.59938</ele>
        <time>2022-09-17T13:18:53.000Z</time>
      </trkpt>
      <trkpt lat="45.86087" lon="4.69946">
        <ele>197.32993</ele>
        <time>2022-09-17T13:18:54.000Z</time>
      </trkpt>
      <trkpt lat="45.8609" lon="4.69944">
        <ele>197.09785</ele>
        <time>2022-09-17T13:18:55.000Z</time>
      </trkpt>
      <trkpt lat="45.86094" lon="4.69943">
        <ele>196.78098</ele>
        <time>2022-09-17T13:18:56.000Z</time>
      </trkpt>
      <trkpt lat="45.86098" lon="4.69943">
        <ele>196.28502</ele>
        <time>2022-09-17T13:18:57.000Z</time>
      </trkpt>
      <trkpt lat="45.86102" lon="4.69942">
        <ele>195.81566</ele>
        <time>2022-09-17T13:18:58.000Z</time>
      </trkpt>
      <trkpt lat="45.86107" lon="4.69942">
        <ele>195.41202</ele>
        <time>2022-09-17T13:18:59.000Z</time>
      </trkpt>
      <trkpt lat="45.86111" lon="4.69941">
        <ele>195.06114</ele>
        <time>2022-09-17T13:19:00.000Z</time>
      </trkpt>
      <trkpt lat="45.86115" lon="4.69939">
        <ele>194.70966</ele>
        <time>2022-09-17T13:19:01.000Z</time>
      </trkpt>
      <trkpt lat="45.8612" lon="4.69937">
        <ele>194.39407</ele>
        <time>2022-09-17T13:19:02.000Z</time>
      </trkpt>
      <trkpt lat="45.86124" lon="4.69935">
        <ele>194.07431</ele>
        <time>2022-09-17T13:19:03.000Z</time>
      </trkpt>
      <trkpt lat="45.86128" lon="4.69933">
        <ele>193.67239</ele>
        <time>2022-09-17T13:19:04.000Z</time>
      </trkpt>
      <trkpt lat="45.86132" lon="4.69931">
        <ele>193.35176</ele>
        <time>2022-09-17T13:19:05.000Z</time>
      </trkpt>
      <trkpt lat="45.86136" lon="4.69928">
        <ele>193.05037</ele>
        <time>2022-09-17T13:19:06.000Z</time>
      </trkpt>
      <trkpt lat="45.8614" lon="4.69925">
        <ele>192.69725</ele>
        <time>2022-09-17T13:19:07.000Z</time>
      </trkpt>
      <trkpt lat="45.86143" lon="4.69922">
        <ele>192.34097</ele>
        <time>2022-09-17T13:19:08.000Z</time>
      </trkpt>
      <trkpt lat="45.86147" lon="4.6992">
        <ele>192.02036</ele>
        <time>2022-09-17T13:19:09.000Z</time>
      </trkpt>
      <trkpt lat="45.8615" lon="4.69916">
        <ele>191.65154</ele>
        <time>2022-09-17T13:19:10.000Z</time>
      </trkpt>
      <trkpt lat="45.86154" lon="4.69913">
        <ele>191.2827</ele>
        <time>2022-09-17T13:19:11.000Z</time>
      </trkpt>
      <trkpt lat="45.86157" lon="4.6991">
        <ele>190.91277</ele>
        <time>2022-09-17T13:19:12.000Z</time>
      </trkpt>
      <trkpt lat="45.86161" lon="4.69907">
        <ele>190.71408</ele>
        <time>2022-09-17T13:19:13.000Z</time>
      </trkpt>
      <trkpt lat="45.86166" lon="4.69904">
        <ele>190.56897</ele>
        <time>2022-09-17T13:19:14.000Z</time>
      </trkpt>
      <trkpt lat="45.8617" lon="4.69901">
        <ele>190.3983</ele>
        <time>2022-09-17T13:19:15.000Z</time>
      </trkpt>
      <trkpt lat="45.86175" lon="4.69899">
        <ele>190.23038</ele>
        <time>2022-09-17T13:19:16.000Z</time>
      </trkpt>
      <trkpt lat="45.86179" lon="4.69896">
        <ele>190.24728</ele>
        <time>2022-09-17T13:19:17.000Z</time>
      </trkpt>
      <trkpt lat="45.86187" lon="4.69891">
        <ele>190.22641</ele>
        <time>2022-09-17T13:19:18.000Z</time>
      </trkpt>
      <trkpt lat="45.86191" lon="4.69888">
        <ele>190.23306</ele>
        <time>2022-09-17T13:19:19.000Z</time>
      </trkpt>
      <trkpt lat="45.86194" lon="4.69886">
        <ele>190.12691</ele>
        <time>2022-09-17T13:19:20.000Z</time>
      </trkpt>
      <trkpt lat="45.86198" lon="4.69883">
        <ele>190.01828</ele>
        <time>2022-09-17T13:19:21.000Z</time>
      </trkpt>
      <trkpt lat="45.86201" lon="4.6988">
        <ele>189.87625</ele>
        <time>2022-09-17T13:19:22.000Z</time>
      </trkpt>
      <trkpt lat="45.86203" lon="4.69876">
        <ele>189.55501</ele>
        <time>2022-09-17T13:19:23.000Z</time>
      </trkpt>
      <trkpt lat="45.86206" lon="4.69871">
        <ele>189.22966</ele>
        <time>2022-09-17T13:19:24.000Z</time>
      </trkpt>
      <trkpt lat="45.8621" lon="4.69868">
        <ele>188.91049</ele>
        <time>2022-09-17T13:19:25.000Z</time>
      </trkpt>
      <trkpt lat="45.86214" lon="4.69865">
        <ele>188.56979</ele>
        <time>2022-09-17T13:19:26.000Z</time>
      </trkpt>
      <trkpt lat="45.86217" lon="4.69862">
        <ele>188.23782</ele>
        <time>2022-09-17T13:19:27.000Z</time>
      </trkpt>
      <trkpt lat="45.8622" lon="4.69859">
        <ele>187.80641</ele>
        <time>2022-09-17T13:19:28.000Z</time>
      </trkpt>
      <trkpt lat="45.86224" lon="4.69856">
        <ele>187.38268</ele>
        <time>2022-09-17T13:19:29.000Z</time>
      </trkpt>
      <trkpt lat="45.86227" lon="4.69853">
        <ele>187.00262</ele>
        <time>2022-09-17T13:19:30.000Z</time>
      </trkpt>
      <trkpt lat="45.86231" lon="4.69851">
        <ele>186.6821</ele>
        <time>2022-09-17T13:19:31.000Z</time>
      </trkpt>
      <trkpt lat="45.86235" lon="4.69849">
        <ele>186.36884</ele>
        <time>2022-09-17T13:19:32.000Z</time>
      </trkpt>
      <trkpt lat="45.86241" lon="4.69848">
        <ele>185.91006</ele>
        <time>2022-09-17T13:19:33.000Z</time>
      </trkpt>
      <trkpt lat="45.86245" lon="4.69846">
        <ele>185.42448</ele>
        <time>2022-09-17T13:19:34.000Z</time>
      </trkpt>
      <trkpt lat="45.8625" lon="4.69845">
        <ele>184.98828</ele>
        <time>2022-09-17T13:19:35.000Z</time>
      </trkpt>
      <trkpt lat="45.86255" lon="4.69848">
        <ele>184.59705</ele>
        <time>2022-09-17T13:19:36.000Z</time>
      </trkpt>
      <trkpt lat="45.8626" lon="4.69846">
        <ele>184.28972</ele>
        <time>2022-09-17T13:19:37.000Z</time>
      </trkpt>
      <trkpt lat="45.86263" lon="4.69843">
        <ele>183.87186</ele>
        <time>2022-09-17T13:19:38.000Z</time>
      </trkpt>
      <trkpt lat="45.86266" lon="4.69841">
        <ele>183.46532</ele>
        <time>2022-09-17T13:19:39.000Z</time>
      </trkpt>
      <trkpt lat="45.86271" lon="4.6984">
        <ele>183.13199</ele>
        <time>2022-09-17T13:19:40.000Z</time>
      </trkpt>
      <trkpt lat="45.86273" lon="4.69838">
        <ele>182.66592</ele>
        <time>2022-09-17T13:19:41.000Z</time>
      </trkpt>
      <trkpt lat="45.86277" lon="4.69835">
        <ele>182.2327</ele>
        <time>2022-09-17T13:19:42.000Z</time>
      </trkpt>
      <trkpt lat="45.86281" lon="4.69833">
        <ele>181.90323</ele>
        <time>2022-09-17T13:19:43.000Z</time>
      </trkpt>
      <trkpt lat="45.86286" lon="4.69832">
        <ele>181.6416</ele>
        <time>2022-09-17T13:19:44.000Z</time>
      </trkpt>
      <trkpt lat="45.8629" lon="4.69832">
        <ele>181.28291</ele>
        <time>2022-09-17T13:19:45.000Z</time>
      </trkpt>
      <trkpt lat="45.86295" lon="4.6983">
        <ele>180.95163</ele>
        <time>2022-09-17T13:19:46.000Z</time>
      </trkpt>
      <trkpt lat="45.863" lon="4.69831">
        <ele>180.73764</ele>
        <time>2022-09-17T13:19:47.000Z</time>
      </trkpt>
      <trkpt lat="45.86305" lon="4.6983">
        <ele>180.69382</ele>
        <time>2022-09-17T13:19:48.000Z</time>
      </trkpt>
      <trkpt lat="45.8631" lon="4.6983">
        <ele>180.70865</ele>
        <time>2022-09-17T13:19:49.000Z</time>
      </trkpt>
      <trkpt lat="45.86314" lon="4.69833">
        <ele>180.7462</ele>
        <time>2022-09-17T13:19:50.000Z</time>
      </trkpt>
      <trkpt lat="45.86315" lon="4.69835">
        <ele>180.7442</ele>
        <time>2022-09-17T13:19:51.000Z</time>
      </trkpt>
      <trkpt lat="45.86319" lon="4.69838">
        <ele>180.79005</ele>
        <time>2022-09-17T13:19:52.000Z</time>
      </trkpt>
      <trkpt lat="45.86322" lon="4.6984">
        <ele>180.86166</ele>
        <time>2022-09-17T13:19:53.000Z</time>
      </trkpt>
      <trkpt lat="45.86323" lon="4.69845">
        <ele>180.89975</ele>
        <time>2022-09-17T13:19:54.000Z</time>
      </trkpt>
      <trkpt lat="45.86324" lon="4.69849">
        <ele>180.94054</ele>
        <time>2022-09-17T13:19:55.000Z</time>
      </trkpt>
      <trkpt lat="45.86327" lon="4.69855">
        <ele>180.99969</ele>
        <time>2022-09-17T13:19:56.000Z</time>
      </trkpt>
      <trkpt lat="45.8633" lon="4.69862">
        <ele>180.96307</ele>
        <time>2022-09-17T13:19:57.000Z</time>
      </trkpt>
      <trkpt lat="45.86331" lon="4.69866">
        <ele>181.03358</ele>
        <time>2022-09-17T13:19:58.000Z</time>
      </trkpt>
      <trkpt lat="45.86333" lon="4.69872">
        <ele>181.08604</ele>
        <time>2022-09-17T13:19:59.000Z</time>
      </trkpt>
      <trkpt lat="45.86334" lon="4.69877">
        <ele>181.11533</ele>
        <time>2022-09-17T13:20:00.000Z</time>
      </trkpt>
      <trkpt lat="45.86336" lon="4.69882">
        <ele>181.3168</ele>
        <time>2022-09-17T13:20:01.000Z</time>
      </trkpt>
      <trkpt lat="45.86337" lon="4.69887">
        <ele>181.56764</ele>
        <time>2022-09-17T13:20:02.000Z</time>
      </trkpt>
      <trkpt lat="45.86339" lon="4.69891">
        <ele>181.84944</ele>
        <time>2022-09-17T13:20:03.000Z</time>
      </trkpt>
      <trkpt lat="45.86341" lon="4.69896">
        <ele>182.06596</ele>
        <time>2022-09-17T13:20:04.000Z</time>
      </trkpt>
      <trkpt lat="45.86343" lon="4.69901">
        <ele>182.29848</ele>
        <time>2022-09-17T13:20:05.000Z</time>
      </trkpt>
      <trkpt lat="45.86345" lon="4.69906">
        <ele>182.57285</ele>
        <time>2022-09-17T13:20:06.000Z</time>
      </trkpt>
      <trkpt lat="45.86346" lon="4.6991">
        <ele>182.92572</ele>
        <time>2022-09-17T13:20:07.000Z</time>
      </trkpt>
      <trkpt lat="45.86348" lon="4.69915">
        <ele>183.15007</ele>
        <time>2022-09-17T13:20:08.000Z</time>
      </trkpt>
      <trkpt lat="45.8635" lon="4.69919">
        <ele>183.33307</ele>
        <time>2022-09-17T13:20:09.000Z</time>
      </trkpt>
      <trkpt lat="45.86352" lon="4.69925">
        <ele>183.47345</ele>
        <time>2022-09-17T13:20:10.000Z</time>
      </trkpt>
      <trkpt lat="45.86353" lon="4.6993">
        <ele>183.6788</ele>
        <time>2022-09-17T13:20:11.000Z</time>
      </trkpt>
      <trkpt lat="45.86354" lon="4.69936">
        <ele>183.85957</ele>
        <time>2022-09-17T13:20:12.000Z</time>
      </trkpt>
      <trkpt lat="45.86355" lon="4.69941">
        <ele>183.96492</ele>
        <time>2022-09-17T13:20:13.000Z</time>
      </trkpt>
      <trkpt lat="45.86356" lon="4.69947">
        <ele>184.03558</ele>
        <time>2022-09-17T13:20:14.000Z</time>
      </trkpt>
      <trkpt lat="45.86357" lon="4.69954">
        <ele>184.04834</ele>
        <time>2022-09-17T13:20:15.000Z</time>
      </trkpt>
      <trkpt lat="45.86358" lon="4.6996">
        <ele>184.08751</ele>
        <time>2022-09-17T13:20:16.000Z</time>
      </trkpt>
      <trkpt lat="45.86358" lon="4.69966">
        <ele>184.11478</ele>
        <time>2022-09-17T13:20:17.000Z</time>
      </trkpt>
      <trkpt lat="45.86358" lon="4.69973">
        <ele>184.14146</ele>
        <time>2022-09-17T13:20:18.000Z</time>
      </trkpt>
      <trkpt lat="45.86358" lon="4.69979">
        <ele>184.1266</ele>
        <time>2022-09-17T13:20:19.000Z</time>
      </trkpt>
      <trkpt lat="45.86358" lon="4.69985">
        <ele>184.18497</ele>
        <time>2022-09-17T13:20:20.000Z</time>
      </trkpt>
      <trkpt lat="45.86357" lon="4.6999">
        <ele>184.20444</ele>
        <time>2022-09-17T13:20:21.000Z</time>
      </trkpt>
      <trkpt lat="45.86356" lon="4.69995">
        <ele>184.15163</ele>
        <time>2022-09-17T13:20:22.000Z</time>
      </trkpt>
      <trkpt lat="45.86356" lon="4.7">
        <ele>184.06906</ele>
        <time>2022-09-17T13:20:23.000Z</time>
      </trkpt>
      <trkpt lat="45.86355" lon="4.70005">
        <ele>183.97998</ele>
        <time>2022-09-17T13:20:24.000Z</time>
      </trkpt>
      <trkpt lat="45.86355" lon="4.70011">
        <ele>183.91983</ele>
        <time>2022-09-17T13:20:25.000Z</time>
      </trkpt>
      <trkpt lat="45.86355" lon="4.70016">
        <ele>183.87872</ele>
        <time>2022-09-17T13:20:26.000Z</time>
      </trkpt>
      <trkpt lat="45.86354" lon="4.7002">
        <ele>183.64694</ele>
        <time>2022-09-17T13:20:27.000Z</time>
      </trkpt>
      <trkpt lat="45.86353" lon="4.70025">
        <ele>183.53282</ele>
        <time>2022-09-17T13:20:28.000Z</time>
      </trkpt>
      <trkpt lat="45.86351" lon="4.7003">
        <ele>183.34126</ele>
        <time>2022-09-17T13:20:29.000Z</time>
      </trkpt>
      <trkpt lat="45.8635" lon="4.70036">
        <ele>183.12732</ele>
        <time>2022-09-17T13:20:30.000Z</time>
      </trkpt>
      <trkpt lat="45.86348" lon="4.70041">
        <ele>182.87289</ele>
        <time>2022-09-17T13:20:31.000Z</time>
      </trkpt>
      <trkpt lat="45.86347" lon="4.70047">
        <ele>182.59152</ele>
        <time>2022-09-17T13:20:32.000Z</time>
      </trkpt>
      <trkpt lat="45.86345" lon="4.70053">
        <ele>182.45299</ele>
        <time>2022-09-17T13:20:33.000Z</time>
      </trkpt>
      <trkpt lat="45.86344" lon="4.70059">
        <ele>182.29128</ele>
        <time>2022-09-17T13:20:34.000Z</time>
      </trkpt>
      <trkpt lat="45.86342" lon="4.70065">
        <ele>182.13863</ele>
        <time>2022-09-17T13:20:35.000Z</time>
      </trkpt>
      <trkpt lat="45.86342" lon="4.70071">
        <ele>181.85565</ele>
        <time>2022-09-17T13:20:36.000Z</time>
      </trkpt>
      <trkpt lat="45.86341" lon="4.70077">
        <ele>181.61938</ele>
        <time>2022-09-17T13:20:37.000Z</time>
      </trkpt>
      <trkpt lat="45.86339" lon="4.70083">
        <ele>181.40932</ele>
        <time>2022-09-17T13:20:38.000Z</time>
      </trkpt>
      <trkpt lat="45.86338" lon="4.70089">
        <ele>181.19159</ele>
        <time>2022-09-17T13:20:39.000Z</time>
      </trkpt>
      <trkpt lat="45.86336" lon="4.70095">
        <ele>180.93007</ele>
        <time>2022-09-17T13:20:40.000Z</time>
      </trkpt>
      <trkpt lat="45.86334" lon="4.701">
        <ele>180.74139</ele>
        <time>2022-09-17T13:20:41.000Z</time>
      </trkpt>
      <trkpt lat="45.86331" lon="4.70106">
        <ele>180.64444</ele>
        <time>2022-09-17T13:20:42.000Z</time>
      </trkpt>
      <trkpt lat="45.86329" lon="4.70111">
        <ele>180.51254</ele>
        <time>2022-09-17T13:20:43.000Z</time>
      </trkpt>
      <trkpt lat="45.86327" lon="4.70115">
        <ele>180.4675</ele>
        <time>2022-09-17T13:20:44.000Z</time>
      </trkpt>
      <trkpt lat="45.86324" lon="4.70119">
        <ele>180.43318</ele>
        <time>2022-09-17T13:20:45.000Z</time>
      </trkpt>
      <trkpt lat="45.86321" lon="4.70124">
        <ele>180.3665</ele>
        <time>2022-09-17T13:20:46.000Z</time>
      </trkpt>
      <trkpt lat="45.86319" lon="4.70129">
        <ele>180.27141</ele>
        <time>2022-09-17T13:20:47.000Z</time>
      </trkpt>
      <trkpt lat="45.86316" lon="4.70134">
        <ele>180.11777</ele>
        <time>2022-09-17T13:20:48.000Z</time>
      </trkpt>
      <trkpt lat="45.86313" lon="4.70139">
        <ele>179.96754</ele>
        <time>2022-09-17T13:20:49.000Z</time>
      </trkpt>
      <trkpt lat="45.86311" lon="4.70143">
        <ele>179.73235</ele>
        <time>2022-09-17T13:20:50.000Z</time>
      </trkpt>
      <trkpt lat="45.86308" lon="4.70147">
        <ele>179.44016</ele>
        <time>2022-09-17T13:20:51.000Z</time>
      </trkpt>
      <trkpt lat="45.863" lon="4.70152">
        <ele>179.04898</ele>
        <time>2022-09-17T13:20:52.000Z</time>
      </trkpt>
      <trkpt lat="45.86298" lon="4.70154">
        <ele>178.57152</ele>
        <time>2022-09-17T13:20:53.000Z</time>
      </trkpt>
      <trkpt lat="45.86292" lon="4.70158">
        <ele>178.08415</ele>
        <time>2022-09-17T13:20:54.000Z</time>
      </trkpt>
      <trkpt lat="45.86288" lon="4.70163">
        <ele>177.64761</ele>
        <time>2022-09-17T13:20:55.000Z</time>
      </trkpt>
      <trkpt lat="45.86285" lon="4.70167">
        <ele>177.30118</ele>
        <time>2022-09-17T13:20:56.000Z</time>
      </trkpt>
      <trkpt lat="45.8628" lon="4.7017">
        <ele>176.84415</ele>
        <time>2022-09-17T13:20:57.000Z</time>
      </trkpt>
      <trkpt lat="45.86278" lon="4.70175">
        <ele>176.40887</ele>
        <time>2022-09-17T13:20:58.000Z</time>
      </trkpt>
      <trkpt lat="45.86274" lon="4.7018">
        <ele>176.04504</ele>
        <time>2022-09-17T13:20:59.000Z</time>
      </trkpt>
      <trkpt lat="45.86271" lon="4.70184">
        <ele>175.71237</ele>
        <time>2022-09-17T13:21:00.000Z</time>
      </trkpt>
      <trkpt lat="45.86267" lon="4.70188">
        <ele>175.35439</ele>
        <time>2022-09-17T13:21:01.000Z</time>
      </trkpt>
      <trkpt lat="45.86262" lon="4.70193">
        <ele>174.85397</ele>
        <time>2022-09-17T13:21:02.000Z</time>
      </trkpt>
      <trkpt lat="45.86258" lon="4.70198">
        <ele>174.38849</ele>
        <time>2022-09-17T13:21:03.000Z</time>
      </trkpt>
      <trkpt lat="45.86254" lon="4.70202">
        <ele>173.8717</ele>
        <time>2022-09-17T13:21:04.000Z</time>
      </trkpt>
      <trkpt lat="45.86253" lon="4.70208">
        <ele>173.32422</ele>
        <time>2022-09-17T13:21:05.000Z</time>
      </trkpt>
      <trkpt lat="45.86249" lon="4.70214">
        <ele>172.7836</ele>
        <time>2022-09-17T13:21:06.000Z</time>
      </trkpt>
      <trkpt lat="45.86246" lon="4.70218">
        <ele>172.30644</ele>
        <time>2022-09-17T13:21:07.000Z</time>
      </trkpt>
      <trkpt lat="45.86244" lon="4.70224">
        <ele>171.89073</ele>
        <time>2022-09-17T13:21:08.000Z</time>
      </trkpt>
      <trkpt lat="45.8624" lon="4.7023">
        <ele>171.61652</ele>
        <time>2022-09-17T13:21:09.000Z</time>
      </trkpt>
      <trkpt lat="45.86239" lon="4.70236">
        <ele>171.49112</ele>
        <time>2022-09-17T13:21:10.000Z</time>
      </trkpt>
      <trkpt lat="45.86237" lon="4.70242">
        <ele>171.3981</ele>
        <time>2022-09-17T13:21:11.000Z</time>
      </trkpt>
      <trkpt lat="45.86235" lon="4.70247">
        <ele>171.39516</ele>
        <time>2022-09-17T13:21:12.000Z</time>
      </trkpt>
      <trkpt lat="45.86233" lon="4.70252">
        <ele>171.31964</ele>
        <time>2022-09-17T13:21:13.000Z</time>
      </trkpt>
      <trkpt lat="45.86232" lon="4.70257">
        <ele>171.28397</ele>
        <time>2022-09-17T13:21:14.000Z</time>
      </trkpt>
      <trkpt lat="45.86231" lon="4.70263">
        <ele>171.32808</ele>
        <time>2022-09-17T13:21:15.000Z</time>
      </trkpt>
      <trkpt lat="45.8623" lon="4.7027">
        <ele>171.40494</ele>
        <time>2022-09-17T13:21:16.000Z</time>
      </trkpt>
      <trkpt lat="45.8623" lon="4.70276">
        <ele>171.59796</ele>
        <time>2022-09-17T13:21:17.000Z</time>
      </trkpt>
      <trkpt lat="45.86227" lon="4.70282">
        <ele>171.82257</ele>
        <time>2022-09-17T13:21:18.000Z</time>
      </trkpt>
      <trkpt lat="45.86225" lon="4.70287">
        <ele>172.04837</ele>
        <time>2022-09-17T13:21:19.000Z</time>
      </trkpt>
      <trkpt lat="45.86223" lon="4.70293">
        <ele>172.25832</ele>
        <time>2022-09-17T13:21:20.000Z</time>
      </trkpt>
      <trkpt lat="45.86221" lon="4.70299">
        <ele>172.47513</ele>
        <time>2022-09-17T13:21:21.000Z</time>
      </trkpt>
      <trkpt lat="45.86219" lon="4.70304">
        <ele>172.7888</ele>
        <time>2022-09-17T13:21:22.000Z</time>
      </trkpt>
      <trkpt lat="45.86218" lon="4.7031">
        <ele>173.05875</ele>
        <time>2022-09-17T13:21:23.000Z</time>
      </trkpt>
      <trkpt lat="45.86216" lon="4.70315">
        <ele>173.37192</ele>
        <time>2022-09-17T13:21:24.000Z</time>
      </trkpt>
      <trkpt lat="45.86214" lon="4.7032">
        <ele>173.7198</ele>
        <time>2022-09-17T13:21:25.000Z</time>
      </trkpt>
      <trkpt lat="45.86212" lon="4.70326">
        <ele>174.08121</ele>
        <time>2022-09-17T13:21:26.000Z</time>
      </trkpt>
      <trkpt lat="45.86211" lon="4.70332">
        <ele>174.46385</ele>
        <time>2022-09-17T13:21:27.000Z</time>
      </trkpt>
      <trkpt lat="45.8621" lon="4.70339">
        <ele>174.87381</ele>
        <time>2022-09-17T13:21:28.000Z</time>
      </trkpt>
      <trkpt lat="45.86209" lon="4.70345">
        <ele>175.29288</ele>
        <time>2022-09-17T13:21:29.000Z</time>
      </trkpt>
      <trkpt lat="45.86208" lon="4.70352">
        <ele>175.68982</ele>
        <time>2022-09-17T13:21:30.000Z</time>
      </trkpt>
      <trkpt lat="45.86206" lon="4.70359">
        <ele>176.17624</ele>
        <time>2022-09-17T13:21:31.000Z</time>
      </trkpt>
      <trkpt lat="45.86205" lon="4.70362">
        <ele>176.60916</ele>
        <time>2022-09-17T13:21:32.000Z</time>
      </trkpt>
      <trkpt lat="45.86204" lon="4.70366">
        <ele>177.04391</ele>
        <time>2022-09-17T13:21:33.000Z</time>
      </trkpt>
      <trkpt lat="45.86202" lon="4.70369">
        <ele>177.44724</ele>
        <time>2022-09-17T13:21:34.000Z</time>
      </trkpt>
      <trkpt lat="45.86199" lon="4.70374">
        <ele>177.77182</ele>
        <time>2022-09-17T13:21:35.000Z</time>
      </trkpt>
      <trkpt lat="45.86196" lon="4.70375">
        <ele>178.01784</ele>
        <time>2022-09-17T13:21:36.000Z</time>
      </trkpt>
      <trkpt lat="45.86192" lon="4.70376">
        <ele>178.26398</ele>
        <time>2022-09-17T13:21:37.000Z</time>
      </trkpt>
      <trkpt lat="45.86189" lon="4.70376">
        <ele>178.5452</ele>
        <time>2022-09-17T13:21:38.000Z</time>
      </trkpt>
      <trkpt lat="45.86185" lon="4.70375">
        <ele>178.84775</ele>
        <time>2022-09-17T13:21:39.000Z</time>
      </trkpt>
      <trkpt lat="45.86181" lon="4.70374">
        <ele>179.18839</ele>
        <time>2022-09-17T13:21:40.000Z</time>
      </trkpt>
      <trkpt lat="45.86178" lon="4.70372">
        <ele>179.50264</ele>
        <time>2022-09-17T13:21:41.000Z</time>
      </trkpt>
      <trkpt lat="45.86174" lon="4.7037">
        <ele>179.81602</ele>
        <time>2022-09-17T13:21:42.000Z</time>
      </trkpt>
      <trkpt lat="45.8617" lon="4.70368">
        <ele>180.13542</ele>
        <time>2022-09-17T13:21:43.000Z</time>
      </trkpt>
      <trkpt lat="45.86166" lon="4.70366">
        <ele>180.38095</ele>
        <time>2022-09-17T13:21:44.000Z</time>
      </trkpt>
      <trkpt lat="45.86162" lon="4.70365">
        <ele>180.62021</ele>
        <time>2022-09-17T13:21:45.000Z</time>
      </trkpt>
      <trkpt lat="45.86159" lon="4.70364">
        <ele>180.82632</ele>
        <time>2022-09-17T13:21:46.000Z</time>
      </trkpt>
      <trkpt lat="45.86154" lon="4.70364">
        <ele>181.0114</ele>
        <time>2022-09-17T13:21:47.000Z</time>
      </trkpt>
      <trkpt lat="45.86151" lon="4.70363">
        <ele>181.14792</ele>
        <time>2022-09-17T13:21:48.000Z</time>
      </trkpt>
      <trkpt lat="45.86147" lon="4.70363">
        <ele>181.21629</ele>
        <time>2022-09-17T13:21:49.000Z</time>
      </trkpt>
      <trkpt lat="45.86143" lon="4.70363">
        <ele>181.25089</ele>
        <time>2022-09-17T13:21:50.000Z</time>
      </trkpt>
      <trkpt lat="45.8614" lon="4.70364">
        <ele>181.18576</ele>
        <time>2022-09-17T13:21:51.000Z</time>
      </trkpt>
      <trkpt lat="45.86137" lon="4.70363">
        <ele>181.18661</ele>
        <time>2022-09-17T13:21:52.000Z</time>
      </trkpt>
      <trkpt lat="45.86134" lon="4.70363">
        <ele>181.22098</ele>
        <time>2022-09-17T13:21:53.000Z</time>
      </trkpt>
      <trkpt lat="45.86131" lon="4.70363">
        <ele>181.33867</ele>
        <time>2022-09-17T13:21:54.000Z</time>
      </trkpt>
      <trkpt lat="45.86128" lon="4.70363">
        <ele>181.48013</ele>
        <time>2022-09-17T13:21:55.000Z</time>
      </trkpt>
      <trkpt lat="45.86125" lon="4.70363">
        <ele>181.63737</ele>
        <time>2022-09-17T13:21:56.000Z</time>
      </trkpt>
      <trkpt lat="45.86122" lon="4.70363">
        <ele>181.74556</ele>
        <time>2022-09-17T13:21:57.000Z</time>
      </trkpt>
      <trkpt lat="45.86119" lon="4.70363">
        <ele>181.66862</ele>
        <time>2022-09-17T13:21:58.000Z</time>
      </trkpt>
      <trkpt lat="45.86115" lon="4.70362">
        <ele>181.58545</ele>
        <time>2022-09-17T13:21:59.000Z</time>
      </trkpt>
      <trkpt lat="45.86112" lon="4.70362">
        <ele>181.50717</ele>
        <time>2022-09-17T13:22:00.000Z</time>
      </trkpt>
      <trkpt lat="45.86109" lon="4.70362">
        <ele>181.4666</ele>
        <time>2022-09-17T13:22:01.000Z</time>
      </trkpt>
      <trkpt lat="45.86105" lon="4.70362">
        <ele>181.44891</ele>
        <time>2022-09-17T13:22:02.000Z</time>
      </trkpt>
      <trkpt lat="45.86102" lon="4.70362">
        <ele>181.48337</ele>
        <time>2022-09-17T13:22:03.000Z</time>
      </trkpt>
      <trkpt lat="45.86099" lon="4.70362">
        <ele>181.67526</ele>
        <time>2022-09-17T13:22:04.000Z</time>
      </trkpt>
      <trkpt lat="45.86097" lon="4.70362">
        <ele>181.83859</ele>
        <time>2022-09-17T13:22:05.000Z</time>
      </trkpt>
      <trkpt lat="45.86094" lon="4.70364">
        <ele>182.02792</ele>
        <time>2022-09-17T13:22:07.000Z</time>
      </trkpt>
      <trkpt lat="45.86092" lon="4.70365">
        <ele>182.23288</ele>
        <time>2022-09-17T13:22:09.000Z</time>
      </trkpt>
      <trkpt lat="45.8609" lon="4.70366">
        <ele>182.52003</ele>
        <time>2022-09-17T13:22:17.000Z</time>
      </trkpt>
      <trkpt lat="45.86088" lon="4.70366">
        <ele>182.72458</ele>
        <time>2022-09-17T13:22:18.000Z</time>
      </trkpt>
      <trkpt lat="45.86086" lon="4.70366">
        <ele>182.9558</ele>
        <time>2022-09-17T13:22:19.000Z</time>
      </trkpt>
      <trkpt lat="45.86083" lon="4.70365">
        <ele>183.21634</ele>
        <time>2022-09-17T13:22:20.000Z</time>
      </trkpt>
      <trkpt lat="45.86081" lon="4.70365">
        <ele>183.38666</ele>
        <time>2022-09-17T13:22:21.000Z</time>
      </trkpt>
      <trkpt lat="45.86079" lon="4.70365">
        <ele>183.57668</ele>
        <time>2022-09-17T13:22:22.000Z</time>
      </trkpt>
      <trkpt lat="45.86077" lon="4.70364">
        <ele>183.72911</ele>
        <time>2022-09-17T13:22:23.000Z</time>
      </trkpt>
      <trkpt lat="45.86074" lon="4.70364">
        <ele>183.86201</ele>
        <time>2022-09-17T13:22:24.000Z</time>
      </trkpt>
      <trkpt lat="45.86072" lon="4.70364">
        <ele>183.99942</ele>
        <time>2022-09-17T13:22:25.000Z</time>
      </trkpt>
      <trkpt lat="45.8607" lon="4.70362">
        <ele>184.13614</ele>
        <time>2022-09-17T13:22:26.000Z</time>
      </trkpt>
      <trkpt lat="45.86067" lon="4.70361">
        <ele>184.38097</ele>
        <time>2022-09-17T13:22:27.000Z</time>
      </trkpt>
      <trkpt lat="45.86065" lon="4.7036">
        <ele>184.63121</ele>
        <time>2022-09-17T13:22:28.000Z</time>
      </trkpt>
      <trkpt lat="45.86062" lon="4.70359">
        <ele>184.87099</ele>
        <time>2022-09-17T13:22:29.000Z</time>
      </trkpt>
      <trkpt lat="45.8606" lon="4.70359">
        <ele>185.08289</ele>
        <time>2022-09-17T13:22:30.000Z</time>
      </trkpt>
      <trkpt lat="45.86057" lon="4.70359">
        <ele>185.25238</ele>
        <time>2022-09-17T13:22:31.000Z</time>
      </trkpt>
      <trkpt lat="45.86055" lon="4.70359">
        <ele>185.40381</ele>
        <time>2022-09-17T13:22:32.000Z</time>
      </trkpt>
      <trkpt lat="45.86052" lon="4.70359">
        <ele>185.49878</ele>
        <time>2022-09-17T13:22:33.000Z</time>
      </trkpt>
      <trkpt lat="45.86049" lon="4.70358">
        <ele>185.61586</ele>
        <time>2022-09-17T13:22:34.000Z</time>
      </trkpt>
      <trkpt lat="45.86047" lon="4.70357">
        <ele>185.70038</ele>
        <time>2022-09-17T13:22:35.000Z</time>
      </trkpt>
      <trkpt lat="45.86044" lon="4.70357">
        <ele>185.75053</ele>
        <time>2022-09-17T13:22:36.000Z</time>
      </trkpt>
      <trkpt lat="45.86042" lon="4.70356">
        <ele>185.73036</ele>
        <time>2022-09-17T13:22:37.000Z</time>
      </trkpt>
      <trkpt lat="45.86039" lon="4.70356">
        <ele>185.81944</ele>
        <time>2022-09-17T13:22:38.000Z</time>
      </trkpt>
      <trkpt lat="45.86036" lon="4.70356">
        <ele>185.83109</ele>
        <time>2022-09-17T13:22:39.000Z</time>
      </trkpt>
      <trkpt lat="45.86033" lon="4.70356">
        <ele>185.88872</ele>
        <time>2022-09-17T13:22:40.000Z</time>
      </trkpt>
      <trkpt lat="45.8603" lon="4.70356">
        <ele>186.0311</ele>
        <time>2022-09-17T13:22:41.000Z</time>
      </trkpt>
      <trkpt lat="45.86028" lon="4.70356">
        <ele>186.20988</ele>
        <time>2022-09-17T13:22:42.000Z</time>
      </trkpt>
      <trkpt lat="45.86026" lon="4.70357">
        <ele>186.38632</ele>
        <time>2022-09-17T13:22:43.000Z</time>
      </trkpt>
      <trkpt lat="45.86024" lon="4.70356">
        <ele>186.58621</ele>
        <time>2022-09-17T13:22:44.000Z</time>
      </trkpt>
      <trkpt lat="45.86022" lon="4.70356">
        <ele>186.80083</ele>
        <time>2022-09-17T13:22:45.000Z</time>
      </trkpt>
      <trkpt lat="45.86019" lon="4.70355">
        <ele>187.04375</ele>
        <time>2022-09-17T13:22:46.000Z</time>
      </trkpt>
      <trkpt lat="45.86016" lon="4.70354">
        <ele>187.30205</ele>
        <time>2022-09-17T13:22:47.000Z</time>
      </trkpt>
      <trkpt lat="45.86013" lon="4.70353">
        <ele>187.52275</ele>
        <time>2022-09-17T13:22:48.000Z</time>
      </trkpt>
      <trkpt lat="45.8601" lon="4.70353">
        <ele>187.68655</ele>
        <time>2022-09-17T13:22:49.000Z</time>
      </trkpt>
      <trkpt lat="45.86007" lon="4.70353">
        <ele>187.84198</ele>
        <time>2022-09-17T13:22:50.000Z</time>
      </trkpt>
      <trkpt lat="45.86003" lon="4.70352">
        <ele>188.06184</ele>
        <time>2022-09-17T13:22:51.000Z</time>
      </trkpt>
      <trkpt lat="45.86" lon="4.70352">
        <ele>188.31175</ele>
        <time>2022-09-17T13:22:52.000Z</time>
      </trkpt>
      <trkpt lat="45.85997" lon="4.70352">
        <ele>188.52307</ele>
        <time>2022-09-17T13:22:53.000Z</time>
      </trkpt>
      <trkpt lat="45.85994" lon="4.70352">
        <ele>188.80103</ele>
        <time>2022-09-17T13:22:54.000Z</time>
      </trkpt>
      <trkpt lat="45.85991" lon="4.70352">
        <ele>189.12189</ele>
        <time>2022-09-17T13:22:55.000Z</time>
      </trkpt>
      <trkpt lat="45.85988" lon="4.70352">
        <ele>189.47626</ele>
        <time>2022-09-17T13:22:56.000Z</time>
      </trkpt>
      <trkpt lat="45.85985" lon="4.70352">
        <ele>189.81467</ele>
        <time>2022-09-17T13:22:57.000Z</time>
      </trkpt>
      <trkpt lat="45.85982" lon="4.70352">
        <ele>190.1389</ele>
        <time>2022-09-17T13:22:58.000Z</time>
      </trkpt>
      <trkpt lat="45.85979" lon="4.70352">
        <ele>190.5368</ele>
        <time>2022-09-17T13:22:59.000Z</time>
      </trkpt>
      <trkpt lat="45.85976" lon="4.70351">
        <ele>190.90538</ele>
        <time>2022-09-17T13:23:00.000Z</time>
      </trkpt>
      <trkpt lat="45.85973" lon="4.70351">
        <ele>191.21025</ele>
        <time>2022-09-17T13:23:01.000Z</time>
      </trkpt>
      <trkpt lat="45.85971" lon="4.70351">
        <ele>191.50537</ele>
        <time>2022-09-17T13:23:02.000Z</time>
      </trkpt>
      <trkpt lat="45.85968" lon="4.7035">
        <ele>191.77797</ele>
        <time>2022-09-17T13:23:03.000Z</time>
      </trkpt>
      <trkpt lat="45.85966" lon="4.70351">
        <ele>192.01974</ele>
        <time>2022-09-17T13:23:04.000Z</time>
      </trkpt>
      <trkpt lat="45.85964" lon="4.70351">
        <ele>192.22397</ele>
        <time>2022-09-17T13:23:05.000Z</time>
      </trkpt>
      <trkpt lat="45.85962" lon="4.70352">
        <ele>192.41946</ele>
        <time>2022-09-17T13:23:06.000Z</time>
      </trkpt>
      <trkpt lat="45.8596" lon="4.70353">
        <ele>192.58627</ele>
        <time>2022-09-17T13:23:07.000Z</time>
      </trkpt>
      <trkpt lat="45.85957" lon="4.70353">
        <ele>192.79025</ele>
        <time>2022-09-17T13:23:09.000Z</time>
      </trkpt>
      <trkpt lat="45.85955" lon="4.7035">
        <ele>193.02003</ele>
        <time>2022-09-17T13:23:11.000Z</time>
      </trkpt>
      <trkpt lat="45.85953" lon="4.70348">
        <ele>193.23849</ele>
        <time>2022-09-17T13:23:12.000Z</time>
      </trkpt>
      <trkpt lat="45.85951" lon="4.70347">
        <ele>193.38516</ele>
        <time>2022-09-17T13:23:13.000Z</time>
      </trkpt>
      <trkpt lat="45.85949" lon="4.70346">
        <ele>193.4623</ele>
        <time>2022-09-17T13:23:14.000Z</time>
      </trkpt>
      <trkpt lat="45.85946" lon="4.70344">
        <ele>193.55182</ele>
        <time>2022-09-17T13:23:15.000Z</time>
      </trkpt>
      <trkpt lat="45.85943" lon="4.70343">
        <ele>193.56247</ele>
        <time>2022-09-17T13:23:16.000Z</time>
      </trkpt>
      <trkpt lat="45.8594" lon="4.70342">
        <ele>193.51213</ele>
        <time>2022-09-17T13:23:17.000Z</time>
      </trkpt>
      <trkpt lat="45.85937" lon="4.70341">
        <ele>193.4745</ele>
        <time>2022-09-17T13:23:18.000Z</time>
      </trkpt>
      <trkpt lat="45.85934" lon="4.7034">
        <ele>193.53011</ele>
        <time>2022-09-17T13:23:19.000Z</time>
      </trkpt>
      <trkpt lat="45.85931" lon="4.7034">
        <ele>193.60251</ele>
        <time>2022-09-17T13:23:20.000Z</time>
      </trkpt>
      <trkpt lat="45.85927" lon="4.70339">
        <ele>193.65773</ele>
        <time>2022-09-17T13:23:21.000Z</time>
      </trkpt>
      <trkpt lat="45.85924" lon="4.70339">
        <ele>193.67638</ele>
        <time>2022-09-17T13:23:22.000Z</time>
      </trkpt>
      <trkpt lat="45.8592" lon="4.70339">
        <ele>193.74724</ele>
        <time>2022-09-17T13:23:23.000Z</time>
      </trkpt>
      <trkpt lat="45.85917" lon="4.70338">
        <ele>193.80362</ele>
        <time>2022-09-17T13:23:24.000Z</time>
      </trkpt>
      <trkpt lat="45.85913" lon="4.70338">
        <ele>193.94057</ele>
        <time>2022-09-17T13:23:25.000Z</time>
      </trkpt>
      <trkpt lat="45.8591" lon="4.70337">
        <ele>194.09117</ele>
        <time>2022-09-17T13:23:26.000Z</time>
      </trkpt>
      <trkpt lat="45.85907" lon="4.70337">
        <ele>194.20854</ele>
        <time>2022-09-17T13:23:27.000Z</time>
      </trkpt>
      <trkpt lat="45.85903" lon="4.70336">
        <ele>194.35979</ele>
        <time>2022-09-17T13:23:28.000Z</time>
      </trkpt>
      <trkpt lat="45.859" lon="4.70336">
        <ele>194.50946</ele>
        <time>2022-09-17T13:23:29.000Z</time>
      </trkpt>
      <trkpt lat="45.85897" lon="4.70336">
        <ele>194.63908</ele>
        <time>2022-09-17T13:23:30.000Z</time>
      </trkpt>
      <trkpt lat="45.85893" lon="4.70337">
        <ele>194.78145</ele>
        <time>2022-09-17T13:23:31.000Z</time>
      </trkpt>
      <trkpt lat="45.85891" lon="4.70338">
        <ele>194.93277</ele>
        <time>2022-09-17T13:23:32.000Z</time>
      </trkpt>
      <trkpt lat="45.85889" lon="4.70341">
        <ele>195.05771</ele>
        <time>2022-09-17T13:23:33.000Z</time>
      </trkpt>
      <trkpt lat="45.85888" lon="4.70345">
        <ele>195.22971</ele>
        <time>2022-09-17T13:23:34.000Z</time>
      </trkpt>
      <trkpt lat="45.85888" lon="4.70351">
        <ele>195.39735</ele>
        <time>2022-09-17T13:23:35.000Z</time>
      </trkpt>
      <trkpt lat="45.85889" lon="4.70356">
        <ele>195.60979</ele>
        <time>2022-09-17T13:23:36.000Z</time>
      </trkpt>
      <trkpt lat="45.8589" lon="4.70362">
        <ele>195.90881</ele>
        <time>2022-09-17T13:23:37.000Z</time>
      </trkpt>
      <trkpt lat="45.85892" lon="4.70368">
        <ele>196.20317</ele>
        <time>2022-09-17T13:23:38.000Z</time>
      </trkpt>
      <trkpt lat="45.85893" lon="4.70374">
        <ele>196.41501</ele>
        <time>2022-09-17T13:23:39.000Z</time>
      </trkpt>
      <trkpt lat="45.85893" lon="4.7038">
        <ele>196.6154</ele>
        <time>2022-09-17T13:23:40.000Z</time>
      </trkpt>
      <trkpt lat="45.85894" lon="4.70386">
        <ele>196.83151</ele>
        <time>2022-09-17T13:23:41.000Z</time>
      </trkpt>
      <trkpt lat="45.85894" lon="4.70392">
        <ele>197.09343</ele>
        <time>2022-09-17T13:23:42.000Z</time>
      </trkpt>
      <trkpt lat="45.85895" lon="4.70398">
        <ele>197.38921</ele>
        <time>2022-09-17T13:23:43.000Z</time>
      </trkpt>
      <trkpt lat="45.85895" lon="4.70405">
        <ele>197.68669</ele>
        <time>2022-09-17T13:23:44.000Z</time>
      </trkpt>
      <trkpt lat="45.85895" lon="4.70411">
        <ele>197.93057</ele>
        <time>2022-09-17T13:23:45.000Z</time>
      </trkpt>
      <trkpt lat="45.85896" lon="4.70419">
        <ele>198.14046</ele>
        <time>2022-09-17T13:23:46.000Z</time>
      </trkpt>
      <trkpt lat="45.85896" lon="4.70425">
        <ele>198.42801</ele>
        <time>2022-09-17T13:23:47.000Z</time>
      </trkpt>
      <trkpt lat="45.85897" lon="4.70432">
        <ele>198.7032</ele>
        <time>2022-09-17T13:23:48.000Z</time>
      </trkpt>
      <trkpt lat="45.85898" lon="4.70439">
        <ele>198.95731</ele>
        <time>2022-09-17T13:23:49.000Z</time>
      </trkpt>
      <trkpt lat="45.859" lon="4.70445">
        <ele>199.16666</ele>
        <time>2022-09-17T13:23:50.000Z</time>
      </trkpt>
      <trkpt lat="45.85902" lon="4.70452">
        <ele>199.37175</ele>
        <time>2022-09-17T13:23:51.000Z</time>
      </trkpt>
      <trkpt lat="45.85903" lon="4.70458">
        <ele>199.54417</ele>
        <time>2022-09-17T13:23:52.000Z</time>
      </trkpt>
      <trkpt lat="45.85905" lon="4.70463">
        <ele>199.79652</ele>
        <time>2022-09-17T13:23:53.000Z</time>
      </trkpt>
      <trkpt lat="45.85906" lon="4.70469">
        <ele>200.05479</ele>
        <time>2022-09-17T13:23:54.000Z</time>
      </trkpt>
      <trkpt lat="45.85908" lon="4.70477">
        <ele>200.31238</ele>
        <time>2022-09-17T13:23:55.000Z</time>
      </trkpt>
      <trkpt lat="45.85911" lon="4.70483">
        <ele>200.52237</ele>
        <time>2022-09-17T13:23:56.000Z</time>
      </trkpt>
      <trkpt lat="45.8591" lon="4.70491">
        <ele>200.6994</ele>
        <time>2022-09-17T13:23:57.000Z</time>
      </trkpt>
      <trkpt lat="45.85913" lon="4.70498">
        <ele>200.83481</ele>
        <time>2022-09-17T13:23:58.000Z</time>
      </trkpt>
      <trkpt lat="45.85915" lon="4.70505">
        <ele>200.9158</ele>
        <time>2022-09-17T13:23:59.000Z</time>
      </trkpt>
      <trkpt lat="45.85917" lon="4.7051">
        <ele>201.00633</ele>
        <time>2022-09-17T13:24:00.000Z</time>
      </trkpt>
      <trkpt lat="45.85919" lon="4.70515">
        <ele>201.08406</ele>
        <time>2022-09-17T13:24:01.000Z</time>
      </trkpt>
      <trkpt lat="45.85922" lon="4.70522">
        <ele>201.17076</ele>
        <time>2022-09-17T13:24:02.000Z</time>
      </trkpt>
      <trkpt lat="45.85924" lon="4.7053">
        <ele>201.23322</ele>
        <time>2022-09-17T13:24:03.000Z</time>
      </trkpt>
      <trkpt lat="45.85928" lon="4.70536">
        <ele>201.21548</ele>
        <time>2022-09-17T13:24:04.000Z</time>
      </trkpt>
      <trkpt lat="45.8593" lon="4.70546">
        <ele>201.10228</ele>
        <time>2022-09-17T13:24:05.000Z</time>
      </trkpt>
      <trkpt lat="45.85934" lon="4.70552">
        <ele>200.95549</ele>
        <time>2022-09-17T13:24:06.000Z</time>
      </trkpt>
      <trkpt lat="45.85937" lon="4.7056">
        <ele>200.71408</ele>
        <time>2022-09-17T13:24:07.000Z</time>
      </trkpt>
      <trkpt lat="45.8594" lon="4.70567">
        <ele>200.39355</ele>
        <time>2022-09-17T13:24:08.000Z</time>
      </trkpt>
      <trkpt lat="45.85943" lon="4.70573">
        <ele>200.0843</ele>
        <time>2022-09-17T13:24:09.000Z</time>
      </trkpt>
      <trkpt lat="45.85945" lon="4.7058">
        <ele>199.86974</ele>
        <time>2022-09-17T13:24:10.000Z</time>
      </trkpt>
      <trkpt lat="45.85947" lon="4.70587">
        <ele>199.63231</ele>
        <time>2022-09-17T13:24:11.000Z</time>
      </trkpt>
      <trkpt lat="45.8595" lon="4.70594">
        <ele>199.34189</ele>
        <time>2022-09-17T13:24:12.000Z</time>
      </trkpt>
      <trkpt lat="45.85952" lon="4.70601">
        <ele>199.01233</ele>
        <time>2022-09-17T13:24:13.000Z</time>
      </trkpt>
      <trkpt lat="45.85954" lon="4.70608">
        <ele>198.6525</ele>
        <time>2022-09-17T13:24:14.000Z</time>
      </trkpt>
      <trkpt lat="45.85955" lon="4.70614">
        <ele>198.23021</ele>
        <time>2022-09-17T13:24:15.000Z</time>
      </trkpt>
      <trkpt lat="45.85958" lon="4.70621">
        <ele>197.81766</ele>
        <time>2022-09-17T13:24:16.000Z</time>
      </trkpt>
      <trkpt lat="45.85961" lon="4.70628">
        <ele>197.35062</ele>
        <time>2022-09-17T13:24:17.000Z</time>
      </trkpt>
      <trkpt lat="45.85964" lon="4.70633">
        <ele>196.87401</ele>
        <time>2022-09-17T13:24:18.000Z</time>
      </trkpt>
      <trkpt lat="45.85967" lon="4.70639">
        <ele>196.37473</ele>
        <time>2022-09-17T13:24:19.000Z</time>
      </trkpt>
      <trkpt lat="45.85971" lon="4.70645">
        <ele>195.92413</ele>
        <time>2022-09-17T13:24:20.000Z</time>
      </trkpt>
      <trkpt lat="45.85974" lon="4.7065">
        <ele>195.46809</ele>
        <time>2022-09-17T13:24:21.000Z</time>
      </trkpt>
      <trkpt lat="45.85978" lon="4.70656">
        <ele>194.95198</ele>
        <time>2022-09-17T13:24:22.000Z</time>
      </trkpt>
      <trkpt lat="45.85982" lon="4.7066">
        <ele>194.4752</ele>
        <time>2022-09-17T13:24:23.000Z</time>
      </trkpt>
      <trkpt lat="45.85986" lon="4.70666">
        <ele>194.07669</ele>
        <time>2022-09-17T13:24:24.000Z</time>
      </trkpt>
      <trkpt lat="45.85989" lon="4.70673">
        <ele>193.79735</ele>
        <time>2022-09-17T13:24:25.000Z</time>
      </trkpt>
      <trkpt lat="45.85992" lon="4.7068">
        <ele>193.58951</ele>
        <time>2022-09-17T13:24:26.000Z</time>
      </trkpt>
      <trkpt lat="45.85997" lon="4.70688">
        <ele>193.36885</ele>
        <time>2022-09-17T13:24:27.000Z</time>
      </trkpt>
      <trkpt lat="45.86" lon="4.70694">
        <ele>193.41281</ele>
        <time>2022-09-17T13:24:28.000Z</time>
      </trkpt>
      <trkpt lat="45.86004" lon="4.70699">
        <ele>193.43645</ele>
        <time>2022-09-17T13:24:29.000Z</time>
      </trkpt>
      <trkpt lat="45.86009" lon="4.70705">
        <ele>193.37112</ele>
        <time>2022-09-17T13:24:30.000Z</time>
      </trkpt>
      <trkpt lat="45.86014" lon="4.70711">
        <ele>193.31807</ele>
        <time>2022-09-17T13:24:31.000Z</time>
      </trkpt>
      <trkpt lat="45.86019" lon="4.70717">
        <ele>193.33034</ele>
        <time>2022-09-17T13:24:32.000Z</time>
      </trkpt>
      <trkpt lat="45.86021" lon="4.70724">
        <ele>193.24442</ele>
        <time>2022-09-17T13:24:33.000Z</time>
      </trkpt>
      <trkpt lat="45.86025" lon="4.7073">
        <ele>193.14436</ele>
        <time>2022-09-17T13:24:34.000Z</time>
      </trkpt>
      <trkpt lat="45.8603" lon="4.70736">
        <ele>193.06451</ele>
        <time>2022-09-17T13:24:35.000Z</time>
      </trkpt>
      <trkpt lat="45.86034" lon="4.70742">
        <ele>193.04877</ele>
        <time>2022-09-17T13:24:36.000Z</time>
      </trkpt>
      <trkpt lat="45.86038" lon="4.70748">
        <ele>193.11433</ele>
        <time>2022-09-17T13:24:37.000Z</time>
      </trkpt>
      <trkpt lat="45.86041" lon="4.70752">
        <ele>193.14157</ele>
        <time>2022-09-17T13:24:38.000Z</time>
      </trkpt>
      <trkpt lat="45.86046" lon="4.70758">
        <ele>193.23814</ele>
        <time>2022-09-17T13:24:39.000Z</time>
      </trkpt>
      <trkpt lat="45.8605" lon="4.70764">
        <ele>193.26648</ele>
        <time>2022-09-17T13:24:40.000Z</time>
      </trkpt>
      <trkpt lat="45.86055" lon="4.7077">
        <ele>193.31598</ele>
        <time>2022-09-17T13:24:41.000Z</time>
      </trkpt>
      <trkpt lat="45.86059" lon="4.70775">
        <ele>193.3905</ele>
        <time>2022-09-17T13:24:42.000Z</time>
      </trkpt>
      <trkpt lat="45.86062" lon="4.70782">
        <ele>193.41566</ele>
        <time>2022-09-17T13:24:43.000Z</time>
      </trkpt>
      <trkpt lat="45.86066" lon="4.70788">
        <ele>193.42842</ele>
        <time>2022-09-17T13:24:44.000Z</time>
      </trkpt>
      <trkpt lat="45.86071" lon="4.70793">
        <ele>193.41779</ele>
        <time>2022-09-17T13:24:45.000Z</time>
      </trkpt>
      <trkpt lat="45.86075" lon="4.70802">
        <ele>193.45898</ele>
        <time>2022-09-17T13:24:46.000Z</time>
      </trkpt>
      <trkpt lat="45.86079" lon="4.70809">
        <ele>193.59879</ele>
        <time>2022-09-17T13:24:47.000Z</time>
      </trkpt>
      <trkpt lat="45.86083" lon="4.70814">
        <ele>193.59943</ele>
        <time>2022-09-17T13:24:48.000Z</time>
      </trkpt>
      <trkpt lat="45.86087" lon="4.70819">
        <ele>193.67599</ele>
        <time>2022-09-17T13:24:49.000Z</time>
      </trkpt>
      <trkpt lat="45.86091" lon="4.70825">
        <ele>193.80846</ele>
        <time>2022-09-17T13:24:50.000Z</time>
      </trkpt>
      <trkpt lat="45.86095" lon="4.7083">
        <ele>193.9278</ele>
        <time>2022-09-17T13:24:51.000Z</time>
      </trkpt>
      <trkpt lat="45.86099" lon="4.70836">
        <ele>194.10242</ele>
        <time>2022-09-17T13:24:52.000Z</time>
      </trkpt>
      <trkpt lat="45.86103" lon="4.70843">
        <ele>194.35806</ele>
        <time>2022-09-17T13:24:53.000Z</time>
      </trkpt>
      <trkpt lat="45.86108" lon="4.70848">
        <ele>194.62999</ele>
        <time>2022-09-17T13:24:54.000Z</time>
      </trkpt>
      <trkpt lat="45.86111" lon="4.70854">
        <ele>194.99504</ele>
        <time>2022-09-17T13:24:55.000Z</time>
      </trkpt>
      <trkpt lat="45.86116" lon="4.70858">
        <ele>195.27467</ele>
        <time>2022-09-17T13:24:56.000Z</time>
      </trkpt>
      <trkpt lat="45.8612" lon="4.70864">
        <ele>195.52803</ele>
        <time>2022-09-17T13:24:57.000Z</time>
      </trkpt>
      <trkpt lat="45.86123" lon="4.70871">
        <ele>195.82678</ele>
        <time>2022-09-17T13:24:58.000Z</time>
      </trkpt>
      <trkpt lat="45.86128" lon="4.70874">
        <ele>196.14322</ele>
        <time>2022-09-17T13:24:59.000Z</time>
      </trkpt>
      <trkpt lat="45.8613" lon="4.70881">
        <ele>196.43073</ele>
        <time>2022-09-17T13:25:00.000Z</time>
      </trkpt>
      <trkpt lat="45.86134" lon="4.70886">
        <ele>196.67271</ele>
        <time>2022-09-17T13:25:01.000Z</time>
      </trkpt>
      <trkpt lat="45.86136" lon="4.70893">
        <ele>196.84222</ele>
        <time>2022-09-17T13:25:02.000Z</time>
      </trkpt>
      <trkpt lat="45.86141" lon="4.709">
        <ele>197.05894</ele>
        <time>2022-09-17T13:25:03.000Z</time>
      </trkpt>
      <trkpt lat="45.86145" lon="4.70907">
        <ele>197.28033</ele>
        <time>2022-09-17T13:25:04.000Z</time>
      </trkpt>
      <trkpt lat="45.86149" lon="4.70913">
        <ele>197.54361</ele>
        <time>2022-09-17T13:25:05.000Z</time>
      </trkpt>
      <trkpt lat="45.86154" lon="4.70919">
        <ele>197.78899</ele>
        <time>2022-09-17T13:25:06.000Z</time>
      </trkpt>
      <trkpt lat="45.86157" lon="4.70924">
        <ele>197.99869</ele>
        <time>2022-09-17T13:25:07.000Z</time>
      </trkpt>
      <trkpt lat="45.86162" lon="4.70934">
        <ele>198.26212</ele>
        <time>2022-09-17T13:25:08.000Z</time>
      </trkpt>
      <trkpt lat="45.86168" lon="4.70941">
        <ele>198.48872</ele>
        <time>2022-09-17T13:25:09.000Z</time>
      </trkpt>
      <trkpt lat="45.86174" lon="4.70941">
        <ele>198.75208</ele>
        <time>2022-09-17T13:25:10.000Z</time>
      </trkpt>
      <trkpt lat="45.8618" lon="4.70946">
        <ele>198.99747</ele>
        <time>2022-09-17T13:25:11.000Z</time>
      </trkpt>
      <trkpt lat="45.86185" lon="4.70947">
        <ele>199.18047</ele>
        <time>2022-09-17T13:25:12.000Z</time>
      </trkpt>
      <trkpt lat="45.86191" lon="4.70947">
        <ele>199.43423</ele>
        <time>2022-09-17T13:25:13.000Z</time>
      </trkpt>
      <trkpt lat="45.86198" lon="4.70948">
        <ele>199.64798</ele>
        <time>2022-09-17T13:25:14.000Z</time>
      </trkpt>
      <trkpt lat="45.86203" lon="4.70951">
        <ele>199.81546</ele>
        <time>2022-09-17T13:25:15.000Z</time>
      </trkpt>
      <trkpt lat="45.86207" lon="4.70956">
        <ele>200.06381</ele>
        <time>2022-09-17T13:25:16.000Z</time>
      </trkpt>
      <trkpt lat="45.86211" lon="4.70961">
        <ele>200.35327</ele>
        <time>2022-09-17T13:25:17.000Z</time>
      </trkpt>
      <trkpt lat="45.86215" lon="4.70965">
        <ele>200.59987</ele>
        <time>2022-09-17T13:25:18.000Z</time>
      </trkpt>
      <trkpt lat="45.86217" lon="4.70968">
        <ele>200.77332</ele>
        <time>2022-09-17T13:25:19.000Z</time>
      </trkpt>
      <trkpt lat="45.8622" lon="4.70971">
        <ele>200.94569</ele>
        <time>2022-09-17T13:25:20.000Z</time>
      </trkpt>
      <trkpt lat="45.86223" lon="4.70975">
        <ele>201.12717</ele>
        <time>2022-09-17T13:25:21.000Z</time>
      </trkpt>
      <trkpt lat="45.86224" lon="4.7098">
        <ele>201.37729</ele>
        <time>2022-09-17T13:25:22.000Z</time>
      </trkpt>
      <trkpt lat="45.86225" lon="4.70983">
        <ele>201.58972</ele>
        <time>2022-09-17T13:25:23.000Z</time>
      </trkpt>
      <trkpt lat="45.86225" lon="4.70988">
        <ele>201.82822</ele>
        <time>2022-09-17T13:25:24.000Z</time>
      </trkpt>
      <trkpt lat="45.86225" lon="4.70993">
        <ele>202.02701</ele>
        <time>2022-09-17T13:25:25.000Z</time>
      </trkpt>
      <trkpt lat="45.86222" lon="4.70997">
        <ele>202.16737</ele>
        <time>2022-09-17T13:25:26.000Z</time>
      </trkpt>
      <trkpt lat="45.86219" lon="4.70999">
        <ele>202.29422</ele>
        <time>2022-09-17T13:25:27.000Z</time>
      </trkpt>
      <trkpt lat="45.86216" lon="4.71001">
        <ele>202.27005</ele>
        <time>2022-09-17T13:25:28.000Z</time>
      </trkpt>
      <trkpt lat="45.86213" lon="4.71004">
        <ele>202.17453</ele>
        <time>2022-09-17T13:25:29.000Z</time>
      </trkpt>
      <trkpt lat="45.86209" lon="4.71007">
        <ele>202.03194</ele>
        <time>2022-09-17T13:25:30.000Z</time>
      </trkpt>
      <trkpt lat="45.86206" lon="4.71011">
        <ele>201.89786</ele>
        <time>2022-09-17T13:25:31.000Z</time>
      </trkpt>
      <trkpt lat="45.86203" lon="4.71015">
        <ele>201.722</ele>
        <time>2022-09-17T13:25:32.000Z</time>
      </trkpt>
      <trkpt lat="45.862" lon="4.71019">
        <ele>201.48175</ele>
        <time>2022-09-17T13:25:33.000Z</time>
      </trkpt>
      <trkpt lat="45.86196" lon="4.71023">
        <ele>201.30356</ele>
        <time>2022-09-17T13:25:34.000Z</time>
      </trkpt>
      <trkpt lat="45.86193" lon="4.71029">
        <ele>201.04825</ele>
        <time>2022-09-17T13:25:35.000Z</time>
      </trkpt>
      <trkpt lat="45.86188" lon="4.71034">
        <ele>200.71785</ele>
        <time>2022-09-17T13:25:36.000Z</time>
      </trkpt>
      <trkpt lat="45.86184" lon="4.71038">
        <ele>200.30109</ele>
        <time>2022-09-17T13:25:37.000Z</time>
      </trkpt>
      <trkpt lat="45.8618" lon="4.71042">
        <ele>199.98325</ele>
        <time>2022-09-17T13:25:38.000Z</time>
      </trkpt>
      <trkpt lat="45.86176" lon="4.71046">
        <ele>199.65944</ele>
        <time>2022-09-17T13:25:39.000Z</time>
      </trkpt>
      <trkpt lat="45.86173" lon="4.71048">
        <ele>199.42122</ele>
        <time>2022-09-17T13:25:40.000Z</time>
      </trkpt>
      <trkpt lat="45.86168" lon="4.71049">
        <ele>199.1732</ele>
        <time>2022-09-17T13:25:41.000Z</time>
      </trkpt>
      <trkpt lat="45.86163" lon="4.71049">
        <ele>198.92714</ele>
        <time>2022-09-17T13:25:42.000Z</time>
      </trkpt>
      <trkpt lat="45.86159" lon="4.7105">
        <ele>198.72971</ele>
        <time>2022-09-17T13:25:43.000Z</time>
      </trkpt>
      <trkpt lat="45.86154" lon="4.71051">
        <ele>198.53305</ele>
        <time>2022-09-17T13:25:44.000Z</time>
      </trkpt>
      <trkpt lat="45.86149" lon="4.71053">
        <ele>198.21797</ele>
        <time>2022-09-17T13:25:45.000Z</time>
      </trkpt>
      <trkpt lat="45.86144" lon="4.71054">
        <ele>197.94331</ele>
        <time>2022-09-17T13:25:46.000Z</time>
      </trkpt>
      <trkpt lat="45.86141" lon="4.71056">
        <ele>197.68011</ele>
        <time>2022-09-17T13:25:47.000Z</time>
      </trkpt>
      <trkpt lat="45.86138" lon="4.71058">
        <ele>197.39476</ele>
        <time>2022-09-17T13:25:48.000Z</time>
      </trkpt>
      <trkpt lat="45.86135" lon="4.71063">
        <ele>197.25955</ele>
        <time>2022-09-17T13:25:49.000Z</time>
      </trkpt>
      <trkpt lat="45.86132" lon="4.71066">
        <ele>197.05661</ele>
        <time>2022-09-17T13:25:50.000Z</time>
      </trkpt>
      <trkpt lat="45.86129" lon="4.7107">
        <ele>196.85561</ele>
        <time>2022-09-17T13:25:51.000Z</time>
      </trkpt>
      <trkpt lat="45.86128" lon="4.71076">
        <ele>196.70552</ele>
        <time>2022-09-17T13:25:52.000Z</time>
      </trkpt>
      <trkpt lat="45.86126" lon="4.71082">
        <ele>196.55501</ele>
        <time>2022-09-17T13:25:53.000Z</time>
      </trkpt>
      <trkpt lat="45.86124" lon="4.71086">
        <ele>196.39986</ele>
        <time>2022-09-17T13:25:54.000Z</time>
      </trkpt>
      <trkpt lat="45.86123" lon="4.71092">
        <ele>196.31282</ele>
        <time>2022-09-17T13:25:55.000Z</time>
      </trkpt>
      <trkpt lat="45.86121" lon="4.71094">
        <ele>196.25645</ele>
        <time>2022-09-17T13:25:56.000Z</time>
      </trkpt>
      <trkpt lat="45.86118" lon="4.71102">
        <ele>196.19777</ele>
        <time>2022-09-17T13:25:57.000Z</time>
      </trkpt>
      <trkpt lat="45.86117" lon="4.71106">
        <ele>196.16422</ele>
        <time>2022-09-17T13:25:58.000Z</time>
      </trkpt>
      <trkpt lat="45.86115" lon="4.71113">
        <ele>196.21982</ele>
        <time>2022-09-17T13:25:59.000Z</time>
      </trkpt>
      <trkpt lat="45.86113" lon="4.71121">
        <ele>196.18991</ele>
        <time>2022-09-17T13:26:00.000Z</time>
      </trkpt>
      <trkpt lat="45.8611" lon="4.71126">
        <ele>196.177</ele>
        <time>2022-09-17T13:26:01.000Z</time>
      </trkpt>
      <trkpt lat="45.86107" lon="4.71128">
        <ele>196.16954</ele>
        <time>2022-09-17T13:26:02.000Z</time>
      </trkpt>
      <trkpt lat="45.86104" lon="4.71132">
        <ele>196.14011</ele>
        <time>2022-09-17T13:26:03.000Z</time>
      </trkpt>
      <trkpt lat="45.86102" lon="4.71136">
        <ele>196.12047</ele>
        <time>2022-09-17T13:26:04.000Z</time>
      </trkpt>
      <trkpt lat="45.861" lon="4.7114">
        <ele>196.14987</ele>
        <time>2022-09-17T13:26:05.000Z</time>
      </trkpt>
      <trkpt lat="45.86099" lon="4.71143">
        <ele>196.05864</ele>
        <time>2022-09-17T13:26:06.000Z</time>
      </trkpt>
      <trkpt lat="45.86096" lon="4.71143">
        <ele>195.89101</ele>
        <time>2022-09-17T13:26:07.000Z</time>
      </trkpt>
      <trkpt lat="45.86093" lon="4.71143">
        <ele>195.70734</ele>
        <time>2022-09-17T13:26:08.000Z</time>
      </trkpt>
      <trkpt lat="45.8609" lon="4.71141">
        <ele>195.60333</ele>
        <time>2022-09-17T13:26:09.000Z</time>
      </trkpt>
      <trkpt lat="45.86086" lon="4.71139">
        <ele>195.51921</ele>
        <time>2022-09-17T13:26:10.000Z</time>
      </trkpt>
      <trkpt lat="45.86083" lon="4.71137">
        <ele>195.43875</ele>
        <time>2022-09-17T13:26:11.000Z</time>
      </trkpt>
      <trkpt lat="45.8608" lon="4.71135">
        <ele>195.40573</ele>
        <time>2022-09-17T13:26:12.000Z</time>
      </trkpt>
      <trkpt lat="45.86077" lon="4.71132">
        <ele>195.38289</ele>
        <time>2022-09-17T13:26:13.000Z</time>
      </trkpt>
      <trkpt lat="45.86074" lon="4.7113">
        <ele>195.30269</ele>
        <time>2022-09-17T13:26:14.000Z</time>
      </trkpt>
      <trkpt lat="45.8607" lon="4.71127">
        <ele>195.22372</ele>
        <time>2022-09-17T13:26:15.000Z</time>
      </trkpt>
      <trkpt lat="45.86067" lon="4.71124">
        <ele>195.19762</ele>
        <time>2022-09-17T13:26:16.000Z</time>
      </trkpt>
      <trkpt lat="45.86064" lon="4.71121">
        <ele>195.11763</ele>
        <time>2022-09-17T13:26:17.000Z</time>
      </trkpt>
      <trkpt lat="45.8606" lon="4.71117">
        <ele>195.00061</ele>
        <time>2022-09-17T13:26:18.000Z</time>
      </trkpt>
      <trkpt lat="45.86057" lon="4.71114">
        <ele>194.8839</ele>
        <time>2022-09-17T13:26:19.000Z</time>
      </trkpt>
      <trkpt lat="45.86055" lon="4.7111">
        <ele>194.74922</ele>
        <time>2022-09-17T13:26:20.000Z</time>
      </trkpt>
      <trkpt lat="45.86052" lon="4.71106">
        <ele>194.54855</ele>
        <time>2022-09-17T13:26:21.000Z</time>
      </trkpt>
      <trkpt lat="45.8605" lon="4.71102">
        <ele>194.26088</ele>
        <time>2022-09-17T13:26:22.000Z</time>
      </trkpt>
      <trkpt lat="45.86048" lon="4.71097">
        <ele>194.08588</ele>
        <time>2022-09-17T13:26:23.000Z</time>
      </trkpt>
      <trkpt lat="45.86046" lon="4.71091">
        <ele>193.92349</ele>
        <time>2022-09-17T13:26:24.000Z</time>
      </trkpt>
      <trkpt lat="45.86043" lon="4.71085">
        <ele>193.83794</ele>
        <time>2022-09-17T13:26:25.000Z</time>
      </trkpt>
      <trkpt lat="45.86042" lon="4.71077">
        <ele>193.83339</ele>
        <time>2022-09-17T13:26:26.000Z</time>
      </trkpt>
      <trkpt lat="45.86042" lon="4.71072">
        <ele>193.90147</ele>
        <time>2022-09-17T13:26:27.000Z</time>
      </trkpt>
      <trkpt lat="45.8604" lon="4.71066">
        <ele>194.03311</ele>
        <time>2022-09-17T13:26:28.000Z</time>
      </trkpt>
      <trkpt lat="45.86039" lon="4.71059">
        <ele>194.19003</ele>
        <time>2022-09-17T13:26:29.000Z</time>
      </trkpt>
      <trkpt lat="45.86037" lon="4.71053">
        <ele>194.33969</ele>
        <time>2022-09-17T13:26:30.000Z</time>
      </trkpt>
      <trkpt lat="45.86035" lon="4.71046">
        <ele>194.46671</ele>
        <time>2022-09-17T13:26:31.000Z</time>
      </trkpt>
      <trkpt lat="45.86034" lon="4.7104">
        <ele>194.52914</ele>
        <time>2022-09-17T13:26:32.000Z</time>
      </trkpt>
      <trkpt lat="45.86032" lon="4.71036">
        <ele>194.61636</ele>
        <time>2022-09-17T13:26:33.000Z</time>
      </trkpt>
      <trkpt lat="45.8603" lon="4.71032">
        <ele>194.7126</ele>
        <time>2022-09-17T13:26:34.000Z</time>
      </trkpt>
      <trkpt lat="45.86028" lon="4.71027">
        <ele>194.86438</ele>
        <time>2022-09-17T13:26:35.000Z</time>
      </trkpt>
      <trkpt lat="45.86024" lon="4.7102">
        <ele>194.9592</ele>
        <time>2022-09-17T13:26:36.000Z</time>
      </trkpt>
      <trkpt lat="45.8602" lon="4.71015">
        <ele>195.15643</ele>
        <time>2022-09-17T13:26:37.000Z</time>
      </trkpt>
      <trkpt lat="45.86017" lon="4.7101">
        <ele>195.35953</ele>
        <time>2022-09-17T13:26:38.000Z</time>
      </trkpt>
      <trkpt lat="45.86013" lon="4.71005">
        <ele>195.54369</ele>
        <time>2022-09-17T13:26:39.000Z</time>
      </trkpt>
      <trkpt lat="45.86009" lon="4.70999">
        <ele>195.86559</ele>
        <time>2022-09-17T13:26:40.000Z</time>
      </trkpt>
      <trkpt lat="45.86005" lon="4.70994">
        <ele>196.30939</ele>
        <time>2022-09-17T13:26:41.000Z</time>
      </trkpt>
      <trkpt lat="45.86" lon="4.70989">
        <ele>196.83226</ele>
        <time>2022-09-17T13:26:42.000Z</time>
      </trkpt>
      <trkpt lat="45.85995" lon="4.70985">
        <ele>197.22322</ele>
        <time>2022-09-17T13:26:43.000Z</time>
      </trkpt>
      <trkpt lat="45.8599" lon="4.70982">
        <ele>197.5126</ele>
        <time>2022-09-17T13:26:44.000Z</time>
      </trkpt>
      <trkpt lat="45.85985" lon="4.70982">
        <ele>197.8327</ele>
        <time>2022-09-17T13:26:45.000Z</time>
      </trkpt>
      <trkpt lat="45.8598" lon="4.7098">
        <ele>198.1875</ele>
        <time>2022-09-17T13:26:46.000Z</time>
      </trkpt>
      <trkpt lat="45.85975" lon="4.70979">
        <ele>198.57919</ele>
        <time>2022-09-17T13:26:47.000Z</time>
      </trkpt>
      <trkpt lat="45.85969" lon="4.70978">
        <ele>198.95903</ele>
        <time>2022-09-17T13:26:48.000Z</time>
      </trkpt>
      <trkpt lat="45.85964" lon="4.70977">
        <ele>199.08746</ele>
        <time>2022-09-17T13:26:49.000Z</time>
      </trkpt>
      <trkpt lat="45.85959" lon="4.70977">
        <ele>199.26877</ele>
        <time>2022-09-17T13:26:50.000Z</time>
      </trkpt>
      <trkpt lat="45.85953" lon="4.70976">
        <ele>199.47974</ele>
        <time>2022-09-17T13:26:51.000Z</time>
      </trkpt>
      <trkpt lat="45.85947" lon="4.70976">
        <ele>199.71268</ele>
        <time>2022-09-17T13:26:52.000Z</time>
      </trkpt>
      <trkpt lat="45.85942" lon="4.70979">
        <ele>199.92082</ele>
        <time>2022-09-17T13:26:53.000Z</time>
      </trkpt>
      <trkpt lat="45.85938" lon="4.70982">
        <ele>200.16154</ele>
        <time>2022-09-17T13:26:54.000Z</time>
      </trkpt>
      <trkpt lat="45.85933" lon="4.70983">
        <ele>200.35995</ele>
        <time>2022-09-17T13:26:55.000Z</time>
      </trkpt>
      <trkpt lat="45.85928" lon="4.70984">
        <ele>200.56297</ele>
        <time>2022-09-17T13:26:56.000Z</time>
      </trkpt>
      <trkpt lat="45.85923" lon="4.70987">
        <ele>200.71999</ele>
        <time>2022-09-17T13:26:57.000Z</time>
      </trkpt>
      <trkpt lat="45.85918" lon="4.7099">
        <ele>200.93649</ele>
        <time>2022-09-17T13:26:58.000Z</time>
      </trkpt>
      <trkpt lat="45.85913" lon="4.70993">
        <ele>201.09258</ele>
        <time>2022-09-17T13:26:59.000Z</time>
      </trkpt>
      <trkpt lat="45.85909" lon="4.70997">
        <ele>201.17123</ele>
        <time>2022-09-17T13:27:00.000Z</time>
      </trkpt>
      <trkpt lat="45.85904" lon="4.71001">
        <ele>201.19327</ele>
        <time>2022-09-17T13:27:01.000Z</time>
      </trkpt>
      <trkpt lat="45.859" lon="4.71005">
        <ele>201.18127</ele>
        <time>2022-09-17T13:27:02.000Z</time>
      </trkpt>
      <trkpt lat="45.85895" lon="4.71008">
        <ele>201.1492</ele>
        <time>2022-09-17T13:27:03.000Z</time>
      </trkpt>
      <trkpt lat="45.85891" lon="4.71012">
        <ele>201.16122</ele>
        <time>2022-09-17T13:27:04.000Z</time>
      </trkpt>
      <trkpt lat="45.85887" lon="4.71016">
        <ele>201.13213</ele>
        <time>2022-09-17T13:27:05.000Z</time>
      </trkpt>
      <trkpt lat="45.85884" lon="4.7102">
        <ele>201.14555</ele>
        <time>2022-09-17T13:27:06.000Z</time>
      </trkpt>
      <trkpt lat="45.8588" lon="4.71023">
        <ele>201.14871</ele>
        <time>2022-09-17T13:27:07.000Z</time>
      </trkpt>
      <trkpt lat="45.85876" lon="4.71027">
        <ele>201.20221</ele>
        <time>2022-09-17T13:27:08.000Z</time>
      </trkpt>
      <trkpt lat="45.85873" lon="4.71032">
        <ele>201.2468</ele>
        <time>2022-09-17T13:27:09.000Z</time>
      </trkpt>
      <trkpt lat="45.8587" lon="4.71036">
        <ele>201.25558</ele>
        <time>2022-09-17T13:27:10.000Z</time>
      </trkpt>
      <trkpt lat="45.85866" lon="4.71043">
        <ele>201.32738</ele>
        <time>2022-09-17T13:27:11.000Z</time>
      </trkpt>
      <trkpt lat="45.85862" lon="4.71046">
        <ele>201.3936</ele>
        <time>2022-09-17T13:27:12.000Z</time>
      </trkpt>
      <trkpt lat="45.85858" lon="4.71051">
        <ele>201.40074</ele>
        <time>2022-09-17T13:27:13.000Z</time>
      </trkpt>
      <trkpt lat="45.85855" lon="4.71057">
        <ele>201.353</ele>
        <time>2022-09-17T13:27:14.000Z</time>
      </trkpt>
      <trkpt lat="45.85853" lon="4.71063">
        <ele>201.27316</ele>
        <time>2022-09-17T13:27:15.000Z</time>
      </trkpt>
      <trkpt lat="45.85849" lon="4.71066">
        <ele>201.20282</ele>
        <time>2022-09-17T13:27:16.000Z</time>
      </trkpt>
      <trkpt lat="45.85845" lon="4.71071">
        <ele>201.04794</ele>
        <time>2022-09-17T13:27:17.000Z</time>
      </trkpt>
      <trkpt lat="45.85843" lon="4.71076">
        <ele>200.79584</ele>
        <time>2022-09-17T13:27:18.000Z</time>
      </trkpt>
      <trkpt lat="45.85841" lon="4.71083">
        <ele>200.68361</ele>
        <time>2022-09-17T13:27:19.000Z</time>
      </trkpt>
      <trkpt lat="45.85838" lon="4.71088">
        <ele>200.56102</ele>
        <time>2022-09-17T13:27:20.000Z</time>
      </trkpt>
      <trkpt lat="45.85836" lon="4.71091">
        <ele>200.49702</ele>
        <time>2022-09-17T13:27:21.000Z</time>
      </trkpt>
      <trkpt lat="45.85833" lon="4.71097">
        <ele>200.47939</ele>
        <time>2022-09-17T13:27:22.000Z</time>
      </trkpt>
      <trkpt lat="45.8583" lon="4.71101">
        <ele>200.47537</ele>
        <time>2022-09-17T13:27:23.000Z</time>
      </trkpt>
      <trkpt lat="45.85828" lon="4.71104">
        <ele>200.44235</ele>
        <time>2022-09-17T13:27:24.000Z</time>
      </trkpt>
      <trkpt lat="45.85825" lon="4.71108">
        <ele>200.40372</ele>
        <time>2022-09-17T13:27:25.000Z</time>
      </trkpt>
      <trkpt lat="45.85823" lon="4.71112">
        <ele>200.29645</ele>
        <time>2022-09-17T13:27:26.000Z</time>
      </trkpt>
      <trkpt lat="45.8582" lon="4.71116">
        <ele>200.18692</ele>
        <time>2022-09-17T13:27:27.000Z</time>
      </trkpt>
      <trkpt lat="45.85818" lon="4.7112">
        <ele>200.07449</ele>
        <time>2022-09-17T13:27:28.000Z</time>
      </trkpt>
      <trkpt lat="45.85815" lon="4.71124">
        <ele>200.00369</ele>
        <time>2022-09-17T13:27:29.000Z</time>
      </trkpt>
      <trkpt lat="45.85813" lon="4.71127">
        <ele>199.96292</ele>
        <time>2022-09-17T13:27:30.000Z</time>
      </trkpt>
      <trkpt lat="45.85811" lon="4.7113">
        <ele>199.89323</ele>
        <time>2022-09-17T13:27:31.000Z</time>
      </trkpt>
      <trkpt lat="45.85808" lon="4.71134">
        <ele>199.83849</ele>
        <time>2022-09-17T13:27:32.000Z</time>
      </trkpt>
      <trkpt lat="45.85807" lon="4.71138">
        <ele>199.88875</ele>
        <time>2022-09-17T13:27:33.000Z</time>
      </trkpt>
      <trkpt lat="45.85805" lon="4.71141">
        <ele>200.03209</ele>
        <time>2022-09-17T13:27:34.000Z</time>
      </trkpt>
      <trkpt lat="45.85803" lon="4.71143">
        <ele>200.1068</ele>
        <time>2022-09-17T13:27:35.000Z</time>
      </trkpt>
      <trkpt lat="45.85801" lon="4.71146">
        <ele>200.19316</ele>
        <time>2022-09-17T13:27:36.000Z</time>
      </trkpt>
      <trkpt lat="45.85798" lon="4.71148">
        <ele>200.41536</ele>
        <time>2022-09-17T13:27:37.000Z</time>
      </trkpt>
      <trkpt lat="45.85795" lon="4.71149">
        <ele>200.70612</ele>
        <time>2022-09-17T13:27:38.000Z</time>
      </trkpt>
      <trkpt lat="45.85793" lon="4.7115">
        <ele>200.907</ele>
        <time>2022-09-17T13:27:39.000Z</time>
      </trkpt>
      <trkpt lat="45.8579" lon="4.71152">
        <ele>201.10156</ele>
        <time>2022-09-17T13:27:40.000Z</time>
      </trkpt>
      <trkpt lat="45.85788" lon="4.71154">
        <ele>201.14023</ele>
        <time>2022-09-17T13:27:41.000Z</time>
      </trkpt>
      <trkpt lat="45.85787" lon="4.71157">
        <ele>201.14265</ele>
        <time>2022-09-17T13:27:42.000Z</time>
      </trkpt>
      <trkpt lat="45.85787" lon="4.7116">
        <ele>201.11179</ele>
        <time>2022-09-17T13:27:43.000Z</time>
      </trkpt>
      <trkpt lat="45.85786" lon="4.71165">
        <ele>201.13641</ele>
        <time>2022-09-17T13:27:44.000Z</time>
      </trkpt>
      <trkpt lat="45.85786" lon="4.71171">
        <ele>201.16257</ele>
        <time>2022-09-17T13:27:45.000Z</time>
      </trkpt>
      <trkpt lat="45.85785" lon="4.71177">
        <ele>201.21365</ele>
        <time>2022-09-17T13:27:46.000Z</time>
      </trkpt>
      <trkpt lat="45.85784" lon="4.71183">
        <ele>201.26074</ele>
        <time>2022-09-17T13:27:47.000Z</time>
      </trkpt>
      <trkpt lat="45.85783" lon="4.71189">
        <ele>201.35211</ele>
        <time>2022-09-17T13:27:48.000Z</time>
      </trkpt>
      <trkpt lat="45.85782" lon="4.71194">
        <ele>201.53365</ele>
        <time>2022-09-17T13:27:49.000Z</time>
      </trkpt>
      <trkpt lat="45.85781" lon="4.712">
        <ele>201.69305</ele>
        <time>2022-09-17T13:27:50.000Z</time>
      </trkpt>
      <trkpt lat="45.8578" lon="4.71206">
        <ele>201.82564</ele>
        <time>2022-09-17T13:27:51.000Z</time>
      </trkpt>
      <trkpt lat="45.85778" lon="4.71212">
        <ele>201.93674</ele>
        <time>2022-09-17T13:27:52.000Z</time>
      </trkpt>
      <trkpt lat="45.85777" lon="4.71219">
        <ele>202.04897</ele>
        <time>2022-09-17T13:27:53.000Z</time>
      </trkpt>
      <trkpt lat="45.85773" lon="4.71226">
        <ele>202.17876</ele>
        <time>2022-09-17T13:27:54.000Z</time>
      </trkpt>
      <trkpt lat="45.85773" lon="4.71232">
        <ele>202.53941</ele>
        <time>2022-09-17T13:27:55.000Z</time>
      </trkpt>
      <trkpt lat="45.85771" lon="4.71237">
        <ele>202.91689</ele>
        <time>2022-09-17T13:27:56.000Z</time>
      </trkpt>
      <trkpt lat="45.85769" lon="4.71244">
        <ele>203.29268</ele>
        <time>2022-09-17T13:27:57.000Z</time>
      </trkpt>
      <trkpt lat="45.85767" lon="4.71249">
        <ele>203.59531</ele>
        <time>2022-09-17T13:27:58.000Z</time>
      </trkpt>
      <trkpt lat="45.85765" lon="4.71256">
        <ele>203.90121</ele>
        <time>2022-09-17T13:27:59.000Z</time>
      </trkpt>
      <trkpt lat="45.85764" lon="4.71261">
        <ele>204.20213</ele>
        <time>2022-09-17T13:28:00.000Z</time>
      </trkpt>
      <trkpt lat="45.85762" lon="4.71267">
        <ele>204.59668</ele>
        <time>2022-09-17T13:28:01.000Z</time>
      </trkpt>
      <trkpt lat="45.85761" lon="4.71276">
        <ele>204.94109</ele>
        <time>2022-09-17T13:28:02.000Z</time>
      </trkpt>
      <trkpt lat="45.85759" lon="4.71282">
        <ele>205.28995</ele>
        <time>2022-09-17T13:28:03.000Z</time>
      </trkpt>
      <trkpt lat="45.85757" lon="4.71288">
        <ele>205.64323</ele>
        <time>2022-09-17T13:28:04.000Z</time>
      </trkpt>
      <trkpt lat="45.85755" lon="4.71292">
        <ele>206.0018</ele>
        <time>2022-09-17T13:28:05.000Z</time>
      </trkpt>
      <trkpt lat="45.85752" lon="4.71296">
        <ele>206.39407</ele>
        <time>2022-09-17T13:28:06.000Z</time>
      </trkpt>
      <trkpt lat="45.85749" lon="4.71297">
        <ele>206.83426</ele>
        <time>2022-09-17T13:28:07.000Z</time>
      </trkpt>
      <trkpt lat="45.85745" lon="4.71296">
        <ele>207.20476</ele>
        <time>2022-09-17T13:28:08.000Z</time>
      </trkpt>
      <trkpt lat="45.85743" lon="4.71295">
        <ele>207.38057</ele>
        <time>2022-09-17T13:28:09.000Z</time>
      </trkpt>
      <trkpt lat="45.85739" lon="4.71294">
        <ele>207.59805</ele>
        <time>2022-09-17T13:28:10.000Z</time>
      </trkpt>
      <trkpt lat="45.85736" lon="4.71293">
        <ele>207.83638</ele>
        <time>2022-09-17T13:28:11.000Z</time>
      </trkpt>
      <trkpt lat="45.85732" lon="4.71292">
        <ele>208.09355</ele>
        <time>2022-09-17T13:28:12.000Z</time>
      </trkpt>
      <trkpt lat="45.85727" lon="4.71293">
        <ele>208.31116</ele>
        <time>2022-09-17T13:28:13.000Z</time>
      </trkpt>
      <trkpt lat="45.85724" lon="4.71292">
        <ele>208.45566</ele>
        <time>2022-09-17T13:28:14.000Z</time>
      </trkpt>
      <trkpt lat="45.85721" lon="4.71292">
        <ele>208.48593</ele>
        <time>2022-09-17T13:28:15.000Z</time>
      </trkpt>
      <trkpt lat="45.85717" lon="4.71292">
        <ele>208.44986</ele>
        <time>2022-09-17T13:28:16.000Z</time>
      </trkpt>
      <trkpt lat="45.85713" lon="4.71292">
        <ele>208.36453</ele>
        <time>2022-09-17T13:28:17.000Z</time>
      </trkpt>
      <trkpt lat="45.85709" lon="4.71292">
        <ele>208.35738</ele>
        <time>2022-09-17T13:28:18.000Z</time>
      </trkpt>
      <trkpt lat="45.85705" lon="4.71292">
        <ele>208.23145</ele>
        <time>2022-09-17T13:28:19.000Z</time>
      </trkpt>
      <trkpt lat="45.85701" lon="4.71291">
        <ele>208.13571</ele>
        <time>2022-09-17T13:28:20.000Z</time>
      </trkpt>
      <trkpt lat="45.85696" lon="4.7129">
        <ele>208.07666</ele>
        <time>2022-09-17T13:28:21.000Z</time>
      </trkpt>
      <trkpt lat="45.85692" lon="4.71289">
        <ele>208.13423</ele>
        <time>2022-09-17T13:28:22.000Z</time>
      </trkpt>
      <trkpt lat="45.85689" lon="4.71287">
        <ele>208.25024</ele>
        <time>2022-09-17T13:28:23.000Z</time>
      </trkpt>
      <trkpt lat="45.85685" lon="4.71285">
        <ele>208.24788</ele>
        <time>2022-09-17T13:28:24.000Z</time>
      </trkpt>
      <trkpt lat="45.85681" lon="4.71282">
        <ele>208.299</ele>
        <time>2022-09-17T13:28:25.000Z</time>
      </trkpt>
      <trkpt lat="45.85677" lon="4.71279">
        <ele>208.23282</ele>
        <time>2022-09-17T13:28:26.000Z</time>
      </trkpt>
      <trkpt lat="45.85673" lon="4.71277">
        <ele>208.15698</ele>
        <time>2022-09-17T13:28:27.000Z</time>
      </trkpt>
      <trkpt lat="45.8567" lon="4.71274">
        <ele>208.06445</ele>
        <time>2022-09-17T13:28:28.000Z</time>
      </trkpt>
      <trkpt lat="45.85666" lon="4.71271">
        <ele>208.13106</ele>
        <time>2022-09-17T13:28:29.000Z</time>
      </trkpt>
      <trkpt lat="45.85662" lon="4.71268">
        <ele>208.1844</ele>
        <time>2022-09-17T13:28:30.000Z</time>
      </trkpt>
      <trkpt lat="45.85659" lon="4.71266">
        <ele>208.23965</ele>
        <time>2022-09-17T13:28:31.000Z</time>
      </trkpt>
      <trkpt lat="45.85655" lon="4.71264">
        <ele>208.32536</ele>
        <time>2022-09-17T13:28:32.000Z</time>
      </trkpt>
      <trkpt lat="45.85652" lon="4.71263">
        <ele>208.46086</ele>
        <time>2022-09-17T13:28:33.000Z</time>
      </trkpt>
      <trkpt lat="45.85649" lon="4.71262">
        <ele>208.62663</ele>
        <time>2022-09-17T13:28:34.000Z</time>
      </trkpt>
      <trkpt lat="45.85646" lon="4.71262">
        <ele>208.78276</ele>
        <time>2022-09-17T13:28:35.000Z</time>
      </trkpt>
      <trkpt lat="45.85642" lon="4.71262">
        <ele>209.0092</ele>
        <time>2022-09-17T13:28:36.000Z</time>
      </trkpt>
      <trkpt lat="45.85639" lon="4.71263">
        <ele>209.24492</ele>
        <time>2022-09-17T13:28:37.000Z</time>
      </trkpt>
      <trkpt lat="45.85635" lon="4.71265">
        <ele>209.35483</ele>
        <time>2022-09-17T13:28:38.000Z</time>
      </trkpt>
      <trkpt lat="45.85632" lon="4.71266">
        <ele>209.59958</ele>
        <time>2022-09-17T13:28:39.000Z</time>
      </trkpt>
      <trkpt lat="45.85629" lon="4.71268">
        <ele>209.79337</ele>
        <time>2022-09-17T13:28:40.000Z</time>
      </trkpt>
      <trkpt lat="45.85626" lon="4.7127">
        <ele>209.95102</ele>
        <time>2022-09-17T13:28:41.000Z</time>
      </trkpt>
      <trkpt lat="45.85624" lon="4.71273">
        <ele>210.06242</ele>
        <time>2022-09-17T13:28:42.000Z</time>
      </trkpt>
      <trkpt lat="45.85621" lon="4.71276">
        <ele>210.16084</ele>
        <time>2022-09-17T13:28:43.000Z</time>
      </trkpt>
      <trkpt lat="45.85618" lon="4.71281">
        <ele>210.38289</ele>
        <time>2022-09-17T13:28:44.000Z</time>
      </trkpt>
      <trkpt lat="45.85616" lon="4.71285">
        <ele>210.54105</ele>
        <time>2022-09-17T13:28:45.000Z</time>
      </trkpt>
      <trkpt lat="45.85614" lon="4.71289">
        <ele>210.776</ele>
        <time>2022-09-17T13:28:46.000Z</time>
      </trkpt>
      <trkpt lat="45.85611" lon="4.71293">
        <ele>210.9908</ele>
        <time>2022-09-17T13:28:47.000Z</time>
      </trkpt>
      <trkpt lat="45.85609" lon="4.71296">
        <ele>211.13937</ele>
        <time>2022-09-17T13:28:48.000Z</time>
      </trkpt>
      <trkpt lat="45.85606" lon="4.713">
        <ele>211.29041</ele>
        <time>2022-09-17T13:28:49.000Z</time>
      </trkpt>
      <trkpt lat="45.85604" lon="4.71304">
        <ele>211.45992</ele>
        <time>2022-09-17T13:28:50.000Z</time>
      </trkpt>
      <trkpt lat="45.85601" lon="4.71308">
        <ele>211.5407</ele>
        <time>2022-09-17T13:28:51.000Z</time>
      </trkpt>
      <trkpt lat="45.85598" lon="4.71312">
        <ele>211.64201</ele>
        <time>2022-09-17T13:28:52.000Z</time>
      </trkpt>
      <trkpt lat="45.85595" lon="4.71316">
        <ele>211.74411</ele>
        <time>2022-09-17T13:28:53.000Z</time>
      </trkpt>
      <trkpt lat="45.85592" lon="4.71319">
        <ele>211.88138</ele>
        <time>2022-09-17T13:28:54.000Z</time>
      </trkpt>
      <trkpt lat="45.85589" lon="4.71323">
        <ele>211.90524</ele>
        <time>2022-09-17T13:28:55.000Z</time>
      </trkpt>
      <trkpt lat="45.85585" lon="4.71326">
        <ele>211.93596</ele>
        <time>2022-09-17T13:28:56.000Z</time>
      </trkpt>
      <trkpt lat="45.85582" lon="4.71328">
        <ele>211.9946</ele>
        <time>2022-09-17T13:28:57.000Z</time>
      </trkpt>
      <trkpt lat="45.85578" lon="4.71331">
        <ele>212.14543</ele>
        <time>2022-09-17T13:28:58.000Z</time>
      </trkpt>
      <trkpt lat="45.85574" lon="4.71333">
        <ele>212.34909</ele>
        <time>2022-09-17T13:28:59.000Z</time>
      </trkpt>
      <trkpt lat="45.8557" lon="4.71335">
        <ele>212.60864</ele>
        <time>2022-09-17T13:29:00.000Z</time>
      </trkpt>
      <trkpt lat="45.85566" lon="4.71337">
        <ele>212.87715</ele>
        <time>2022-09-17T13:29:01.000Z</time>
      </trkpt>
      <trkpt lat="45.85562" lon="4.71339">
        <ele>213.20781</ele>
        <time>2022-09-17T13:29:02.000Z</time>
      </trkpt>
      <trkpt lat="45.85558" lon="4.7134">
        <ele>213.56429</ele>
        <time>2022-09-17T13:29:03.000Z</time>
      </trkpt>
      <trkpt lat="45.85554" lon="4.71341">
        <ele>213.90312</ele>
        <time>2022-09-17T13:29:04.000Z</time>
      </trkpt>
      <trkpt lat="45.85549" lon="4.71342">
        <ele>214.27278</ele>
        <time>2022-09-17T13:29:05.000Z</time>
      </trkpt>
      <trkpt lat="45.85545" lon="4.71344">
        <ele>214.6945</ele>
        <time>2022-09-17T13:29:06.000Z</time>
      </trkpt>
      <trkpt lat="45.85541" lon="4.71345">
        <ele>215.1593</ele>
        <time>2022-09-17T13:29:07.000Z</time>
      </trkpt>
      <trkpt lat="45.85537" lon="4.71346">
        <ele>215.75053</ele>
        <time>2022-09-17T13:29:08.000Z</time>
      </trkpt>
      <trkpt lat="45.85533" lon="4.71347">
        <ele>216.29349</ele>
        <time>2022-09-17T13:29:09.000Z</time>
      </trkpt>
      <trkpt lat="45.85529" lon="4.71348">
        <ele>216.84282</ele>
        <time>2022-09-17T13:29:10.000Z</time>
      </trkpt>
      <trkpt lat="45.85525" lon="4.71349">
        <ele>217.46884</ele>
        <time>2022-09-17T13:29:11.000Z</time>
      </trkpt>
      <trkpt lat="45.85521" lon="4.7135">
        <ele>218.05693</ele>
        <time>2022-09-17T13:29:12.000Z</time>
      </trkpt>
      <trkpt lat="45.85517" lon="4.71351">
        <ele>218.64371</ele>
        <time>2022-09-17T13:29:13.000Z</time>
      </trkpt>
      <trkpt lat="45.85513" lon="4.71352">
        <ele>219.22029</ele>
        <time>2022-09-17T13:29:14.000Z</time>
      </trkpt>
      <trkpt lat="45.85509" lon="4.71352">
        <ele>219.86015</ele>
        <time>2022-09-17T13:29:15.000Z</time>
      </trkpt>
      <trkpt lat="45.85505" lon="4.71353">
        <ele>220.43173</ele>
        <time>2022-09-17T13:29:16.000Z</time>
      </trkpt>
      <trkpt lat="45.85501" lon="4.71355">
        <ele>221.04233</ele>
        <time>2022-09-17T13:29:17.000Z</time>
      </trkpt>
      <trkpt lat="45.85497" lon="4.71356">
        <ele>221.61368</ele>
        <time>2022-09-17T13:29:18.000Z</time>
      </trkpt>
      <trkpt lat="45.85493" lon="4.71357">
        <ele>222.1427</ele>
        <time>2022-09-17T13:29:19.000Z</time>
      </trkpt>
      <trkpt lat="45.85489" lon="4.71358">
        <ele>222.6606</ele>
        <time>2022-09-17T13:29:20.000Z</time>
      </trkpt>
      <trkpt lat="45.85485" lon="4.71359">
        <ele>223.17624</ele>
        <time>2022-09-17T13:29:21.000Z</time>
      </trkpt>
      <trkpt lat="45.85481" lon="4.7136">
        <ele>223.66264</ele>
        <time>2022-09-17T13:29:22.000Z</time>
      </trkpt>
      <trkpt lat="45.85477" lon="4.71362">
        <ele>224.14091</ele>
        <time>2022-09-17T13:29:23.000Z</time>
      </trkpt>
      <trkpt lat="45.85473" lon="4.71363">
        <ele>224.61966</ele>
        <time>2022-09-17T13:29:24.000Z</time>
      </trkpt>
      <trkpt lat="45.8547" lon="4.71366">
        <ele>225.08549</ele>
        <time>2022-09-17T13:29:25.000Z</time>
      </trkpt>
      <trkpt lat="45.85466" lon="4.71368">
        <ele>225.5052</ele>
        <time>2022-09-17T13:29:26.000Z</time>
      </trkpt>
      <trkpt lat="45.85462" lon="4.71371">
        <ele>225.87285</ele>
        <time>2022-09-17T13:29:27.000Z</time>
      </trkpt>
      <trkpt lat="45.85459" lon="4.71373">
        <ele>226.22783</ele>
        <time>2022-09-17T13:29:28.000Z</time>
      </trkpt>
      <trkpt lat="45.85455" lon="4.71376">
        <ele>226.64558</ele>
        <time>2022-09-17T13:29:29.000Z</time>
      </trkpt>
      <trkpt lat="45.85452" lon="4.71378">
        <ele>227.04675</ele>
        <time>2022-09-17T13:29:30.000Z</time>
      </trkpt>
      <trkpt lat="45.85448" lon="4.71381">
        <ele>227.48062</ele>
        <time>2022-09-17T13:29:31.000Z</time>
      </trkpt>
      <trkpt lat="45.85445" lon="4.71384">
        <ele>227.91354</ele>
        <time>2022-09-17T13:29:32.000Z</time>
      </trkpt>
      <trkpt lat="45.85441" lon="4.71387">
        <ele>228.35205</ele>
        <time>2022-09-17T13:29:33.000Z</time>
      </trkpt>
      <trkpt lat="45.85438" lon="4.7139">
        <ele>228.77756</ele>
        <time>2022-09-17T13:29:34.000Z</time>
      </trkpt>
      <trkpt lat="45.85434" lon="4.71393">
        <ele>229.22141</ele>
        <time>2022-09-17T13:29:35.000Z</time>
      </trkpt>
      <trkpt lat="45.8543" lon="4.71396">
        <ele>229.72673</ele>
        <time>2022-09-17T13:29:36.000Z</time>
      </trkpt>
      <trkpt lat="45.85427" lon="4.71399">
        <ele>230.17062</ele>
        <time>2022-09-17T13:29:37.000Z</time>
      </trkpt>
      <trkpt lat="45.85423" lon="4.71401">
        <ele>230.66708</ele>
        <time>2022-09-17T13:29:38.000Z</time>
      </trkpt>
      <trkpt lat="45.8542" lon="4.71404">
        <ele>231.11719</ele>
        <time>2022-09-17T13:29:39.000Z</time>
      </trkpt>
      <trkpt lat="45.85417" lon="4.71407">
        <ele>231.54399</ele>
        <time>2022-09-17T13:29:40.000Z</time>
      </trkpt>
      <trkpt lat="45.85414" lon="4.7141">
        <ele>231.98674</ele>
        <time>2022-09-17T13:29:41.000Z</time>
      </trkpt>
      <trkpt lat="45.8541" lon="4.71412">
        <ele>232.43848</ele>
        <time>2022-09-17T13:29:42.000Z</time>
      </trkpt>
      <trkpt lat="45.85407" lon="4.71416">
        <ele>232.88399</ele>
        <time>2022-09-17T13:29:43.000Z</time>
      </trkpt>
      <trkpt lat="45.85403" lon="4.71419">
        <ele>233.35567</ele>
        <time>2022-09-17T13:29:44.000Z</time>
      </trkpt>
      <trkpt lat="45.854" lon="4.71422">
        <ele>233.82671</ele>
        <time>2022-09-17T13:29:45.000Z</time>
      </trkpt>
      <trkpt lat="45.85396" lon="4.71425">
        <ele>234.26396</ele>
        <time>2022-09-17T13:29:46.000Z</time>
      </trkpt>
      <trkpt lat="45.85392" lon="4.71428">
        <ele>234.68806</ele>
        <time>2022-09-17T13:29:47.000Z</time>
      </trkpt>
      <trkpt lat="45.85387" lon="4.71433">
        <ele>235.04984</ele>
        <time>2022-09-17T13:29:48.000Z</time>
      </trkpt>
      <trkpt lat="45.85383" lon="4.71436">
        <ele>235.39188</ele>
        <time>2022-09-17T13:29:49.000Z</time>
      </trkpt>
      <trkpt lat="45.85379" lon="4.71439">
        <ele>235.70071</ele>
        <time>2022-09-17T13:29:50.000Z</time>
      </trkpt>
      <trkpt lat="45.85376" lon="4.71442">
        <ele>235.98337</ele>
        <time>2022-09-17T13:29:51.000Z</time>
      </trkpt>
      <trkpt lat="45.85372" lon="4.71446">
        <ele>236.27054</ele>
        <time>2022-09-17T13:29:52.000Z</time>
      </trkpt>
      <trkpt lat="45.85368" lon="4.71449">
        <ele>236.49829</ele>
        <time>2022-09-17T13:29:53.000Z</time>
      </trkpt>
      <trkpt lat="45.85365" lon="4.71453">
        <ele>236.6788</ele>
        <time>2022-09-17T13:29:54.000Z</time>
      </trkpt>
      <trkpt lat="45.85361" lon="4.71456">
        <ele>236.86441</ele>
        <time>2022-09-17T13:29:55.000Z</time>
      </trkpt>
      <trkpt lat="45.85357" lon="4.7146">
        <ele>237.0031</ele>
        <time>2022-09-17T13:29:56.000Z</time>
      </trkpt>
      <trkpt lat="45.85353" lon="4.71461">
        <ele>237.02072</ele>
        <time>2022-09-17T13:29:57.000Z</time>
      </trkpt>
      <trkpt lat="45.8535" lon="4.71464">
        <ele>236.97012</ele>
        <time>2022-09-17T13:29:58.000Z</time>
      </trkpt>
      <trkpt lat="45.85346" lon="4.71468">
        <ele>236.86392</ele>
        <time>2022-09-17T13:29:59.000Z</time>
      </trkpt>
      <trkpt lat="45.85342" lon="4.71471">
        <ele>236.74658</ele>
        <time>2022-09-17T13:30:00.000Z</time>
      </trkpt>
      <trkpt lat="45.85338" lon="4.71475">
        <ele>236.61411</ele>
        <time>2022-09-17T13:30:01.000Z</time>
      </trkpt>
      <trkpt lat="45.85333" lon="4.7148">
        <ele>236.4034</ele>
        <time>2022-09-17T13:30:02.000Z</time>
      </trkpt>
      <trkpt lat="45.85329" lon="4.71484">
        <ele>236.09148</ele>
        <time>2022-09-17T13:30:03.000Z</time>
      </trkpt>
      <trkpt lat="45.85326" lon="4.71488">
        <ele>235.73372</ele>
        <time>2022-09-17T13:30:04.000Z</time>
      </trkpt>
      <trkpt lat="45.85323" lon="4.71491">
        <ele>235.26602</ele>
        <time>2022-09-17T13:30:05.000Z</time>
      </trkpt>
      <trkpt lat="45.85319" lon="4.71494">
        <ele>234.73955</ele>
        <time>2022-09-17T13:30:06.000Z</time>
      </trkpt>
      <trkpt lat="45.85316" lon="4.71498">
        <ele>234.1403</ele>
        <time>2022-09-17T13:30:07.000Z</time>
      </trkpt>
      <trkpt lat="45.85312" lon="4.71502">
        <ele>233.6022</ele>
        <time>2022-09-17T13:30:08.000Z</time>
      </trkpt>
      <trkpt lat="45.85307" lon="4.71506">
        <ele>233.06702</ele>
        <time>2022-09-17T13:30:09.000Z</time>
      </trkpt>
      <trkpt lat="45.85303" lon="4.71509">
        <ele>232.5625</ele>
        <time>2022-09-17T13:30:10.000Z</time>
      </trkpt>
      <trkpt lat="45.85299" lon="4.71511">
        <ele>232.02568</ele>
        <time>2022-09-17T13:30:11.000Z</time>
      </trkpt>
      <trkpt lat="45.85296" lon="4.71514">
        <ele>231.48111</ele>
        <time>2022-09-17T13:30:12.000Z</time>
      </trkpt>
      <trkpt lat="45.85292" lon="4.71519">
        <ele>230.99956</ele>
        <time>2022-09-17T13:30:13.000Z</time>
      </trkpt>
      <trkpt lat="45.85287" lon="4.71525">
        <ele>230.58762</ele>
        <time>2022-09-17T13:30:14.000Z</time>
      </trkpt>
      <trkpt lat="45.85282" lon="4.71528">
        <ele>230.13989</ele>
        <time>2022-09-17T13:30:15.000Z</time>
      </trkpt>
      <trkpt lat="45.85277" lon="4.7153">
        <ele>229.74702</ele>
        <time>2022-09-17T13:30:16.000Z</time>
      </trkpt>
      <trkpt lat="45.85273" lon="4.71534">
        <ele>229.55148</ele>
        <time>2022-09-17T13:30:17.000Z</time>
      </trkpt>
      <trkpt lat="45.85268" lon="4.71535">
        <ele>229.45016</ele>
        <time>2022-09-17T13:30:18.000Z</time>
      </trkpt>
      <trkpt lat="45.85263" lon="4.71537">
        <ele>229.42468</ele>
        <time>2022-09-17T13:30:19.000Z</time>
      </trkpt>
      <trkpt lat="45.85259" lon="4.71539">
        <ele>229.45688</ele>
        <time>2022-09-17T13:30:20.000Z</time>
      </trkpt>
      <trkpt lat="45.85255" lon="4.71543">
        <ele>229.53879</ele>
        <time>2022-09-17T13:30:21.000Z</time>
      </trkpt>
      <trkpt lat="45.8525" lon="4.71546">
        <ele>229.66956</ele>
        <time>2022-09-17T13:30:22.000Z</time>
      </trkpt>
      <trkpt lat="45.85246" lon="4.71547">
        <ele>229.87296</ele>
        <time>2022-09-17T13:30:23.000Z</time>
      </trkpt>
      <trkpt lat="45.85241" lon="4.7155">
        <ele>230.05254</ele>
        <time>2022-09-17T13:30:24.000Z</time>
      </trkpt>
      <trkpt lat="45.85235" lon="4.71553">
        <ele>230.30684</ele>
        <time>2022-09-17T13:30:25.000Z</time>
      </trkpt>
      <trkpt lat="45.8523" lon="4.71555">
        <ele>230.61894</ele>
        <time>2022-09-17T13:30:26.000Z</time>
      </trkpt>
      <trkpt lat="45.85223" lon="4.71557">
        <ele>230.98856</ele>
        <time>2022-09-17T13:30:27.000Z</time>
      </trkpt>
      <trkpt lat="45.85219" lon="4.71559">
        <ele>231.36104</ele>
        <time>2022-09-17T13:30:28.000Z</time>
      </trkpt>
      <trkpt lat="45.85213" lon="4.71562">
        <ele>231.66663</ele>
        <time>2022-09-17T13:30:29.000Z</time>
      </trkpt>
      <trkpt lat="45.85208" lon="4.71564">
        <ele>232.0015</ele>
        <time>2022-09-17T13:30:30.000Z</time>
      </trkpt>
      <trkpt lat="45.85203" lon="4.71568">
        <ele>232.28079</ele>
        <time>2022-09-17T13:30:31.000Z</time>
      </trkpt>
      <trkpt lat="45.85197" lon="4.71572">
        <ele>232.46468</ele>
        <time>2022-09-17T13:30:32.000Z</time>
      </trkpt>
      <trkpt lat="45.85191" lon="4.71575">
        <ele>232.61905</ele>
        <time>2022-09-17T13:30:33.000Z</time>
      </trkpt>
      <trkpt lat="45.85186" lon="4.71578">
        <ele>232.722</ele>
        <time>2022-09-17T13:30:34.000Z</time>
      </trkpt>
      <trkpt lat="45.85181" lon="4.71581">
        <ele>232.86772</ele>
        <time>2022-09-17T13:30:35.000Z</time>
      </trkpt>
      <trkpt lat="45.85175" lon="4.71585">
        <ele>232.88367</ele>
        <time>2022-09-17T13:30:36.000Z</time>
      </trkpt>
      <trkpt lat="45.8517" lon="4.71585">
        <ele>232.85954</ele>
        <time>2022-09-17T13:30:37.000Z</time>
      </trkpt>
      <trkpt lat="45.85165" lon="4.71587">
        <ele>232.78317</ele>
        <time>2022-09-17T13:30:38.000Z</time>
      </trkpt>
      <trkpt lat="45.8516" lon="4.7159">
        <ele>232.70039</ele>
        <time>2022-09-17T13:30:39.000Z</time>
      </trkpt>
      <trkpt lat="45.85155" lon="4.71593">
        <ele>232.61272</ele>
        <time>2022-09-17T13:30:40.000Z</time>
      </trkpt>
      <trkpt lat="45.8515" lon="4.71593">
        <ele>232.47722</ele>
        <time>2022-09-17T13:30:41.000Z</time>
      </trkpt>
      <trkpt lat="45.85145" lon="4.71595">
        <ele>232.31941</ele>
        <time>2022-09-17T13:30:42.000Z</time>
      </trkpt>
      <trkpt lat="45.8514" lon="4.71597">
        <ele>232.0629</ele>
        <time>2022-09-17T13:30:43.000Z</time>
      </trkpt>
      <trkpt lat="45.85134" lon="4.71598">
        <ele>231.74023</ele>
        <time>2022-09-17T13:30:44.000Z</time>
      </trkpt>
      <trkpt lat="45.85129" lon="4.71597">
        <ele>231.40312</ele>
        <time>2022-09-17T13:30:45.000Z</time>
      </trkpt>
      <trkpt lat="45.85124" lon="4.71596">
        <ele>231.08871</ele>
        <time>2022-09-17T13:30:46.000Z</time>
      </trkpt>
      <trkpt lat="45.85121" lon="4.71597">
        <ele>230.9285</ele>
        <time>2022-09-17T13:30:47.000Z</time>
      </trkpt>
      <trkpt lat="45.85116" lon="4.71599">
        <ele>230.71577</ele>
        <time>2022-09-17T13:30:48.000Z</time>
      </trkpt>
      <trkpt lat="45.85111" lon="4.716">
        <ele>230.54736</ele>
        <time>2022-09-17T13:30:49.000Z</time>
      </trkpt>
      <trkpt lat="45.85108" lon="4.71602">
        <ele>230.36819</ele>
        <time>2022-09-17T13:30:50.000Z</time>
      </trkpt>
      <trkpt lat="45.85104" lon="4.71608">
        <ele>230.11308</ele>
        <time>2022-09-17T13:30:51.000Z</time>
      </trkpt>
      <trkpt lat="45.851" lon="4.7161">
        <ele>229.96329</ele>
        <time>2022-09-17T13:30:52.000Z</time>
      </trkpt>
      <trkpt lat="45.85095" lon="4.71613">
        <ele>229.73589</ele>
        <time>2022-09-17T13:30:53.000Z</time>
      </trkpt>
      <trkpt lat="45.8509" lon="4.71616">
        <ele>229.56717</ele>
        <time>2022-09-17T13:30:54.000Z</time>
      </trkpt>
      <trkpt lat="45.85085" lon="4.71618">
        <ele>229.40979</ele>
        <time>2022-09-17T13:30:55.000Z</time>
      </trkpt>
      <trkpt lat="45.8508" lon="4.71622">
        <ele>229.35115</ele>
        <time>2022-09-17T13:30:56.000Z</time>
      </trkpt>
      <trkpt lat="45.85075" lon="4.71623">
        <ele>229.20859</ele>
        <time>2022-09-17T13:30:57.000Z</time>
      </trkpt>
      <trkpt lat="45.8507" lon="4.71625">
        <ele>229.03189</ele>
        <time>2022-09-17T13:30:58.000Z</time>
      </trkpt>
      <trkpt lat="45.85066" lon="4.71629">
        <ele>228.7972</ele>
        <time>2022-09-17T13:30:59.000Z</time>
      </trkpt>
      <trkpt lat="45.85061" lon="4.7163">
        <ele>228.57126</ele>
        <time>2022-09-17T13:31:00.000Z</time>
      </trkpt>
      <trkpt lat="45.85056" lon="4.71633">
        <ele>228.42517</ele>
        <time>2022-09-17T13:31:01.000Z</time>
      </trkpt>
      <trkpt lat="45.85051" lon="4.71638">
        <ele>228.28149</ele>
        <time>2022-09-17T13:31:02.000Z</time>
      </trkpt>
      <trkpt lat="45.85045" lon="4.71639">
        <ele>228.2513</ele>
        <time>2022-09-17T13:31:03.000Z</time>
      </trkpt>
      <trkpt lat="45.8504" lon="4.71642">
        <ele>228.38196</ele>
        <time>2022-09-17T13:31:04.000Z</time>
      </trkpt>
      <trkpt lat="45.85035" lon="4.71645">
        <ele>228.58081</ele>
        <time>2022-09-17T13:31:05.000Z</time>
      </trkpt>
      <trkpt lat="45.8503" lon="4.71648">
        <ele>228.82336</ele>
        <time>2022-09-17T13:31:06.000Z</time>
      </trkpt>
      <trkpt lat="45.85025" lon="4.7165">
        <ele>228.94211</ele>
        <time>2022-09-17T13:31:07.000Z</time>
      </trkpt>
      <trkpt lat="45.85019" lon="4.71653">
        <ele>229.15828</ele>
        <time>2022-09-17T13:31:08.000Z</time>
      </trkpt>
      <trkpt lat="45.85015" lon="4.71655">
        <ele>229.33781</ele>
        <time>2022-09-17T13:31:09.000Z</time>
      </trkpt>
      <trkpt lat="45.85012" lon="4.71658">
        <ele>229.50485</ele>
        <time>2022-09-17T13:31:10.000Z</time>
      </trkpt>
      <trkpt lat="45.85008" lon="4.7166">
        <ele>229.84016</ele>
        <time>2022-09-17T13:31:11.000Z</time>
      </trkpt>
      <trkpt lat="45.85004" lon="4.71661">
        <ele>230.17805</ele>
        <time>2022-09-17T13:31:12.000Z</time>
      </trkpt>
      <trkpt lat="45.85003" lon="4.71664">
        <ele>230.51888</ele>
        <time>2022-09-17T13:31:13.000Z</time>
      </trkpt>
      <trkpt lat="45.84999" lon="4.71665">
        <ele>230.83711</ele>
        <time>2022-09-17T13:31:14.000Z</time>
      </trkpt>
      <trkpt lat="45.84996" lon="4.71666">
        <ele>231.17068</ele>
        <time>2022-09-17T13:31:15.000Z</time>
      </trkpt>
      <trkpt lat="45.84993" lon="4.71668">
        <ele>231.53171</ele>
        <time>2022-09-17T13:31:16.000Z</time>
      </trkpt>
      <trkpt lat="45.84991" lon="4.71668">
        <ele>231.99741</ele>
        <time>2022-09-17T13:31:17.000Z</time>
      </trkpt>
      <trkpt lat="45.84988" lon="4.71669">
        <ele>232.51266</ele>
        <time>2022-09-17T13:31:18.000Z</time>
      </trkpt>
      <trkpt lat="45.84985" lon="4.71668">
        <ele>233.12891</ele>
        <time>2022-09-17T13:31:19.000Z</time>
      </trkpt>
      <trkpt lat="45.84982" lon="4.7167">
        <ele>233.76543</ele>
        <time>2022-09-17T13:31:20.000Z</time>
      </trkpt>
      <trkpt lat="45.84979" lon="4.7167">
        <ele>234.32288</ele>
        <time>2022-09-17T13:31:21.000Z</time>
      </trkpt>
      <trkpt lat="45.84975" lon="4.7167">
        <ele>234.88553</ele>
        <time>2022-09-17T13:31:22.000Z</time>
      </trkpt>
      <trkpt lat="45.84972" lon="4.71671">
        <ele>235.51607</ele>
        <time>2022-09-17T13:31:23.000Z</time>
      </trkpt>
      <trkpt lat="45.84969" lon="4.71671">
        <ele>236.10205</ele>
        <time>2022-09-17T13:31:24.000Z</time>
      </trkpt>
      <trkpt lat="45.84965" lon="4.71671">
        <ele>236.63187</ele>
        <time>2022-09-17T13:31:25.000Z</time>
      </trkpt>
      <trkpt lat="45.84962" lon="4.71672">
        <ele>237.06863</ele>
        <time>2022-09-17T13:31:26.000Z</time>
      </trkpt>
      <trkpt lat="45.84959" lon="4.71671">
        <ele>237.48438</ele>
        <time>2022-09-17T13:31:27.000Z</time>
      </trkpt>
      <trkpt lat="45.84956" lon="4.71671">
        <ele>237.74304</ele>
        <time>2022-09-17T13:31:28.000Z</time>
      </trkpt>
      <trkpt lat="45.84952" lon="4.7167">
        <ele>237.97505</ele>
        <time>2022-09-17T13:31:29.000Z</time>
      </trkpt>
      <trkpt lat="45.84948" lon="4.71669">
        <ele>238.19939</ele>
        <time>2022-09-17T13:31:30.000Z</time>
      </trkpt>
      <trkpt lat="45.84944" lon="4.71667">
        <ele>238.34322</ele>
        <time>2022-09-17T13:31:31.000Z</time>
      </trkpt>
      <trkpt lat="45.8494" lon="4.71666">
        <ele>238.43057</ele>
        <time>2022-09-17T13:31:32.000Z</time>
      </trkpt>
      <trkpt lat="45.84936" lon="4.71664">
        <ele>238.5439</ele>
        <time>2022-09-17T13:31:33.000Z</time>
      </trkpt>
      <trkpt lat="45.84933" lon="4.71663">
        <ele>238.62212</ele>
        <time>2022-09-17T13:31:34.000Z</time>
      </trkpt>
      <trkpt lat="45.8493" lon="4.71662">
        <ele>238.69153</ele>
        <time>2022-09-17T13:31:35.000Z</time>
      </trkpt>
      <trkpt lat="45.84926" lon="4.71662">
        <ele>238.7496</ele>
        <time>2022-09-17T13:31:36.000Z</time>
      </trkpt>
      <trkpt lat="45.84922" lon="4.71663">
        <ele>238.78574</ele>
        <time>2022-09-17T13:31:37.000Z</time>
      </trkpt>
      <trkpt lat="45.84918" lon="4.71664">
        <ele>238.73474</ele>
        <time>2022-09-17T13:31:38.000Z</time>
      </trkpt>
      <trkpt lat="45.84914" lon="4.71664">
        <ele>238.63943</ele>
        <time>2022-09-17T13:31:39.000Z</time>
      </trkpt>
      <trkpt lat="45.8491" lon="4.71665">
        <ele>238.48389</ele>
        <time>2022-09-17T13:31:40.000Z</time>
      </trkpt>
      <trkpt lat="45.84906" lon="4.71665">
        <ele>238.38127</ele>
        <time>2022-09-17T13:31:41.000Z</time>
      </trkpt>
      <trkpt lat="45.84901" lon="4.71666">
        <ele>238.25046</ele>
        <time>2022-09-17T13:31:42.000Z</time>
      </trkpt>
      <trkpt lat="45.84896" lon="4.71669">
        <ele>238.06198</ele>
        <time>2022-09-17T13:31:43.000Z</time>
      </trkpt>
      <trkpt lat="45.84892" lon="4.7167">
        <ele>237.87553</ele>
        <time>2022-09-17T13:31:44.000Z</time>
      </trkpt>
      <trkpt lat="45.84888" lon="4.71671">
        <ele>237.80093</ele>
        <time>2022-09-17T13:31:45.000Z</time>
      </trkpt>
      <trkpt lat="45.84884" lon="4.71674">
        <ele>237.77966</ele>
        <time>2022-09-17T13:31:46.000Z</time>
      </trkpt>
      <trkpt lat="45.8488" lon="4.71677">
        <ele>237.73128</ele>
        <time>2022-09-17T13:31:47.000Z</time>
      </trkpt>
      <trkpt lat="45.84876" lon="4.7168">
        <ele>237.72083</ele>
        <time>2022-09-17T13:31:48.000Z</time>
      </trkpt>
      <trkpt lat="45.84872" lon="4.71682">
        <ele>237.71335</ele>
        <time>2022-09-17T13:31:49.000Z</time>
      </trkpt>
      <trkpt lat="45.84867" lon="4.71683">
        <ele>237.69034</ele>
        <time>2022-09-17T13:31:50.000Z</time>
      </trkpt>
      <trkpt lat="45.84861" lon="4.71685">
        <ele>237.65244</ele>
        <time>2022-09-17T13:31:51.000Z</time>
      </trkpt>
      <trkpt lat="45.84856" lon="4.71688">
        <ele>237.62712</ele>
        <time>2022-09-17T13:31:52.000Z</time>
      </trkpt>
      <trkpt lat="45.84853" lon="4.7169">
        <ele>237.63791</ele>
        <time>2022-09-17T13:31:53.000Z</time>
      </trkpt>
      <trkpt lat="45.84849" lon="4.71694">
        <ele>237.56401</ele>
        <time>2022-09-17T13:31:54.000Z</time>
      </trkpt>
      <trkpt lat="45.84845" lon="4.71697">
        <ele>237.45633</ele>
        <time>2022-09-17T13:31:55.000Z</time>
      </trkpt>
      <trkpt lat="45.8484" lon="4.71697">
        <ele>237.32068</ele>
        <time>2022-09-17T13:31:56.000Z</time>
      </trkpt>
      <trkpt lat="45.84836" lon="4.71701">
        <ele>237.11459</ele>
        <time>2022-09-17T13:31:57.000Z</time>
      </trkpt>
      <trkpt lat="45.84832" lon="4.71703">
        <ele>236.95113</ele>
        <time>2022-09-17T13:31:58.000Z</time>
      </trkpt>
      <trkpt lat="45.84826" lon="4.71705">
        <ele>236.7885</ele>
        <time>2022-09-17T13:31:59.000Z</time>
      </trkpt>
      <trkpt lat="45.84822" lon="4.71708">
        <ele>236.50594</ele>
        <time>2022-09-17T13:32:00.000Z</time>
      </trkpt>
      <trkpt lat="45.84819" lon="4.71711">
        <ele>236.15979</ele>
        <time>2022-09-17T13:32:01.000Z</time>
      </trkpt>
      <trkpt lat="45.84814" lon="4.71714">
        <ele>235.88313</ele>
        <time>2022-09-17T13:32:02.000Z</time>
      </trkpt>
      <trkpt lat="45.8481" lon="4.71717">
        <ele>235.60295</ele>
        <time>2022-09-17T13:32:03.000Z</time>
      </trkpt>
      <trkpt lat="45.84806" lon="4.7172">
        <ele>235.33841</ele>
        <time>2022-09-17T13:32:04.000Z</time>
      </trkpt>
      <trkpt lat="45.84801" lon="4.71722">
        <ele>235.01663</ele>
        <time>2022-09-17T13:32:05.000Z</time>
      </trkpt>
      <trkpt lat="45.84797" lon="4.71724">
        <ele>234.66316</ele>
        <time>2022-09-17T13:32:06.000Z</time>
      </trkpt>
      <trkpt lat="45.84793" lon="4.71728">
        <ele>234.34085</ele>
        <time>2022-09-17T13:32:07.000Z</time>
      </trkpt>
      <trkpt lat="45.84788" lon="4.7173">
        <ele>234.03329</ele>
        <time>2022-09-17T13:32:08.000Z</time>
      </trkpt>
      <trkpt lat="45.84783" lon="4.71735">
        <ele>233.80489</ele>
        <time>2022-09-17T13:32:09.000Z</time>
      </trkpt>
      <trkpt lat="45.84778" lon="4.71738">
        <ele>233.52548</ele>
        <time>2022-09-17T13:32:10.000Z</time>
      </trkpt>
      <trkpt lat="45.84773" lon="4.71741">
        <ele>233.30423</ele>
        <time>2022-09-17T13:32:11.000Z</time>
      </trkpt>
      <trkpt lat="45.84768" lon="4.71747">
        <ele>233.07649</ele>
        <time>2022-09-17T13:32:12.000Z</time>
      </trkpt>
      <trkpt lat="45.84764" lon="4.71749">
        <ele>232.90787</ele>
        <time>2022-09-17T13:32:13.000Z</time>
      </trkpt>
      <trkpt lat="45.8476" lon="4.71753">
        <ele>232.8519</ele>
        <time>2022-09-17T13:32:14.000Z</time>
      </trkpt>
      <trkpt lat="45.84755" lon="4.71756">
        <ele>232.87106</ele>
        <time>2022-09-17T13:32:15.000Z</time>
      </trkpt>
      <trkpt lat="45.8475" lon="4.7176">
        <ele>232.91406</ele>
        <time>2022-09-17T13:32:16.000Z</time>
      </trkpt>
      <trkpt lat="45.84745" lon="4.71762">
        <ele>233.01624</ele>
        <time>2022-09-17T13:32:17.000Z</time>
      </trkpt>
      <trkpt lat="45.84739" lon="4.71765">
        <ele>233.14339</ele>
        <time>2022-09-17T13:32:18.000Z</time>
      </trkpt>
      <trkpt lat="45.84732" lon="4.71768">
        <ele>233.20911</ele>
        <time>2022-09-17T13:32:19.000Z</time>
      </trkpt>
      <trkpt lat="45.84727" lon="4.7177">
        <ele>233.41353</ele>
        <time>2022-09-17T13:32:20.000Z</time>
      </trkpt>
      <trkpt lat="45.84721" lon="4.71772">
        <ele>233.66597</ele>
        <time>2022-09-17T13:32:21.000Z</time>
      </trkpt>
      <trkpt lat="45.84716" lon="4.71771">
        <ele>233.8243</ele>
        <time>2022-09-17T13:32:22.000Z</time>
      </trkpt>
      <trkpt lat="45.84711" lon="4.71774">
        <ele>234.01106</ele>
        <time>2022-09-17T13:32:23.000Z</time>
      </trkpt>
      <trkpt lat="45.84706" lon="4.71775">
        <ele>234.17905</ele>
        <time>2022-09-17T13:32:24.000Z</time>
      </trkpt>
      <trkpt lat="45.84701" lon="4.71779">
        <ele>234.22237</ele>
        <time>2022-09-17T13:32:25.000Z</time>
      </trkpt>
      <trkpt lat="45.84696" lon="4.71781">
        <ele>234.23669</ele>
        <time>2022-09-17T13:32:26.000Z</time>
      </trkpt>
      <trkpt lat="45.84691" lon="4.71783">
        <ele>234.30363</ele>
        <time>2022-09-17T13:32:27.000Z</time>
      </trkpt>
      <trkpt lat="45.84685" lon="4.71787">
        <ele>234.49756</ele>
        <time>2022-09-17T13:32:28.000Z</time>
      </trkpt>
      <trkpt lat="45.8468" lon="4.7179">
        <ele>234.69099</ele>
        <time>2022-09-17T13:32:29.000Z</time>
      </trkpt>
      <trkpt lat="45.84674" lon="4.71793">
        <ele>234.92453</ele>
        <time>2022-09-17T13:32:30.000Z</time>
      </trkpt>
      <trkpt lat="45.84669" lon="4.71799">
        <ele>235.06943</ele>
        <time>2022-09-17T13:32:31.000Z</time>
      </trkpt>
      <trkpt lat="45.84661" lon="4.71802">
        <ele>235.1171</ele>
        <time>2022-09-17T13:32:32.000Z</time>
      </trkpt>
      <trkpt lat="45.84655" lon="4.71806">
        <ele>235.09238</ele>
        <time>2022-09-17T13:32:33.000Z</time>
      </trkpt>
      <trkpt lat="45.8465" lon="4.71809">
        <ele>235.07217</ele>
        <time>2022-09-17T13:32:34.000Z</time>
      </trkpt>
      <trkpt lat="45.84644" lon="4.71812">
        <ele>235.00334</ele>
        <time>2022-09-17T13:32:35.000Z</time>
      </trkpt>
      <trkpt lat="45.84638" lon="4.71814">
        <ele>234.8855</ele>
        <time>2022-09-17T13:32:36.000Z</time>
      </trkpt>
      <trkpt lat="45.84633" lon="4.71817">
        <ele>234.82687</ele>
        <time>2022-09-17T13:32:37.000Z</time>
      </trkpt>
      <trkpt lat="45.84626" lon="4.71821">
        <ele>234.75508</ele>
        <time>2022-09-17T13:32:38.000Z</time>
      </trkpt>
      <trkpt lat="45.84621" lon="4.71823">
        <ele>234.73227</ele>
        <time>2022-09-17T13:32:39.000Z</time>
      </trkpt>
      <trkpt lat="45.84616" lon="4.71826">
        <ele>234.70894</ele>
        <time>2022-09-17T13:32:40.000Z</time>
      </trkpt>
      <trkpt lat="45.84611" lon="4.71829">
        <ele>234.66658</ele>
        <time>2022-09-17T13:32:41.000Z</time>
      </trkpt>
      <trkpt lat="45.84607" lon="4.71832">
        <ele>234.70779</ele>
        <time>2022-09-17T13:32:42.000Z</time>
      </trkpt>
      <trkpt lat="45.84602" lon="4.71835">
        <ele>234.70334</ele>
        <time>2022-09-17T13:32:43.000Z</time>
      </trkpt>
      <trkpt lat="45.84596" lon="4.71837">
        <ele>234.65051</ele>
        <time>2022-09-17T13:32:44.000Z</time>
      </trkpt>
      <trkpt lat="45.8459" lon="4.7184">
        <ele>234.76303</ele>
        <time>2022-09-17T13:32:45.000Z</time>
      </trkpt>
      <trkpt lat="45.84583" lon="4.71846">
        <ele>234.78018</ele>
        <time>2022-09-17T13:32:46.000Z</time>
      </trkpt>
      <trkpt lat="45.84579" lon="4.71848">
        <ele>234.77405</ele>
        <time>2022-09-17T13:32:47.000Z</time>
      </trkpt>
      <trkpt lat="45.84573" lon="4.71853">
        <ele>234.71729</ele>
        <time>2022-09-17T13:32:48.000Z</time>
      </trkpt>
      <trkpt lat="45.84568" lon="4.71857">
        <ele>234.6647</ele>
        <time>2022-09-17T13:32:49.000Z</time>
      </trkpt>
      <trkpt lat="45.84561" lon="4.71859">
        <ele>234.69331</ele>
        <time>2022-09-17T13:32:50.000Z</time>
      </trkpt>
      <trkpt lat="45.84556" lon="4.71862">
        <ele>234.7908</ele>
        <time>2022-09-17T13:32:51.000Z</time>
      </trkpt>
      <trkpt lat="45.8455" lon="4.71866">
        <ele>235.03384</ele>
        <time>2022-09-17T13:32:52.000Z</time>
      </trkpt>
      <trkpt lat="45.84545" lon="4.71869">
        <ele>235.32828</ele>
        <time>2022-09-17T13:32:53.000Z</time>
      </trkpt>
      <trkpt lat="45.8454" lon="4.71873">
        <ele>235.70703</ele>
        <time>2022-09-17T13:32:54.000Z</time>
      </trkpt>
      <trkpt lat="45.84536" lon="4.71877">
        <ele>236.0925</ele>
        <time>2022-09-17T13:32:55.000Z</time>
      </trkpt>
      <trkpt lat="45.84531" lon="4.71882">
        <ele>236.4404</ele>
        <time>2022-09-17T13:32:56.000Z</time>
      </trkpt>
      <trkpt lat="45.84526" lon="4.71886">
        <ele>236.7446</ele>
        <time>2022-09-17T13:32:57.000Z</time>
      </trkpt>
      <trkpt lat="45.84522" lon="4.7189">
        <ele>237.10661</ele>
        <time>2022-09-17T13:32:58.000Z</time>
      </trkpt>
      <trkpt lat="45.84518" lon="4.71895">
        <ele>237.50183</ele>
        <time>2022-09-17T13:32:59.000Z</time>
      </trkpt>
      <trkpt lat="45.84514" lon="4.719">
        <ele>237.91255</ele>
        <time>2022-09-17T13:33:00.000Z</time>
      </trkpt>
      <trkpt lat="45.84508" lon="4.71903">
        <ele>238.29314</ele>
        <time>2022-09-17T13:33:01.000Z</time>
      </trkpt>
      <trkpt lat="45.84503" lon="4.71906">
        <ele>238.68607</ele>
        <time>2022-09-17T13:33:02.000Z</time>
      </trkpt>
      <trkpt lat="45.84499" lon="4.71911">
        <ele>239.08037</ele>
        <time>2022-09-17T13:33:03.000Z</time>
      </trkpt>
      <trkpt lat="45.84493" lon="4.71915">
        <ele>239.49112</ele>
        <time>2022-09-17T13:33:04.000Z</time>
      </trkpt>
      <trkpt lat="45.84488" lon="4.71919">
        <ele>239.84843</ele>
        <time>2022-09-17T13:33:05.000Z</time>
      </trkpt>
      <trkpt lat="45.84482" lon="4.71923">
        <ele>240.38101</ele>
        <time>2022-09-17T13:33:06.000Z</time>
      </trkpt>
      <trkpt lat="45.84477" lon="4.71926">
        <ele>241.01331</ele>
        <time>2022-09-17T13:33:07.000Z</time>
      </trkpt>
      <trkpt lat="45.8447" lon="4.71931">
        <ele>241.47263</ele>
        <time>2022-09-17T13:33:08.000Z</time>
      </trkpt>
      <trkpt lat="45.84465" lon="4.71932">
        <ele>241.93369</ele>
        <time>2022-09-17T13:33:09.000Z</time>
      </trkpt>
      <trkpt lat="45.84459" lon="4.71934">
        <ele>242.37881</ele>
        <time>2022-09-17T13:33:10.000Z</time>
      </trkpt>
      <trkpt lat="45.84453" lon="4.71936">
        <ele>242.85385</ele>
        <time>2022-09-17T13:33:11.000Z</time>
      </trkpt>
      <trkpt lat="45.84447" lon="4.71937">
        <ele>243.26741</ele>
        <time>2022-09-17T13:33:12.000Z</time>
      </trkpt>
      <trkpt lat="45.84443" lon="4.71942">
        <ele>243.66635</ele>
        <time>2022-09-17T13:33:13.000Z</time>
      </trkpt>
      <trkpt lat="45.84437" lon="4.71942">
        <ele>243.95969</ele>
        <time>2022-09-17T13:33:14.000Z</time>
      </trkpt>
      <trkpt lat="45.8443" lon="4.71942">
        <ele>244.17233</ele>
        <time>2022-09-17T13:33:15.000Z</time>
      </trkpt>
      <trkpt lat="45.84424" lon="4.71944">
        <ele>244.50581</ele>
        <time>2022-09-17T13:33:16.000Z</time>
      </trkpt>
      <trkpt lat="45.84419" lon="4.71946">
        <ele>244.84163</ele>
        <time>2022-09-17T13:33:17.000Z</time>
      </trkpt>
      <trkpt lat="45.84415" lon="4.71946">
        <ele>245.15976</ele>
        <time>2022-09-17T13:33:18.000Z</time>
      </trkpt>
      <trkpt lat="45.8441" lon="4.71949">
        <ele>245.48296</ele>
        <time>2022-09-17T13:33:19.000Z</time>
      </trkpt>
      <trkpt lat="45.84404" lon="4.7195">
        <ele>245.79037</ele>
        <time>2022-09-17T13:33:20.000Z</time>
      </trkpt>
      <trkpt lat="45.84398" lon="4.71952">
        <ele>246.11401</ele>
        <time>2022-09-17T13:33:21.000Z</time>
      </trkpt>
      <trkpt lat="45.84392" lon="4.71954">
        <ele>246.39072</ele>
        <time>2022-09-17T13:33:22.000Z</time>
      </trkpt>
      <trkpt lat="45.84387" lon="4.71956">
        <ele>246.6917</ele>
        <time>2022-09-17T13:33:23.000Z</time>
      </trkpt>
      <trkpt lat="45.84379" lon="4.71959">
        <ele>246.93933</ele>
        <time>2022-09-17T13:33:24.000Z</time>
      </trkpt>
      <trkpt lat="45.84374" lon="4.7196">
        <ele>247.17635</ele>
        <time>2022-09-17T13:33:25.000Z</time>
      </trkpt>
      <trkpt lat="45.84368" lon="4.71961">
        <ele>247.47969</ele>
        <time>2022-09-17T13:33:26.000Z</time>
      </trkpt>
      <trkpt lat="45.84363" lon="4.71963">
        <ele>247.73369</ele>
        <time>2022-09-17T13:33:27.000Z</time>
      </trkpt>
      <trkpt lat="45.84357" lon="4.71967">
        <ele>248.13586</ele>
        <time>2022-09-17T13:33:28.000Z</time>
      </trkpt>
      <trkpt lat="45.84352" lon="4.71968">
        <ele>248.4838</ele>
        <time>2022-09-17T13:33:29.000Z</time>
      </trkpt>
      <trkpt lat="45.84349" lon="4.71969">
        <ele>248.82747</ele>
        <time>2022-09-17T13:33:30.000Z</time>
      </trkpt>
      <trkpt lat="45.84345" lon="4.71969">
        <ele>249.3044</ele>
        <time>2022-09-17T13:33:31.000Z</time>
      </trkpt>
      <trkpt lat="45.8434" lon="4.7197">
        <ele>249.84204</ele>
        <time>2022-09-17T13:33:32.000Z</time>
      </trkpt>
      <trkpt lat="45.84336" lon="4.71973">
        <ele>250.35429</ele>
        <time>2022-09-17T13:33:33.000Z</time>
      </trkpt>
      <trkpt lat="45.84331" lon="4.71976">
        <ele>250.86911</ele>
        <time>2022-09-17T13:33:34.000Z</time>
      </trkpt>
      <trkpt lat="45.84327" lon="4.71979">
        <ele>251.41867</ele>
        <time>2022-09-17T13:33:35.000Z</time>
      </trkpt>
      <trkpt lat="45.84321" lon="4.71981">
        <ele>251.92671</ele>
        <time>2022-09-17T13:33:36.000Z</time>
      </trkpt>
      <trkpt lat="45.84315" lon="4.71984">
        <ele>252.27669</ele>
        <time>2022-09-17T13:33:37.000Z</time>
      </trkpt>
      <trkpt lat="45.84311" lon="4.71987">
        <ele>252.66057</ele>
        <time>2022-09-17T13:33:38.000Z</time>
      </trkpt>
      <trkpt lat="45.84305" lon="4.71989">
        <ele>253.08305</ele>
        <time>2022-09-17T13:33:39.000Z</time>
      </trkpt>
      <trkpt lat="45.84299" lon="4.71992">
        <ele>253.43222</ele>
        <time>2022-09-17T13:33:40.000Z</time>
      </trkpt>
      <trkpt lat="45.84294" lon="4.71994">
        <ele>253.83618</ele>
        <time>2022-09-17T13:33:41.000Z</time>
      </trkpt>
      <trkpt lat="45.84289" lon="4.71996">
        <ele>254.28293</ele>
        <time>2022-09-17T13:33:42.000Z</time>
      </trkpt>
      <trkpt lat="45.84284" lon="4.71999">
        <ele>254.74251</ele>
        <time>2022-09-17T13:33:43.000Z</time>
      </trkpt>
      <trkpt lat="45.84278" lon="4.72">
        <ele>255.26538</ele>
        <time>2022-09-17T13:33:44.000Z</time>
      </trkpt>
      <trkpt lat="45.84274" lon="4.72002">
        <ele>255.78134</ele>
        <time>2022-09-17T13:33:45.000Z</time>
      </trkpt>
      <trkpt lat="45.84269" lon="4.72004">
        <ele>256.20767</ele>
        <time>2022-09-17T13:33:46.000Z</time>
      </trkpt>
      <trkpt lat="45.84265" lon="4.72008">
        <ele>256.61716</ele>
        <time>2022-09-17T13:33:47.000Z</time>
      </trkpt>
      <trkpt lat="45.8426" lon="4.72009">
        <ele>256.96487</ele>
        <time>2022-09-17T13:33:48.000Z</time>
      </trkpt>
      <trkpt lat="45.84257" lon="4.72013">
        <ele>257.2739</ele>
        <time>2022-09-17T13:33:49.000Z</time>
      </trkpt>
      <trkpt lat="45.84251" lon="4.72016">
        <ele>257.4754</ele>
        <time>2022-09-17T13:33:50.000Z</time>
      </trkpt>
      <trkpt lat="45.84246" lon="4.72018">
        <ele>257.57047</ele>
        <time>2022-09-17T13:33:51.000Z</time>
      </trkpt>
      <trkpt lat="45.84242" lon="4.72021">
        <ele>257.62726</ele>
        <time>2022-09-17T13:33:52.000Z</time>
      </trkpt>
      <trkpt lat="45.84238" lon="4.72023">
        <ele>257.76328</ele>
        <time>2022-09-17T13:33:53.000Z</time>
      </trkpt>
      <trkpt lat="45.84234" lon="4.72024">
        <ele>257.92227</ele>
        <time>2022-09-17T13:33:54.000Z</time>
      </trkpt>
      <trkpt lat="45.8423" lon="4.72026">
        <ele>258.1272</ele>
        <time>2022-09-17T13:33:55.000Z</time>
      </trkpt>
      <trkpt lat="45.84225" lon="4.7203">
        <ele>258.26556</ele>
        <time>2022-09-17T13:33:56.000Z</time>
      </trkpt>
      <trkpt lat="45.84221" lon="4.72033">
        <ele>258.56607</ele>
        <time>2022-09-17T13:33:57.000Z</time>
      </trkpt>
      <trkpt lat="45.84217" lon="4.72033">
        <ele>258.73856</ele>
        <time>2022-09-17T13:33:58.000Z</time>
      </trkpt>
      <trkpt lat="45.84213" lon="4.72035">
        <ele>258.89667</ele>
        <time>2022-09-17T13:33:59.000Z</time>
      </trkpt>
      <trkpt lat="45.84209" lon="4.72036">
        <ele>259.11499</ele>
        <time>2022-09-17T13:34:00.000Z</time>
      </trkpt>
      <trkpt lat="45.84205" lon="4.72039">
        <ele>259.30045</ele>
        <time>2022-09-17T13:34:01.000Z</time>
      </trkpt>
      <trkpt lat="45.84201" lon="4.72042">
        <ele>259.45438</ele>
        <time>2022-09-17T13:34:02.000Z</time>
      </trkpt>
      <trkpt lat="45.84199" lon="4.72046">
        <ele>259.60449</ele>
        <time>2022-09-17T13:34:03.000Z</time>
      </trkpt>
      <trkpt lat="45.84195" lon="4.72049">
        <ele>259.7825</ele>
        <time>2022-09-17T13:34:04.000Z</time>
      </trkpt>
      <trkpt lat="45.84191" lon="4.72052">
        <ele>259.9491</ele>
        <time>2022-09-17T13:34:05.000Z</time>
      </trkpt>
      <trkpt lat="45.84188" lon="4.72056">
        <ele>260.10339</ele>
        <time>2022-09-17T13:34:06.000Z</time>
      </trkpt>
      <trkpt lat="45.84184" lon="4.7206">
        <ele>260.25653</ele>
        <time>2022-09-17T13:34:07.000Z</time>
      </trkpt>
      <trkpt lat="45.84181" lon="4.72063">
        <ele>260.50473</ele>
        <time>2022-09-17T13:34:08.000Z</time>
      </trkpt>
      <trkpt lat="45.84177" lon="4.72067">
        <ele>260.77576</ele>
        <time>2022-09-17T13:34:09.000Z</time>
      </trkpt>
      <trkpt lat="45.84173" lon="4.72071">
        <ele>261.07782</ele>
        <time>2022-09-17T13:34:10.000Z</time>
      </trkpt>
      <trkpt lat="45.8417" lon="4.72075">
        <ele>261.36691</ele>
        <time>2022-09-17T13:34:11.000Z</time>
      </trkpt>
      <trkpt lat="45.84166" lon="4.72079">
        <ele>261.73349</ele>
        <time>2022-09-17T13:34:12.000Z</time>
      </trkpt>
      <trkpt lat="45.84163" lon="4.72082">
        <ele>261.99197</ele>
        <time>2022-09-17T13:34:13.000Z</time>
      </trkpt>
      <trkpt lat="45.8416" lon="4.72085">
        <ele>262.2373</ele>
        <time>2022-09-17T13:34:14.000Z</time>
      </trkpt>
      <trkpt lat="45.84156" lon="4.72089">
        <ele>262.44659</ele>
        <time>2022-09-17T13:34:15.000Z</time>
      </trkpt>
      <trkpt lat="45.84153" lon="4.72092">
        <ele>262.73605</ele>
        <time>2022-09-17T13:34:16.000Z</time>
      </trkpt>
      <trkpt lat="45.84149" lon="4.72095">
        <ele>262.97281</ele>
        <time>2022-09-17T13:34:17.000Z</time>
      </trkpt>
      <trkpt lat="45.84146" lon="4.72098">
        <ele>263.29633</ele>
        <time>2022-09-17T13:34:18.000Z</time>
      </trkpt>
      <trkpt lat="45.84142" lon="4.72101">
        <ele>263.55035</ele>
        <time>2022-09-17T13:34:19.000Z</time>
      </trkpt>
      <trkpt lat="45.84138" lon="4.72104">
        <ele>263.80264</ele>
        <time>2022-09-17T13:34:20.000Z</time>
      </trkpt>
      <trkpt lat="45.84135" lon="4.72107">
        <ele>264.09052</ele>
        <time>2022-09-17T13:34:21.000Z</time>
      </trkpt>
      <trkpt lat="45.84131" lon="4.7211">
        <ele>264.40057</ele>
        <time>2022-09-17T13:34:22.000Z</time>
      </trkpt>
      <trkpt lat="45.84128" lon="4.72112">
        <ele>264.60254</ele>
        <time>2022-09-17T13:34:23.000Z</time>
      </trkpt>
      <trkpt lat="45.84125" lon="4.72115">
        <ele>264.76697</ele>
        <time>2022-09-17T13:34:24.000Z</time>
      </trkpt>
      <trkpt lat="45.84122" lon="4.72117">
        <ele>264.94687</ele>
        <time>2022-09-17T13:34:25.000Z</time>
      </trkpt>
      <trkpt lat="45.84119" lon="4.72119">
        <ele>265.13156</ele>
        <time>2022-09-17T13:34:26.000Z</time>
      </trkpt>
      <trkpt lat="45.84116" lon="4.7212">
        <ele>265.29184</ele>
        <time>2022-09-17T13:34:27.000Z</time>
      </trkpt>
      <trkpt lat="45.84114" lon="4.72122">
        <ele>265.45236</ele>
        <time>2022-09-17T13:34:28.000Z</time>
      </trkpt>
      <trkpt lat="45.84111" lon="4.72124">
        <ele>265.66135</ele>
        <time>2022-09-17T13:34:29.000Z</time>
      </trkpt>
      <trkpt lat="45.84108" lon="4.72125">
        <ele>265.89313</ele>
        <time>2022-09-17T13:34:30.000Z</time>
      </trkpt>
      <trkpt lat="45.84104" lon="4.72126">
        <ele>266.11505</ele>
        <time>2022-09-17T13:34:31.000Z</time>
      </trkpt>
      <trkpt lat="45.84101" lon="4.72128">
        <ele>266.23169</ele>
        <time>2022-09-17T13:34:32.000Z</time>
      </trkpt>
      <trkpt lat="45.84098" lon="4.7213">
        <ele>266.37213</ele>
        <time>2022-09-17T13:34:33.000Z</time>
      </trkpt>
      <trkpt lat="45.84095" lon="4.72131">
        <ele>266.54279</ele>
        <time>2022-09-17T13:34:34.000Z</time>
      </trkpt>
      <trkpt lat="45.84092" lon="4.72133">
        <ele>266.71756</ele>
        <time>2022-09-17T13:34:35.000Z</time>
      </trkpt>
      <trkpt lat="45.8409" lon="4.72136">
        <ele>266.89941</ele>
        <time>2022-09-17T13:34:36.000Z</time>
      </trkpt>
      <trkpt lat="45.84087" lon="4.72139">
        <ele>267.16864</ele>
        <time>2022-09-17T13:34:37.000Z</time>
      </trkpt>
      <trkpt lat="45.84084" lon="4.72141">
        <ele>267.39584</ele>
        <time>2022-09-17T13:34:38.000Z</time>
      </trkpt>
      <trkpt lat="45.84081" lon="4.72144">
        <ele>267.51736</ele>
        <time>2022-09-17T13:34:39.000Z</time>
      </trkpt>
      <trkpt lat="45.84078" lon="4.72146">
        <ele>267.6618</ele>
        <time>2022-09-17T13:34:40.000Z</time>
      </trkpt>
      <trkpt lat="45.84074" lon="4.72148">
        <ele>267.69931</ele>
        <time>2022-09-17T13:34:41.000Z</time>
      </trkpt>
      <trkpt lat="45.8407" lon="4.72151">
        <ele>267.66064</ele>
        <time>2022-09-17T13:34:42.000Z</time>
      </trkpt>
      <trkpt lat="45.84067" lon="4.72153">
        <ele>267.67612</ele>
        <time>2022-09-17T13:34:43.000Z</time>
      </trkpt>
      <trkpt lat="45.84063" lon="4.72155">
        <ele>267.71515</ele>
        <time>2022-09-17T13:34:44.000Z</time>
      </trkpt>
      <trkpt lat="45.8406" lon="4.72157">
        <ele>267.72205</ele>
        <time>2022-09-17T13:34:45.000Z</time>
      </trkpt>
      <trkpt lat="45.84056" lon="4.72159">
        <ele>267.71826</ele>
        <time>2022-09-17T13:34:46.000Z</time>
      </trkpt>
      <trkpt lat="45.84052" lon="4.72161">
        <ele>267.69632</ele>
        <time>2022-09-17T13:34:47.000Z</time>
      </trkpt>
      <trkpt lat="45.84048" lon="4.72163">
        <ele>267.6026</ele>
        <time>2022-09-17T13:34:48.000Z</time>
      </trkpt>
      <trkpt lat="45.84044" lon="4.72164">
        <ele>267.50473</ele>
        <time>2022-09-17T13:34:49.000Z</time>
      </trkpt>
      <trkpt lat="45.8404" lon="4.72165">
        <ele>267.42157</ele>
        <time>2022-09-17T13:34:50.000Z</time>
      </trkpt>
      <trkpt lat="45.84036" lon="4.72166">
        <ele>267.27243</ele>
        <time>2022-09-17T13:34:51.000Z</time>
      </trkpt>
      <trkpt lat="45.84032" lon="4.72166">
        <ele>267.05222</ele>
        <time>2022-09-17T13:34:52.000Z</time>
      </trkpt>
      <trkpt lat="45.84029" lon="4.72166">
        <ele>266.80267</ele>
        <time>2022-09-17T13:34:53.000Z</time>
      </trkpt>
      <trkpt lat="45.84026" lon="4.72166">
        <ele>266.53302</ele>
        <time>2022-09-17T13:34:54.000Z</time>
      </trkpt>
      <trkpt lat="45.84023" lon="4.72166">
        <ele>266.3161</ele>
        <time>2022-09-17T13:34:55.000Z</time>
      </trkpt>
      <trkpt lat="45.84021" lon="4.72164">
        <ele>266.08478</ele>
        <time>2022-09-17T13:34:57.000Z</time>
      </trkpt>
      <trkpt lat="45.8402" lon="4.72162">
        <ele>265.93237</ele>
        <time>2022-09-17T13:35:16.000Z</time>
      </trkpt>
      <trkpt lat="45.84016" lon="4.72162">
        <ele>265.79092</ele>
        <time>2022-09-17T13:35:18.000Z</time>
      </trkpt>
      <trkpt lat="45.84013" lon="4.72162">
        <ele>265.80142</ele>
        <time>2022-09-17T13:35:19.000Z</time>
      </trkpt>
      <trkpt lat="45.8401" lon="4.72164">
        <ele>265.7193</ele>
        <time>2022-09-17T13:35:20.000Z</time>
      </trkpt>
      <trkpt lat="45.84007" lon="4.72165">
        <ele>265.65863</ele>
        <time>2022-09-17T13:35:21.000Z</time>
      </trkpt>
      <trkpt lat="45.84003" lon="4.72167">
        <ele>265.60413</ele>
        <time>2022-09-17T13:35:22.000Z</time>
      </trkpt>
      <trkpt lat="45.83999" lon="4.72167">
        <ele>265.59601</ele>
        <time>2022-09-17T13:35:23.000Z</time>
      </trkpt>
      <trkpt lat="45.83995" lon="4.72167">
        <ele>265.53247</ele>
        <time>2022-09-17T13:35:24.000Z</time>
      </trkpt>
      <trkpt lat="45.83991" lon="4.72167">
        <ele>265.53024</ele>
        <time>2022-09-17T13:35:25.000Z</time>
      </trkpt>
      <trkpt lat="45.83987" lon="4.72166">
        <ele>265.41858</ele>
        <time>2022-09-17T13:35:26.000Z</time>
      </trkpt>
      <trkpt lat="45.83983" lon="4.72165">
        <ele>265.31375</ele>
        <time>2022-09-17T13:35:27.000Z</time>
      </trkpt>
      <trkpt lat="45.8398" lon="4.72165">
        <ele>265.11255</ele>
        <time>2022-09-17T13:35:28.000Z</time>
      </trkpt>
      <trkpt lat="45.83976" lon="4.72164">
        <ele>264.8999</ele>
        <time>2022-09-17T13:35:29.000Z</time>
      </trkpt>
      <trkpt lat="45.83973" lon="4.72163">
        <ele>264.724</ele>
        <time>2022-09-17T13:35:30.000Z</time>
      </trkpt>
      <trkpt lat="45.83969" lon="4.72162">
        <ele>264.61731</ele>
        <time>2022-09-17T13:35:31.000Z</time>
      </trkpt>
      <trkpt lat="45.83964" lon="4.72161">
        <ele>264.66257</ele>
        <time>2022-09-17T13:35:32.000Z</time>
      </trkpt>
      <trkpt lat="45.83961" lon="4.72161">
        <ele>264.71207</ele>
        <time>2022-09-17T13:35:33.000Z</time>
      </trkpt>
      <trkpt lat="45.83957" lon="4.72161">
        <ele>264.79669</ele>
        <time>2022-09-17T13:35:34.000Z</time>
      </trkpt>
      <trkpt lat="45.83953" lon="4.7216">
        <ele>264.81784</ele>
        <time>2022-09-17T13:35:35.000Z</time>
      </trkpt>
      <trkpt lat="45.83949" lon="4.7216">
        <ele>264.83832</ele>
        <time>2022-09-17T13:35:36.000Z</time>
      </trkpt>
      <trkpt lat="45.83946" lon="4.72159">
        <ele>264.72446</ele>
        <time>2022-09-17T13:35:37.000Z</time>
      </trkpt>
      <trkpt lat="45.83942" lon="4.72159">
        <ele>264.53436</ele>
        <time>2022-09-17T13:35:38.000Z</time>
      </trkpt>
      <trkpt lat="45.83937" lon="4.72158">
        <ele>264.28009</ele>
        <time>2022-09-17T13:35:39.000Z</time>
      </trkpt>
      <trkpt lat="45.83933" lon="4.72157">
        <ele>264.0795</ele>
        <time>2022-09-17T13:35:40.000Z</time>
      </trkpt>
      <trkpt lat="45.83929" lon="4.72156">
        <ele>263.9007</ele>
        <time>2022-09-17T13:35:41.000Z</time>
      </trkpt>
      <trkpt lat="45.83925" lon="4.72154">
        <ele>263.78351</ele>
        <time>2022-09-17T13:35:42.000Z</time>
      </trkpt>
      <trkpt lat="45.83921" lon="4.72151">
        <ele>263.59857</ele>
        <time>2022-09-17T13:35:43.000Z</time>
      </trkpt>
      <trkpt lat="45.83917" lon="4.72149">
        <ele>263.51657</ele>
        <time>2022-09-17T13:35:44.000Z</time>
      </trkpt>
      <trkpt lat="45.83913" lon="4.72146">
        <ele>263.45569</ele>
        <time>2022-09-17T13:35:45.000Z</time>
      </trkpt>
      <trkpt lat="45.83909" lon="4.72143">
        <ele>263.577</ele>
        <time>2022-09-17T13:35:46.000Z</time>
      </trkpt>
      <trkpt lat="45.83906" lon="4.72141">
        <ele>263.70322</ele>
        <time>2022-09-17T13:35:47.000Z</time>
      </trkpt>
      <trkpt lat="45.83902" lon="4.72138">
        <ele>264.03564</ele>
        <time>2022-09-17T13:35:48.000Z</time>
      </trkpt>
      <trkpt lat="45.83898" lon="4.72135">
        <ele>264.37607</ele>
        <time>2022-09-17T13:35:49.000Z</time>
      </trkpt>
      <trkpt lat="45.83894" lon="4.72132">
        <ele>264.65491</ele>
        <time>2022-09-17T13:35:50.000Z</time>
      </trkpt>
      <trkpt lat="45.83891" lon="4.72129">
        <ele>264.90302</ele>
        <time>2022-09-17T13:35:51.000Z</time>
      </trkpt>
      <trkpt lat="45.83886" lon="4.72127">
        <ele>265.12082</ele>
        <time>2022-09-17T13:35:52.000Z</time>
      </trkpt>
      <trkpt lat="45.83882" lon="4.72125">
        <ele>265.36783</ele>
        <time>2022-09-17T13:35:53.000Z</time>
      </trkpt>
      <trkpt lat="45.83878" lon="4.72121">
        <ele>265.58777</ele>
        <time>2022-09-17T13:35:54.000Z</time>
      </trkpt>
      <trkpt lat="45.83874" lon="4.72119">
        <ele>265.83188</ele>
        <time>2022-09-17T13:35:55.000Z</time>
      </trkpt>
      <trkpt lat="45.83869" lon="4.72117">
        <ele>266.03113</ele>
        <time>2022-09-17T13:35:56.000Z</time>
      </trkpt>
      <trkpt lat="45.83865" lon="4.72114">
        <ele>266.2121</ele>
        <time>2022-09-17T13:35:57.000Z</time>
      </trkpt>
      <trkpt lat="45.83861" lon="4.72112">
        <ele>266.48419</ele>
        <time>2022-09-17T13:35:58.000Z</time>
      </trkpt>
      <trkpt lat="45.83856" lon="4.7211">
        <ele>266.78091</ele>
        <time>2022-09-17T13:35:59.000Z</time>
      </trkpt>
      <trkpt lat="45.83852" lon="4.72106">
        <ele>267.04053</ele>
        <time>2022-09-17T13:36:00.000Z</time>
      </trkpt>
      <trkpt lat="45.83848" lon="4.72102">
        <ele>267.27411</ele>
        <time>2022-09-17T13:36:01.000Z</time>
      </trkpt>
      <trkpt lat="45.83844" lon="4.72098">
        <ele>267.50635</ele>
        <time>2022-09-17T13:36:02.000Z</time>
      </trkpt>
      <trkpt lat="45.8384" lon="4.72096">
        <ele>267.78772</ele>
        <time>2022-09-17T13:36:03.000Z</time>
      </trkpt>
      <trkpt lat="45.83838" lon="4.72093">
        <ele>268.00388</ele>
        <time>2022-09-17T13:36:04.000Z</time>
      </trkpt>
      <trkpt lat="45.83836" lon="4.72089">
        <ele>268.1958</ele>
        <time>2022-09-17T13:36:05.000Z</time>
      </trkpt>
      <trkpt lat="45.83835" lon="4.72087">
        <ele>268.37021</ele>
        <time>2022-09-17T13:36:06.000Z</time>
      </trkpt>
      <trkpt lat="45.83833" lon="4.72084">
        <ele>268.56281</ele>
        <time>2022-09-17T13:36:07.000Z</time>
      </trkpt>
      <trkpt lat="45.83831" lon="4.72084">
        <ele>268.66852</ele>
        <time>2022-09-17T13:36:08.000Z</time>
      </trkpt>
      <trkpt lat="45.83828" lon="4.72085">
        <ele>268.74161</ele>
        <time>2022-09-17T13:36:09.000Z</time>
      </trkpt>
      <trkpt lat="45.83826" lon="4.72086">
        <ele>268.827</ele>
        <time>2022-09-17T13:36:10.000Z</time>
      </trkpt>
      <trkpt lat="45.83823" lon="4.72087">
        <ele>268.97369</ele>
        <time>2022-09-17T13:36:11.000Z</time>
      </trkpt>
      <trkpt lat="45.8382" lon="4.72086">
        <ele>269.09763</ele>
        <time>2022-09-17T13:36:12.000Z</time>
      </trkpt>
      <trkpt lat="45.83817" lon="4.72084">
        <ele>269.14764</ele>
        <time>2022-09-17T13:36:13.000Z</time>
      </trkpt>
      <trkpt lat="45.83813" lon="4.72081">
        <ele>269.16418</ele>
        <time>2022-09-17T13:36:14.000Z</time>
      </trkpt>
      <trkpt lat="45.8381" lon="4.72079">
        <ele>269.16888</ele>
        <time>2022-09-17T13:36:15.000Z</time>
      </trkpt>
      <trkpt lat="45.83806" lon="4.72076">
        <ele>269.19009</ele>
        <time>2022-09-17T13:36:16.000Z</time>
      </trkpt>
      <trkpt lat="45.83802" lon="4.72073">
        <ele>269.17615</ele>
        <time>2022-09-17T13:36:17.000Z</time>
      </trkpt>
      <trkpt lat="45.83798" lon="4.72071">
        <ele>269.1358</ele>
        <time>2022-09-17T13:36:18.000Z</time>
      </trkpt>
      <trkpt lat="45.83794" lon="4.72068">
        <ele>269.12503</ele>
        <time>2022-09-17T13:36:19.000Z</time>
      </trkpt>
      <trkpt lat="45.83789" lon="4.72065">
        <ele>269.1037</ele>
        <time>2022-09-17T13:36:20.000Z</time>
      </trkpt>
      <trkpt lat="45.83785" lon="4.72063">
        <ele>269.10135</ele>
        <time>2022-09-17T13:36:21.000Z</time>
      </trkpt>
      <trkpt lat="45.83781" lon="4.7206">
        <ele>269.09308</ele>
        <time>2022-09-17T13:36:22.000Z</time>
      </trkpt>
      <trkpt lat="45.83777" lon="4.72057">
        <ele>269.04355</ele>
        <time>2022-09-17T13:36:23.000Z</time>
      </trkpt>
      <trkpt lat="45.83773" lon="4.72055">
        <ele>269.01724</ele>
        <time>2022-09-17T13:36:24.000Z</time>
      </trkpt>
      <trkpt lat="45.83769" lon="4.72052">
        <ele>269.00116</ele>
        <time>2022-09-17T13:36:25.000Z</time>
      </trkpt>
      <trkpt lat="45.83765" lon="4.72049">
        <ele>268.92798</ele>
        <time>2022-09-17T13:36:26.000Z</time>
      </trkpt>
      <trkpt lat="45.83761" lon="4.72047">
        <ele>268.80911</ele>
        <time>2022-09-17T13:36:27.000Z</time>
      </trkpt>
      <trkpt lat="45.83756" lon="4.72045">
        <ele>268.64734</ele>
        <time>2022-09-17T13:36:28.000Z</time>
      </trkpt>
      <trkpt lat="45.83752" lon="4.72043">
        <ele>268.52652</ele>
        <time>2022-09-17T13:36:29.000Z</time>
      </trkpt>
      <trkpt lat="45.83747" lon="4.7204">
        <ele>268.39313</ele>
        <time>2022-09-17T13:36:30.000Z</time>
      </trkpt>
      <trkpt lat="45.83743" lon="4.72038">
        <ele>268.17914</ele>
        <time>2022-09-17T13:36:31.000Z</time>
      </trkpt>
      <trkpt lat="45.83738" lon="4.72037">
        <ele>267.98718</ele>
        <time>2022-09-17T13:36:32.000Z</time>
      </trkpt>
      <trkpt lat="45.83734" lon="4.72036">
        <ele>267.83508</ele>
        <time>2022-09-17T13:36:33.000Z</time>
      </trkpt>
      <trkpt lat="45.8373" lon="4.72033">
        <ele>267.66592</ele>
        <time>2022-09-17T13:36:34.000Z</time>
      </trkpt>
      <trkpt lat="45.83726" lon="4.72032">
        <ele>267.53387</ele>
        <time>2022-09-17T13:36:35.000Z</time>
      </trkpt>
      <trkpt lat="45.83722" lon="4.72031">
        <ele>267.4313</ele>
        <time>2022-09-17T13:36:36.000Z</time>
      </trkpt>
      <trkpt lat="45.83717" lon="4.7203">
        <ele>267.35669</ele>
        <time>2022-09-17T13:36:37.000Z</time>
      </trkpt>
      <trkpt lat="45.83713" lon="4.72029">
        <ele>267.37988</ele>
        <time>2022-09-17T13:36:38.000Z</time>
      </trkpt>
      <trkpt lat="45.83708" lon="4.72028">
        <ele>267.38</ele>
        <time>2022-09-17T13:36:39.000Z</time>
      </trkpt>
      <trkpt lat="45.83703" lon="4.72027">
        <ele>267.41791</ele>
        <time>2022-09-17T13:36:40.000Z</time>
      </trkpt>
      <trkpt lat="45.83698" lon="4.72026">
        <ele>267.46448</ele>
        <time>2022-09-17T13:36:41.000Z</time>
      </trkpt>
      <trkpt lat="45.83693" lon="4.72027">
        <ele>267.46365</ele>
        <time>2022-09-17T13:36:42.000Z</time>
      </trkpt>
      <trkpt lat="45.83688" lon="4.72028">
        <ele>267.50165</ele>
        <time>2022-09-17T13:36:43.000Z</time>
      </trkpt>
      <trkpt lat="45.83684" lon="4.72029">
        <ele>267.51398</ele>
        <time>2022-09-17T13:36:44.000Z</time>
      </trkpt>
      <trkpt lat="45.83679" lon="4.72029">
        <ele>267.51361</ele>
        <time>2022-09-17T13:36:45.000Z</time>
      </trkpt>
      <trkpt lat="45.83674" lon="4.7203">
        <ele>267.51605</ele>
        <time>2022-09-17T13:36:46.000Z</time>
      </trkpt>
      <trkpt lat="45.83669" lon="4.7203">
        <ele>267.50195</ele>
        <time>2022-09-17T13:36:47.000Z</time>
      </trkpt>
      <trkpt lat="45.83666" lon="4.7203">
        <ele>267.54529</ele>
        <time>2022-09-17T13:36:48.000Z</time>
      </trkpt>
      <trkpt lat="45.83661" lon="4.72031">
        <ele>267.53363</ele>
        <time>2022-09-17T13:36:49.000Z</time>
      </trkpt>
      <trkpt lat="45.83656" lon="4.72032">
        <ele>267.53351</ele>
        <time>2022-09-17T13:36:50.000Z</time>
      </trkpt>
      <trkpt lat="45.83651" lon="4.72033">
        <ele>267.5712</ele>
        <time>2022-09-17T13:36:51.000Z</time>
      </trkpt>
      <trkpt lat="45.83647" lon="4.72034">
        <ele>267.62039</ele>
        <time>2022-09-17T13:36:52.000Z</time>
      </trkpt>
      <trkpt lat="45.83643" lon="4.72034">
        <ele>267.66919</ele>
        <time>2022-09-17T13:36:53.000Z</time>
      </trkpt>
      <trkpt lat="45.8364" lon="4.72036">
        <ele>267.74313</ele>
        <time>2022-09-17T13:36:54.000Z</time>
      </trkpt>
      <trkpt lat="45.83636" lon="4.72037">
        <ele>267.77734</ele>
        <time>2022-09-17T13:36:55.000Z</time>
      </trkpt>
      <trkpt lat="45.83633" lon="4.72038">
        <ele>267.78778</ele>
        <time>2022-09-17T13:36:56.000Z</time>
      </trkpt>
      <trkpt lat="45.8363" lon="4.72038">
        <ele>267.84875</ele>
        <time>2022-09-17T13:36:57.000Z</time>
      </trkpt>
      <trkpt lat="45.83627" lon="4.72038">
        <ele>267.85474</ele>
        <time>2022-09-17T13:36:58.000Z</time>
      </trkpt>
      <trkpt lat="45.83624" lon="4.72038">
        <ele>267.86737</ele>
        <time>2022-09-17T13:36:59.000Z</time>
      </trkpt>
      <trkpt lat="45.8362" lon="4.72039">
        <ele>267.88605</ele>
        <time>2022-09-17T13:37:00.000Z</time>
      </trkpt>
      <trkpt lat="45.83617" lon="4.72039">
        <ele>267.94305</ele>
        <time>2022-09-17T13:37:01.000Z</time>
      </trkpt>
      <trkpt lat="45.83609" lon="4.72041">
        <ele>268.03036</ele>
        <time>2022-09-17T13:37:03.000Z</time>
      </trkpt>
      <trkpt lat="45.83605" lon="4.72042">
        <ele>268.06207</ele>
        <time>2022-09-17T13:37:04.000Z</time>
      </trkpt>
      <trkpt lat="45.83601" lon="4.72043">
        <ele>268.12552</ele>
        <time>2022-09-17T13:37:05.000Z</time>
      </trkpt>
      <trkpt lat="45.83597" lon="4.72044">
        <ele>268.17191</ele>
        <time>2022-09-17T13:37:06.000Z</time>
      </trkpt>
      <trkpt lat="45.83593" lon="4.72045">
        <ele>268.24878</ele>
        <time>2022-09-17T13:37:07.000Z</time>
      </trkpt>
      <trkpt lat="45.83588" lon="4.72046">
        <ele>268.37628</ele>
        <time>2022-09-17T13:37:08.000Z</time>
      </trkpt>
      <trkpt lat="45.83584" lon="4.72049">
        <ele>268.3985</ele>
        <time>2022-09-17T13:37:09.000Z</time>
      </trkpt>
      <trkpt lat="45.83579" lon="4.7205">
        <ele>268.42535</ele>
        <time>2022-09-17T13:37:10.000Z</time>
      </trkpt>
      <trkpt lat="45.83575" lon="4.7205">
        <ele>268.45703</ele>
        <time>2022-09-17T13:37:11.000Z</time>
      </trkpt>
      <trkpt lat="45.83571" lon="4.72051">
        <ele>268.51419</ele>
        <time>2022-09-17T13:37:12.000Z</time>
      </trkpt>
      <trkpt lat="45.83567" lon="4.7205">
        <ele>268.56042</ele>
        <time>2022-09-17T13:37:13.000Z</time>
      </trkpt>
      <trkpt lat="45.83563" lon="4.72051">
        <ele>268.62427</ele>
        <time>2022-09-17T13:37:14.000Z</time>
      </trkpt>
      <trkpt lat="45.83558" lon="4.72051">
        <ele>268.67609</ele>
        <time>2022-09-17T13:37:15.000Z</time>
      </trkpt>
      <trkpt lat="45.83554" lon="4.72052">
        <ele>268.67474</ele>
        <time>2022-09-17T13:37:16.000Z</time>
      </trkpt>
      <trkpt lat="45.83548" lon="4.72052">
        <ele>268.6655</ele>
        <time>2022-09-17T13:37:17.000Z</time>
      </trkpt>
      <trkpt lat="45.83544" lon="4.72053">
        <ele>268.60443</ele>
        <time>2022-09-17T13:37:18.000Z</time>
      </trkpt>
      <trkpt lat="45.83539" lon="4.72054">
        <ele>268.51904</ele>
        <time>2022-09-17T13:37:19.000Z</time>
      </trkpt>
      <trkpt lat="45.83534" lon="4.72053">
        <ele>268.44244</ele>
        <time>2022-09-17T13:37:20.000Z</time>
      </trkpt>
      <trkpt lat="45.83529" lon="4.72054">
        <ele>268.41306</ele>
        <time>2022-09-17T13:37:21.000Z</time>
      </trkpt>
      <trkpt lat="45.83525" lon="4.72055">
        <ele>268.30838</ele>
        <time>2022-09-17T13:37:22.000Z</time>
      </trkpt>
      <trkpt lat="45.83521" lon="4.72055">
        <ele>268.20453</ele>
        <time>2022-09-17T13:37:23.000Z</time>
      </trkpt>
      <trkpt lat="45.83516" lon="4.72055">
        <ele>268.14191</ele>
        <time>2022-09-17T13:37:24.000Z</time>
      </trkpt>
      <trkpt lat="45.83513" lon="4.72057">
        <ele>267.92136</ele>
        <time>2022-09-17T13:37:25.000Z</time>
      </trkpt>
      <trkpt lat="45.83509" lon="4.72056">
        <ele>267.71243</ele>
        <time>2022-09-17T13:37:26.000Z</time>
      </trkpt>
      <trkpt lat="45.83505" lon="4.72057">
        <ele>267.48392</ele>
        <time>2022-09-17T13:37:27.000Z</time>
      </trkpt>
      <trkpt lat="45.835" lon="4.72057">
        <ele>267.21741</ele>
        <time>2022-09-17T13:37:28.000Z</time>
      </trkpt>
      <trkpt lat="45.83496" lon="4.72057">
        <ele>267.03107</ele>
        <time>2022-09-17T13:37:29.000Z</time>
      </trkpt>
      <trkpt lat="45.83491" lon="4.72057">
        <ele>266.90384</ele>
        <time>2022-09-17T13:37:30.000Z</time>
      </trkpt>
      <trkpt lat="45.83488" lon="4.72058">
        <ele>266.74246</ele>
        <time>2022-09-17T13:37:31.000Z</time>
      </trkpt>
      <trkpt lat="45.83483" lon="4.72058">
        <ele>266.59912</ele>
        <time>2022-09-17T13:37:32.000Z</time>
      </trkpt>
      <trkpt lat="45.83478" lon="4.72057">
        <ele>266.46783</ele>
        <time>2022-09-17T13:37:33.000Z</time>
      </trkpt>
      <trkpt lat="45.83473" lon="4.72056">
        <ele>266.33185</ele>
        <time>2022-09-17T13:37:34.000Z</time>
      </trkpt>
      <trkpt lat="45.8347" lon="4.72059">
        <ele>266.07666</ele>
        <time>2022-09-17T13:37:35.000Z</time>
      </trkpt>
      <trkpt lat="45.83465" lon="4.72059">
        <ele>265.89133</ele>
        <time>2022-09-17T13:37:36.000Z</time>
      </trkpt>
      <trkpt lat="45.83461" lon="4.72057">
        <ele>265.71594</ele>
        <time>2022-09-17T13:37:37.000Z</time>
      </trkpt>
      <trkpt lat="45.83457" lon="4.72056">
        <ele>265.52957</ele>
        <time>2022-09-17T13:37:38.000Z</time>
      </trkpt>
      <trkpt lat="45.83453" lon="4.72053">
        <ele>265.33002</ele>
        <time>2022-09-17T13:37:39.000Z</time>
      </trkpt>
      <trkpt lat="45.8345" lon="4.72048">
        <ele>265.16714</ele>
        <time>2022-09-17T13:37:40.000Z</time>
      </trkpt>
      <trkpt lat="45.83448" lon="4.72043">
        <ele>265.02145</ele>
        <time>2022-09-17T13:37:41.000Z</time>
      </trkpt>
      <trkpt lat="45.83446" lon="4.72036">
        <ele>264.92169</ele>
        <time>2022-09-17T13:37:42.000Z</time>
      </trkpt>
      <trkpt lat="45.83445" lon="4.72029">
        <ele>264.83783</ele>
        <time>2022-09-17T13:37:43.000Z</time>
      </trkpt>
      <trkpt lat="45.83446" lon="4.72021">
        <ele>264.78915</ele>
        <time>2022-09-17T13:37:44.000Z</time>
      </trkpt>
      <trkpt lat="45.83448" lon="4.72015">
        <ele>264.89795</ele>
        <time>2022-09-17T13:37:45.000Z</time>
      </trkpt>
      <trkpt lat="45.83451" lon="4.72009">
        <ele>265.08981</ele>
        <time>2022-09-17T13:37:46.000Z</time>
      </trkpt>
      <trkpt lat="45.83453" lon="4.72001">
        <ele>265.30109</ele>
        <time>2022-09-17T13:37:47.000Z</time>
      </trkpt>
      <trkpt lat="45.83455" lon="4.71993">
        <ele>265.5174</ele>
        <time>2022-09-17T13:37:48.000Z</time>
      </trkpt>
      <trkpt lat="45.83456" lon="4.71984">
        <ele>265.73865</ele>
        <time>2022-09-17T13:37:49.000Z</time>
      </trkpt>
      <trkpt lat="45.83459" lon="4.71976">
        <ele>265.92267</ele>
        <time>2022-09-17T13:37:50.000Z</time>
      </trkpt>
      <trkpt lat="45.83461" lon="4.71968">
        <ele>266.06863</ele>
        <time>2022-09-17T13:37:51.000Z</time>
      </trkpt>
      <trkpt lat="45.83465" lon="4.7196">
        <ele>266.09222</ele>
        <time>2022-09-17T13:37:52.000Z</time>
      </trkpt>
      <trkpt lat="45.83467" lon="4.7195">
        <ele>266.11786</ele>
        <time>2022-09-17T13:37:53.000Z</time>
      </trkpt>
      <trkpt lat="45.83469" lon="4.7194">
        <ele>266.05432</ele>
        <time>2022-09-17T13:37:54.000Z</time>
      </trkpt>
      <trkpt lat="45.83471" lon="4.7193">
        <ele>266.03717</ele>
        <time>2022-09-17T13:37:55.000Z</time>
      </trkpt>
      <trkpt lat="45.83474" lon="4.71919">
        <ele>266.00626</ele>
        <time>2022-09-17T13:37:56.000Z</time>
      </trkpt>
      <trkpt lat="45.83475" lon="4.71911">
        <ele>265.85638</ele>
        <time>2022-09-17T13:37:57.000Z</time>
      </trkpt>
      <trkpt lat="45.83478" lon="4.71902">
        <ele>265.68552</ele>
        <time>2022-09-17T13:37:58.000Z</time>
      </trkpt>
      <trkpt lat="45.83481" lon="4.71892">
        <ele>265.49408</ele>
        <time>2022-09-17T13:37:59.000Z</time>
      </trkpt>
      <trkpt lat="45.83483" lon="4.71881">
        <ele>265.24533</ele>
        <time>2022-09-17T13:38:00.000Z</time>
      </trkpt>
      <trkpt lat="45.83481" lon="4.7187">
        <ele>264.94757</ele>
        <time>2022-09-17T13:38:01.000Z</time>
      </trkpt>
      <trkpt lat="45.83478" lon="4.71861">
        <ele>264.64719</ele>
        <time>2022-09-17T13:38:02.000Z</time>
      </trkpt>
      <trkpt lat="45.83474" lon="4.71852">
        <ele>264.33939</ele>
        <time>2022-09-17T13:38:03.000Z</time>
      </trkpt>
      <trkpt lat="45.83469" lon="4.71842">
        <ele>263.97467</ele>
        <time>2022-09-17T13:38:04.000Z</time>
      </trkpt>
      <trkpt lat="45.83466" lon="4.71831">
        <ele>263.52533</ele>
        <time>2022-09-17T13:38:05.000Z</time>
      </trkpt>
      <trkpt lat="45.83462" lon="4.71821">
        <ele>262.99612</ele>
        <time>2022-09-17T13:38:06.000Z</time>
      </trkpt>
      <trkpt lat="45.83457" lon="4.71811">
        <ele>262.39255</ele>
        <time>2022-09-17T13:38:07.000Z</time>
      </trkpt>
      <trkpt lat="45.83454" lon="4.71801">
        <ele>261.82745</ele>
        <time>2022-09-17T13:38:08.000Z</time>
      </trkpt>
      <trkpt lat="45.83451" lon="4.7179">
        <ele>261.23978</ele>
        <time>2022-09-17T13:38:09.000Z</time>
      </trkpt>
      <trkpt lat="45.83447" lon="4.71778">
        <ele>260.65344</ele>
        <time>2022-09-17T13:38:10.000Z</time>
      </trkpt>
      <trkpt lat="45.83442" lon="4.71764">
        <ele>260.10748</ele>
        <time>2022-09-17T13:38:11.000Z</time>
      </trkpt>
      <trkpt lat="45.83441" lon="4.71754">
        <ele>259.64172</ele>
        <time>2022-09-17T13:38:12.000Z</time>
      </trkpt>
      <trkpt lat="45.83438" lon="4.71742">
        <ele>259.22272</ele>
        <time>2022-09-17T13:38:13.000Z</time>
      </trkpt>
      <trkpt lat="45.83435" lon="4.71729">
        <ele>258.91168</ele>
        <time>2022-09-17T13:38:14.000Z</time>
      </trkpt>
      <trkpt lat="45.83432" lon="4.71717">
        <ele>258.65076</ele>
        <time>2022-09-17T13:38:15.000Z</time>
      </trkpt>
      <trkpt lat="45.83429" lon="4.71709">
        <ele>258.4917</ele>
        <time>2022-09-17T13:38:16.000Z</time>
      </trkpt>
      <trkpt lat="45.83426" lon="4.71699">
        <ele>258.46027</ele>
        <time>2022-09-17T13:38:17.000Z</time>
      </trkpt>
      <trkpt lat="45.83424" lon="4.7169">
        <ele>258.46701</ele>
        <time>2022-09-17T13:38:18.000Z</time>
      </trkpt>
      <trkpt lat="45.83423" lon="4.71682">
        <ele>258.57718</ele>
        <time>2022-09-17T13:38:19.000Z</time>
      </trkpt>
      <trkpt lat="45.83421" lon="4.71675">
        <ele>258.79935</ele>
        <time>2022-09-17T13:38:20.000Z</time>
      </trkpt>
      <trkpt lat="45.83419" lon="4.71668">
        <ele>259.07843</ele>
        <time>2022-09-17T13:38:21.000Z</time>
      </trkpt>
      <trkpt lat="45.83418" lon="4.71661">
        <ele>259.35281</ele>
        <time>2022-09-17T13:38:22.000Z</time>
      </trkpt>
      <trkpt lat="45.83416" lon="4.71655">
        <ele>259.6441</ele>
        <time>2022-09-17T13:38:23.000Z</time>
      </trkpt>
      <trkpt lat="45.83415" lon="4.71648">
        <ele>260.00513</ele>
        <time>2022-09-17T13:38:24.000Z</time>
      </trkpt>
      <trkpt lat="45.83414" lon="4.7164">
        <ele>260.4664</ele>
        <time>2022-09-17T13:38:25.000Z</time>
      </trkpt>
      <trkpt lat="45.83412" lon="4.71632">
        <ele>260.88513</ele>
        <time>2022-09-17T13:38:26.000Z</time>
      </trkpt>
      <trkpt lat="45.83411" lon="4.71625">
        <ele>261.34659</ele>
        <time>2022-09-17T13:38:27.000Z</time>
      </trkpt>
      <trkpt lat="45.8341" lon="4.71617">
        <ele>261.75198</ele>
        <time>2022-09-17T13:38:28.000Z</time>
      </trkpt>
      <trkpt lat="45.83408" lon="4.7161">
        <ele>262.16357</ele>
        <time>2022-09-17T13:38:29.000Z</time>
      </trkpt>
      <trkpt lat="45.83407" lon="4.71602">
        <ele>262.65967</ele>
        <time>2022-09-17T13:38:30.000Z</time>
      </trkpt>
      <trkpt lat="45.83405" lon="4.71592">
        <ele>263.18759</ele>
        <time>2022-09-17T13:38:31.000Z</time>
      </trkpt>
      <trkpt lat="45.834" lon="4.71584">
        <ele>264.08212</ele>
        <time>2022-09-17T13:38:32.000Z</time>
      </trkpt>
      <trkpt lat="45.83395" lon="4.71581">
        <ele>264.7963</ele>
        <time>2022-09-17T13:38:33.000Z</time>
      </trkpt>
      <trkpt lat="45.83389" lon="4.7158">
        <ele>265.37665</ele>
        <time>2022-09-17T13:38:34.000Z</time>
      </trkpt>
      <trkpt lat="45.83383" lon="4.71581">
        <ele>265.98309</ele>
        <time>2022-09-17T13:38:35.000Z</time>
      </trkpt>
      <trkpt lat="45.83379" lon="4.71586">
        <ele>266.43546</ele>
        <time>2022-09-17T13:38:36.000Z</time>
      </trkpt>
      <trkpt lat="45.83375" lon="4.71591">
        <ele>266.85645</ele>
        <time>2022-09-17T13:38:37.000Z</time>
      </trkpt>
      <trkpt lat="45.83372" lon="4.716">
        <ele>267.32425</ele>
        <time>2022-09-17T13:38:38.000Z</time>
      </trkpt>
      <trkpt lat="45.8337" lon="4.71608">
        <ele>267.73685</ele>
        <time>2022-09-17T13:38:39.000Z</time>
      </trkpt>
      <trkpt lat="45.83367" lon="4.71616">
        <ele>268.09012</ele>
        <time>2022-09-17T13:38:40.000Z</time>
      </trkpt>
      <trkpt lat="45.83364" lon="4.7162">
        <ele>268.43359</ele>
        <time>2022-09-17T13:38:41.000Z</time>
      </trkpt>
      <trkpt lat="45.8336" lon="4.7162">
        <ele>268.80646</ele>
        <time>2022-09-17T13:38:42.000Z</time>
      </trkpt>
      <trkpt lat="45.83358" lon="4.71615">
        <ele>269.20856</ele>
        <time>2022-09-17T13:38:43.000Z</time>
      </trkpt>
      <trkpt lat="45.83357" lon="4.71607">
        <ele>269.50363</ele>
        <time>2022-09-17T13:38:44.000Z</time>
      </trkpt>
      <trkpt lat="45.8336" lon="4.71604">
        <ele>269.81</ele>
        <time>2022-09-17T13:38:45.000Z</time>
      </trkpt>
      <trkpt lat="45.83363" lon="4.71596">
        <ele>270.14435</ele>
        <time>2022-09-17T13:38:46.000Z</time>
      </trkpt>
      <trkpt lat="45.83365" lon="4.71589">
        <ele>270.47992</ele>
        <time>2022-09-17T13:38:47.000Z</time>
      </trkpt>
      <trkpt lat="45.83368" lon="4.71581">
        <ele>270.79755</ele>
        <time>2022-09-17T13:38:48.000Z</time>
      </trkpt>
      <trkpt lat="45.83371" lon="4.71577">
        <ele>271.18588</ele>
        <time>2022-09-17T13:38:49.000Z</time>
      </trkpt>
      <trkpt lat="45.83374" lon="4.71571">
        <ele>271.46671</ele>
        <time>2022-09-17T13:38:50.000Z</time>
      </trkpt>
      <trkpt lat="45.83377" lon="4.71564">
        <ele>271.7121</ele>
        <time>2022-09-17T13:38:51.000Z</time>
      </trkpt>
      <trkpt lat="45.83381" lon="4.71559">
        <ele>271.59552</ele>
        <time>2022-09-17T13:38:52.000Z</time>
      </trkpt>
      <trkpt lat="45.83385" lon="4.71556">
        <ele>271.5119</ele>
        <time>2022-09-17T13:38:53.000Z</time>
      </trkpt>
      <trkpt lat="45.83389" lon="4.71554">
        <ele>271.51263</ele>
        <time>2022-09-17T13:38:54.000Z</time>
      </trkpt>
      <trkpt lat="45.83391" lon="4.71555">
        <ele>271.54221</ele>
        <time>2022-09-17T13:38:55.000Z</time>
      </trkpt>
      <trkpt lat="45.83396" lon="4.71557">
        <ele>271.70801</ele>
        <time>2022-09-17T13:38:56.000Z</time>
      </trkpt>
      <trkpt lat="45.834" lon="4.7156">
        <ele>271.94479</ele>
        <time>2022-09-17T13:38:57.000Z</time>
      </trkpt>
      <trkpt lat="45.83403" lon="4.71566">
        <ele>272.10684</ele>
        <time>2022-09-17T13:38:58.000Z</time>
      </trkpt>
      <trkpt lat="45.83407" lon="4.71567">
        <ele>272.29605</ele>
        <time>2022-09-17T13:38:59.000Z</time>
      </trkpt>
      <trkpt lat="45.8341" lon="4.71571">
        <ele>272.47021</ele>
        <time>2022-09-17T13:39:00.000Z</time>
      </trkpt>
      <trkpt lat="45.83414" lon="4.71575">
        <ele>272.64548</ele>
        <time>2022-09-17T13:39:01.000Z</time>
      </trkpt>
      <trkpt lat="45.83417" lon="4.7158">
        <ele>272.82706</ele>
        <time>2022-09-17T13:39:02.000Z</time>
      </trkpt>
      <trkpt lat="45.83421" lon="4.71583">
        <ele>272.94888</ele>
        <time>2022-09-17T13:39:03.000Z</time>
      </trkpt>
      <trkpt lat="45.83425" lon="4.71586">
        <ele>273.11072</ele>
        <time>2022-09-17T13:39:04.000Z</time>
      </trkpt>
      <trkpt lat="45.83428" lon="4.71589">
        <ele>273.22479</ele>
        <time>2022-09-17T13:39:05.000Z</time>
      </trkpt>
      <trkpt lat="45.83432" lon="4.71591">
        <ele>273.30927</ele>
        <time>2022-09-17T13:39:06.000Z</time>
      </trkpt>
      <trkpt lat="45.83435" lon="4.71593">
        <ele>273.44641</ele>
        <time>2022-09-17T13:39:07.000Z</time>
      </trkpt>
      <trkpt lat="45.83438" lon="4.71595">
        <ele>273.64444</ele>
        <time>2022-09-17T13:39:08.000Z</time>
      </trkpt>
      <trkpt lat="45.83441" lon="4.71597">
        <ele>273.70624</ele>
        <time>2022-09-17T13:39:09.000Z</time>
      </trkpt>
      <trkpt lat="45.83444" lon="4.71598">
        <ele>273.82898</ele>
        <time>2022-09-17T13:39:10.000Z</time>
      </trkpt>
      <trkpt lat="45.83448" lon="4.71599">
        <ele>273.96164</ele>
        <time>2022-09-17T13:39:11.000Z</time>
      </trkpt>
      <trkpt lat="45.83451" lon="4.716">
        <ele>274.11469</ele>
        <time>2022-09-17T13:39:12.000Z</time>
      </trkpt>
      <trkpt lat="45.83455" lon="4.716">
        <ele>274.34424</ele>
        <time>2022-09-17T13:39:13.000Z</time>
      </trkpt>
      <trkpt lat="45.83459" lon="4.71599">
        <ele>274.54703</ele>
        <time>2022-09-17T13:39:14.000Z</time>
      </trkpt>
      <trkpt lat="45.83463" lon="4.71598">
        <ele>274.75671</ele>
        <time>2022-09-17T13:39:15.000Z</time>
      </trkpt>
      <trkpt lat="45.83467" lon="4.71597">
        <ele>274.8349</ele>
        <time>2022-09-17T13:39:16.000Z</time>
      </trkpt>
      <trkpt lat="45.83471" lon="4.71594">
        <ele>274.88135</ele>
        <time>2022-09-17T13:39:17.000Z</time>
      </trkpt>
      <trkpt lat="45.83475" lon="4.71592">
        <ele>274.94925</ele>
        <time>2022-09-17T13:39:18.000Z</time>
      </trkpt>
      <trkpt lat="45.83478" lon="4.7159">
        <ele>274.96732</ele>
        <time>2022-09-17T13:39:19.000Z</time>
      </trkpt>
      <trkpt lat="45.83482" lon="4.71587">
        <ele>274.92389</ele>
        <time>2022-09-17T13:39:20.000Z</time>
      </trkpt>
      <trkpt lat="45.83486" lon="4.71585">
        <ele>274.84906</ele>
        <time>2022-09-17T13:39:21.000Z</time>
      </trkpt>
      <trkpt lat="45.83489" lon="4.71582">
        <ele>274.76404</ele>
        <time>2022-09-17T13:39:22.000Z</time>
      </trkpt>
      <trkpt lat="45.83493" lon="4.71578">
        <ele>274.77252</ele>
        <time>2022-09-17T13:39:23.000Z</time>
      </trkpt>
      <trkpt lat="45.83497" lon="4.71575">
        <ele>274.88287</ele>
        <time>2022-09-17T13:39:24.000Z</time>
      </trkpt>
      <trkpt lat="45.835" lon="4.71572">
        <ele>274.9859</ele>
        <time>2022-09-17T13:39:25.000Z</time>
      </trkpt>
      <trkpt lat="45.83504" lon="4.71569">
        <ele>275.17389</ele>
        <time>2022-09-17T13:39:26.000Z</time>
      </trkpt>
      <trkpt lat="45.83508" lon="4.71566">
        <ele>275.32971</ele>
        <time>2022-09-17T13:39:27.000Z</time>
      </trkpt>
      <trkpt lat="45.83511" lon="4.71563">
        <ele>275.43643</ele>
        <time>2022-09-17T13:39:28.000Z</time>
      </trkpt>
      <trkpt lat="45.83515" lon="4.7156">
        <ele>275.66031</ele>
        <time>2022-09-17T13:39:29.000Z</time>
      </trkpt>
      <trkpt lat="45.83518" lon="4.71557">
        <ele>275.88788</ele>
        <time>2022-09-17T13:39:30.000Z</time>
      </trkpt>
      <trkpt lat="45.83522" lon="4.71554">
        <ele>276.14313</ele>
        <time>2022-09-17T13:39:31.000Z</time>
      </trkpt>
      <trkpt lat="45.83525" lon="4.71552">
        <ele>276.66235</ele>
        <time>2022-09-17T13:39:32.000Z</time>
      </trkpt>
      <trkpt lat="45.83529" lon="4.71548">
        <ele>277.11877</ele>
        <time>2022-09-17T13:39:33.000Z</time>
      </trkpt>
      <trkpt lat="45.83533" lon="4.71546">
        <ele>277.58118</ele>
        <time>2022-09-17T13:39:34.000Z</time>
      </trkpt>
      <trkpt lat="45.83538" lon="4.71543">
        <ele>277.97824</ele>
        <time>2022-09-17T13:39:35.000Z</time>
      </trkpt>
      <trkpt lat="45.83543" lon="4.71539">
        <ele>278.4169</ele>
        <time>2022-09-17T13:39:36.000Z</time>
      </trkpt>
      <trkpt lat="45.83547" lon="4.71536">
        <ele>278.86865</ele>
        <time>2022-09-17T13:39:37.000Z</time>
      </trkpt>
      <trkpt lat="45.8355" lon="4.71532">
        <ele>279.28976</ele>
        <time>2022-09-17T13:39:38.000Z</time>
      </trkpt>
      <trkpt lat="45.83555" lon="4.71529">
        <ele>279.72699</ele>
        <time>2022-09-17T13:39:39.000Z</time>
      </trkpt>
      <trkpt lat="45.83559" lon="4.71526">
        <ele>280.20938</ele>
        <time>2022-09-17T13:39:40.000Z</time>
      </trkpt>
      <trkpt lat="45.83563" lon="4.71523">
        <ele>280.68106</ele>
        <time>2022-09-17T13:39:41.000Z</time>
      </trkpt>
      <trkpt lat="45.83564" lon="4.71521">
        <ele>281.02817</ele>
        <time>2022-09-17T13:39:42.000Z</time>
      </trkpt>
      <trkpt lat="45.83569" lon="4.71518">
        <ele>281.2865</ele>
        <time>2022-09-17T13:39:43.000Z</time>
      </trkpt>
      <trkpt lat="45.83572" lon="4.71515">
        <ele>281.45737</ele>
        <time>2022-09-17T13:39:44.000Z</time>
      </trkpt>
      <trkpt lat="45.83576" lon="4.71511">
        <ele>281.68573</ele>
        <time>2022-09-17T13:39:45.000Z</time>
      </trkpt>
      <trkpt lat="45.8358" lon="4.71509">
        <ele>281.90991</ele>
        <time>2022-09-17T13:39:46.000Z</time>
      </trkpt>
      <trkpt lat="45.83584" lon="4.71505">
        <ele>282.1535</ele>
        <time>2022-09-17T13:39:47.000Z</time>
      </trkpt>
      <trkpt lat="45.83589" lon="4.71502">
        <ele>282.41776</ele>
        <time>2022-09-17T13:39:48.000Z</time>
      </trkpt>
      <trkpt lat="45.83592" lon="4.71499">
        <ele>282.65714</ele>
        <time>2022-09-17T13:39:49.000Z</time>
      </trkpt>
      <trkpt lat="45.83595" lon="4.71498">
        <ele>282.70999</ele>
        <time>2022-09-17T13:39:50.000Z</time>
      </trkpt>
      <trkpt lat="45.83599" lon="4.71494">
        <ele>282.76196</ele>
        <time>2022-09-17T13:39:51.000Z</time>
      </trkpt>
      <trkpt lat="45.83603" lon="4.71491">
        <ele>282.87701</ele>
        <time>2022-09-17T13:39:52.000Z</time>
      </trkpt>
      <trkpt lat="45.83607" lon="4.71488">
        <ele>282.98889</ele>
        <time>2022-09-17T13:39:53.000Z</time>
      </trkpt>
      <trkpt lat="45.83611" lon="4.71483">
        <ele>283.104</ele>
        <time>2022-09-17T13:39:54.000Z</time>
      </trkpt>
      <trkpt lat="45.83614" lon="4.71479">
        <ele>283.21738</ele>
        <time>2022-09-17T13:39:55.000Z</time>
      </trkpt>
      <trkpt lat="45.83617" lon="4.71473">
        <ele>283.33252</ele>
        <time>2022-09-17T13:39:56.000Z</time>
      </trkpt>
      <trkpt lat="45.83619" lon="4.71468">
        <ele>283.41241</ele>
        <time>2022-09-17T13:39:57.000Z</time>
      </trkpt>
      <trkpt lat="45.83622" lon="4.71461">
        <ele>283.56009</ele>
        <time>2022-09-17T13:39:58.000Z</time>
      </trkpt>
      <trkpt lat="45.83625" lon="4.71454">
        <ele>283.67877</ele>
        <time>2022-09-17T13:39:59.000Z</time>
      </trkpt>
      <trkpt lat="45.83629" lon="4.71448">
        <ele>283.65634</ele>
        <time>2022-09-17T13:40:00.000Z</time>
      </trkpt>
      <trkpt lat="45.83632" lon="4.7144">
        <ele>283.73026</ele>
        <time>2022-09-17T13:40:01.000Z</time>
      </trkpt>
      <trkpt lat="45.83634" lon="4.71433">
        <ele>283.91562</ele>
        <time>2022-09-17T13:40:02.000Z</time>
      </trkpt>
      <trkpt lat="45.83637" lon="4.71429">
        <ele>284.10748</ele>
        <time>2022-09-17T13:40:03.000Z</time>
      </trkpt>
      <trkpt lat="45.83639" lon="4.71423">
        <ele>284.29388</ele>
        <time>2022-09-17T13:40:04.000Z</time>
      </trkpt>
      <trkpt lat="45.83641" lon="4.71416">
        <ele>284.43994</ele>
        <time>2022-09-17T13:40:05.000Z</time>
      </trkpt>
      <trkpt lat="45.83644" lon="4.71405">
        <ele>284.59354</ele>
        <time>2022-09-17T13:40:06.000Z</time>
      </trkpt>
      <trkpt lat="45.83644" lon="4.71397">
        <ele>284.65875</ele>
        <time>2022-09-17T13:40:07.000Z</time>
      </trkpt>
      <trkpt lat="45.83645" lon="4.71389">
        <ele>284.76428</ele>
        <time>2022-09-17T13:40:08.000Z</time>
      </trkpt>
      <trkpt lat="45.83647" lon="4.71382">
        <ele>284.86176</ele>
        <time>2022-09-17T13:40:09.000Z</time>
      </trkpt>
      <trkpt lat="45.83648" lon="4.71374">
        <ele>285.12189</ele>
        <time>2022-09-17T13:40:10.000Z</time>
      </trkpt>
      <trkpt lat="45.83648" lon="4.71367">
        <ele>285.35068</ele>
        <time>2022-09-17T13:40:11.000Z</time>
      </trkpt>
      <trkpt lat="45.83645" lon="4.7136">
        <ele>285.34515</ele>
        <time>2022-09-17T13:40:12.000Z</time>
      </trkpt>
      <trkpt lat="45.83646" lon="4.71354">
        <ele>285.30377</ele>
        <time>2022-09-17T13:40:13.000Z</time>
      </trkpt>
      <trkpt lat="45.83648" lon="4.71348">
        <ele>285.26236</ele>
        <time>2022-09-17T13:40:14.000Z</time>
      </trkpt>
      <trkpt lat="45.83651" lon="4.71339">
        <ele>285.16718</ele>
        <time>2022-09-17T13:40:15.000Z</time>
      </trkpt>
      <trkpt lat="45.83653" lon="4.71333">
        <ele>285.05658</ele>
        <time>2022-09-17T13:40:16.000Z</time>
      </trkpt>
      <trkpt lat="45.83654" lon="4.71326">
        <ele>284.8938</ele>
        <time>2022-09-17T13:40:17.000Z</time>
      </trkpt>
      <trkpt lat="45.83656" lon="4.7132">
        <ele>284.61887</ele>
        <time>2022-09-17T13:40:18.000Z</time>
      </trkpt>
      <trkpt lat="45.83658" lon="4.71313">
        <ele>284.34235</ele>
        <time>2022-09-17T13:40:19.000Z</time>
      </trkpt>
      <trkpt lat="45.8366" lon="4.71306">
        <ele>284.20615</ele>
        <time>2022-09-17T13:40:20.000Z</time>
      </trkpt>
      <trkpt lat="45.83662" lon="4.71298">
        <ele>283.96939</ele>
        <time>2022-09-17T13:40:21.000Z</time>
      </trkpt>
      <trkpt lat="45.83663" lon="4.7129">
        <ele>283.64355</ele>
        <time>2022-09-17T13:40:22.000Z</time>
      </trkpt>
      <trkpt lat="45.83664" lon="4.71284">
        <ele>283.3317</ele>
        <time>2022-09-17T13:40:23.000Z</time>
      </trkpt>
      <trkpt lat="45.83666" lon="4.71277">
        <ele>283.05597</ele>
        <time>2022-09-17T13:40:24.000Z</time>
      </trkpt>
      <trkpt lat="45.83666" lon="4.71269">
        <ele>282.75616</ele>
        <time>2022-09-17T13:40:25.000Z</time>
      </trkpt>
      <trkpt lat="45.83667" lon="4.71263">
        <ele>282.42297</ele>
        <time>2022-09-17T13:40:26.000Z</time>
      </trkpt>
      <trkpt lat="45.83669" lon="4.71258">
        <ele>282.12604</ele>
        <time>2022-09-17T13:40:27.000Z</time>
      </trkpt>
      <trkpt lat="45.83671" lon="4.71252">
        <ele>281.78839</ele>
        <time>2022-09-17T13:40:28.000Z</time>
      </trkpt>
      <trkpt lat="45.8367" lon="4.71247">
        <ele>281.41516</ele>
        <time>2022-09-17T13:40:29.000Z</time>
      </trkpt>
      <trkpt lat="45.83671" lon="4.71241">
        <ele>281.05804</ele>
        <time>2022-09-17T13:40:30.000Z</time>
      </trkpt>
      <trkpt lat="45.83674" lon="4.71236">
        <ele>280.75137</ele>
        <time>2022-09-17T13:40:31.000Z</time>
      </trkpt>
      <trkpt lat="45.83674" lon="4.71231">
        <ele>280.29288</ele>
        <time>2022-09-17T13:40:32.000Z</time>
      </trkpt>
      <trkpt lat="45.83676" lon="4.71227">
        <ele>279.97531</ele>
        <time>2022-09-17T13:40:33.000Z</time>
      </trkpt>
      <trkpt lat="45.83678" lon="4.71223">
        <ele>279.85641</ele>
        <time>2022-09-17T13:40:34.000Z</time>
      </trkpt>
      <trkpt lat="45.83679" lon="4.7122">
        <ele>279.81689</ele>
        <time>2022-09-17T13:40:35.000Z</time>
      </trkpt>
      <trkpt lat="45.83678" lon="4.71217">
        <ele>279.74756</ele>
        <time>2022-09-17T13:40:36.000Z</time>
      </trkpt>
      <trkpt lat="45.83677" lon="4.71214">
        <ele>279.75693</ele>
        <time>2022-09-17T13:40:37.000Z</time>
      </trkpt>
      <trkpt lat="45.83675" lon="4.71213">
        <ele>279.8642</ele>
        <time>2022-09-17T13:40:38.000Z</time>
      </trkpt>
      <trkpt lat="45.83673" lon="4.71212">
        <ele>279.98572</ele>
        <time>2022-09-17T13:40:39.000Z</time>
      </trkpt>
      <trkpt lat="45.8367" lon="4.71212">
        <ele>280.03882</ele>
        <time>2022-09-17T13:40:40.000Z</time>
      </trkpt>
      <trkpt lat="45.83667" lon="4.71211">
        <ele>280.08286</ele>
        <time>2022-09-17T13:40:41.000Z</time>
      </trkpt>
      <trkpt lat="45.83665" lon="4.71211">
        <ele>280.17407</ele>
        <time>2022-09-17T13:40:42.000Z</time>
      </trkpt>
      <trkpt lat="45.83662" lon="4.71209">
        <ele>280.32016</ele>
        <time>2022-09-17T13:40:44.000Z</time>
      </trkpt>
      <trkpt lat="45.83661" lon="4.71208">
        <ele>280.50909</ele>
        <time>2022-09-17T13:40:46.000Z</time>
      </trkpt>
      <trkpt lat="45.83663" lon="4.71209">
        <ele>280.74905</ele>
        <time>2022-09-17T13:40:53.000Z</time>
      </trkpt>
      <trkpt lat="45.83661" lon="4.71207">
        <ele>280.84393</ele>
        <time>2022-09-17T13:40:57.000Z</time>
      </trkpt>
      <trkpt lat="45.83658" lon="4.71208">
        <ele>280.86066</ele>
        <time>2022-09-17T13:40:59.000Z</time>
      </trkpt>
      <trkpt lat="45.83657" lon="4.71209">
        <ele>280.89935</ele>
        <time>2022-09-17T13:41:03.000Z</time>
      </trkpt>
      <trkpt lat="45.83655" lon="4.7121">
        <ele>281.08597</ele>
        <time>2022-09-17T13:41:22.000Z</time>
      </trkpt>
      <trkpt lat="45.83651" lon="4.71207">
        <ele>281.2735</ele>
        <time>2022-09-17T13:41:24.000Z</time>
      </trkpt>
      <trkpt lat="45.83649" lon="4.71205">
        <ele>281.4346</ele>
        <time>2022-09-17T13:41:25.000Z</time>
      </trkpt>
      <trkpt lat="45.83648" lon="4.71203">
        <ele>281.63885</ele>
        <time>2022-09-17T13:41:26.000Z</time>
      </trkpt>
      <trkpt lat="45.83646" lon="4.71201">
        <ele>281.90033</ele>
        <time>2022-09-17T13:41:27.000Z</time>
      </trkpt>
      <trkpt lat="45.83644" lon="4.712">
        <ele>282.02188</ele>
        <time>2022-09-17T13:41:28.000Z</time>
      </trkpt>
      <trkpt lat="45.83642" lon="4.71199">
        <ele>282.1958</ele>
        <time>2022-09-17T13:41:29.000Z</time>
      </trkpt>
      <trkpt lat="45.8364" lon="4.71198">
        <ele>282.55264</ele>
        <time>2022-09-17T13:41:30.000Z</time>
      </trkpt>
      <trkpt lat="45.83638" lon="4.71197">
        <ele>282.94473</ele>
        <time>2022-09-17T13:41:31.000Z</time>
      </trkpt>
      <trkpt lat="45.83635" lon="4.71196">
        <ele>283.25186</ele>
        <time>2022-09-17T13:41:32.000Z</time>
      </trkpt>
      <trkpt lat="45.83633" lon="4.71195">
        <ele>283.53897</ele>
        <time>2022-09-17T13:41:33.000Z</time>
      </trkpt>
      <trkpt lat="45.83631" lon="4.71192">
        <ele>283.8764</ele>
        <time>2022-09-17T13:41:34.000Z</time>
      </trkpt>
      <trkpt lat="45.83629" lon="4.7119">
        <ele>284.13974</ele>
        <time>2022-09-17T13:41:35.000Z</time>
      </trkpt>
      <trkpt lat="45.83626" lon="4.71187">
        <ele>284.47711</ele>
        <time>2022-09-17T13:41:36.000Z</time>
      </trkpt>
      <trkpt lat="45.83624" lon="4.71185">
        <ele>284.79327</ele>
        <time>2022-09-17T13:41:37.000Z</time>
      </trkpt>
      <trkpt lat="45.83621" lon="4.71182">
        <ele>285.02783</ele>
        <time>2022-09-17T13:41:38.000Z</time>
      </trkpt>
      <trkpt lat="45.83618" lon="4.7118">
        <ele>285.0354</ele>
        <time>2022-09-17T13:41:39.000Z</time>
      </trkpt>
      <trkpt lat="45.83614" lon="4.71178">
        <ele>285.13977</ele>
        <time>2022-09-17T13:41:40.000Z</time>
      </trkpt>
      <trkpt lat="45.83611" lon="4.71175">
        <ele>285.22122</ele>
        <time>2022-09-17T13:41:41.000Z</time>
      </trkpt>
      <trkpt lat="45.83608" lon="4.71173">
        <ele>285.40384</ele>
        <time>2022-09-17T13:41:42.000Z</time>
      </trkpt>
      <trkpt lat="45.83605" lon="4.7117">
        <ele>285.48334</ele>
        <time>2022-09-17T13:41:43.000Z</time>
      </trkpt>
      <trkpt lat="45.83602" lon="4.71168">
        <ele>285.56311</ele>
        <time>2022-09-17T13:41:44.000Z</time>
      </trkpt>
      <trkpt lat="45.83599" lon="4.71166">
        <ele>285.67105</ele>
        <time>2022-09-17T13:41:45.000Z</time>
      </trkpt>
      <trkpt lat="45.83595" lon="4.71164">
        <ele>285.81451</ele>
        <time>2022-09-17T13:41:46.000Z</time>
      </trkpt>
      <trkpt lat="45.83592" lon="4.71163">
        <ele>285.90225</ele>
        <time>2022-09-17T13:41:47.000Z</time>
      </trkpt>
      <trkpt lat="45.83589" lon="4.71161">
        <ele>286</ele>
        <time>2022-09-17T13:41:48.000Z</time>
      </trkpt>
      <trkpt lat="45.83585" lon="4.7116">
        <ele>286.06927</ele>
        <time>2022-09-17T13:41:49.000Z</time>
      </trkpt>
      <trkpt lat="45.83582" lon="4.71158">
        <ele>286.07925</ele>
        <time>2022-09-17T13:41:50.000Z</time>
      </trkpt>
      <trkpt lat="45.83579" lon="4.71156">
        <ele>286.05826</ele>
        <time>2022-09-17T13:41:51.000Z</time>
      </trkpt>
      <trkpt lat="45.83576" lon="4.71153">
        <ele>286.09906</ele>
        <time>2022-09-17T13:41:52.000Z</time>
      </trkpt>
      <trkpt lat="45.83573" lon="4.71151">
        <ele>286.20538</ele>
        <time>2022-09-17T13:41:53.000Z</time>
      </trkpt>
      <trkpt lat="45.83571" lon="4.71147">
        <ele>286.35065</ele>
        <time>2022-09-17T13:41:54.000Z</time>
      </trkpt>
      <trkpt lat="45.83569" lon="4.71142">
        <ele>286.59036</ele>
        <time>2022-09-17T13:41:55.000Z</time>
      </trkpt>
      <trkpt lat="45.83568" lon="4.71136">
        <ele>286.76157</ele>
        <time>2022-09-17T13:41:56.000Z</time>
      </trkpt>
      <trkpt lat="45.83569" lon="4.7113">
        <ele>286.90668</ele>
        <time>2022-09-17T13:41:57.000Z</time>
      </trkpt>
      <trkpt lat="45.8357" lon="4.71124">
        <ele>287.0618</ele>
        <time>2022-09-17T13:41:58.000Z</time>
      </trkpt>
      <trkpt lat="45.83572" lon="4.71119">
        <ele>287.39966</ele>
        <time>2022-09-17T13:41:59.000Z</time>
      </trkpt>
      <trkpt lat="45.83574" lon="4.71113">
        <ele>287.72159</ele>
        <time>2022-09-17T13:42:00.000Z</time>
      </trkpt>
      <trkpt lat="45.83576" lon="4.71108">
        <ele>288.17996</ele>
        <time>2022-09-17T13:42:01.000Z</time>
      </trkpt>
      <trkpt lat="45.83578" lon="4.71103">
        <ele>288.54803</ele>
        <time>2022-09-17T13:42:02.000Z</time>
      </trkpt>
      <trkpt lat="45.83579" lon="4.71097">
        <ele>288.90732</ele>
        <time>2022-09-17T13:42:03.000Z</time>
      </trkpt>
      <trkpt lat="45.8358" lon="4.71092">
        <ele>289.23029</ele>
        <time>2022-09-17T13:42:04.000Z</time>
      </trkpt>
      <trkpt lat="45.83582" lon="4.71086">
        <ele>289.51022</ele>
        <time>2022-09-17T13:42:05.000Z</time>
      </trkpt>
      <trkpt lat="45.83583" lon="4.71081">
        <ele>289.75955</ele>
        <time>2022-09-17T13:42:06.000Z</time>
      </trkpt>
      <trkpt lat="45.83584" lon="4.71075">
        <ele>289.96967</ele>
        <time>2022-09-17T13:42:07.000Z</time>
      </trkpt>
      <trkpt lat="45.83587" lon="4.7107">
        <ele>290.17743</ele>
        <time>2022-09-17T13:42:08.000Z</time>
      </trkpt>
      <trkpt lat="45.83589" lon="4.71066">
        <ele>290.3808</ele>
        <time>2022-09-17T13:42:09.000Z</time>
      </trkpt>
      <trkpt lat="45.83591" lon="4.71062">
        <ele>290.53876</ele>
        <time>2022-09-17T13:42:10.000Z</time>
      </trkpt>
      <trkpt lat="45.83592" lon="4.71058">
        <ele>290.65616</ele>
        <time>2022-09-17T13:42:11.000Z</time>
      </trkpt>
      <trkpt lat="45.83593" lon="4.71055">
        <ele>290.7829</ele>
        <time>2022-09-17T13:42:12.000Z</time>
      </trkpt>
      <trkpt lat="45.83594" lon="4.71051">
        <ele>290.89294</ele>
        <time>2022-09-17T13:42:13.000Z</time>
      </trkpt>
      <trkpt lat="45.83593" lon="4.71047">
        <ele>290.99005</ele>
        <time>2022-09-17T13:42:14.000Z</time>
      </trkpt>
      <trkpt lat="45.83591" lon="4.71044">
        <ele>291.08392</ele>
        <time>2022-09-17T13:42:15.000Z</time>
      </trkpt>
      <trkpt lat="45.83587" lon="4.71041">
        <ele>291.2413</ele>
        <time>2022-09-17T13:42:16.000Z</time>
      </trkpt>
      <trkpt lat="45.83583" lon="4.71041">
        <ele>291.40826</ele>
        <time>2022-09-17T13:42:17.000Z</time>
      </trkpt>
      <trkpt lat="45.83579" lon="4.71041">
        <ele>291.59314</ele>
        <time>2022-09-17T13:42:18.000Z</time>
      </trkpt>
      <trkpt lat="45.83575" lon="4.71039">
        <ele>291.80988</ele>
        <time>2022-09-17T13:42:19.000Z</time>
      </trkpt>
      <trkpt lat="45.83571" lon="4.71038">
        <ele>292.06522</ele>
        <time>2022-09-17T13:42:20.000Z</time>
      </trkpt>
      <trkpt lat="45.83567" lon="4.71035">
        <ele>292.24744</ele>
        <time>2022-09-17T13:42:21.000Z</time>
      </trkpt>
      <trkpt lat="45.83563" lon="4.71032">
        <ele>292.30728</ele>
        <time>2022-09-17T13:42:22.000Z</time>
      </trkpt>
      <trkpt lat="45.83559" lon="4.71029">
        <ele>292.33627</ele>
        <time>2022-09-17T13:42:23.000Z</time>
      </trkpt>
      <trkpt lat="45.83555" lon="4.71027">
        <ele>292.45209</ele>
        <time>2022-09-17T13:42:24.000Z</time>
      </trkpt>
      <trkpt lat="45.83551" lon="4.71024">
        <ele>292.59738</ele>
        <time>2022-09-17T13:42:25.000Z</time>
      </trkpt>
      <trkpt lat="45.83547" lon="4.71022">
        <ele>292.70529</ele>
        <time>2022-09-17T13:42:26.000Z</time>
      </trkpt>
      <trkpt lat="45.83543" lon="4.71018">
        <ele>292.80167</ele>
        <time>2022-09-17T13:42:27.000Z</time>
      </trkpt>
      <trkpt lat="45.83539" lon="4.71015">
        <ele>292.92856</ele>
        <time>2022-09-17T13:42:28.000Z</time>
      </trkpt>
      <trkpt lat="45.83535" lon="4.71012">
        <ele>293.06808</ele>
        <time>2022-09-17T13:42:29.000Z</time>
      </trkpt>
      <trkpt lat="45.8353" lon="4.71007">
        <ele>293.2114</ele>
        <time>2022-09-17T13:42:30.000Z</time>
      </trkpt>
      <trkpt lat="45.83525" lon="4.71003">
        <ele>293.34805</ele>
        <time>2022-09-17T13:42:31.000Z</time>
      </trkpt>
      <trkpt lat="45.83521" lon="4.71">
        <ele>293.46628</ele>
        <time>2022-09-17T13:42:32.000Z</time>
      </trkpt>
      <trkpt lat="45.83516" lon="4.70996">
        <ele>293.62573</ele>
        <time>2022-09-17T13:42:33.000Z</time>
      </trkpt>
      <trkpt lat="45.83511" lon="4.70993">
        <ele>293.70291</ele>
        <time>2022-09-17T13:42:34.000Z</time>
      </trkpt>
      <trkpt lat="45.83505" lon="4.70991">
        <ele>293.81952</ele>
        <time>2022-09-17T13:42:35.000Z</time>
      </trkpt>
      <trkpt lat="45.83501" lon="4.70989">
        <ele>293.95886</ele>
        <time>2022-09-17T13:42:36.000Z</time>
      </trkpt>
      <trkpt lat="45.83495" lon="4.70988">
        <ele>294.08719</ele>
        <time>2022-09-17T13:42:37.000Z</time>
      </trkpt>
      <trkpt lat="45.83489" lon="4.70987">
        <ele>294.23471</ele>
        <time>2022-09-17T13:42:38.000Z</time>
      </trkpt>
      <trkpt lat="45.83484" lon="4.70987">
        <ele>294.34772</ele>
        <time>2022-09-17T13:42:39.000Z</time>
      </trkpt>
      <trkpt lat="45.83478" lon="4.70987">
        <ele>294.50296</ele>
        <time>2022-09-17T13:42:40.000Z</time>
      </trkpt>
      <trkpt lat="45.83472" lon="4.70988">
        <ele>294.69427</ele>
        <time>2022-09-17T13:42:41.000Z</time>
      </trkpt>
      <trkpt lat="45.83466" lon="4.70988">
        <ele>294.98294</ele>
        <time>2022-09-17T13:42:42.000Z</time>
      </trkpt>
      <trkpt lat="45.83461" lon="4.70988">
        <ele>295.30792</ele>
        <time>2022-09-17T13:42:43.000Z</time>
      </trkpt>
      <trkpt lat="45.83454" lon="4.70988">
        <ele>295.57101</ele>
        <time>2022-09-17T13:42:44.000Z</time>
      </trkpt>
      <trkpt lat="45.83448" lon="4.70988">
        <ele>295.82614</ele>
        <time>2022-09-17T13:42:45.000Z</time>
      </trkpt>
      <trkpt lat="45.83442" lon="4.70988">
        <ele>296.1333</ele>
        <time>2022-09-17T13:42:46.000Z</time>
      </trkpt>
      <trkpt lat="45.83439" lon="4.7099">
        <ele>296.39603</ele>
        <time>2022-09-17T13:42:47.000Z</time>
      </trkpt>
      <trkpt lat="45.83435" lon="4.7099">
        <ele>296.64069</ele>
        <time>2022-09-17T13:42:48.000Z</time>
      </trkpt>
      <trkpt lat="45.83408" lon="4.7099">
        <ele>297.04013</ele>
        <time>2022-09-17T13:42:53.000Z</time>
      </trkpt>
      <trkpt lat="45.83403" lon="4.7099">
        <ele>297.42734</ele>
        <time>2022-09-17T13:42:54.000Z</time>
      </trkpt>
      <trkpt lat="45.83398" lon="4.7099">
        <ele>297.84662</ele>
        <time>2022-09-17T13:42:55.000Z</time>
      </trkpt>
      <trkpt lat="45.83392" lon="4.70991">
        <ele>298.32645</ele>
        <time>2022-09-17T13:42:56.000Z</time>
      </trkpt>
      <trkpt lat="45.83387" lon="4.70993">
        <ele>298.76691</ele>
        <time>2022-09-17T13:42:57.000Z</time>
      </trkpt>
      <trkpt lat="45.83381" lon="4.70994">
        <ele>299.29486</ele>
        <time>2022-09-17T13:42:58.000Z</time>
      </trkpt>
      <trkpt lat="45.83376" lon="4.70995">
        <ele>299.81836</ele>
        <time>2022-09-17T13:42:59.000Z</time>
      </trkpt>
      <trkpt lat="45.83369" lon="4.70996">
        <ele>300.24597</ele>
        <time>2022-09-17T13:43:00.000Z</time>
      </trkpt>
      <trkpt lat="45.83364" lon="4.70996">
        <ele>300.67395</ele>
        <time>2022-09-17T13:43:01.000Z</time>
      </trkpt>
      <trkpt lat="45.83358" lon="4.70996">
        <ele>301.14038</ele>
        <time>2022-09-17T13:43:02.000Z</time>
      </trkpt>
      <trkpt lat="45.83354" lon="4.70996">
        <ele>301.57407</ele>
        <time>2022-09-17T13:43:03.000Z</time>
      </trkpt>
      <trkpt lat="45.83349" lon="4.70996">
        <ele>301.95929</ele>
        <time>2022-09-17T13:43:04.000Z</time>
      </trkpt>
      <trkpt lat="45.83344" lon="4.70996">
        <ele>302.35504</ele>
        <time>2022-09-17T13:43:05.000Z</time>
      </trkpt>
      <trkpt lat="45.83338" lon="4.70997">
        <ele>302.71133</ele>
        <time>2022-09-17T13:43:06.000Z</time>
      </trkpt>
      <trkpt lat="45.83334" lon="4.70999">
        <ele>303.05112</ele>
        <time>2022-09-17T13:43:07.000Z</time>
      </trkpt>
      <trkpt lat="45.83331" lon="4.70999">
        <ele>303.40143</ele>
        <time>2022-09-17T13:43:08.000Z</time>
      </trkpt>
      <trkpt lat="45.83326" lon="4.70997">
        <ele>303.6402</ele>
        <time>2022-09-17T13:43:10.000Z</time>
      </trkpt>
      <trkpt lat="45.83323" lon="4.70994">
        <ele>303.7764</ele>
        <time>2022-09-17T13:43:11.000Z</time>
      </trkpt>
      <trkpt lat="45.8332" lon="4.70995">
        <ele>303.97174</ele>
        <time>2022-09-17T13:43:12.000Z</time>
      </trkpt>
      <trkpt lat="45.83318" lon="4.70994">
        <ele>304.10132</ele>
        <time>2022-09-17T13:43:13.000Z</time>
      </trkpt>
      <trkpt lat="45.83316" lon="4.70988">
        <ele>303.96671</ele>
        <time>2022-09-17T13:43:14.000Z</time>
      </trkpt>
      <trkpt lat="45.83314" lon="4.70987">
        <ele>303.79205</ele>
        <time>2022-09-17T13:43:15.000Z</time>
      </trkpt>
      <trkpt lat="45.83313" lon="4.70984">
        <ele>303.66425</ele>
        <time>2022-09-17T13:43:17.000Z</time>
      </trkpt>
    </trkseg>
  </trk>
</gpx>